<?xml version="1.0" encoding="UTF-8" standalone="no" ?>
<gpx xmlns="http://www.topografix.com/GPX/1/1" xmlns:xsi="http://www.w3.org/2001/XMLSchema-instance" xsi:schemaLocation="http://www.topografix.com/GPX/1/1 http://www.topografix.com/GPX/1/1/gpx.xsd" version="1.1" creator="VisuGPX - https://www.visugpx.com">
  <metadata>
    <name>2022-06-11 07:29:20 Jour</name>
  </metadata>
  <trk>
    <name><![CDATA[2022-06-11 07:29:20 Jour]]></name>
    <trkseg>
      <trkpt lat="43.34994" lon="5.45443">
        <ele>296.31</ele>
        <time>2022-06-11T05:29:20Z</time>
      </trkpt>
      <trkpt lat="43.35014" lon="5.45521">
        <ele>296.31</ele>
        <time>2022-06-11T05:29:21Z</time>
      </trkpt>
      <trkpt lat="43.34964" lon="5.45524">
        <ele>295.79</ele>
        <time>2022-06-11T05:29:50Z</time>
      </trkpt>
      <trkpt lat="43.34966" lon="5.4553">
        <ele>295.53</ele>
        <time>2022-06-11T05:29:53Z</time>
      </trkpt>
      <trkpt lat="43.34975" lon="5.45537">
        <ele>295.47</ele>
        <time>2022-06-11T05:29:55Z</time>
      </trkpt>
      <trkpt lat="43.34981" lon="5.45542">
        <ele>295.4</ele>
        <time>2022-06-11T05:29:56Z</time>
      </trkpt>
      <trkpt lat="43.3502" lon="5.45573">
        <ele>297.65</ele>
        <time>2022-06-11T05:30:02Z</time>
      </trkpt>
      <trkpt lat="43.35025" lon="5.45578">
        <ele>297.6</ele>
        <time>2022-06-11T05:30:03Z</time>
      </trkpt>
      <trkpt lat="43.35031" lon="5.45582">
        <ele>297.52</ele>
        <time>2022-06-11T05:30:04Z</time>
      </trkpt>
      <trkpt lat="43.35038" lon="5.45585">
        <ele>298.3</ele>
        <time>2022-06-11T05:30:05Z</time>
      </trkpt>
      <trkpt lat="43.35045" lon="5.45588">
        <ele>298.25</ele>
        <time>2022-06-11T05:30:06Z</time>
      </trkpt>
      <trkpt lat="43.35073" lon="5.456">
        <ele>299.85</ele>
        <time>2022-06-11T05:30:09Z</time>
      </trkpt>
      <trkpt lat="43.35139" lon="5.45631">
        <ele>300.46</ele>
        <time>2022-06-11T05:30:17Z</time>
      </trkpt>
      <trkpt lat="43.35171" lon="5.45652">
        <ele>301.8</ele>
        <time>2022-06-11T05:30:21Z</time>
      </trkpt>
      <trkpt lat="43.35176" lon="5.45657">
        <ele>301.77</ele>
        <time>2022-06-11T05:30:22Z</time>
      </trkpt>
      <trkpt lat="43.35179" lon="5.45663">
        <ele>301.67</ele>
        <time>2022-06-11T05:30:23Z</time>
      </trkpt>
      <trkpt lat="43.35181" lon="5.4567">
        <ele>301.65</ele>
        <time>2022-06-11T05:30:24Z</time>
      </trkpt>
      <trkpt lat="43.35182" lon="5.45691">
        <ele>301.52</ele>
        <time>2022-06-11T05:30:26Z</time>
      </trkpt>
      <trkpt lat="43.35184" lon="5.45704">
        <ele>301.45</ele>
        <time>2022-06-11T05:30:27Z</time>
      </trkpt>
      <trkpt lat="43.35196" lon="5.45757">
        <ele>297.95</ele>
        <time>2022-06-11T05:30:31Z</time>
      </trkpt>
      <trkpt lat="43.35199" lon="5.4577">
        <ele>297.88</ele>
        <time>2022-06-11T05:30:32Z</time>
      </trkpt>
      <trkpt lat="43.35201" lon="5.45783">
        <ele>295.78</ele>
        <time>2022-06-11T05:30:33Z</time>
      </trkpt>
      <trkpt lat="43.35201" lon="5.45795">
        <ele>294.43</ele>
        <time>2022-06-11T05:30:34Z</time>
      </trkpt>
      <trkpt lat="43.35198" lon="5.45807">
        <ele>293.48</ele>
        <time>2022-06-11T05:30:35Z</time>
      </trkpt>
      <trkpt lat="43.35193" lon="5.45819">
        <ele>293.36</ele>
        <time>2022-06-11T05:30:36Z</time>
      </trkpt>
      <trkpt lat="43.35186" lon="5.4583">
        <ele>292.24</ele>
        <time>2022-06-11T05:30:37Z</time>
      </trkpt>
      <trkpt lat="43.35178" lon="5.4584">
        <ele>292.19</ele>
        <time>2022-06-11T05:30:38Z</time>
      </trkpt>
      <trkpt lat="43.35169" lon="5.4585">
        <ele>290.94</ele>
        <time>2022-06-11T05:30:39Z</time>
      </trkpt>
      <trkpt lat="43.3516" lon="5.45859">
        <ele>289.57</ele>
        <time>2022-06-11T05:30:40Z</time>
      </trkpt>
      <trkpt lat="43.35151" lon="5.45865">
        <ele>288.19</ele>
        <time>2022-06-11T05:30:41Z</time>
      </trkpt>
      <trkpt lat="43.35142" lon="5.4587">
        <ele>286.94</ele>
        <time>2022-06-11T05:30:42Z</time>
      </trkpt>
      <trkpt lat="43.35134" lon="5.45877">
        <ele>284.76</ele>
        <time>2022-06-11T05:30:43Z</time>
      </trkpt>
      <trkpt lat="43.35128" lon="5.45886">
        <ele>283.55</ele>
        <time>2022-06-11T05:30:44Z</time>
      </trkpt>
      <trkpt lat="43.35123" lon="5.45899">
        <ele>282.11</ele>
        <time>2022-06-11T05:30:45Z</time>
      </trkpt>
      <trkpt lat="43.35119" lon="5.45913">
        <ele>280.65</ele>
        <time>2022-06-11T05:30:46Z</time>
      </trkpt>
      <trkpt lat="43.35113" lon="5.45926">
        <ele>279.52</ele>
        <time>2022-06-11T05:30:47Z</time>
      </trkpt>
      <trkpt lat="43.35105" lon="5.45938">
        <ele>279.33</ele>
        <time>2022-06-11T05:30:48Z</time>
      </trkpt>
      <trkpt lat="43.35096" lon="5.45948">
        <ele>278.31</ele>
        <time>2022-06-11T05:30:49Z</time>
      </trkpt>
      <trkpt lat="43.35086" lon="5.45957">
        <ele>278.24</ele>
        <time>2022-06-11T05:30:50Z</time>
      </trkpt>
      <trkpt lat="43.35069" lon="5.45974">
        <ele>276.86</ele>
        <time>2022-06-11T05:30:52Z</time>
      </trkpt>
      <trkpt lat="43.35053" lon="5.45989">
        <ele>275.58</ele>
        <time>2022-06-11T05:30:54Z</time>
      </trkpt>
      <trkpt lat="43.35046" lon="5.45999">
        <ele>275.52</ele>
        <time>2022-06-11T05:30:55Z</time>
      </trkpt>
      <trkpt lat="43.35038" lon="5.46012">
        <ele>275.37</ele>
        <time>2022-06-11T05:30:56Z</time>
      </trkpt>
      <trkpt lat="43.35022" lon="5.46042">
        <ele>277.6</ele>
        <time>2022-06-11T05:30:58Z</time>
      </trkpt>
      <trkpt lat="43.34995" lon="5.46091">
        <ele>277.45</ele>
        <time>2022-06-11T05:31:01Z</time>
      </trkpt>
      <trkpt lat="43.34985" lon="5.46105">
        <ele>274.95</ele>
        <time>2022-06-11T05:31:02Z</time>
      </trkpt>
      <trkpt lat="43.34974" lon="5.46118">
        <ele>273.27</ele>
        <time>2022-06-11T05:31:03Z</time>
      </trkpt>
      <trkpt lat="43.34963" lon="5.46129">
        <ele>273.25</ele>
        <time>2022-06-11T05:31:04Z</time>
      </trkpt>
      <trkpt lat="43.34951" lon="5.4614">
        <ele>271.95</ele>
        <time>2022-06-11T05:31:05Z</time>
      </trkpt>
      <trkpt lat="43.34939" lon="5.4615">
        <ele>271.87</ele>
        <time>2022-06-11T05:31:06Z</time>
      </trkpt>
      <trkpt lat="43.34902" lon="5.46175">
        <ele>268.3</ele>
        <time>2022-06-11T05:31:09Z</time>
      </trkpt>
      <trkpt lat="43.34879" lon="5.46188">
        <ele>267.06</ele>
        <time>2022-06-11T05:31:11Z</time>
      </trkpt>
      <trkpt lat="43.34869" lon="5.46196">
        <ele>264.64</ele>
        <time>2022-06-11T05:31:12Z</time>
      </trkpt>
      <trkpt lat="43.3486" lon="5.46203">
        <ele>263.24</ele>
        <time>2022-06-11T05:31:13Z</time>
      </trkpt>
      <trkpt lat="43.34853" lon="5.46211">
        <ele>263.17</ele>
        <time>2022-06-11T05:31:14Z</time>
      </trkpt>
      <trkpt lat="43.34827" lon="5.46235">
        <ele>260.35</ele>
        <time>2022-06-11T05:31:17Z</time>
      </trkpt>
      <trkpt lat="43.34819" lon="5.46244">
        <ele>258.94</ele>
        <time>2022-06-11T05:31:18Z</time>
      </trkpt>
      <trkpt lat="43.34812" lon="5.46255">
        <ele>257.86</ele>
        <time>2022-06-11T05:31:19Z</time>
      </trkpt>
      <trkpt lat="43.34793" lon="5.46286">
        <ele>255.72</ele>
        <time>2022-06-11T05:31:22Z</time>
      </trkpt>
      <trkpt lat="43.34779" lon="5.46313">
        <ele>253.71</ele>
        <time>2022-06-11T05:31:25Z</time>
      </trkpt>
      <trkpt lat="43.3477" lon="5.46329">
        <ele>252.49</ele>
        <time>2022-06-11T05:31:27Z</time>
      </trkpt>
      <trkpt lat="43.34758" lon="5.46349">
        <ele>250.07</ele>
        <time>2022-06-11T05:31:34Z</time>
      </trkpt>
      <trkpt lat="43.34759" lon="5.46349">
        <ele>249.3</ele>
        <time>2022-06-11T05:31:45Z</time>
      </trkpt>
      <trkpt lat="43.34758" lon="5.46352">
        <ele>249.15</ele>
        <time>2022-06-11T05:31:46Z</time>
      </trkpt>
      <trkpt lat="43.34756" lon="5.46356">
        <ele>249.09</ele>
        <time>2022-06-11T05:31:47Z</time>
      </trkpt>
      <trkpt lat="43.34756" lon="5.46361">
        <ele>249.02</ele>
        <time>2022-06-11T05:31:48Z</time>
      </trkpt>
      <trkpt lat="43.34755" lon="5.46366">
        <ele>248.95</ele>
        <time>2022-06-11T05:31:49Z</time>
      </trkpt>
      <trkpt lat="43.34756" lon="5.46371">
        <ele>248.87</ele>
        <time>2022-06-11T05:31:50Z</time>
      </trkpt>
      <trkpt lat="43.34758" lon="5.46375">
        <ele>248.81</ele>
        <time>2022-06-11T05:31:51Z</time>
      </trkpt>
      <trkpt lat="43.34761" lon="5.4638">
        <ele>248.76</ele>
        <time>2022-06-11T05:31:52Z</time>
      </trkpt>
      <trkpt lat="43.34765" lon="5.46386">
        <ele>248.74</ele>
        <time>2022-06-11T05:31:53Z</time>
      </trkpt>
      <trkpt lat="43.34812" lon="5.46466">
        <ele>246.86</ele>
        <time>2022-06-11T05:32:03Z</time>
      </trkpt>
      <trkpt lat="43.34815" lon="5.46473">
        <ele>246.79</ele>
        <time>2022-06-11T05:32:04Z</time>
      </trkpt>
      <trkpt lat="43.34842" lon="5.46564">
        <ele>246.25</ele>
        <time>2022-06-11T05:32:12Z</time>
      </trkpt>
      <trkpt lat="43.34875" lon="5.46703">
        <ele>245.7</ele>
        <time>2022-06-11T05:32:22Z</time>
      </trkpt>
      <trkpt lat="43.34886" lon="5.46755">
        <ele>245.07</ele>
        <time>2022-06-11T05:32:31Z</time>
      </trkpt>
      <trkpt lat="43.34888" lon="5.46757">
        <ele>243.41</ele>
        <time>2022-06-11T05:32:44Z</time>
      </trkpt>
      <trkpt lat="43.34888" lon="5.46759">
        <ele>242.92</ele>
        <time>2022-06-11T05:32:52Z</time>
      </trkpt>
      <trkpt lat="43.34889" lon="5.46764">
        <ele>242.87</ele>
        <time>2022-06-11T05:32:53Z</time>
      </trkpt>
      <trkpt lat="43.34891" lon="5.46772">
        <ele>242.82</ele>
        <time>2022-06-11T05:32:54Z</time>
      </trkpt>
      <trkpt lat="43.34903" lon="5.46818">
        <ele>245.3</ele>
        <time>2022-06-11T05:32:58Z</time>
      </trkpt>
      <trkpt lat="43.34924" lon="5.469">
        <ele>247.44</ele>
        <time>2022-06-11T05:33:03Z</time>
      </trkpt>
      <trkpt lat="43.3493" lon="5.46917">
        <ele>248.89</ele>
        <time>2022-06-11T05:33:04Z</time>
      </trkpt>
      <trkpt lat="43.34937" lon="5.46934">
        <ele>248.87</ele>
        <time>2022-06-11T05:33:05Z</time>
      </trkpt>
      <trkpt lat="43.34999" lon="5.47046">
        <ele>251.32</ele>
        <time>2022-06-11T05:33:12Z</time>
      </trkpt>
      <trkpt lat="43.35132" lon="5.47221">
        <ele>251.47</ele>
        <time>2022-06-11T05:33:24Z</time>
      </trkpt>
      <trkpt lat="43.35159" lon="5.4727">
        <ele>251.24</ele>
        <time>2022-06-11T05:33:27Z</time>
      </trkpt>
      <trkpt lat="43.35165" lon="5.47288">
        <ele>251.19</ele>
        <time>2022-06-11T05:33:28Z</time>
      </trkpt>
      <trkpt lat="43.35171" lon="5.47307">
        <ele>251.1</ele>
        <time>2022-06-11T05:33:29Z</time>
      </trkpt>
      <trkpt lat="43.35174" lon="5.47326">
        <ele>251.05</ele>
        <time>2022-06-11T05:33:30Z</time>
      </trkpt>
      <trkpt lat="43.35177" lon="5.47345">
        <ele>250.99</ele>
        <time>2022-06-11T05:33:31Z</time>
      </trkpt>
      <trkpt lat="43.35178" lon="5.47365">
        <ele>251.93</ele>
        <time>2022-06-11T05:33:32Z</time>
      </trkpt>
      <trkpt lat="43.35191" lon="5.47635">
        <ele>254.09</ele>
        <time>2022-06-11T05:33:46Z</time>
      </trkpt>
      <trkpt lat="43.35211" lon="5.47986">
        <ele>256.75</ele>
        <time>2022-06-11T05:34:03Z</time>
      </trkpt>
      <trkpt lat="43.35276" lon="5.48272">
        <ele>258.63</ele>
        <time>2022-06-11T05:34:17Z</time>
      </trkpt>
      <trkpt lat="43.353" lon="5.4835">
        <ele>259.78</ele>
        <time>2022-06-11T05:34:21Z</time>
      </trkpt>
      <trkpt lat="43.35335" lon="5.48415">
        <ele>260.65</ele>
        <time>2022-06-11T05:34:25Z</time>
      </trkpt>
      <trkpt lat="43.35346" lon="5.48428">
        <ele>260.61</ele>
        <time>2022-06-11T05:34:26Z</time>
      </trkpt>
      <trkpt lat="43.35359" lon="5.48439">
        <ele>260.57</ele>
        <time>2022-06-11T05:34:27Z</time>
      </trkpt>
      <trkpt lat="43.35372" lon="5.48447">
        <ele>260.5</ele>
        <time>2022-06-11T05:34:28Z</time>
      </trkpt>
      <trkpt lat="43.35385" lon="5.48454">
        <ele>261.6</ele>
        <time>2022-06-11T05:34:29Z</time>
      </trkpt>
      <trkpt lat="43.35407" lon="5.48468">
        <ele>261.27</ele>
        <time>2022-06-11T05:34:31Z</time>
      </trkpt>
      <trkpt lat="43.35416" lon="5.48476">
        <ele>261.27</ele>
        <time>2022-06-11T05:34:32Z</time>
      </trkpt>
      <trkpt lat="43.35423" lon="5.48486">
        <ele>261.23</ele>
        <time>2022-06-11T05:34:33Z</time>
      </trkpt>
      <trkpt lat="43.35445" lon="5.48527">
        <ele>261.08</ele>
        <time>2022-06-11T05:34:36Z</time>
      </trkpt>
      <trkpt lat="43.35452" lon="5.48544">
        <ele>261.01</ele>
        <time>2022-06-11T05:34:37Z</time>
      </trkpt>
      <trkpt lat="43.35459" lon="5.48561">
        <ele>260.98</ele>
        <time>2022-06-11T05:34:38Z</time>
      </trkpt>
      <trkpt lat="43.35468" lon="5.48578">
        <ele>260.92</ele>
        <time>2022-06-11T05:34:39Z</time>
      </trkpt>
      <trkpt lat="43.35478" lon="5.48592">
        <ele>260.87</ele>
        <time>2022-06-11T05:34:40Z</time>
      </trkpt>
      <trkpt lat="43.3549" lon="5.48605">
        <ele>260.82</ele>
        <time>2022-06-11T05:34:41Z</time>
      </trkpt>
      <trkpt lat="43.35503" lon="5.48615">
        <ele>260.77</ele>
        <time>2022-06-11T05:34:42Z</time>
      </trkpt>
      <trkpt lat="43.35517" lon="5.48624">
        <ele>260.71</ele>
        <time>2022-06-11T05:34:43Z</time>
      </trkpt>
      <trkpt lat="43.35579" lon="5.48668">
        <ele>260.43</ele>
        <time>2022-06-11T05:34:48Z</time>
      </trkpt>
      <trkpt lat="43.35587" lon="5.48675">
        <ele>260.38</ele>
        <time>2022-06-11T05:34:49Z</time>
      </trkpt>
      <trkpt lat="43.35593" lon="5.48682">
        <ele>260.32</ele>
        <time>2022-06-11T05:34:50Z</time>
      </trkpt>
      <trkpt lat="43.35606" lon="5.48699">
        <ele>260.22</ele>
        <time>2022-06-11T05:34:52Z</time>
      </trkpt>
      <trkpt lat="43.35614" lon="5.48708">
        <ele>260.16</ele>
        <time>2022-06-11T05:34:53Z</time>
      </trkpt>
      <trkpt lat="43.35623" lon="5.48718">
        <ele>260.11</ele>
        <time>2022-06-11T05:34:54Z</time>
      </trkpt>
      <trkpt lat="43.35652" lon="5.48753">
        <ele>261.97</ele>
        <time>2022-06-11T05:34:57Z</time>
      </trkpt>
      <trkpt lat="43.357" lon="5.48815">
        <ele>261.66</ele>
        <time>2022-06-11T05:35:03Z</time>
      </trkpt>
      <trkpt lat="43.35705" lon="5.48825">
        <ele>261.62</ele>
        <time>2022-06-11T05:35:04Z</time>
      </trkpt>
      <trkpt lat="43.35709" lon="5.48837">
        <ele>261.61</ele>
        <time>2022-06-11T05:35:05Z</time>
      </trkpt>
      <trkpt lat="43.35722" lon="5.48882">
        <ele>263.96</ele>
        <time>2022-06-11T05:35:08Z</time>
      </trkpt>
      <trkpt lat="43.35763" lon="5.49068">
        <ele>266.11</ele>
        <time>2022-06-11T05:35:18Z</time>
      </trkpt>
      <trkpt lat="43.35836" lon="5.49237">
        <ele>267.22</ele>
        <time>2022-06-11T05:35:28Z</time>
      </trkpt>
      <trkpt lat="43.35926" lon="5.49389">
        <ele>269.32</ele>
        <time>2022-06-11T05:35:38Z</time>
      </trkpt>
      <trkpt lat="43.35939" lon="5.49399">
        <ele>269.27</ele>
        <time>2022-06-11T05:35:39Z</time>
      </trkpt>
      <trkpt lat="43.35953" lon="5.49407">
        <ele>269.24</ele>
        <time>2022-06-11T05:35:40Z</time>
      </trkpt>
      <trkpt lat="43.35967" lon="5.49412">
        <ele>269.19</ele>
        <time>2022-06-11T05:35:41Z</time>
      </trkpt>
      <trkpt lat="43.36045" lon="5.49419">
        <ele>270.55</ele>
        <time>2022-06-11T05:35:46Z</time>
      </trkpt>
      <trkpt lat="43.3606" lon="5.49417">
        <ele>270.57</ele>
        <time>2022-06-11T05:35:47Z</time>
      </trkpt>
      <trkpt lat="43.36075" lon="5.49411">
        <ele>270.52</ele>
        <time>2022-06-11T05:35:48Z</time>
      </trkpt>
      <trkpt lat="43.36132" lon="5.49391">
        <ele>271.33</ele>
        <time>2022-06-11T05:35:52Z</time>
      </trkpt>
      <trkpt lat="43.36146" lon="5.4939">
        <ele>271.31</ele>
        <time>2022-06-11T05:35:53Z</time>
      </trkpt>
      <trkpt lat="43.3616" lon="5.49391">
        <ele>272.51</ele>
        <time>2022-06-11T05:35:54Z</time>
      </trkpt>
      <trkpt lat="43.36174" lon="5.49394">
        <ele>272.42</ele>
        <time>2022-06-11T05:35:55Z</time>
      </trkpt>
      <trkpt lat="43.36188" lon="5.49397">
        <ele>272.39</ele>
        <time>2022-06-11T05:35:56Z</time>
      </trkpt>
      <trkpt lat="43.36271" lon="5.49429">
        <ele>274.21</ele>
        <time>2022-06-11T05:36:02Z</time>
      </trkpt>
      <trkpt lat="43.36282" lon="5.49441">
        <ele>274.16</ele>
        <time>2022-06-11T05:36:03Z</time>
      </trkpt>
      <trkpt lat="43.36292" lon="5.49456">
        <ele>274.11</ele>
        <time>2022-06-11T05:36:04Z</time>
      </trkpt>
      <trkpt lat="43.36299" lon="5.49473">
        <ele>274.91</ele>
        <time>2022-06-11T05:36:05Z</time>
      </trkpt>
      <trkpt lat="43.36304" lon="5.49492">
        <ele>274.86</ele>
        <time>2022-06-11T05:36:06Z</time>
      </trkpt>
      <trkpt lat="43.36307" lon="5.49511">
        <ele>274.84</ele>
        <time>2022-06-11T05:36:07Z</time>
      </trkpt>
      <trkpt lat="43.36309" lon="5.49529">
        <ele>275.56</ele>
        <time>2022-06-11T05:36:08Z</time>
      </trkpt>
      <trkpt lat="43.36313" lon="5.49547">
        <ele>275.21</ele>
        <time>2022-06-11T05:36:09Z</time>
      </trkpt>
      <trkpt lat="43.3632" lon="5.49563">
        <ele>275.16</ele>
        <time>2022-06-11T05:36:10Z</time>
      </trkpt>
      <trkpt lat="43.36329" lon="5.49579">
        <ele>275.98</ele>
        <time>2022-06-11T05:36:11Z</time>
      </trkpt>
      <trkpt lat="43.36339" lon="5.49594">
        <ele>275.96</ele>
        <time>2022-06-11T05:36:12Z</time>
      </trkpt>
      <trkpt lat="43.36351" lon="5.49607">
        <ele>275.91</ele>
        <time>2022-06-11T05:36:13Z</time>
      </trkpt>
      <trkpt lat="43.36394" lon="5.49662">
        <ele>276.77</ele>
        <time>2022-06-11T05:36:17Z</time>
      </trkpt>
      <trkpt lat="43.36402" lon="5.49678">
        <ele>276.72</ele>
        <time>2022-06-11T05:36:18Z</time>
      </trkpt>
      <trkpt lat="43.36407" lon="5.49696">
        <ele>276.69</ele>
        <time>2022-06-11T05:36:19Z</time>
      </trkpt>
      <trkpt lat="43.36411" lon="5.49715">
        <ele>277.64</ele>
        <time>2022-06-11T05:36:20Z</time>
      </trkpt>
      <trkpt lat="43.36414" lon="5.49736">
        <ele>277.65</ele>
        <time>2022-06-11T05:36:21Z</time>
      </trkpt>
      <trkpt lat="43.36416" lon="5.49756">
        <ele>278.82</ele>
        <time>2022-06-11T05:36:22Z</time>
      </trkpt>
      <trkpt lat="43.36456" lon="5.49943">
        <ele>281.54</ele>
        <time>2022-06-11T05:36:31Z</time>
      </trkpt>
      <trkpt lat="43.36464" lon="5.49962">
        <ele>282.34</ele>
        <time>2022-06-11T05:36:32Z</time>
      </trkpt>
      <trkpt lat="43.36544" lon="5.50104">
        <ele>284.82</ele>
        <time>2022-06-11T05:36:40Z</time>
      </trkpt>
      <trkpt lat="43.36576" lon="5.50181">
        <ele>284.64</ele>
        <time>2022-06-11T05:36:44Z</time>
      </trkpt>
      <trkpt lat="43.36581" lon="5.50203">
        <ele>284.6</ele>
        <time>2022-06-11T05:36:45Z</time>
      </trkpt>
      <trkpt lat="43.36583" lon="5.50224">
        <ele>285.38</ele>
        <time>2022-06-11T05:36:46Z</time>
      </trkpt>
      <trkpt lat="43.36581" lon="5.50245">
        <ele>285.35</ele>
        <time>2022-06-11T05:36:47Z</time>
      </trkpt>
      <trkpt lat="43.36579" lon="5.50266">
        <ele>285.3</ele>
        <time>2022-06-11T05:36:48Z</time>
      </trkpt>
      <trkpt lat="43.36577" lon="5.50286">
        <ele>286.37</ele>
        <time>2022-06-11T05:36:49Z</time>
      </trkpt>
      <trkpt lat="43.36577" lon="5.50307">
        <ele>286.35</ele>
        <time>2022-06-11T05:36:50Z</time>
      </trkpt>
      <trkpt lat="43.36579" lon="5.50327">
        <ele>287.75</ele>
        <time>2022-06-11T05:36:51Z</time>
      </trkpt>
      <trkpt lat="43.36586" lon="5.50346">
        <ele>288.55</ele>
        <time>2022-06-11T05:36:52Z</time>
      </trkpt>
      <trkpt lat="43.36595" lon="5.50361">
        <ele>288.54</ele>
        <time>2022-06-11T05:36:53Z</time>
      </trkpt>
      <trkpt lat="43.36606" lon="5.50372">
        <ele>289.26</ele>
        <time>2022-06-11T05:36:54Z</time>
      </trkpt>
      <trkpt lat="43.36617" lon="5.50378">
        <ele>289.26</ele>
        <time>2022-06-11T05:36:55Z</time>
      </trkpt>
      <trkpt lat="43.3663" lon="5.50378">
        <ele>290.32</ele>
        <time>2022-06-11T05:36:56Z</time>
      </trkpt>
      <trkpt lat="43.36643" lon="5.50373">
        <ele>290.26</ele>
        <time>2022-06-11T05:36:57Z</time>
      </trkpt>
      <trkpt lat="43.36654" lon="5.50361">
        <ele>290.28</ele>
        <time>2022-06-11T05:36:58Z</time>
      </trkpt>
      <trkpt lat="43.36661" lon="5.50344">
        <ele>290.64</ele>
        <time>2022-06-11T05:36:59Z</time>
      </trkpt>
      <trkpt lat="43.36663" lon="5.50326">
        <ele>291.72</ele>
        <time>2022-06-11T05:37:00Z</time>
      </trkpt>
      <trkpt lat="43.36664" lon="5.50307">
        <ele>291.67</ele>
        <time>2022-06-11T05:37:01Z</time>
      </trkpt>
      <trkpt lat="43.36667" lon="5.50288">
        <ele>293.39</ele>
        <time>2022-06-11T05:37:02Z</time>
      </trkpt>
      <trkpt lat="43.36672" lon="5.50271">
        <ele>293.35</ele>
        <time>2022-06-11T05:37:03Z</time>
      </trkpt>
      <trkpt lat="43.36678" lon="5.50253">
        <ele>294.36</ele>
        <time>2022-06-11T05:37:04Z</time>
      </trkpt>
      <trkpt lat="43.36686" lon="5.50236">
        <ele>295.17</ele>
        <time>2022-06-11T05:37:05Z</time>
      </trkpt>
      <trkpt lat="43.36694" lon="5.50221">
        <ele>295.18</ele>
        <time>2022-06-11T05:37:06Z</time>
      </trkpt>
      <trkpt lat="43.36705" lon="5.5021">
        <ele>295.15</ele>
        <time>2022-06-11T05:37:07Z</time>
      </trkpt>
      <trkpt lat="43.36718" lon="5.50203">
        <ele>295.08</ele>
        <time>2022-06-11T05:37:08Z</time>
      </trkpt>
      <trkpt lat="43.36732" lon="5.50201">
        <ele>296.15</ele>
        <time>2022-06-11T05:37:09Z</time>
      </trkpt>
      <trkpt lat="43.36746" lon="5.502">
        <ele>296.02</ele>
        <time>2022-06-11T05:37:10Z</time>
      </trkpt>
      <trkpt lat="43.3676" lon="5.50199">
        <ele>296.81</ele>
        <time>2022-06-11T05:37:11Z</time>
      </trkpt>
      <trkpt lat="43.36774" lon="5.50202">
        <ele>296.75</ele>
        <time>2022-06-11T05:37:12Z</time>
      </trkpt>
      <trkpt lat="43.36787" lon="5.5021">
        <ele>296.69</ele>
        <time>2022-06-11T05:37:13Z</time>
      </trkpt>
      <trkpt lat="43.36798" lon="5.50221">
        <ele>296.66</ele>
        <time>2022-06-11T05:37:14Z</time>
      </trkpt>
      <trkpt lat="43.36807" lon="5.50234">
        <ele>296.67</ele>
        <time>2022-06-11T05:37:15Z</time>
      </trkpt>
      <trkpt lat="43.36816" lon="5.50248">
        <ele>296.6</ele>
        <time>2022-06-11T05:37:16Z</time>
      </trkpt>
      <trkpt lat="43.36825" lon="5.5026">
        <ele>296.55</ele>
        <time>2022-06-11T05:37:17Z</time>
      </trkpt>
      <trkpt lat="43.36835" lon="5.50267">
        <ele>297.45</ele>
        <time>2022-06-11T05:37:18Z</time>
      </trkpt>
      <trkpt lat="43.36847" lon="5.50267">
        <ele>297.42</ele>
        <time>2022-06-11T05:37:19Z</time>
      </trkpt>
      <trkpt lat="43.36871" lon="5.50262">
        <ele>297.36</ele>
        <time>2022-06-11T05:37:21Z</time>
      </trkpt>
      <trkpt lat="43.36883" lon="5.50264">
        <ele>298.11</ele>
        <time>2022-06-11T05:37:22Z</time>
      </trkpt>
      <trkpt lat="43.36893" lon="5.50273">
        <ele>298.03</ele>
        <time>2022-06-11T05:37:23Z</time>
      </trkpt>
      <trkpt lat="43.36898" lon="5.50286">
        <ele>297.72</ele>
        <time>2022-06-11T05:37:24Z</time>
      </trkpt>
      <trkpt lat="43.369" lon="5.50302">
        <ele>298.64</ele>
        <time>2022-06-11T05:37:25Z</time>
      </trkpt>
      <trkpt lat="43.36897" lon="5.50319">
        <ele>298.59</ele>
        <time>2022-06-11T05:37:26Z</time>
      </trkpt>
      <trkpt lat="43.36892" lon="5.50336">
        <ele>298.59</ele>
        <time>2022-06-11T05:37:27Z</time>
      </trkpt>
      <trkpt lat="43.36886" lon="5.50353">
        <ele>299.78</ele>
        <time>2022-06-11T05:37:28Z</time>
      </trkpt>
      <trkpt lat="43.36882" lon="5.50369">
        <ele>299.72</ele>
        <time>2022-06-11T05:37:29Z</time>
      </trkpt>
      <trkpt lat="43.3688" lon="5.50385">
        <ele>299.67</ele>
        <time>2022-06-11T05:37:30Z</time>
      </trkpt>
      <trkpt lat="43.36882" lon="5.50403">
        <ele>299.64</ele>
        <time>2022-06-11T05:37:31Z</time>
      </trkpt>
      <trkpt lat="43.36888" lon="5.50419">
        <ele>300.6</ele>
        <time>2022-06-11T05:37:32Z</time>
      </trkpt>
      <trkpt lat="43.36897" lon="5.50435">
        <ele>301.39</ele>
        <time>2022-06-11T05:37:33Z</time>
      </trkpt>
      <trkpt lat="43.36913" lon="5.50469">
        <ele>302.21</ele>
        <time>2022-06-11T05:37:35Z</time>
      </trkpt>
      <trkpt lat="43.36919" lon="5.50487">
        <ele>302.98</ele>
        <time>2022-06-11T05:37:36Z</time>
      </trkpt>
      <trkpt lat="43.3693" lon="5.50522">
        <ele>302.91</ele>
        <time>2022-06-11T05:37:38Z</time>
      </trkpt>
      <trkpt lat="43.36938" lon="5.50534">
        <ele>302.91</ele>
        <time>2022-06-11T05:37:39Z</time>
      </trkpt>
      <trkpt lat="43.36947" lon="5.50539">
        <ele>302.83</ele>
        <time>2022-06-11T05:37:40Z</time>
      </trkpt>
      <trkpt lat="43.36957" lon="5.50538">
        <ele>302.78</ele>
        <time>2022-06-11T05:37:41Z</time>
      </trkpt>
      <trkpt lat="43.36965" lon="5.5053">
        <ele>302.78</ele>
        <time>2022-06-11T05:37:42Z</time>
      </trkpt>
      <trkpt lat="43.36975" lon="5.50518">
        <ele>304.22</ele>
        <time>2022-06-11T05:37:43Z</time>
      </trkpt>
      <trkpt lat="43.36984" lon="5.50505">
        <ele>304.21</ele>
        <time>2022-06-11T05:37:44Z</time>
      </trkpt>
      <trkpt lat="43.36995" lon="5.50494">
        <ele>305.02</ele>
        <time>2022-06-11T05:37:45Z</time>
      </trkpt>
      <trkpt lat="43.37008" lon="5.50487">
        <ele>304.97</ele>
        <time>2022-06-11T05:37:46Z</time>
      </trkpt>
      <trkpt lat="43.37021" lon="5.50486">
        <ele>304.88</ele>
        <time>2022-06-11T05:37:47Z</time>
      </trkpt>
      <trkpt lat="43.37032" lon="5.50494">
        <ele>304.87</ele>
        <time>2022-06-11T05:37:48Z</time>
      </trkpt>
      <trkpt lat="43.3704" lon="5.50509">
        <ele>305.71</ele>
        <time>2022-06-11T05:37:49Z</time>
      </trkpt>
      <trkpt lat="43.37047" lon="5.50525">
        <ele>307.21</ele>
        <time>2022-06-11T05:37:50Z</time>
      </trkpt>
      <trkpt lat="43.37053" lon="5.50544">
        <ele>307.19</ele>
        <time>2022-06-11T05:37:51Z</time>
      </trkpt>
      <trkpt lat="43.37057" lon="5.50565">
        <ele>307.14</ele>
        <time>2022-06-11T05:37:52Z</time>
      </trkpt>
      <trkpt lat="43.37059" lon="5.50587">
        <ele>308.22</ele>
        <time>2022-06-11T05:37:53Z</time>
      </trkpt>
      <trkpt lat="43.37058" lon="5.5061">
        <ele>308.18</ele>
        <time>2022-06-11T05:37:54Z</time>
      </trkpt>
      <trkpt lat="43.37056" lon="5.50632">
        <ele>309.37</ele>
        <time>2022-06-11T05:37:55Z</time>
      </trkpt>
      <trkpt lat="43.37052" lon="5.50692">
        <ele>309.27</ele>
        <time>2022-06-11T05:37:58Z</time>
      </trkpt>
      <trkpt lat="43.37055" lon="5.50709">
        <ele>309.26</ele>
        <time>2022-06-11T05:37:59Z</time>
      </trkpt>
      <trkpt lat="43.37061" lon="5.50724">
        <ele>309.22</ele>
        <time>2022-06-11T05:38:00Z</time>
      </trkpt>
      <trkpt lat="43.37069" lon="5.50737">
        <ele>309.21</ele>
        <time>2022-06-11T05:38:01Z</time>
      </trkpt>
      <trkpt lat="43.37078" lon="5.5075">
        <ele>309.06</ele>
        <time>2022-06-11T05:38:02Z</time>
      </trkpt>
      <trkpt lat="43.37087" lon="5.50764">
        <ele>310.13</ele>
        <time>2022-06-11T05:38:03Z</time>
      </trkpt>
      <trkpt lat="43.37093" lon="5.50782">
        <ele>310.08</ele>
        <time>2022-06-11T05:38:04Z</time>
      </trkpt>
      <trkpt lat="43.37098" lon="5.50799">
        <ele>310.05</ele>
        <time>2022-06-11T05:38:05Z</time>
      </trkpt>
      <trkpt lat="43.37105" lon="5.50816">
        <ele>311.34</ele>
        <time>2022-06-11T05:38:06Z</time>
      </trkpt>
      <trkpt lat="43.37112" lon="5.50832">
        <ele>311.27</ele>
        <time>2022-06-11T05:38:07Z</time>
      </trkpt>
      <trkpt lat="43.37118" lon="5.50849">
        <ele>311.25</ele>
        <time>2022-06-11T05:38:08Z</time>
      </trkpt>
      <trkpt lat="43.37119" lon="5.50867">
        <ele>311.2</ele>
        <time>2022-06-11T05:38:09Z</time>
      </trkpt>
      <trkpt lat="43.37115" lon="5.50886">
        <ele>312.1</ele>
        <time>2022-06-11T05:38:10Z</time>
      </trkpt>
      <trkpt lat="43.37109" lon="5.50904">
        <ele>312.09</ele>
        <time>2022-06-11T05:38:11Z</time>
      </trkpt>
      <trkpt lat="43.37101" lon="5.50922">
        <ele>313.23</ele>
        <time>2022-06-11T05:38:12Z</time>
      </trkpt>
      <trkpt lat="43.37078" lon="5.50977">
        <ele>314.25</ele>
        <time>2022-06-11T05:38:15Z</time>
      </trkpt>
      <trkpt lat="43.37074" lon="5.50996">
        <ele>314.33</ele>
        <time>2022-06-11T05:38:16Z</time>
      </trkpt>
      <trkpt lat="43.37073" lon="5.51015">
        <ele>314.23</ele>
        <time>2022-06-11T05:38:17Z</time>
      </trkpt>
      <trkpt lat="43.37074" lon="5.51052">
        <ele>315.1</ele>
        <time>2022-06-11T05:38:19Z</time>
      </trkpt>
      <trkpt lat="43.3707" lon="5.51069">
        <ele>314.64</ele>
        <time>2022-06-11T05:38:20Z</time>
      </trkpt>
      <trkpt lat="43.37063" lon="5.51085">
        <ele>314.64</ele>
        <time>2022-06-11T05:38:21Z</time>
      </trkpt>
      <trkpt lat="43.37054" lon="5.51101">
        <ele>315.57</ele>
        <time>2022-06-11T05:38:22Z</time>
      </trkpt>
      <trkpt lat="43.37045" lon="5.51116">
        <ele>315.51</ele>
        <time>2022-06-11T05:38:23Z</time>
      </trkpt>
      <trkpt lat="43.37027" lon="5.51143">
        <ele>315.44</ele>
        <time>2022-06-11T05:38:25Z</time>
      </trkpt>
      <trkpt lat="43.37016" lon="5.5115">
        <ele>315.39</ele>
        <time>2022-06-11T05:38:26Z</time>
      </trkpt>
      <trkpt lat="43.37004" lon="5.51151">
        <ele>315.34</ele>
        <time>2022-06-11T05:38:27Z</time>
      </trkpt>
      <trkpt lat="43.36993" lon="5.51143">
        <ele>315.32</ele>
        <time>2022-06-11T05:38:28Z</time>
      </trkpt>
      <trkpt lat="43.36982" lon="5.51133">
        <ele>316.42</ele>
        <time>2022-06-11T05:38:29Z</time>
      </trkpt>
      <trkpt lat="43.36971" lon="5.51126">
        <ele>316.37</ele>
        <time>2022-06-11T05:38:30Z</time>
      </trkpt>
      <trkpt lat="43.36958" lon="5.51125">
        <ele>316.33</ele>
        <time>2022-06-11T05:38:31Z</time>
      </trkpt>
      <trkpt lat="43.36946" lon="5.5113">
        <ele>317.13</ele>
        <time>2022-06-11T05:38:32Z</time>
      </trkpt>
      <trkpt lat="43.36934" lon="5.51139">
        <ele>317.13</ele>
        <time>2022-06-11T05:38:33Z</time>
      </trkpt>
      <trkpt lat="43.36924" lon="5.51151">
        <ele>319.18</ele>
        <time>2022-06-11T05:38:34Z</time>
      </trkpt>
      <trkpt lat="43.36914" lon="5.51165">
        <ele>319.13</ele>
        <time>2022-06-11T05:38:35Z</time>
      </trkpt>
      <trkpt lat="43.36904" lon="5.5118">
        <ele>319.12</ele>
        <time>2022-06-11T05:38:36Z</time>
      </trkpt>
      <trkpt lat="43.36893" lon="5.51194">
        <ele>319.09</ele>
        <time>2022-06-11T05:38:37Z</time>
      </trkpt>
      <trkpt lat="43.3688" lon="5.51207">
        <ele>319.99</ele>
        <time>2022-06-11T05:38:38Z</time>
      </trkpt>
      <trkpt lat="43.36866" lon="5.51216">
        <ele>319.94</ele>
        <time>2022-06-11T05:38:39Z</time>
      </trkpt>
      <trkpt lat="43.3685" lon="5.51221">
        <ele>320.8</ele>
        <time>2022-06-11T05:38:40Z</time>
      </trkpt>
      <trkpt lat="43.36834" lon="5.51224">
        <ele>320.77</ele>
        <time>2022-06-11T05:38:41Z</time>
      </trkpt>
      <trkpt lat="43.36818" lon="5.51226">
        <ele>321.54</ele>
        <time>2022-06-11T05:38:42Z</time>
      </trkpt>
      <trkpt lat="43.36803" lon="5.5123">
        <ele>321.54</ele>
        <time>2022-06-11T05:38:43Z</time>
      </trkpt>
      <trkpt lat="43.36788" lon="5.51238">
        <ele>322.31</ele>
        <time>2022-06-11T05:38:44Z</time>
      </trkpt>
      <trkpt lat="43.36775" lon="5.51249">
        <ele>322.79</ele>
        <time>2022-06-11T05:38:45Z</time>
      </trkpt>
      <trkpt lat="43.36764" lon="5.51263">
        <ele>322.74</ele>
        <time>2022-06-11T05:38:46Z</time>
      </trkpt>
      <trkpt lat="43.36756" lon="5.51281">
        <ele>322.78</ele>
        <time>2022-06-11T05:38:47Z</time>
      </trkpt>
      <trkpt lat="43.36748" lon="5.51299">
        <ele>323.53</ele>
        <time>2022-06-11T05:38:48Z</time>
      </trkpt>
      <trkpt lat="43.3674" lon="5.51317">
        <ele>323.52</ele>
        <time>2022-06-11T05:38:49Z</time>
      </trkpt>
      <trkpt lat="43.36725" lon="5.51348">
        <ele>323.36</ele>
        <time>2022-06-11T05:38:51Z</time>
      </trkpt>
      <trkpt lat="43.36721" lon="5.51365">
        <ele>324.15</ele>
        <time>2022-06-11T05:38:52Z</time>
      </trkpt>
      <trkpt lat="43.36723" lon="5.51384">
        <ele>324.1</ele>
        <time>2022-06-11T05:38:53Z</time>
      </trkpt>
      <trkpt lat="43.36727" lon="5.51402">
        <ele>324.08</ele>
        <time>2022-06-11T05:38:54Z</time>
      </trkpt>
      <trkpt lat="43.36731" lon="5.51418">
        <ele>324.79</ele>
        <time>2022-06-11T05:38:55Z</time>
      </trkpt>
      <trkpt lat="43.36738" lon="5.5143">
        <ele>324.73</ele>
        <time>2022-06-11T05:38:56Z</time>
      </trkpt>
      <trkpt lat="43.36747" lon="5.51437">
        <ele>324.7</ele>
        <time>2022-06-11T05:38:57Z</time>
      </trkpt>
      <trkpt lat="43.36756" lon="5.51434">
        <ele>324.62</ele>
        <time>2022-06-11T05:38:58Z</time>
      </trkpt>
      <trkpt lat="43.36763" lon="5.51424">
        <ele>324.6</ele>
        <time>2022-06-11T05:38:59Z</time>
      </trkpt>
      <trkpt lat="43.36766" lon="5.51411">
        <ele>324.55</ele>
        <time>2022-06-11T05:39:00Z</time>
      </trkpt>
      <trkpt lat="43.36767" lon="5.51396">
        <ele>324.5</ele>
        <time>2022-06-11T05:39:01Z</time>
      </trkpt>
      <trkpt lat="43.36769" lon="5.51381">
        <ele>325.53</ele>
        <time>2022-06-11T05:39:02Z</time>
      </trkpt>
      <trkpt lat="43.36775" lon="5.51368">
        <ele>325.5</ele>
        <time>2022-06-11T05:39:03Z</time>
      </trkpt>
      <trkpt lat="43.36784" lon="5.51361">
        <ele>325.42</ele>
        <time>2022-06-11T05:39:04Z</time>
      </trkpt>
      <trkpt lat="43.36795" lon="5.51361">
        <ele>325.43</ele>
        <time>2022-06-11T05:39:05Z</time>
      </trkpt>
      <trkpt lat="43.36804" lon="5.5137">
        <ele>325.33</ele>
        <time>2022-06-11T05:39:06Z</time>
      </trkpt>
      <trkpt lat="43.36812" lon="5.51383">
        <ele>326.64</ele>
        <time>2022-06-11T05:39:07Z</time>
      </trkpt>
      <trkpt lat="43.3682" lon="5.51399">
        <ele>327.4</ele>
        <time>2022-06-11T05:39:08Z</time>
      </trkpt>
      <trkpt lat="43.36828" lon="5.51415">
        <ele>327.35</ele>
        <time>2022-06-11T05:39:09Z</time>
      </trkpt>
      <trkpt lat="43.36857" lon="5.51483">
        <ele>328.67</ele>
        <time>2022-06-11T05:39:13Z</time>
      </trkpt>
      <trkpt lat="43.36857" lon="5.515">
        <ele>328.65</ele>
        <time>2022-06-11T05:39:14Z</time>
      </trkpt>
      <trkpt lat="43.36853" lon="5.51536">
        <ele>329.73</ele>
        <time>2022-06-11T05:39:16Z</time>
      </trkpt>
      <trkpt lat="43.36855" lon="5.51555">
        <ele>329.69</ele>
        <time>2022-06-11T05:39:17Z</time>
      </trkpt>
      <trkpt lat="43.36867" lon="5.51616">
        <ele>331.44</ele>
        <time>2022-06-11T05:39:20Z</time>
      </trkpt>
      <trkpt lat="43.36872" lon="5.51634">
        <ele>331.39</ele>
        <time>2022-06-11T05:39:21Z</time>
      </trkpt>
      <trkpt lat="43.36878" lon="5.51651">
        <ele>331.39</ele>
        <time>2022-06-11T05:39:22Z</time>
      </trkpt>
      <trkpt lat="43.3688" lon="5.51668">
        <ele>331.31</ele>
        <time>2022-06-11T05:39:23Z</time>
      </trkpt>
      <trkpt lat="43.36877" lon="5.51684">
        <ele>331.31</ele>
        <time>2022-06-11T05:39:24Z</time>
      </trkpt>
      <trkpt lat="43.3687" lon="5.51698">
        <ele>331.24</ele>
        <time>2022-06-11T05:39:25Z</time>
      </trkpt>
      <trkpt lat="43.36859" lon="5.51708">
        <ele>331.23</ele>
        <time>2022-06-11T05:39:26Z</time>
      </trkpt>
      <trkpt lat="43.36846" lon="5.51716">
        <ele>332.33</ele>
        <time>2022-06-11T05:39:27Z</time>
      </trkpt>
      <trkpt lat="43.36834" lon="5.51726">
        <ele>332.28</ele>
        <time>2022-06-11T05:39:28Z</time>
      </trkpt>
      <trkpt lat="43.36823" lon="5.5174">
        <ele>333.47</ele>
        <time>2022-06-11T05:39:29Z</time>
      </trkpt>
      <trkpt lat="43.36813" lon="5.51755">
        <ele>334.39</ele>
        <time>2022-06-11T05:39:30Z</time>
      </trkpt>
      <trkpt lat="43.36805" lon="5.51772">
        <ele>334.34</ele>
        <time>2022-06-11T05:39:31Z</time>
      </trkpt>
      <trkpt lat="43.36799" lon="5.5179">
        <ele>334.33</ele>
        <time>2022-06-11T05:39:32Z</time>
      </trkpt>
      <trkpt lat="43.36794" lon="5.51807">
        <ele>334.24</ele>
        <time>2022-06-11T05:39:33Z</time>
      </trkpt>
      <trkpt lat="43.36785" lon="5.5182">
        <ele>334.19</ele>
        <time>2022-06-11T05:39:34Z</time>
      </trkpt>
      <trkpt lat="43.36774" lon="5.51829">
        <ele>334.09</ele>
        <time>2022-06-11T05:39:35Z</time>
      </trkpt>
      <trkpt lat="43.36761" lon="5.51835">
        <ele>334.05</ele>
        <time>2022-06-11T05:39:36Z</time>
      </trkpt>
      <trkpt lat="43.3675" lon="5.51843">
        <ele>334.66</ele>
        <time>2022-06-11T05:39:37Z</time>
      </trkpt>
      <trkpt lat="43.3674" lon="5.51855">
        <ele>334.67</ele>
        <time>2022-06-11T05:39:38Z</time>
      </trkpt>
      <trkpt lat="43.36735" lon="5.51871">
        <ele>334.62</ele>
        <time>2022-06-11T05:39:39Z</time>
      </trkpt>
      <trkpt lat="43.36735" lon="5.51887">
        <ele>334.6</ele>
        <time>2022-06-11T05:39:40Z</time>
      </trkpt>
      <trkpt lat="43.36741" lon="5.519">
        <ele>335.33</ele>
        <time>2022-06-11T05:39:41Z</time>
      </trkpt>
      <trkpt lat="43.36751" lon="5.5191">
        <ele>336.28</ele>
        <time>2022-06-11T05:39:42Z</time>
      </trkpt>
      <trkpt lat="43.36762" lon="5.51916">
        <ele>336.25</ele>
        <time>2022-06-11T05:39:43Z</time>
      </trkpt>
      <trkpt lat="43.36773" lon="5.51916">
        <ele>336.18</ele>
        <time>2022-06-11T05:39:44Z</time>
      </trkpt>
      <trkpt lat="43.36784" lon="5.51909">
        <ele>336.16</ele>
        <time>2022-06-11T05:39:45Z</time>
      </trkpt>
      <trkpt lat="43.36792" lon="5.51896">
        <ele>336.07</ele>
        <time>2022-06-11T05:39:46Z</time>
      </trkpt>
      <trkpt lat="43.36799" lon="5.51883">
        <ele>337.44</ele>
        <time>2022-06-11T05:39:47Z</time>
      </trkpt>
      <trkpt lat="43.36808" lon="5.51874">
        <ele>337.38</ele>
        <time>2022-06-11T05:39:48Z</time>
      </trkpt>
      <trkpt lat="43.36818" lon="5.51868">
        <ele>337.34</ele>
        <time>2022-06-11T05:39:49Z</time>
      </trkpt>
      <trkpt lat="43.36828" lon="5.5187">
        <ele>337.3</ele>
        <time>2022-06-11T05:39:50Z</time>
      </trkpt>
      <trkpt lat="43.36836" lon="5.51878">
        <ele>338.48</ele>
        <time>2022-06-11T05:39:51Z</time>
      </trkpt>
      <trkpt lat="43.36839" lon="5.51893">
        <ele>338.4</ele>
        <time>2022-06-11T05:39:52Z</time>
      </trkpt>
      <trkpt lat="43.36837" lon="5.5191">
        <ele>339.4</ele>
        <time>2022-06-11T05:39:53Z</time>
      </trkpt>
      <trkpt lat="43.36831" lon="5.51927">
        <ele>340.26</ele>
        <time>2022-06-11T05:39:54Z</time>
      </trkpt>
      <trkpt lat="43.36825" lon="5.51946">
        <ele>341.83</ele>
        <time>2022-06-11T05:39:55Z</time>
      </trkpt>
      <trkpt lat="43.36819" lon="5.51966">
        <ele>343.13</ele>
        <time>2022-06-11T05:39:56Z</time>
      </trkpt>
      <trkpt lat="43.36816" lon="5.51987">
        <ele>344.51</ele>
        <time>2022-06-11T05:39:57Z</time>
      </trkpt>
      <trkpt lat="43.36814" lon="5.52007">
        <ele>344.42</ele>
        <time>2022-06-11T05:39:58Z</time>
      </trkpt>
      <trkpt lat="43.36815" lon="5.52026">
        <ele>344.44</ele>
        <time>2022-06-11T05:39:59Z</time>
      </trkpt>
      <trkpt lat="43.36822" lon="5.52043">
        <ele>344.39</ele>
        <time>2022-06-11T05:40:00Z</time>
      </trkpt>
      <trkpt lat="43.36832" lon="5.52055">
        <ele>345.4</ele>
        <time>2022-06-11T05:40:01Z</time>
      </trkpt>
      <trkpt lat="43.36844" lon="5.52064">
        <ele>345.35</ele>
        <time>2022-06-11T05:40:02Z</time>
      </trkpt>
      <trkpt lat="43.36855" lon="5.52074">
        <ele>346.23</ele>
        <time>2022-06-11T05:40:03Z</time>
      </trkpt>
      <trkpt lat="43.36863" lon="5.52088">
        <ele>346.24</ele>
        <time>2022-06-11T05:40:04Z</time>
      </trkpt>
      <trkpt lat="43.36865" lon="5.52105">
        <ele>346.14</ele>
        <time>2022-06-11T05:40:05Z</time>
      </trkpt>
      <trkpt lat="43.36861" lon="5.5212">
        <ele>346.95</ele>
        <time>2022-06-11T05:40:06Z</time>
      </trkpt>
      <trkpt lat="43.36853" lon="5.52134">
        <ele>346.91</ele>
        <time>2022-06-11T05:40:07Z</time>
      </trkpt>
      <trkpt lat="43.36843" lon="5.52147">
        <ele>348.5</ele>
        <time>2022-06-11T05:40:08Z</time>
      </trkpt>
      <trkpt lat="43.36834" lon="5.52163">
        <ele>350.13</ele>
        <time>2022-06-11T05:40:09Z</time>
      </trkpt>
      <trkpt lat="43.36827" lon="5.52183">
        <ele>350.82</ele>
        <time>2022-06-11T05:40:10Z</time>
      </trkpt>
      <trkpt lat="43.36822" lon="5.52205">
        <ele>350.85</ele>
        <time>2022-06-11T05:40:11Z</time>
      </trkpt>
      <trkpt lat="43.36813" lon="5.52251">
        <ele>353.39</ele>
        <time>2022-06-11T05:40:13Z</time>
      </trkpt>
      <trkpt lat="43.36809" lon="5.52293">
        <ele>353.3</ele>
        <time>2022-06-11T05:40:15Z</time>
      </trkpt>
      <trkpt lat="43.36813" lon="5.52311">
        <ele>354.18</ele>
        <time>2022-06-11T05:40:16Z</time>
      </trkpt>
      <trkpt lat="43.36825" lon="5.52347">
        <ele>354.94</ele>
        <time>2022-06-11T05:40:18Z</time>
      </trkpt>
      <trkpt lat="43.36827" lon="5.52365">
        <ele>354.93</ele>
        <time>2022-06-11T05:40:19Z</time>
      </trkpt>
      <trkpt lat="43.36824" lon="5.52384">
        <ele>355.97</ele>
        <time>2022-06-11T05:40:20Z</time>
      </trkpt>
      <trkpt lat="43.36817" lon="5.52402">
        <ele>355.97</ele>
        <time>2022-06-11T05:40:21Z</time>
      </trkpt>
      <trkpt lat="43.36809" lon="5.5242">
        <ele>357.84</ele>
        <time>2022-06-11T05:40:22Z</time>
      </trkpt>
      <trkpt lat="43.368" lon="5.52436">
        <ele>357.82</ele>
        <time>2022-06-11T05:40:23Z</time>
      </trkpt>
      <trkpt lat="43.36788" lon="5.52449">
        <ele>359.11</ele>
        <time>2022-06-11T05:40:24Z</time>
      </trkpt>
      <trkpt lat="43.36776" lon="5.5246">
        <ele>359.88</ele>
        <time>2022-06-11T05:40:25Z</time>
      </trkpt>
      <trkpt lat="43.36766" lon="5.52473">
        <ele>359.9</ele>
        <time>2022-06-11T05:40:26Z</time>
      </trkpt>
      <trkpt lat="43.36757" lon="5.52487">
        <ele>360.23</ele>
        <time>2022-06-11T05:40:27Z</time>
      </trkpt>
      <trkpt lat="43.36752" lon="5.52502">
        <ele>360.19</ele>
        <time>2022-06-11T05:40:28Z</time>
      </trkpt>
      <trkpt lat="43.36752" lon="5.52519">
        <ele>360.23</ele>
        <time>2022-06-11T05:40:29Z</time>
      </trkpt>
      <trkpt lat="43.36757" lon="5.52535">
        <ele>361</ele>
        <time>2022-06-11T05:40:30Z</time>
      </trkpt>
      <trkpt lat="43.36766" lon="5.52549">
        <ele>360.96</ele>
        <time>2022-06-11T05:40:31Z</time>
      </trkpt>
      <trkpt lat="43.36777" lon="5.52557">
        <ele>362.67</ele>
        <time>2022-06-11T05:40:32Z</time>
      </trkpt>
      <trkpt lat="43.36791" lon="5.5256">
        <ele>362.63</ele>
        <time>2022-06-11T05:40:33Z</time>
      </trkpt>
      <trkpt lat="43.36807" lon="5.52562">
        <ele>363.84</ele>
        <time>2022-06-11T05:40:34Z</time>
      </trkpt>
      <trkpt lat="43.36823" lon="5.52566">
        <ele>364.67</ele>
        <time>2022-06-11T05:40:35Z</time>
      </trkpt>
      <trkpt lat="43.36838" lon="5.52574">
        <ele>365.41</ele>
        <time>2022-06-11T05:40:36Z</time>
      </trkpt>
      <trkpt lat="43.36866" lon="5.52589">
        <ele>366.46</ele>
        <time>2022-06-11T05:40:38Z</time>
      </trkpt>
      <trkpt lat="43.36877" lon="5.52597">
        <ele>366.48</ele>
        <time>2022-06-11T05:40:39Z</time>
      </trkpt>
      <trkpt lat="43.36884" lon="5.52609">
        <ele>366.36</ele>
        <time>2022-06-11T05:40:40Z</time>
      </trkpt>
      <trkpt lat="43.36886" lon="5.52622">
        <ele>366.35</ele>
        <time>2022-06-11T05:40:41Z</time>
      </trkpt>
      <trkpt lat="43.36882" lon="5.52635">
        <ele>366.32</ele>
        <time>2022-06-11T05:40:42Z</time>
      </trkpt>
      <trkpt lat="43.36876" lon="5.52647">
        <ele>366.28</ele>
        <time>2022-06-11T05:40:43Z</time>
      </trkpt>
      <trkpt lat="43.36868" lon="5.52661">
        <ele>368.24</ele>
        <time>2022-06-11T05:40:44Z</time>
      </trkpt>
      <trkpt lat="43.36862" lon="5.52677">
        <ele>369.12</ele>
        <time>2022-06-11T05:40:45Z</time>
      </trkpt>
      <trkpt lat="43.36856" lon="5.52694">
        <ele>369.95</ele>
        <time>2022-06-11T05:40:46Z</time>
      </trkpt>
      <trkpt lat="43.36852" lon="5.52713">
        <ele>370</ele>
        <time>2022-06-11T05:40:47Z</time>
      </trkpt>
      <trkpt lat="43.36851" lon="5.52731">
        <ele>371.07</ele>
        <time>2022-06-11T05:40:48Z</time>
      </trkpt>
      <trkpt lat="43.36855" lon="5.52751">
        <ele>371.03</ele>
        <time>2022-06-11T05:40:49Z</time>
      </trkpt>
      <trkpt lat="43.36863" lon="5.52769">
        <ele>371.01</ele>
        <time>2022-06-11T05:40:50Z</time>
      </trkpt>
      <trkpt lat="43.36874" lon="5.52787">
        <ele>372.62</ele>
        <time>2022-06-11T05:40:51Z</time>
      </trkpt>
      <trkpt lat="43.36885" lon="5.52807">
        <ele>372.56</ele>
        <time>2022-06-11T05:40:52Z</time>
      </trkpt>
      <trkpt lat="43.36898" lon="5.52824">
        <ele>373.92</ele>
        <time>2022-06-11T05:40:53Z</time>
      </trkpt>
      <trkpt lat="43.36913" lon="5.52841">
        <ele>373.87</ele>
        <time>2022-06-11T05:40:54Z</time>
      </trkpt>
      <trkpt lat="43.3697" lon="5.52906">
        <ele>374.98</ele>
        <time>2022-06-11T05:40:58Z</time>
      </trkpt>
      <trkpt lat="43.36981" lon="5.52925">
        <ele>374.94</ele>
        <time>2022-06-11T05:40:59Z</time>
      </trkpt>
      <trkpt lat="43.36991" lon="5.52944">
        <ele>374.92</ele>
        <time>2022-06-11T05:41:00Z</time>
      </trkpt>
      <trkpt lat="43.36997" lon="5.52964">
        <ele>374.88</ele>
        <time>2022-06-11T05:41:01Z</time>
      </trkpt>
      <trkpt lat="43.37001" lon="5.52985">
        <ele>374.86</ele>
        <time>2022-06-11T05:41:02Z</time>
      </trkpt>
      <trkpt lat="43.37001" lon="5.53007">
        <ele>374.82</ele>
        <time>2022-06-11T05:41:03Z</time>
      </trkpt>
      <trkpt lat="43.37" lon="5.53031">
        <ele>375.53</ele>
        <time>2022-06-11T05:41:04Z</time>
      </trkpt>
      <trkpt lat="43.36997" lon="5.53081">
        <ele>376.26</ele>
        <time>2022-06-11T05:41:06Z</time>
      </trkpt>
      <trkpt lat="43.36996" lon="5.53159">
        <ele>378.19</ele>
        <time>2022-06-11T05:41:09Z</time>
      </trkpt>
      <trkpt lat="43.36999" lon="5.53205">
        <ele>378.09</ele>
        <time>2022-06-11T05:41:11Z</time>
      </trkpt>
      <trkpt lat="43.37005" lon="5.53225">
        <ele>378.03</ele>
        <time>2022-06-11T05:41:12Z</time>
      </trkpt>
      <trkpt lat="43.37016" lon="5.53242">
        <ele>379.01</ele>
        <time>2022-06-11T05:41:13Z</time>
      </trkpt>
      <trkpt lat="43.3703" lon="5.53254">
        <ele>379.75</ele>
        <time>2022-06-11T05:41:14Z</time>
      </trkpt>
      <trkpt lat="43.37047" lon="5.53264">
        <ele>379.68</ele>
        <time>2022-06-11T05:41:15Z</time>
      </trkpt>
      <trkpt lat="43.37063" lon="5.53276">
        <ele>379.72</ele>
        <time>2022-06-11T05:41:16Z</time>
      </trkpt>
      <trkpt lat="43.37077" lon="5.53291">
        <ele>380.97</ele>
        <time>2022-06-11T05:41:17Z</time>
      </trkpt>
      <trkpt lat="43.37088" lon="5.5331">
        <ele>381.57</ele>
        <time>2022-06-11T05:41:18Z</time>
      </trkpt>
      <trkpt lat="43.37097" lon="5.53332">
        <ele>381.58</ele>
        <time>2022-06-11T05:41:19Z</time>
      </trkpt>
      <trkpt lat="43.37103" lon="5.53355">
        <ele>382.79</ele>
        <time>2022-06-11T05:41:20Z</time>
      </trkpt>
      <trkpt lat="43.37106" lon="5.5338">
        <ele>382.75</ele>
        <time>2022-06-11T05:41:21Z</time>
      </trkpt>
      <trkpt lat="43.37106" lon="5.53405">
        <ele>383.96</ele>
        <time>2022-06-11T05:41:22Z</time>
      </trkpt>
      <trkpt lat="43.37105" lon="5.5343">
        <ele>385.09</ele>
        <time>2022-06-11T05:41:23Z</time>
      </trkpt>
      <trkpt lat="43.37105" lon="5.53455">
        <ele>385.05</ele>
        <time>2022-06-11T05:41:24Z</time>
      </trkpt>
      <trkpt lat="43.37107" lon="5.53478">
        <ele>386.03</ele>
        <time>2022-06-11T05:41:25Z</time>
      </trkpt>
      <trkpt lat="43.37109" lon="5.53501">
        <ele>385.98</ele>
        <time>2022-06-11T05:41:26Z</time>
      </trkpt>
      <trkpt lat="43.37114" lon="5.53521">
        <ele>385.99</ele>
        <time>2022-06-11T05:41:27Z</time>
      </trkpt>
      <trkpt lat="43.3712" lon="5.53539">
        <ele>385.98</ele>
        <time>2022-06-11T05:41:28Z</time>
      </trkpt>
      <trkpt lat="43.37128" lon="5.53553">
        <ele>385.9</ele>
        <time>2022-06-11T05:41:29Z</time>
      </trkpt>
      <trkpt lat="43.37139" lon="5.53563">
        <ele>385.93</ele>
        <time>2022-06-11T05:41:30Z</time>
      </trkpt>
      <trkpt lat="43.37152" lon="5.53567">
        <ele>385.88</ele>
        <time>2022-06-11T05:41:31Z</time>
      </trkpt>
      <trkpt lat="43.37167" lon="5.53569">
        <ele>387.89</ele>
        <time>2022-06-11T05:41:32Z</time>
      </trkpt>
      <trkpt lat="43.37183" lon="5.53571">
        <ele>387.86</ele>
        <time>2022-06-11T05:41:33Z</time>
      </trkpt>
      <trkpt lat="43.372" lon="5.53575">
        <ele>389</ele>
        <time>2022-06-11T05:41:34Z</time>
      </trkpt>
      <trkpt lat="43.37215" lon="5.53583">
        <ele>389.02</ele>
        <time>2022-06-11T05:41:35Z</time>
      </trkpt>
      <trkpt lat="43.37229" lon="5.53596">
        <ele>390.67</ele>
        <time>2022-06-11T05:41:36Z</time>
      </trkpt>
      <trkpt lat="43.37239" lon="5.53615">
        <ele>391.58</ele>
        <time>2022-06-11T05:41:37Z</time>
      </trkpt>
      <trkpt lat="43.37248" lon="5.53638">
        <ele>392.52</ele>
        <time>2022-06-11T05:41:38Z</time>
      </trkpt>
      <trkpt lat="43.37257" lon="5.53663">
        <ele>395</ele>
        <time>2022-06-11T05:41:39Z</time>
      </trkpt>
      <trkpt lat="43.37298" lon="5.5378">
        <ele>396.63</ele>
        <time>2022-06-11T05:41:44Z</time>
      </trkpt>
      <trkpt lat="43.37309" lon="5.53792">
        <ele>397.81</ele>
        <time>2022-06-11T05:41:45Z</time>
      </trkpt>
      <trkpt lat="43.37323" lon="5.53798">
        <ele>398.6</ele>
        <time>2022-06-11T05:41:46Z</time>
      </trkpt>
      <trkpt lat="43.37341" lon="5.53797">
        <ele>399.94</ele>
        <time>2022-06-11T05:41:47Z</time>
      </trkpt>
      <trkpt lat="43.37359" lon="5.53792">
        <ele>401.44</ele>
        <time>2022-06-11T05:41:48Z</time>
      </trkpt>
      <trkpt lat="43.37379" lon="5.53785">
        <ele>402.4</ele>
        <time>2022-06-11T05:41:49Z</time>
      </trkpt>
      <trkpt lat="43.37399" lon="5.53776">
        <ele>402.44</ele>
        <time>2022-06-11T05:41:50Z</time>
      </trkpt>
      <trkpt lat="43.37438" lon="5.53758">
        <ele>403.93</ele>
        <time>2022-06-11T05:41:52Z</time>
      </trkpt>
      <trkpt lat="43.37457" lon="5.53752">
        <ele>403.86</ele>
        <time>2022-06-11T05:41:53Z</time>
      </trkpt>
      <trkpt lat="43.37476" lon="5.53751">
        <ele>403.87</ele>
        <time>2022-06-11T05:41:54Z</time>
      </trkpt>
      <trkpt lat="43.37495" lon="5.53755">
        <ele>404.66</ele>
        <time>2022-06-11T05:41:55Z</time>
      </trkpt>
      <trkpt lat="43.37513" lon="5.53764">
        <ele>404.57</ele>
        <time>2022-06-11T05:41:56Z</time>
      </trkpt>
      <trkpt lat="43.37531" lon="5.53776">
        <ele>404.55</ele>
        <time>2022-06-11T05:41:57Z</time>
      </trkpt>
      <trkpt lat="43.37549" lon="5.5379">
        <ele>405.71</ele>
        <time>2022-06-11T05:41:58Z</time>
      </trkpt>
      <trkpt lat="43.37565" lon="5.53806">
        <ele>405.69</ele>
        <time>2022-06-11T05:41:59Z</time>
      </trkpt>
      <trkpt lat="43.37582" lon="5.53823">
        <ele>406.53</ele>
        <time>2022-06-11T05:42:00Z</time>
      </trkpt>
      <trkpt lat="43.37617" lon="5.53855">
        <ele>408.13</ele>
        <time>2022-06-11T05:42:02Z</time>
      </trkpt>
      <trkpt lat="43.37703" lon="5.53915">
        <ele>408.27</ele>
        <time>2022-06-11T05:42:07Z</time>
      </trkpt>
      <trkpt lat="43.37719" lon="5.53919">
        <ele>408.27</ele>
        <time>2022-06-11T05:42:08Z</time>
      </trkpt>
      <trkpt lat="43.37735" lon="5.53916">
        <ele>408.26</ele>
        <time>2022-06-11T05:42:09Z</time>
      </trkpt>
      <trkpt lat="43.3775" lon="5.53907">
        <ele>408.22</ele>
        <time>2022-06-11T05:42:10Z</time>
      </trkpt>
      <trkpt lat="43.37763" lon="5.53894">
        <ele>408.22</ele>
        <time>2022-06-11T05:42:11Z</time>
      </trkpt>
      <trkpt lat="43.37776" lon="5.53882">
        <ele>408.17</ele>
        <time>2022-06-11T05:42:12Z</time>
      </trkpt>
      <trkpt lat="43.37788" lon="5.53873">
        <ele>408.11</ele>
        <time>2022-06-11T05:42:13Z</time>
      </trkpt>
      <trkpt lat="43.37802" lon="5.53869">
        <ele>408.11</ele>
        <time>2022-06-11T05:42:14Z</time>
      </trkpt>
      <trkpt lat="43.37815" lon="5.5387">
        <ele>408.07</ele>
        <time>2022-06-11T05:42:15Z</time>
      </trkpt>
      <trkpt lat="43.37828" lon="5.53877">
        <ele>408.03</ele>
        <time>2022-06-11T05:42:16Z</time>
      </trkpt>
      <trkpt lat="43.37838" lon="5.53888">
        <ele>409.29</ele>
        <time>2022-06-11T05:42:17Z</time>
      </trkpt>
      <trkpt lat="43.37845" lon="5.53904">
        <ele>409.2</ele>
        <time>2022-06-11T05:42:18Z</time>
      </trkpt>
      <trkpt lat="43.37848" lon="5.53923">
        <ele>409.17</ele>
        <time>2022-06-11T05:42:19Z</time>
      </trkpt>
      <trkpt lat="43.37847" lon="5.53943">
        <ele>410.73</ele>
        <time>2022-06-11T05:42:20Z</time>
      </trkpt>
      <trkpt lat="43.37844" lon="5.53965">
        <ele>411.46</ele>
        <time>2022-06-11T05:42:21Z</time>
      </trkpt>
      <trkpt lat="43.37841" lon="5.54011">
        <ele>412.37</ele>
        <time>2022-06-11T05:42:23Z</time>
      </trkpt>
      <trkpt lat="43.37842" lon="5.54035">
        <ele>413.83</ele>
        <time>2022-06-11T05:42:24Z</time>
      </trkpt>
      <trkpt lat="43.37845" lon="5.54059">
        <ele>415.04</ele>
        <time>2022-06-11T05:42:25Z</time>
      </trkpt>
      <trkpt lat="43.37851" lon="5.54082">
        <ele>415.91</ele>
        <time>2022-06-11T05:42:26Z</time>
      </trkpt>
      <trkpt lat="43.37861" lon="5.54103">
        <ele>415.88</ele>
        <time>2022-06-11T05:42:27Z</time>
      </trkpt>
      <trkpt lat="43.37874" lon="5.54122">
        <ele>417.06</ele>
        <time>2022-06-11T05:42:28Z</time>
      </trkpt>
      <trkpt lat="43.37889" lon="5.54139">
        <ele>417.09</ele>
        <time>2022-06-11T05:42:29Z</time>
      </trkpt>
      <trkpt lat="43.37905" lon="5.54154">
        <ele>418.46</ele>
        <time>2022-06-11T05:42:30Z</time>
      </trkpt>
      <trkpt lat="43.37922" lon="5.54167">
        <ele>418.48</ele>
        <time>2022-06-11T05:42:31Z</time>
      </trkpt>
      <trkpt lat="43.3794" lon="5.54179">
        <ele>419.59</ele>
        <time>2022-06-11T05:42:32Z</time>
      </trkpt>
      <trkpt lat="43.37974" lon="5.54207">
        <ele>420.9</ele>
        <time>2022-06-11T05:42:34Z</time>
      </trkpt>
      <trkpt lat="43.37989" lon="5.54225">
        <ele>420.93</ele>
        <time>2022-06-11T05:42:35Z</time>
      </trkpt>
      <trkpt lat="43.38001" lon="5.54248">
        <ele>422.38</ele>
        <time>2022-06-11T05:42:36Z</time>
      </trkpt>
      <trkpt lat="43.3801" lon="5.54273">
        <ele>423.15</ele>
        <time>2022-06-11T05:42:37Z</time>
      </trkpt>
      <trkpt lat="43.38016" lon="5.543">
        <ele>424</ele>
        <time>2022-06-11T05:42:38Z</time>
      </trkpt>
      <trkpt lat="43.38022" lon="5.54327">
        <ele>424.03</ele>
        <time>2022-06-11T05:42:39Z</time>
      </trkpt>
      <trkpt lat="43.38029" lon="5.54352">
        <ele>425.84</ele>
        <time>2022-06-11T05:42:40Z</time>
      </trkpt>
      <trkpt lat="43.3804" lon="5.54375">
        <ele>425.8</ele>
        <time>2022-06-11T05:42:41Z</time>
      </trkpt>
      <trkpt lat="43.38053" lon="5.54394">
        <ele>426.66</ele>
        <time>2022-06-11T05:42:42Z</time>
      </trkpt>
      <trkpt lat="43.38069" lon="5.5441">
        <ele>426.61</ele>
        <time>2022-06-11T05:42:43Z</time>
      </trkpt>
      <trkpt lat="43.38086" lon="5.54422">
        <ele>427.86</ele>
        <time>2022-06-11T05:42:44Z</time>
      </trkpt>
      <trkpt lat="43.38104" lon="5.54435">
        <ele>427.88</ele>
        <time>2022-06-11T05:42:45Z</time>
      </trkpt>
      <trkpt lat="43.38121" lon="5.54448">
        <ele>429.12</ele>
        <time>2022-06-11T05:42:46Z</time>
      </trkpt>
      <trkpt lat="43.38137" lon="5.54464">
        <ele>429.07</ele>
        <time>2022-06-11T05:42:47Z</time>
      </trkpt>
      <trkpt lat="43.38149" lon="5.54485">
        <ele>430.2</ele>
        <time>2022-06-11T05:42:48Z</time>
      </trkpt>
      <trkpt lat="43.3816" lon="5.54508">
        <ele>431.05</ele>
        <time>2022-06-11T05:42:49Z</time>
      </trkpt>
      <trkpt lat="43.38169" lon="5.54531">
        <ele>431.01</ele>
        <time>2022-06-11T05:42:50Z</time>
      </trkpt>
      <trkpt lat="43.38187" lon="5.54572">
        <ele>432.41</ele>
        <time>2022-06-11T05:42:52Z</time>
      </trkpt>
      <trkpt lat="43.38211" lon="5.54617">
        <ele>432.33</ele>
        <time>2022-06-11T05:42:55Z</time>
      </trkpt>
      <trkpt lat="43.3822" lon="5.54627">
        <ele>431.71</ele>
        <time>2022-06-11T05:42:56Z</time>
      </trkpt>
      <trkpt lat="43.3823" lon="5.54633">
        <ele>431.76</ele>
        <time>2022-06-11T05:42:57Z</time>
      </trkpt>
      <trkpt lat="43.3825" lon="5.54644">
        <ele>432.68</ele>
        <time>2022-06-11T05:42:59Z</time>
      </trkpt>
      <trkpt lat="43.38259" lon="5.54653">
        <ele>432.64</ele>
        <time>2022-06-11T05:43:00Z</time>
      </trkpt>
      <trkpt lat="43.38265" lon="5.54666">
        <ele>433.51</ele>
        <time>2022-06-11T05:43:01Z</time>
      </trkpt>
      <trkpt lat="43.38268" lon="5.54682">
        <ele>434.27</ele>
        <time>2022-06-11T05:43:02Z</time>
      </trkpt>
      <trkpt lat="43.38268" lon="5.54699">
        <ele>434.29</ele>
        <time>2022-06-11T05:43:03Z</time>
      </trkpt>
      <trkpt lat="43.38267" lon="5.54717">
        <ele>435.74</ele>
        <time>2022-06-11T05:43:04Z</time>
      </trkpt>
      <trkpt lat="43.38267" lon="5.54734">
        <ele>435.71</ele>
        <time>2022-06-11T05:43:05Z</time>
      </trkpt>
      <trkpt lat="43.38268" lon="5.54751">
        <ele>436.85</ele>
        <time>2022-06-11T05:43:06Z</time>
      </trkpt>
      <trkpt lat="43.38271" lon="5.54766">
        <ele>436.81</ele>
        <time>2022-06-11T05:43:07Z</time>
      </trkpt>
      <trkpt lat="43.38278" lon="5.54781">
        <ele>437.61</ele>
        <time>2022-06-11T05:43:08Z</time>
      </trkpt>
      <trkpt lat="43.38288" lon="5.54794">
        <ele>437.65</ele>
        <time>2022-06-11T05:43:09Z</time>
      </trkpt>
      <trkpt lat="43.38301" lon="5.54808">
        <ele>440.02</ele>
        <time>2022-06-11T05:43:10Z</time>
      </trkpt>
      <trkpt lat="43.38313" lon="5.54817">
        <ele>440.77</ele>
        <time>2022-06-11T05:43:11Z</time>
      </trkpt>
      <trkpt lat="43.38326" lon="5.5482">
        <ele>440.78</ele>
        <time>2022-06-11T05:43:12Z</time>
      </trkpt>
      <trkpt lat="43.38337" lon="5.54816">
        <ele>440.74</ele>
        <time>2022-06-11T05:43:13Z</time>
      </trkpt>
      <trkpt lat="43.38347" lon="5.54805">
        <ele>440.76</ele>
        <time>2022-06-11T05:43:14Z</time>
      </trkpt>
      <trkpt lat="43.38357" lon="5.54792">
        <ele>440.89</ele>
        <time>2022-06-11T05:43:15Z</time>
      </trkpt>
      <trkpt lat="43.38368" lon="5.54785">
        <ele>440.69</ele>
        <time>2022-06-11T05:43:16Z</time>
      </trkpt>
      <trkpt lat="43.3838" lon="5.54784">
        <ele>441.87</ele>
        <time>2022-06-11T05:43:17Z</time>
      </trkpt>
      <trkpt lat="43.38392" lon="5.54789">
        <ele>441.81</ele>
        <time>2022-06-11T05:43:18Z</time>
      </trkpt>
      <trkpt lat="43.38404" lon="5.54801">
        <ele>443.75</ele>
        <time>2022-06-11T05:43:19Z</time>
      </trkpt>
      <trkpt lat="43.38415" lon="5.54816">
        <ele>444.88</ele>
        <time>2022-06-11T05:43:20Z</time>
      </trkpt>
      <trkpt lat="43.38424" lon="5.54833">
        <ele>445.26</ele>
        <time>2022-06-11T05:43:21Z</time>
      </trkpt>
      <trkpt lat="43.38433" lon="5.54853">
        <ele>447.26</ele>
        <time>2022-06-11T05:43:22Z</time>
      </trkpt>
      <trkpt lat="43.38443" lon="5.54871">
        <ele>447.28</ele>
        <time>2022-06-11T05:43:23Z</time>
      </trkpt>
      <trkpt lat="43.38455" lon="5.54886">
        <ele>448.45</ele>
        <time>2022-06-11T05:43:24Z</time>
      </trkpt>
      <trkpt lat="43.3847" lon="5.54898">
        <ele>448.42</ele>
        <time>2022-06-11T05:43:25Z</time>
      </trkpt>
      <trkpt lat="43.38483" lon="5.54908">
        <ele>448.38</ele>
        <time>2022-06-11T05:43:26Z</time>
      </trkpt>
      <trkpt lat="43.38492" lon="5.54921">
        <ele>448.39</ele>
        <time>2022-06-11T05:43:27Z</time>
      </trkpt>
      <trkpt lat="43.38496" lon="5.54935">
        <ele>448.35</ele>
        <time>2022-06-11T05:43:28Z</time>
      </trkpt>
      <trkpt lat="43.38495" lon="5.54949">
        <ele>448.26</ele>
        <time>2022-06-11T05:43:29Z</time>
      </trkpt>
      <trkpt lat="43.38488" lon="5.54961">
        <ele>448.33</ele>
        <time>2022-06-11T05:43:30Z</time>
      </trkpt>
      <trkpt lat="43.38477" lon="5.5497">
        <ele>449.81</ele>
        <time>2022-06-11T05:43:31Z</time>
      </trkpt>
      <trkpt lat="43.38463" lon="5.5498">
        <ele>450.84</ele>
        <time>2022-06-11T05:43:32Z</time>
      </trkpt>
      <trkpt lat="43.3845" lon="5.54993">
        <ele>452.16</ele>
        <time>2022-06-11T05:43:33Z</time>
      </trkpt>
      <trkpt lat="43.38438" lon="5.55007">
        <ele>453.03</ele>
        <time>2022-06-11T05:43:34Z</time>
      </trkpt>
      <trkpt lat="43.3843" lon="5.55024">
        <ele>452.95</ele>
        <time>2022-06-11T05:43:35Z</time>
      </trkpt>
      <trkpt lat="43.38427" lon="5.55044">
        <ele>452.93</ele>
        <time>2022-06-11T05:43:36Z</time>
      </trkpt>
      <trkpt lat="43.38429" lon="5.55065">
        <ele>454.87</ele>
        <time>2022-06-11T05:43:37Z</time>
      </trkpt>
      <trkpt lat="43.38435" lon="5.55087">
        <ele>456.2</ele>
        <time>2022-06-11T05:43:38Z</time>
      </trkpt>
      <trkpt lat="43.38442" lon="5.55111">
        <ele>458.18</ele>
        <time>2022-06-11T05:43:39Z</time>
      </trkpt>
      <trkpt lat="43.38458" lon="5.55162">
        <ele>459.37</ele>
        <time>2022-06-11T05:43:41Z</time>
      </trkpt>
      <trkpt lat="43.38472" lon="5.55211">
        <ele>461.19</ele>
        <time>2022-06-11T05:43:43Z</time>
      </trkpt>
      <trkpt lat="43.38482" lon="5.55254">
        <ele>461.19</ele>
        <time>2022-06-11T05:43:45Z</time>
      </trkpt>
      <trkpt lat="43.38482" lon="5.55274">
        <ele>460.44</ele>
        <time>2022-06-11T05:43:46Z</time>
      </trkpt>
      <trkpt lat="43.38479" lon="5.55293">
        <ele>461.5</ele>
        <time>2022-06-11T05:43:47Z</time>
      </trkpt>
      <trkpt lat="43.38471" lon="5.55311">
        <ele>461.55</ele>
        <time>2022-06-11T05:43:48Z</time>
      </trkpt>
      <trkpt lat="43.38462" lon="5.55328">
        <ele>461.51</ele>
        <time>2022-06-11T05:43:49Z</time>
      </trkpt>
      <trkpt lat="43.38451" lon="5.55345">
        <ele>463.52</ele>
        <time>2022-06-11T05:43:50Z</time>
      </trkpt>
      <trkpt lat="43.38432" lon="5.55384">
        <ele>464.53</ele>
        <time>2022-06-11T05:43:52Z</time>
      </trkpt>
      <trkpt lat="43.38424" lon="5.55405">
        <ele>465.35</ele>
        <time>2022-06-11T05:43:53Z</time>
      </trkpt>
      <trkpt lat="43.38418" lon="5.55427">
        <ele>465.3</ele>
        <time>2022-06-11T05:43:54Z</time>
      </trkpt>
      <trkpt lat="43.38409" lon="5.55469">
        <ele>466.06</ele>
        <time>2022-06-11T05:43:56Z</time>
      </trkpt>
      <trkpt lat="43.38407" lon="5.55491">
        <ele>465.98</ele>
        <time>2022-06-11T05:43:57Z</time>
      </trkpt>
      <trkpt lat="43.38409" lon="5.55512">
        <ele>465.92</ele>
        <time>2022-06-11T05:43:58Z</time>
      </trkpt>
      <trkpt lat="43.38413" lon="5.55532">
        <ele>465.88</ele>
        <time>2022-06-11T05:43:59Z</time>
      </trkpt>
      <trkpt lat="43.38419" lon="5.55552">
        <ele>465.81</ele>
        <time>2022-06-11T05:44:00Z</time>
      </trkpt>
      <trkpt lat="43.38423" lon="5.5557">
        <ele>465.77</ele>
        <time>2022-06-11T05:44:01Z</time>
      </trkpt>
      <trkpt lat="43.38426" lon="5.55589">
        <ele>465.72</ele>
        <time>2022-06-11T05:44:02Z</time>
      </trkpt>
      <trkpt lat="43.38426" lon="5.55607">
        <ele>463.29</ele>
        <time>2022-06-11T05:44:03Z</time>
      </trkpt>
      <trkpt lat="43.38424" lon="5.55625">
        <ele>463.25</ele>
        <time>2022-06-11T05:44:04Z</time>
      </trkpt>
      <trkpt lat="43.38421" lon="5.55642">
        <ele>463.16</ele>
        <time>2022-06-11T05:44:05Z</time>
      </trkpt>
      <trkpt lat="43.38417" lon="5.55659">
        <ele>461.86</ele>
        <time>2022-06-11T05:44:06Z</time>
      </trkpt>
      <trkpt lat="43.38411" lon="5.55674">
        <ele>461.77</ele>
        <time>2022-06-11T05:44:07Z</time>
      </trkpt>
      <trkpt lat="43.38405" lon="5.55689">
        <ele>461.67</ele>
        <time>2022-06-11T05:44:08Z</time>
      </trkpt>
      <trkpt lat="43.38395" lon="5.55718">
        <ele>460.16</ele>
        <time>2022-06-11T05:44:10Z</time>
      </trkpt>
      <trkpt lat="43.38386" lon="5.55749">
        <ele>459.42</ele>
        <time>2022-06-11T05:44:12Z</time>
      </trkpt>
      <trkpt lat="43.38384" lon="5.55766">
        <ele>459.35</ele>
        <time>2022-06-11T05:44:13Z</time>
      </trkpt>
      <trkpt lat="43.38386" lon="5.55784">
        <ele>459.32</ele>
        <time>2022-06-11T05:44:14Z</time>
      </trkpt>
      <trkpt lat="43.38391" lon="5.55802">
        <ele>459.24</ele>
        <time>2022-06-11T05:44:15Z</time>
      </trkpt>
      <trkpt lat="43.38396" lon="5.5582">
        <ele>459.21</ele>
        <time>2022-06-11T05:44:16Z</time>
      </trkpt>
      <trkpt lat="43.38408" lon="5.5586">
        <ele>457.95</ele>
        <time>2022-06-11T05:44:18Z</time>
      </trkpt>
      <trkpt lat="43.38431" lon="5.55936">
        <ele>455.31</ele>
        <time>2022-06-11T05:44:22Z</time>
      </trkpt>
      <trkpt lat="43.38437" lon="5.55951">
        <ele>453.91</ele>
        <time>2022-06-11T05:44:23Z</time>
      </trkpt>
      <trkpt lat="43.38445" lon="5.55963">
        <ele>452.94</ele>
        <time>2022-06-11T05:44:24Z</time>
      </trkpt>
      <trkpt lat="43.38455" lon="5.55971">
        <ele>452.03</ele>
        <time>2022-06-11T05:44:25Z</time>
      </trkpt>
      <trkpt lat="43.38466" lon="5.55974">
        <ele>452.05</ele>
        <time>2022-06-11T05:44:26Z</time>
      </trkpt>
      <trkpt lat="43.38478" lon="5.55973">
        <ele>451.17</ele>
        <time>2022-06-11T05:44:27Z</time>
      </trkpt>
      <trkpt lat="43.38491" lon="5.5597">
        <ele>451.1</ele>
        <time>2022-06-11T05:44:28Z</time>
      </trkpt>
      <trkpt lat="43.38528" lon="5.55959">
        <ele>448.69</ele>
        <time>2022-06-11T05:44:31Z</time>
      </trkpt>
      <trkpt lat="43.38537" lon="5.55951">
        <ele>447.22</ele>
        <time>2022-06-11T05:44:32Z</time>
      </trkpt>
      <trkpt lat="43.38545" lon="5.5594">
        <ele>447.18</ele>
        <time>2022-06-11T05:44:33Z</time>
      </trkpt>
      <trkpt lat="43.38551" lon="5.55925">
        <ele>446.81</ele>
        <time>2022-06-11T05:44:34Z</time>
      </trkpt>
      <trkpt lat="43.38554" lon="5.55907">
        <ele>446.78</ele>
        <time>2022-06-11T05:44:35Z</time>
      </trkpt>
      <trkpt lat="43.38554" lon="5.55888">
        <ele>445.65</ele>
        <time>2022-06-11T05:44:36Z</time>
      </trkpt>
      <trkpt lat="43.38554" lon="5.55867">
        <ele>445.65</ele>
        <time>2022-06-11T05:44:37Z</time>
      </trkpt>
      <trkpt lat="43.38557" lon="5.55846">
        <ele>445.55</ele>
        <time>2022-06-11T05:44:38Z</time>
      </trkpt>
      <trkpt lat="43.38564" lon="5.55826">
        <ele>445.52</ele>
        <time>2022-06-11T05:44:39Z</time>
      </trkpt>
      <trkpt lat="43.38575" lon="5.55808">
        <ele>444.56</ele>
        <time>2022-06-11T05:44:40Z</time>
      </trkpt>
      <trkpt lat="43.38588" lon="5.5579">
        <ele>444.54</ele>
        <time>2022-06-11T05:44:41Z</time>
      </trkpt>
      <trkpt lat="43.38652" lon="5.55686">
        <ele>441.72</ele>
        <time>2022-06-11T05:44:46Z</time>
      </trkpt>
      <trkpt lat="43.38671" lon="5.55638">
        <ele>440.26</ele>
        <time>2022-06-11T05:44:48Z</time>
      </trkpt>
      <trkpt lat="43.38694" lon="5.55559">
        <ele>436.6</ele>
        <time>2022-06-11T05:44:51Z</time>
      </trkpt>
      <trkpt lat="43.38718" lon="5.5548">
        <ele>434.1</ele>
        <time>2022-06-11T05:44:54Z</time>
      </trkpt>
      <trkpt lat="43.3875" lon="5.55406">
        <ele>431.78</ele>
        <time>2022-06-11T05:44:57Z</time>
      </trkpt>
      <trkpt lat="43.38775" lon="5.55359">
        <ele>429.51</ele>
        <time>2022-06-11T05:44:59Z</time>
      </trkpt>
      <trkpt lat="43.38815" lon="5.55293">
        <ele>425.85</ele>
        <time>2022-06-11T05:45:02Z</time>
      </trkpt>
      <trkpt lat="43.38844" lon="5.55251">
        <ele>423.28</ele>
        <time>2022-06-11T05:45:04Z</time>
      </trkpt>
      <trkpt lat="43.3886" lon="5.55234">
        <ele>422.38</ele>
        <time>2022-06-11T05:45:05Z</time>
      </trkpt>
      <trkpt lat="43.38878" lon="5.55219">
        <ele>422.34</ele>
        <time>2022-06-11T05:45:06Z</time>
      </trkpt>
      <trkpt lat="43.38896" lon="5.55205">
        <ele>420.65</ele>
        <time>2022-06-11T05:45:07Z</time>
      </trkpt>
      <trkpt lat="43.38913" lon="5.55188">
        <ele>419.75</ele>
        <time>2022-06-11T05:45:08Z</time>
      </trkpt>
      <trkpt lat="43.38929" lon="5.55171">
        <ele>419.72</ele>
        <time>2022-06-11T05:45:09Z</time>
      </trkpt>
      <trkpt lat="43.38945" lon="5.55153">
        <ele>417.96</ele>
        <time>2022-06-11T05:45:10Z</time>
      </trkpt>
      <trkpt lat="43.38989" lon="5.55108">
        <ele>413.74</ele>
        <time>2022-06-11T05:45:13Z</time>
      </trkpt>
      <trkpt lat="43.39004" lon="5.55096">
        <ele>413.72</ele>
        <time>2022-06-11T05:45:14Z</time>
      </trkpt>
      <trkpt lat="43.39019" lon="5.55087">
        <ele>412.13</ele>
        <time>2022-06-11T05:45:15Z</time>
      </trkpt>
      <trkpt lat="43.39034" lon="5.55079">
        <ele>411.14</ele>
        <time>2022-06-11T05:45:16Z</time>
      </trkpt>
      <trkpt lat="43.3905" lon="5.55073">
        <ele>410.26</ele>
        <time>2022-06-11T05:45:17Z</time>
      </trkpt>
      <trkpt lat="43.39066" lon="5.55069">
        <ele>409.09</ele>
        <time>2022-06-11T05:45:18Z</time>
      </trkpt>
      <trkpt lat="43.3908" lon="5.55066">
        <ele>407.65</ele>
        <time>2022-06-11T05:45:19Z</time>
      </trkpt>
      <trkpt lat="43.39093" lon="5.55065">
        <ele>406.27</ele>
        <time>2022-06-11T05:45:20Z</time>
      </trkpt>
      <trkpt lat="43.39103" lon="5.55067">
        <ele>404.9</ele>
        <time>2022-06-11T05:45:21Z</time>
      </trkpt>
      <trkpt lat="43.39111" lon="5.55073">
        <ele>404.12</ele>
        <time>2022-06-11T05:45:22Z</time>
      </trkpt>
      <trkpt lat="43.39117" lon="5.55082">
        <ele>403.22</ele>
        <time>2022-06-11T05:45:23Z</time>
      </trkpt>
      <trkpt lat="43.39122" lon="5.55092">
        <ele>403.08</ele>
        <time>2022-06-11T05:45:24Z</time>
      </trkpt>
      <trkpt lat="43.39128" lon="5.55101">
        <ele>403.11</ele>
        <time>2022-06-11T05:45:25Z</time>
      </trkpt>
      <trkpt lat="43.39136" lon="5.55108">
        <ele>403.11</ele>
        <time>2022-06-11T05:45:26Z</time>
      </trkpt>
      <trkpt lat="43.39156" lon="5.55121">
        <ele>402.95</ele>
        <time>2022-06-11T05:45:28Z</time>
      </trkpt>
      <trkpt lat="43.39177" lon="5.55136">
        <ele>401.64</ele>
        <time>2022-06-11T05:45:30Z</time>
      </trkpt>
      <trkpt lat="43.39189" lon="5.55139">
        <ele>401.64</ele>
        <time>2022-06-11T05:45:31Z</time>
      </trkpt>
      <trkpt lat="43.39201" lon="5.55135">
        <ele>400.37</ele>
        <time>2022-06-11T05:45:32Z</time>
      </trkpt>
      <trkpt lat="43.39212" lon="5.55129">
        <ele>400.36</ele>
        <time>2022-06-11T05:45:33Z</time>
      </trkpt>
      <trkpt lat="43.39223" lon="5.55123">
        <ele>398.92</ele>
        <time>2022-06-11T05:45:34Z</time>
      </trkpt>
      <trkpt lat="43.39234" lon="5.55119">
        <ele>398.85</ele>
        <time>2022-06-11T05:45:35Z</time>
      </trkpt>
      <trkpt lat="43.39245" lon="5.55117">
        <ele>397.56</ele>
        <time>2022-06-11T05:45:36Z</time>
      </trkpt>
      <trkpt lat="43.39256" lon="5.55119">
        <ele>396.74</ele>
        <time>2022-06-11T05:45:37Z</time>
      </trkpt>
      <trkpt lat="43.39267" lon="5.55125">
        <ele>396.69</ele>
        <time>2022-06-11T05:45:38Z</time>
      </trkpt>
      <trkpt lat="43.39277" lon="5.55132">
        <ele>396.65</ele>
        <time>2022-06-11T05:45:39Z</time>
      </trkpt>
      <trkpt lat="43.39288" lon="5.55139">
        <ele>395.75</ele>
        <time>2022-06-11T05:45:40Z</time>
      </trkpt>
      <trkpt lat="43.39299" lon="5.55144">
        <ele>395.73</ele>
        <time>2022-06-11T05:45:41Z</time>
      </trkpt>
      <trkpt lat="43.39311" lon="5.55145">
        <ele>394.9</ele>
        <time>2022-06-11T05:45:42Z</time>
      </trkpt>
      <trkpt lat="43.39323" lon="5.55144">
        <ele>394.99</ele>
        <time>2022-06-11T05:45:43Z</time>
      </trkpt>
      <trkpt lat="43.39335" lon="5.55141">
        <ele>393.57</ele>
        <time>2022-06-11T05:45:44Z</time>
      </trkpt>
      <trkpt lat="43.39369" lon="5.55134">
        <ele>390.56</ele>
        <time>2022-06-11T05:45:47Z</time>
      </trkpt>
      <trkpt lat="43.39378" lon="5.55136">
        <ele>389.49</ele>
        <time>2022-06-11T05:45:48Z</time>
      </trkpt>
      <trkpt lat="43.39387" lon="5.55142">
        <ele>388.5</ele>
        <time>2022-06-11T05:45:49Z</time>
      </trkpt>
      <trkpt lat="43.39393" lon="5.55154">
        <ele>388.46</ele>
        <time>2022-06-11T05:45:50Z</time>
      </trkpt>
      <trkpt lat="43.39398" lon="5.55168">
        <ele>388.44</ele>
        <time>2022-06-11T05:45:51Z</time>
      </trkpt>
      <trkpt lat="43.39402" lon="5.55183">
        <ele>387.66</ele>
        <time>2022-06-11T05:45:52Z</time>
      </trkpt>
      <trkpt lat="43.39406" lon="5.55198">
        <ele>387.68</ele>
        <time>2022-06-11T05:45:53Z</time>
      </trkpt>
      <trkpt lat="43.39408" lon="5.55213">
        <ele>387.6</ele>
        <time>2022-06-11T05:45:54Z</time>
      </trkpt>
      <trkpt lat="43.39409" lon="5.5523">
        <ele>387.61</ele>
        <time>2022-06-11T05:45:55Z</time>
      </trkpt>
      <trkpt lat="43.39411" lon="5.55319">
        <ele>384.48</ele>
        <time>2022-06-11T05:46:00Z</time>
      </trkpt>
      <trkpt lat="43.39412" lon="5.55335">
        <ele>384.4</ele>
        <time>2022-06-11T05:46:01Z</time>
      </trkpt>
      <trkpt lat="43.39418" lon="5.55365">
        <ele>383.19</ele>
        <time>2022-06-11T05:46:03Z</time>
      </trkpt>
      <trkpt lat="43.39425" lon="5.55393">
        <ele>381.69</ele>
        <time>2022-06-11T05:46:05Z</time>
      </trkpt>
      <trkpt lat="43.39432" lon="5.55404">
        <ele>380.33</ele>
        <time>2022-06-11T05:46:06Z</time>
      </trkpt>
      <trkpt lat="43.3944" lon="5.55412">
        <ele>380.31</ele>
        <time>2022-06-11T05:46:07Z</time>
      </trkpt>
      <trkpt lat="43.3945" lon="5.55416">
        <ele>379.41</ele>
        <time>2022-06-11T05:46:08Z</time>
      </trkpt>
      <trkpt lat="43.39461" lon="5.55417">
        <ele>379.39</ele>
        <time>2022-06-11T05:46:09Z</time>
      </trkpt>
      <trkpt lat="43.39471" lon="5.55417">
        <ele>378.53</ele>
        <time>2022-06-11T05:46:10Z</time>
      </trkpt>
      <trkpt lat="43.39481" lon="5.55413">
        <ele>378.45</ele>
        <time>2022-06-11T05:46:11Z</time>
      </trkpt>
      <trkpt lat="43.39492" lon="5.55405">
        <ele>378.46</ele>
        <time>2022-06-11T05:46:12Z</time>
      </trkpt>
      <trkpt lat="43.39503" lon="5.55396">
        <ele>377.12</ele>
        <time>2022-06-11T05:46:13Z</time>
      </trkpt>
      <trkpt lat="43.39514" lon="5.55388">
        <ele>377.17</ele>
        <time>2022-06-11T05:46:14Z</time>
      </trkpt>
      <trkpt lat="43.39527" lon="5.55381">
        <ele>377.15</ele>
        <time>2022-06-11T05:46:15Z</time>
      </trkpt>
      <trkpt lat="43.3954" lon="5.55376">
        <ele>377.07</ele>
        <time>2022-06-11T05:46:16Z</time>
      </trkpt>
      <trkpt lat="43.39554" lon="5.55374">
        <ele>375.73</ele>
        <time>2022-06-11T05:46:17Z</time>
      </trkpt>
      <trkpt lat="43.39567" lon="5.55373">
        <ele>375.7</ele>
        <time>2022-06-11T05:46:18Z</time>
      </trkpt>
      <trkpt lat="43.39581" lon="5.55376">
        <ele>374.47</ele>
        <time>2022-06-11T05:46:19Z</time>
      </trkpt>
      <trkpt lat="43.39594" lon="5.55384">
        <ele>374.44</ele>
        <time>2022-06-11T05:46:20Z</time>
      </trkpt>
      <trkpt lat="43.39607" lon="5.55395">
        <ele>373.88</ele>
        <time>2022-06-11T05:46:21Z</time>
      </trkpt>
      <trkpt lat="43.39618" lon="5.55409">
        <ele>373.85</ele>
        <time>2022-06-11T05:46:22Z</time>
      </trkpt>
      <trkpt lat="43.39629" lon="5.55423">
        <ele>372.99</ele>
        <time>2022-06-11T05:46:23Z</time>
      </trkpt>
      <trkpt lat="43.3964" lon="5.55437">
        <ele>371.89</ele>
        <time>2022-06-11T05:46:24Z</time>
      </trkpt>
      <trkpt lat="43.39652" lon="5.55446">
        <ele>371.09</ele>
        <time>2022-06-11T05:46:25Z</time>
      </trkpt>
      <trkpt lat="43.39664" lon="5.55451">
        <ele>370.18</ele>
        <time>2022-06-11T05:46:26Z</time>
      </trkpt>
      <trkpt lat="43.39676" lon="5.55453">
        <ele>369.3</ele>
        <time>2022-06-11T05:46:27Z</time>
      </trkpt>
      <trkpt lat="43.39689" lon="5.55456">
        <ele>368.33</ele>
        <time>2022-06-11T05:46:28Z</time>
      </trkpt>
      <trkpt lat="43.39699" lon="5.55463">
        <ele>367.08</ele>
        <time>2022-06-11T05:46:29Z</time>
      </trkpt>
      <trkpt lat="43.39706" lon="5.55476">
        <ele>367.05</ele>
        <time>2022-06-11T05:46:30Z</time>
      </trkpt>
      <trkpt lat="43.3971" lon="5.55493">
        <ele>365.85</ele>
        <time>2022-06-11T05:46:31Z</time>
      </trkpt>
      <trkpt lat="43.39714" lon="5.55512">
        <ele>365.78</ele>
        <time>2022-06-11T05:46:32Z</time>
      </trkpt>
      <trkpt lat="43.3972" lon="5.5553">
        <ele>365.78</ele>
        <time>2022-06-11T05:46:33Z</time>
      </trkpt>
      <trkpt lat="43.3973" lon="5.55547">
        <ele>365.69</ele>
        <time>2022-06-11T05:46:34Z</time>
      </trkpt>
      <trkpt lat="43.39742" lon="5.55562">
        <ele>364.64</ele>
        <time>2022-06-11T05:46:35Z</time>
      </trkpt>
      <trkpt lat="43.39757" lon="5.55575">
        <ele>364.57</ele>
        <time>2022-06-11T05:46:36Z</time>
      </trkpt>
      <trkpt lat="43.39773" lon="5.55587">
        <ele>363.37</ele>
        <time>2022-06-11T05:46:37Z</time>
      </trkpt>
      <trkpt lat="43.3979" lon="5.55598">
        <ele>363.34</ele>
        <time>2022-06-11T05:46:38Z</time>
      </trkpt>
      <trkpt lat="43.39875" lon="5.55662">
        <ele>359.53</ele>
        <time>2022-06-11T05:46:43Z</time>
      </trkpt>
      <trkpt lat="43.39904" lon="5.55689">
        <ele>356.98</ele>
        <time>2022-06-11T05:46:45Z</time>
      </trkpt>
      <trkpt lat="43.3993" lon="5.5572">
        <ele>353.07</ele>
        <time>2022-06-11T05:46:47Z</time>
      </trkpt>
      <trkpt lat="43.39965" lon="5.55764">
        <ele>349.41</ele>
        <time>2022-06-11T05:46:50Z</time>
      </trkpt>
      <trkpt lat="43.3999" lon="5.55796">
        <ele>345.89</ele>
        <time>2022-06-11T05:46:53Z</time>
      </trkpt>
      <trkpt lat="43.39994" lon="5.55806">
        <ele>345.75</ele>
        <time>2022-06-11T05:46:54Z</time>
      </trkpt>
      <trkpt lat="43.39997" lon="5.55817">
        <ele>344.08</ele>
        <time>2022-06-11T05:46:55Z</time>
      </trkpt>
      <trkpt lat="43.40001" lon="5.55828">
        <ele>344.05</ele>
        <time>2022-06-11T05:46:56Z</time>
      </trkpt>
      <trkpt lat="43.40007" lon="5.55839">
        <ele>343.91</ele>
        <time>2022-06-11T05:46:57Z</time>
      </trkpt>
      <trkpt lat="43.40014" lon="5.55848">
        <ele>343.88</ele>
        <time>2022-06-11T05:46:58Z</time>
      </trkpt>
      <trkpt lat="43.4002" lon="5.55861">
        <ele>343.74</ele>
        <time>2022-06-11T05:46:59Z</time>
      </trkpt>
      <trkpt lat="43.40025" lon="5.55876">
        <ele>343.82</ele>
        <time>2022-06-11T05:47:00Z</time>
      </trkpt>
      <trkpt lat="43.40028" lon="5.55893">
        <ele>343.7</ele>
        <time>2022-06-11T05:47:01Z</time>
      </trkpt>
      <trkpt lat="43.40031" lon="5.55912">
        <ele>343.69</ele>
        <time>2022-06-11T05:47:02Z</time>
      </trkpt>
      <trkpt lat="43.40032" lon="5.55932">
        <ele>343.59</ele>
        <time>2022-06-11T05:47:03Z</time>
      </trkpt>
      <trkpt lat="43.40031" lon="5.55953">
        <ele>342.52</ele>
        <time>2022-06-11T05:47:04Z</time>
      </trkpt>
      <trkpt lat="43.40028" lon="5.55974">
        <ele>342.47</ele>
        <time>2022-06-11T05:47:05Z</time>
      </trkpt>
      <trkpt lat="43.40025" lon="5.55995">
        <ele>342.49</ele>
        <time>2022-06-11T05:47:06Z</time>
      </trkpt>
      <trkpt lat="43.40023" lon="5.56017">
        <ele>342.48</ele>
        <time>2022-06-11T05:47:07Z</time>
      </trkpt>
      <trkpt lat="43.40024" lon="5.56039">
        <ele>342.55</ele>
        <time>2022-06-11T05:47:08Z</time>
      </trkpt>
      <trkpt lat="43.40026" lon="5.56061">
        <ele>341.6</ele>
        <time>2022-06-11T05:47:09Z</time>
      </trkpt>
      <trkpt lat="43.4003" lon="5.56081">
        <ele>340.23</ele>
        <time>2022-06-11T05:47:10Z</time>
      </trkpt>
      <trkpt lat="43.40035" lon="5.56099">
        <ele>339.43</ele>
        <time>2022-06-11T05:47:11Z</time>
      </trkpt>
      <trkpt lat="43.4004" lon="5.56115">
        <ele>337.61</ele>
        <time>2022-06-11T05:47:12Z</time>
      </trkpt>
      <trkpt lat="43.40049" lon="5.56143">
        <ele>336.33</ele>
        <time>2022-06-11T05:47:14Z</time>
      </trkpt>
      <trkpt lat="43.40058" lon="5.56168">
        <ele>334.95</ele>
        <time>2022-06-11T05:47:16Z</time>
      </trkpt>
      <trkpt lat="43.40073" lon="5.56217">
        <ele>332.05</ele>
        <time>2022-06-11T05:47:20Z</time>
      </trkpt>
      <trkpt lat="43.40083" lon="5.56263">
        <ele>331.9</ele>
        <time>2022-06-11T05:47:23Z</time>
      </trkpt>
      <trkpt lat="43.40083" lon="5.56282">
        <ele>331.87</ele>
        <time>2022-06-11T05:47:24Z</time>
      </trkpt>
      <trkpt lat="43.40083" lon="5.56303">
        <ele>331.78</ele>
        <time>2022-06-11T05:47:25Z</time>
      </trkpt>
      <trkpt lat="43.40083" lon="5.56323">
        <ele>331.75</ele>
        <time>2022-06-11T05:47:26Z</time>
      </trkpt>
      <trkpt lat="43.40083" lon="5.56345">
        <ele>334.31</ele>
        <time>2022-06-11T05:47:27Z</time>
      </trkpt>
      <trkpt lat="43.40085" lon="5.56369">
        <ele>335.14</ele>
        <time>2022-06-11T05:47:28Z</time>
      </trkpt>
      <trkpt lat="43.40089" lon="5.56392">
        <ele>335.22</ele>
        <time>2022-06-11T05:47:29Z</time>
      </trkpt>
      <trkpt lat="43.40093" lon="5.56413">
        <ele>335.26</ele>
        <time>2022-06-11T05:47:30Z</time>
      </trkpt>
      <trkpt lat="43.40099" lon="5.5643">
        <ele>335.26</ele>
        <time>2022-06-11T05:47:31Z</time>
      </trkpt>
      <trkpt lat="43.40108" lon="5.56441">
        <ele>335.26</ele>
        <time>2022-06-11T05:47:32Z</time>
      </trkpt>
      <trkpt lat="43.40118" lon="5.56446">
        <ele>335.23</ele>
        <time>2022-06-11T05:47:33Z</time>
      </trkpt>
      <trkpt lat="43.40128" lon="5.56446">
        <ele>335.19</ele>
        <time>2022-06-11T05:47:34Z</time>
      </trkpt>
      <trkpt lat="43.40138" lon="5.56442">
        <ele>335.16</ele>
        <time>2022-06-11T05:47:35Z</time>
      </trkpt>
      <trkpt lat="43.40148" lon="5.56441">
        <ele>335.18</ele>
        <time>2022-06-11T05:47:36Z</time>
      </trkpt>
      <trkpt lat="43.40157" lon="5.56445">
        <ele>335.15</ele>
        <time>2022-06-11T05:47:37Z</time>
      </trkpt>
      <trkpt lat="43.40164" lon="5.56455">
        <ele>335.07</ele>
        <time>2022-06-11T05:47:38Z</time>
      </trkpt>
      <trkpt lat="43.40167" lon="5.5647">
        <ele>335.06</ele>
        <time>2022-06-11T05:47:39Z</time>
      </trkpt>
      <trkpt lat="43.40171" lon="5.56486">
        <ele>336.45</ele>
        <time>2022-06-11T05:47:40Z</time>
      </trkpt>
      <trkpt lat="43.40176" lon="5.56504">
        <ele>337.38</ele>
        <time>2022-06-11T05:47:41Z</time>
      </trkpt>
      <trkpt lat="43.40183" lon="5.56521">
        <ele>337.42</ele>
        <time>2022-06-11T05:47:42Z</time>
      </trkpt>
      <trkpt lat="43.4019" lon="5.56539">
        <ele>338.72</ele>
        <time>2022-06-11T05:47:43Z</time>
      </trkpt>
      <trkpt lat="43.40199" lon="5.56557">
        <ele>339.74</ele>
        <time>2022-06-11T05:47:44Z</time>
      </trkpt>
      <trkpt lat="43.40209" lon="5.56574">
        <ele>340.5</ele>
        <time>2022-06-11T05:47:45Z</time>
      </trkpt>
      <trkpt lat="43.40221" lon="5.5659">
        <ele>340.47</ele>
        <time>2022-06-11T05:47:46Z</time>
      </trkpt>
      <trkpt lat="43.40234" lon="5.56604">
        <ele>342.11</ele>
        <time>2022-06-11T05:47:47Z</time>
      </trkpt>
      <trkpt lat="43.40249" lon="5.56613">
        <ele>342.12</ele>
        <time>2022-06-11T05:47:48Z</time>
      </trkpt>
      <trkpt lat="43.40267" lon="5.56618">
        <ele>343.21</ele>
        <time>2022-06-11T05:47:49Z</time>
      </trkpt>
      <trkpt lat="43.40284" lon="5.5662">
        <ele>343.29</ele>
        <time>2022-06-11T05:47:50Z</time>
      </trkpt>
      <trkpt lat="43.40302" lon="5.5662">
        <ele>344.95</ele>
        <time>2022-06-11T05:47:51Z</time>
      </trkpt>
      <trkpt lat="43.40319" lon="5.56619">
        <ele>344.99</ele>
        <time>2022-06-11T05:47:52Z</time>
      </trkpt>
      <trkpt lat="43.40364" lon="5.56627">
        <ele>344.96</ele>
        <time>2022-06-11T05:47:55Z</time>
      </trkpt>
      <trkpt lat="43.40375" lon="5.56638">
        <ele>345.97</ele>
        <time>2022-06-11T05:47:56Z</time>
      </trkpt>
      <trkpt lat="43.40385" lon="5.56653">
        <ele>346.82</ele>
        <time>2022-06-11T05:47:57Z</time>
      </trkpt>
      <trkpt lat="43.40395" lon="5.56667">
        <ele>346.77</ele>
        <time>2022-06-11T05:47:58Z</time>
      </trkpt>
      <trkpt lat="43.40406" lon="5.56676">
        <ele>347.76</ele>
        <time>2022-06-11T05:47:59Z</time>
      </trkpt>
      <trkpt lat="43.40418" lon="5.56681">
        <ele>347.77</ele>
        <time>2022-06-11T05:48:00Z</time>
      </trkpt>
      <trkpt lat="43.40433" lon="5.56681">
        <ele>348.81</ele>
        <time>2022-06-11T05:48:01Z</time>
      </trkpt>
      <trkpt lat="43.40447" lon="5.56675">
        <ele>348.79</ele>
        <time>2022-06-11T05:48:02Z</time>
      </trkpt>
      <trkpt lat="43.40462" lon="5.56666">
        <ele>351.12</ele>
        <time>2022-06-11T05:48:03Z</time>
      </trkpt>
      <trkpt lat="43.40478" lon="5.56657">
        <ele>351.14</ele>
        <time>2022-06-11T05:48:04Z</time>
      </trkpt>
      <trkpt lat="43.40504" lon="5.56643">
        <ele>351.06</ele>
        <time>2022-06-11T05:48:06Z</time>
      </trkpt>
      <trkpt lat="43.40515" lon="5.56641">
        <ele>351.06</ele>
        <time>2022-06-11T05:48:07Z</time>
      </trkpt>
      <trkpt lat="43.40523" lon="5.56644">
        <ele>351.01</ele>
        <time>2022-06-11T05:48:08Z</time>
      </trkpt>
      <trkpt lat="43.40528" lon="5.56652">
        <ele>350.99</ele>
        <time>2022-06-11T05:48:09Z</time>
      </trkpt>
      <trkpt lat="43.4053" lon="5.56662">
        <ele>350.95</ele>
        <time>2022-06-11T05:48:10Z</time>
      </trkpt>
      <trkpt lat="43.40525" lon="5.56673">
        <ele>350.93</ele>
        <time>2022-06-11T05:48:11Z</time>
      </trkpt>
      <trkpt lat="43.40517" lon="5.56683">
        <ele>350.96</ele>
        <time>2022-06-11T05:48:12Z</time>
      </trkpt>
      <trkpt lat="43.40507" lon="5.56695">
        <ele>352.31</ele>
        <time>2022-06-11T05:48:13Z</time>
      </trkpt>
      <trkpt lat="43.40498" lon="5.56709">
        <ele>353.45</ele>
        <time>2022-06-11T05:48:14Z</time>
      </trkpt>
      <trkpt lat="43.4049" lon="5.56727">
        <ele>354.74</ele>
        <time>2022-06-11T05:48:15Z</time>
      </trkpt>
      <trkpt lat="43.40484" lon="5.56749">
        <ele>356.11</ele>
        <time>2022-06-11T05:48:16Z</time>
      </trkpt>
      <trkpt lat="43.40478" lon="5.56773">
        <ele>357.34</ele>
        <time>2022-06-11T05:48:17Z</time>
      </trkpt>
      <trkpt lat="43.4047" lon="5.56826">
        <ele>360.51</ele>
        <time>2022-06-11T05:48:19Z</time>
      </trkpt>
      <trkpt lat="43.40467" lon="5.56855">
        <ele>362.51</ele>
        <time>2022-06-11T05:48:20Z</time>
      </trkpt>
      <trkpt lat="43.40463" lon="5.56943">
        <ele>364.63</ele>
        <time>2022-06-11T05:48:23Z</time>
      </trkpt>
      <trkpt lat="43.40459" lon="5.5697">
        <ele>365.89</ele>
        <time>2022-06-11T05:48:24Z</time>
      </trkpt>
      <trkpt lat="43.40444" lon="5.5704">
        <ele>365.66</ele>
        <time>2022-06-11T05:48:27Z</time>
      </trkpt>
      <trkpt lat="43.40444" lon="5.57063">
        <ele>366.98</ele>
        <time>2022-06-11T05:48:28Z</time>
      </trkpt>
      <trkpt lat="43.40448" lon="5.57085">
        <ele>368.24</ele>
        <time>2022-06-11T05:48:29Z</time>
      </trkpt>
      <trkpt lat="43.40456" lon="5.57108">
        <ele>369.47</ele>
        <time>2022-06-11T05:48:30Z</time>
      </trkpt>
      <trkpt lat="43.40466" lon="5.57131">
        <ele>370.96</ele>
        <time>2022-06-11T05:48:31Z</time>
      </trkpt>
      <trkpt lat="43.40498" lon="5.57203">
        <ele>373.27</ele>
        <time>2022-06-11T05:48:34Z</time>
      </trkpt>
      <trkpt lat="43.40526" lon="5.57276">
        <ele>375.71</ele>
        <time>2022-06-11T05:48:37Z</time>
      </trkpt>
      <trkpt lat="43.40532" lon="5.573">
        <ele>375.64</ele>
        <time>2022-06-11T05:48:38Z</time>
      </trkpt>
      <trkpt lat="43.4054" lon="5.57322">
        <ele>377.1</ele>
        <time>2022-06-11T05:48:39Z</time>
      </trkpt>
      <trkpt lat="43.4055" lon="5.57343">
        <ele>376.97</ele>
        <time>2022-06-11T05:48:40Z</time>
      </trkpt>
      <trkpt lat="43.40562" lon="5.57363">
        <ele>378.8</ele>
        <time>2022-06-11T05:48:41Z</time>
      </trkpt>
      <trkpt lat="43.40587" lon="5.57401">
        <ele>379.8</ele>
        <time>2022-06-11T05:48:43Z</time>
      </trkpt>
      <trkpt lat="43.40597" lon="5.57419">
        <ele>379.86</ele>
        <time>2022-06-11T05:48:44Z</time>
      </trkpt>
      <trkpt lat="43.40605" lon="5.57438">
        <ele>379.82</ele>
        <time>2022-06-11T05:48:45Z</time>
      </trkpt>
      <trkpt lat="43.40609" lon="5.57458">
        <ele>379.88</ele>
        <time>2022-06-11T05:48:46Z</time>
      </trkpt>
      <trkpt lat="43.40611" lon="5.57479">
        <ele>379.8</ele>
        <time>2022-06-11T05:48:47Z</time>
      </trkpt>
      <trkpt lat="43.40609" lon="5.57503">
        <ele>379.69</ele>
        <time>2022-06-11T05:48:48Z</time>
      </trkpt>
      <trkpt lat="43.40607" lon="5.57526">
        <ele>380.82</ele>
        <time>2022-06-11T05:48:49Z</time>
      </trkpt>
      <trkpt lat="43.40599" lon="5.57628">
        <ele>377.44</ele>
        <time>2022-06-11T05:48:55Z</time>
      </trkpt>
      <trkpt lat="43.40599" lon="5.57634">
        <ele>377.39</ele>
        <time>2022-06-11T05:48:56Z</time>
      </trkpt>
      <trkpt lat="43.406" lon="5.5764">
        <ele>377.29</ele>
        <time>2022-06-11T05:48:58Z</time>
      </trkpt>
      <trkpt lat="43.40605" lon="5.57644">
        <ele>377.27</ele>
        <time>2022-06-11T05:48:59Z</time>
      </trkpt>
      <trkpt lat="43.40612" lon="5.57649">
        <ele>377.23</ele>
        <time>2022-06-11T05:49:00Z</time>
      </trkpt>
      <trkpt lat="43.40621" lon="5.57653">
        <ele>377.2</ele>
        <time>2022-06-11T05:49:01Z</time>
      </trkpt>
      <trkpt lat="43.40632" lon="5.57657">
        <ele>377.21</ele>
        <time>2022-06-11T05:49:02Z</time>
      </trkpt>
      <trkpt lat="43.40645" lon="5.57664">
        <ele>379.9</ele>
        <time>2022-06-11T05:49:03Z</time>
      </trkpt>
      <trkpt lat="43.40673" lon="5.57681">
        <ele>381.79</ele>
        <time>2022-06-11T05:49:05Z</time>
      </trkpt>
      <trkpt lat="43.40719" lon="5.5771">
        <ele>384.17</ele>
        <time>2022-06-11T05:49:08Z</time>
      </trkpt>
      <trkpt lat="43.40753" lon="5.57731">
        <ele>386.33</ele>
        <time>2022-06-11T05:49:10Z</time>
      </trkpt>
      <trkpt lat="43.40812" lon="5.57764">
        <ele>387.31</ele>
        <time>2022-06-11T05:49:14Z</time>
      </trkpt>
      <trkpt lat="43.40826" lon="5.57766">
        <ele>387.93</ele>
        <time>2022-06-11T05:49:15Z</time>
      </trkpt>
      <trkpt lat="43.4084" lon="5.57763">
        <ele>387.9</ele>
        <time>2022-06-11T05:49:16Z</time>
      </trkpt>
      <trkpt lat="43.40854" lon="5.57756">
        <ele>389.02</ele>
        <time>2022-06-11T05:49:17Z</time>
      </trkpt>
      <trkpt lat="43.40867" lon="5.57745">
        <ele>388.99</ele>
        <time>2022-06-11T05:49:18Z</time>
      </trkpt>
      <trkpt lat="43.40881" lon="5.57734">
        <ele>390.49</ele>
        <time>2022-06-11T05:49:19Z</time>
      </trkpt>
      <trkpt lat="43.40895" lon="5.57725">
        <ele>390.51</ele>
        <time>2022-06-11T05:49:20Z</time>
      </trkpt>
      <trkpt lat="43.4091" lon="5.57719">
        <ele>391.69</ele>
        <time>2022-06-11T05:49:21Z</time>
      </trkpt>
      <trkpt lat="43.40926" lon="5.57718">
        <ele>391.72</ele>
        <time>2022-06-11T05:49:22Z</time>
      </trkpt>
      <trkpt lat="43.40941" lon="5.57723">
        <ele>393.01</ele>
        <time>2022-06-11T05:49:23Z</time>
      </trkpt>
      <trkpt lat="43.40954" lon="5.57733">
        <ele>392.99</ele>
        <time>2022-06-11T05:49:24Z</time>
      </trkpt>
      <trkpt lat="43.40965" lon="5.57746">
        <ele>393.94</ele>
        <time>2022-06-11T05:49:25Z</time>
      </trkpt>
      <trkpt lat="43.40977" lon="5.5776">
        <ele>394.69</ele>
        <time>2022-06-11T05:49:26Z</time>
      </trkpt>
      <trkpt lat="43.40989" lon="5.57773">
        <ele>394.69</ele>
        <time>2022-06-11T05:49:27Z</time>
      </trkpt>
      <trkpt lat="43.41001" lon="5.57782">
        <ele>395.58</ele>
        <time>2022-06-11T05:49:28Z</time>
      </trkpt>
      <trkpt lat="43.41015" lon="5.57787">
        <ele>396.36</ele>
        <time>2022-06-11T05:49:29Z</time>
      </trkpt>
      <trkpt lat="43.41032" lon="5.57788">
        <ele>397.5</ele>
        <time>2022-06-11T05:49:30Z</time>
      </trkpt>
      <trkpt lat="43.4105" lon="5.57785">
        <ele>398.67</ele>
        <time>2022-06-11T05:49:31Z</time>
      </trkpt>
      <trkpt lat="43.41071" lon="5.57781">
        <ele>400.05</ele>
        <time>2022-06-11T05:49:32Z</time>
      </trkpt>
      <trkpt lat="43.41141" lon="5.57774">
        <ele>404.96</ele>
        <time>2022-06-11T05:49:35Z</time>
      </trkpt>
      <trkpt lat="43.41163" lon="5.57773">
        <ele>405.01</ele>
        <time>2022-06-11T05:49:36Z</time>
      </trkpt>
      <trkpt lat="43.41268" lon="5.5775">
        <ele>407.29</ele>
        <time>2022-06-11T05:49:41Z</time>
      </trkpt>
      <trkpt lat="43.41376" lon="5.57694">
        <ele>410.3</ele>
        <time>2022-06-11T05:49:47Z</time>
      </trkpt>
      <trkpt lat="43.41393" lon="5.57685">
        <ele>410.25</ele>
        <time>2022-06-11T05:49:48Z</time>
      </trkpt>
      <trkpt lat="43.41438" lon="5.57662">
        <ele>411.48</ele>
        <time>2022-06-11T05:49:51Z</time>
      </trkpt>
      <trkpt lat="43.4146" lon="5.57656">
        <ele>412.36</ele>
        <time>2022-06-11T05:49:53Z</time>
      </trkpt>
      <trkpt lat="43.41469" lon="5.57656">
        <ele>412.33</ele>
        <time>2022-06-11T05:49:54Z</time>
      </trkpt>
      <trkpt lat="43.41477" lon="5.5766">
        <ele>412.3</ele>
        <time>2022-06-11T05:49:55Z</time>
      </trkpt>
      <trkpt lat="43.41494" lon="5.57667">
        <ele>413.14</ele>
        <time>2022-06-11T05:49:57Z</time>
      </trkpt>
      <trkpt lat="43.41502" lon="5.57664">
        <ele>413.09</ele>
        <time>2022-06-11T05:49:58Z</time>
      </trkpt>
      <trkpt lat="43.41524" lon="5.57641">
        <ele>414.58</ele>
        <time>2022-06-11T05:50:01Z</time>
      </trkpt>
      <trkpt lat="43.41544" lon="5.57641">
        <ele>415.39</ele>
        <time>2022-06-11T05:50:03Z</time>
      </trkpt>
      <trkpt lat="43.41621" lon="5.57644">
        <ele>419.25</ele>
        <time>2022-06-11T05:50:09Z</time>
      </trkpt>
      <trkpt lat="43.41634" lon="5.57637">
        <ele>419.23</ele>
        <time>2022-06-11T05:50:10Z</time>
      </trkpt>
      <trkpt lat="43.41647" lon="5.5763">
        <ele>420.03</ele>
        <time>2022-06-11T05:50:11Z</time>
      </trkpt>
      <trkpt lat="43.41705" lon="5.576">
        <ele>417.19</ele>
        <time>2022-06-11T05:50:18Z</time>
      </trkpt>
      <trkpt lat="43.41707" lon="5.57599">
        <ele>417.14</ele>
        <time>2022-06-11T05:50:19Z</time>
      </trkpt>
      <trkpt lat="43.41706" lon="5.57599">
        <ele>416.63</ele>
        <time>2022-06-11T05:50:34Z</time>
      </trkpt>
      <trkpt lat="43.41706" lon="5.576">
        <ele>414.48</ele>
        <time>2022-06-11T05:51:25Z</time>
      </trkpt>
      <trkpt lat="43.41723" lon="5.57587">
        <ele>413.67</ele>
        <time>2022-06-11T05:51:56Z</time>
      </trkpt>
      <trkpt lat="43.41789" lon="5.57545">
        <ele>413.38</ele>
        <time>2022-06-11T05:52:05Z</time>
      </trkpt>
      <trkpt lat="43.41795" lon="5.5754">
        <ele>412.14</ele>
        <time>2022-06-11T05:52:07Z</time>
      </trkpt>
      <trkpt lat="43.41795" lon="5.57539">
        <ele>411.88</ele>
        <time>2022-06-11T05:52:19Z</time>
      </trkpt>
      <trkpt lat="43.41803" lon="5.57534">
        <ele>410.59</ele>
        <time>2022-06-11T05:52:34Z</time>
      </trkpt>
      <trkpt lat="43.41863" lon="5.57491">
        <ele>413.26</ele>
        <time>2022-06-11T05:52:40Z</time>
      </trkpt>
      <trkpt lat="43.41962" lon="5.57424">
        <ele>410.38</ele>
        <time>2022-06-11T05:52:48Z</time>
      </trkpt>
      <trkpt lat="43.41973" lon="5.5742">
        <ele>410.34</ele>
        <time>2022-06-11T05:52:49Z</time>
      </trkpt>
      <trkpt lat="43.41983" lon="5.57419">
        <ele>409.23</ele>
        <time>2022-06-11T05:52:50Z</time>
      </trkpt>
      <trkpt lat="43.42001" lon="5.57426">
        <ele>408.22</ele>
        <time>2022-06-11T05:52:52Z</time>
      </trkpt>
      <trkpt lat="43.42028" lon="5.57485">
        <ele>408.02</ele>
        <time>2022-06-11T05:52:57Z</time>
      </trkpt>
      <trkpt lat="43.42032" lon="5.57531">
        <ele>410.18</ele>
        <time>2022-06-11T05:53:00Z</time>
      </trkpt>
      <trkpt lat="43.42026" lon="5.57598">
        <ele>409.99</ele>
        <time>2022-06-11T05:53:06Z</time>
      </trkpt>
      <trkpt lat="43.42053" lon="5.57605">
        <ele>407.6</ele>
        <time>2022-06-11T05:53:10Z</time>
      </trkpt>
      <trkpt lat="43.42088" lon="5.57547">
        <ele>407.5</ele>
        <time>2022-06-11T05:53:15Z</time>
      </trkpt>
      <trkpt lat="43.42149" lon="5.57517">
        <ele>407.38</ele>
        <time>2022-06-11T05:53:19Z</time>
      </trkpt>
      <trkpt lat="43.42187" lon="5.57509">
        <ele>406.16</ele>
        <time>2022-06-11T05:53:21Z</time>
      </trkpt>
      <trkpt lat="43.42362" lon="5.57489">
        <ele>404</ele>
        <time>2022-06-11T05:53:29Z</time>
      </trkpt>
      <trkpt lat="43.42556" lon="5.57478">
        <ele>401.41</ele>
        <time>2022-06-11T05:53:37Z</time>
      </trkpt>
      <trkpt lat="43.42603" lon="5.57476">
        <ele>400.03</ele>
        <time>2022-06-11T05:53:39Z</time>
      </trkpt>
      <trkpt lat="43.42649" lon="5.57475">
        <ele>398.81</ele>
        <time>2022-06-11T05:53:41Z</time>
      </trkpt>
      <trkpt lat="43.42762" lon="5.57471">
        <ele>395.65</ele>
        <time>2022-06-11T05:53:46Z</time>
      </trkpt>
      <trkpt lat="43.42785" lon="5.5747">
        <ele>395.62</ele>
        <time>2022-06-11T05:53:47Z</time>
      </trkpt>
      <trkpt lat="43.42852" lon="5.57469">
        <ele>393.59</ele>
        <time>2022-06-11T05:53:50Z</time>
      </trkpt>
      <trkpt lat="43.42897" lon="5.57468">
        <ele>392.28</ele>
        <time>2022-06-11T05:53:52Z</time>
      </trkpt>
      <trkpt lat="43.42987" lon="5.57467">
        <ele>389.98</ele>
        <time>2022-06-11T05:53:56Z</time>
      </trkpt>
      <trkpt lat="43.43033" lon="5.57466">
        <ele>388.48</ele>
        <time>2022-06-11T05:53:58Z</time>
      </trkpt>
      <trkpt lat="43.43079" lon="5.57465">
        <ele>386.88</ele>
        <time>2022-06-11T05:54:00Z</time>
      </trkpt>
      <trkpt lat="43.43125" lon="5.57464">
        <ele>385.15</ele>
        <time>2022-06-11T05:54:02Z</time>
      </trkpt>
      <trkpt lat="43.43192" lon="5.57464">
        <ele>381.08</ele>
        <time>2022-06-11T05:54:05Z</time>
      </trkpt>
      <trkpt lat="43.43214" lon="5.57464">
        <ele>381.05</ele>
        <time>2022-06-11T05:54:06Z</time>
      </trkpt>
      <trkpt lat="43.43281" lon="5.57463">
        <ele>378.38</ele>
        <time>2022-06-11T05:54:09Z</time>
      </trkpt>
      <trkpt lat="43.43371" lon="5.57464">
        <ele>375.95</ele>
        <time>2022-06-11T05:54:13Z</time>
      </trkpt>
      <trkpt lat="43.43439" lon="5.57464">
        <ele>373.38</ele>
        <time>2022-06-11T05:54:16Z</time>
      </trkpt>
      <trkpt lat="43.43507" lon="5.57466">
        <ele>370</ele>
        <time>2022-06-11T05:54:19Z</time>
      </trkpt>
      <trkpt lat="43.4353" lon="5.57466">
        <ele>369.87</ele>
        <time>2022-06-11T05:54:20Z</time>
      </trkpt>
      <trkpt lat="43.43718" lon="5.57472">
        <ele>366.15</ele>
        <time>2022-06-11T05:54:28Z</time>
      </trkpt>
      <trkpt lat="43.43742" lon="5.57473">
        <ele>366.08</ele>
        <time>2022-06-11T05:54:29Z</time>
      </trkpt>
      <trkpt lat="43.43812" lon="5.57475">
        <ele>363.45</ele>
        <time>2022-06-11T05:54:32Z</time>
      </trkpt>
      <trkpt lat="43.43906" lon="5.57479">
        <ele>361.33</ele>
        <time>2022-06-11T05:54:36Z</time>
      </trkpt>
      <trkpt lat="43.43978" lon="5.57483">
        <ele>359.84</ele>
        <time>2022-06-11T05:54:39Z</time>
      </trkpt>
      <trkpt lat="43.44073" lon="5.57488">
        <ele>357.36</ele>
        <time>2022-06-11T05:54:43Z</time>
      </trkpt>
      <trkpt lat="43.44215" lon="5.57495">
        <ele>354.33</ele>
        <time>2022-06-11T05:54:49Z</time>
      </trkpt>
      <trkpt lat="43.44355" lon="5.57502">
        <ele>350.88</ele>
        <time>2022-06-11T05:54:55Z</time>
      </trkpt>
      <trkpt lat="43.44378" lon="5.57503">
        <ele>350.81</ele>
        <time>2022-06-11T05:54:56Z</time>
      </trkpt>
      <trkpt lat="43.4447" lon="5.57506">
        <ele>349.03</ele>
        <time>2022-06-11T05:55:00Z</time>
      </trkpt>
      <trkpt lat="43.4474" lon="5.5749">
        <ele>346.71</ele>
        <time>2022-06-11T05:55:12Z</time>
      </trkpt>
      <trkpt lat="43.44933" lon="5.57402">
        <ele>345.77</ele>
        <time>2022-06-11T05:55:21Z</time>
      </trkpt>
      <trkpt lat="43.45037" lon="5.57333">
        <ele>344.22</ele>
        <time>2022-06-11T05:55:26Z</time>
      </trkpt>
      <trkpt lat="43.45099" lon="5.57288">
        <ele>342.56</ele>
        <time>2022-06-11T05:55:29Z</time>
      </trkpt>
      <trkpt lat="43.45183" lon="5.57228">
        <ele>340.45</ele>
        <time>2022-06-11T05:55:33Z</time>
      </trkpt>
      <trkpt lat="43.45225" lon="5.57198">
        <ele>338.99</ele>
        <time>2022-06-11T05:55:35Z</time>
      </trkpt>
      <trkpt lat="43.45268" lon="5.57168">
        <ele>337.14</ele>
        <time>2022-06-11T05:55:37Z</time>
      </trkpt>
      <trkpt lat="43.45331" lon="5.57124">
        <ele>333.88</ele>
        <time>2022-06-11T05:55:40Z</time>
      </trkpt>
      <trkpt lat="43.45352" lon="5.57109">
        <ele>333.81</ele>
        <time>2022-06-11T05:55:41Z</time>
      </trkpt>
      <trkpt lat="43.45416" lon="5.57066">
        <ele>331.57</ele>
        <time>2022-06-11T05:55:44Z</time>
      </trkpt>
      <trkpt lat="43.45481" lon="5.57028">
        <ele>329.51</ele>
        <time>2022-06-11T05:55:47Z</time>
      </trkpt>
      <trkpt lat="43.45524" lon="5.57005">
        <ele>327.32</ele>
        <time>2022-06-11T05:55:49Z</time>
      </trkpt>
      <trkpt lat="43.45567" lon="5.56984">
        <ele>325.78</ele>
        <time>2022-06-11T05:55:51Z</time>
      </trkpt>
      <trkpt lat="43.45611" lon="5.56966">
        <ele>324.49</ele>
        <time>2022-06-11T05:55:53Z</time>
      </trkpt>
      <trkpt lat="43.45656" lon="5.56951">
        <ele>322.98</ele>
        <time>2022-06-11T05:55:55Z</time>
      </trkpt>
      <trkpt lat="43.457" lon="5.56937">
        <ele>321.43</ele>
        <time>2022-06-11T05:55:57Z</time>
      </trkpt>
      <trkpt lat="43.45767" lon="5.56919">
        <ele>318.08</ele>
        <time>2022-06-11T05:56:00Z</time>
      </trkpt>
      <trkpt lat="43.4579" lon="5.56913">
        <ele>318.06</ele>
        <time>2022-06-11T05:56:01Z</time>
      </trkpt>
      <trkpt lat="43.4588" lon="5.56894">
        <ele>315.01</ele>
        <time>2022-06-11T05:56:05Z</time>
      </trkpt>
      <trkpt lat="43.45948" lon="5.5688">
        <ele>310.66</ele>
        <time>2022-06-11T05:56:08Z</time>
      </trkpt>
      <trkpt lat="43.45971" lon="5.56875">
        <ele>310.55</ele>
        <time>2022-06-11T05:56:09Z</time>
      </trkpt>
      <trkpt lat="43.46064" lon="5.56856">
        <ele>306.81</ele>
        <time>2022-06-11T05:56:13Z</time>
      </trkpt>
      <trkpt lat="43.4611" lon="5.56846">
        <ele>304.91</ele>
        <time>2022-06-11T05:56:15Z</time>
      </trkpt>
      <trkpt lat="43.46157" lon="5.56836">
        <ele>301.8</ele>
        <time>2022-06-11T05:56:17Z</time>
      </trkpt>
      <trkpt lat="43.46228" lon="5.56821">
        <ele>298.02</ele>
        <time>2022-06-11T05:56:20Z</time>
      </trkpt>
      <trkpt lat="43.46251" lon="5.56817">
        <ele>297.89</ele>
        <time>2022-06-11T05:56:21Z</time>
      </trkpt>
      <trkpt lat="43.46322" lon="5.56803">
        <ele>294.14</ele>
        <time>2022-06-11T05:56:24Z</time>
      </trkpt>
      <trkpt lat="43.46392" lon="5.56788">
        <ele>290.44</ele>
        <time>2022-06-11T05:56:27Z</time>
      </trkpt>
      <trkpt lat="43.46415" lon="5.56783">
        <ele>290.52</ele>
        <time>2022-06-11T05:56:28Z</time>
      </trkpt>
      <trkpt lat="43.46461" lon="5.56773">
        <ele>286.51</ele>
        <time>2022-06-11T05:56:30Z</time>
      </trkpt>
      <trkpt lat="43.46508" lon="5.56763">
        <ele>282.91</ele>
        <time>2022-06-11T05:56:32Z</time>
      </trkpt>
      <trkpt lat="43.46531" lon="5.56758">
        <ele>282.89</ele>
        <time>2022-06-11T05:56:33Z</time>
      </trkpt>
      <trkpt lat="43.46578" lon="5.56748">
        <ele>279.79</ele>
        <time>2022-06-11T05:56:35Z</time>
      </trkpt>
      <trkpt lat="43.4667" lon="5.56728">
        <ele>275.94</ele>
        <time>2022-06-11T05:56:39Z</time>
      </trkpt>
      <trkpt lat="43.46693" lon="5.56723">
        <ele>275.81</ele>
        <time>2022-06-11T05:56:40Z</time>
      </trkpt>
      <trkpt lat="43.46762" lon="5.56706">
        <ele>273.65</ele>
        <time>2022-06-11T05:56:43Z</time>
      </trkpt>
      <trkpt lat="43.46807" lon="5.56695">
        <ele>271.54</ele>
        <time>2022-06-11T05:56:45Z</time>
      </trkpt>
      <trkpt lat="43.46898" lon="5.56672">
        <ele>269.15</ele>
        <time>2022-06-11T05:56:49Z</time>
      </trkpt>
      <trkpt lat="43.46944" lon="5.5666">
        <ele>267.86</ele>
        <time>2022-06-11T05:56:51Z</time>
      </trkpt>
      <trkpt lat="43.47013" lon="5.56642">
        <ele>266.58</ele>
        <time>2022-06-11T05:56:54Z</time>
      </trkpt>
      <trkpt lat="43.47082" lon="5.56624">
        <ele>264.42</ele>
        <time>2022-06-11T05:56:57Z</time>
      </trkpt>
      <trkpt lat="43.47127" lon="5.5661">
        <ele>262.98</ele>
        <time>2022-06-11T05:56:59Z</time>
      </trkpt>
      <trkpt lat="43.47195" lon="5.5659">
        <ele>260.27</ele>
        <time>2022-06-11T05:57:02Z</time>
      </trkpt>
      <trkpt lat="43.47307" lon="5.56558">
        <ele>257.82</ele>
        <time>2022-06-11T05:57:07Z</time>
      </trkpt>
      <trkpt lat="43.47398" lon="5.5653">
        <ele>256.5</ele>
        <time>2022-06-11T05:57:11Z</time>
      </trkpt>
      <trkpt lat="43.47444" lon="5.56516">
        <ele>255.19</ele>
        <time>2022-06-11T05:57:13Z</time>
      </trkpt>
      <trkpt lat="43.47515" lon="5.56495">
        <ele>253.93</ele>
        <time>2022-06-11T05:57:16Z</time>
      </trkpt>
      <trkpt lat="43.47608" lon="5.56467">
        <ele>251.43</ele>
        <time>2022-06-11T05:57:20Z</time>
      </trkpt>
      <trkpt lat="43.47724" lon="5.56432">
        <ele>247.89</ele>
        <time>2022-06-11T05:57:25Z</time>
      </trkpt>
      <trkpt lat="43.47747" lon="5.56426">
        <ele>247.79</ele>
        <time>2022-06-11T05:57:26Z</time>
      </trkpt>
      <trkpt lat="43.47859" lon="5.56391">
        <ele>245.42</ele>
        <time>2022-06-11T05:57:31Z</time>
      </trkpt>
      <trkpt lat="43.48128" lon="5.56308">
        <ele>246.22</ele>
        <time>2022-06-11T05:57:44Z</time>
      </trkpt>
      <trkpt lat="43.48199" lon="5.56279">
        <ele>247.15</ele>
        <time>2022-06-11T05:57:48Z</time>
      </trkpt>
      <trkpt lat="43.48215" lon="5.56269">
        <ele>247.13</ele>
        <time>2022-06-11T05:57:49Z</time>
      </trkpt>
      <trkpt lat="43.4823" lon="5.56255">
        <ele>247.1</ele>
        <time>2022-06-11T05:57:50Z</time>
      </trkpt>
      <trkpt lat="43.48243" lon="5.56239">
        <ele>247.17</ele>
        <time>2022-06-11T05:57:51Z</time>
      </trkpt>
      <trkpt lat="43.48255" lon="5.56219">
        <ele>247.15</ele>
        <time>2022-06-11T05:57:52Z</time>
      </trkpt>
      <trkpt lat="43.48266" lon="5.56197">
        <ele>247.15</ele>
        <time>2022-06-11T05:57:53Z</time>
      </trkpt>
      <trkpt lat="43.48274" lon="5.56173">
        <ele>244.25</ele>
        <time>2022-06-11T05:57:54Z</time>
      </trkpt>
      <trkpt lat="43.4828" lon="5.56147">
        <ele>244.22</ele>
        <time>2022-06-11T05:57:55Z</time>
      </trkpt>
      <trkpt lat="43.48284" lon="5.5612">
        <ele>242.74</ele>
        <time>2022-06-11T05:57:56Z</time>
      </trkpt>
      <trkpt lat="43.48285" lon="5.56093">
        <ele>242.67</ele>
        <time>2022-06-11T05:57:57Z</time>
      </trkpt>
      <trkpt lat="43.48284" lon="5.56065">
        <ele>241.75</ele>
        <time>2022-06-11T05:57:58Z</time>
      </trkpt>
      <trkpt lat="43.48279" lon="5.56038">
        <ele>241.74</ele>
        <time>2022-06-11T05:57:59Z</time>
      </trkpt>
      <trkpt lat="43.48272" lon="5.56012">
        <ele>241.68</ele>
        <time>2022-06-11T05:58:00Z</time>
      </trkpt>
      <trkpt lat="43.48264" lon="5.55986">
        <ele>241.66</ele>
        <time>2022-06-11T05:58:01Z</time>
      </trkpt>
      <trkpt lat="43.48254" lon="5.55961">
        <ele>241.62</ele>
        <time>2022-06-11T05:58:02Z</time>
      </trkpt>
      <trkpt lat="43.48244" lon="5.55936">
        <ele>240.6</ele>
        <time>2022-06-11T05:58:03Z</time>
      </trkpt>
      <trkpt lat="43.48181" lon="5.55722">
        <ele>239.39</ele>
        <time>2022-06-11T05:58:11Z</time>
      </trkpt>
      <trkpt lat="43.48183" lon="5.55416">
        <ele>237.72</ele>
        <time>2022-06-11T05:58:21Z</time>
      </trkpt>
      <trkpt lat="43.48197" lon="5.5483">
        <ele>236.37</ele>
        <time>2022-06-11T05:58:39Z</time>
      </trkpt>
      <trkpt lat="43.48233" lon="5.54461">
        <ele>232.99</ele>
        <time>2022-06-11T05:58:51Z</time>
      </trkpt>
      <trkpt lat="43.48238" lon="5.54435">
        <ele>232.98</ele>
        <time>2022-06-11T05:58:52Z</time>
      </trkpt>
      <trkpt lat="43.48281" lon="5.54242">
        <ele>229.97</ele>
        <time>2022-06-11T05:59:01Z</time>
      </trkpt>
      <trkpt lat="43.48299" lon="5.54167">
        <ele>228.3</ele>
        <time>2022-06-11T05:59:07Z</time>
      </trkpt>
      <trkpt lat="43.48302" lon="5.54155">
        <ele>227.16</ele>
        <time>2022-06-11T05:59:14Z</time>
      </trkpt>
      <trkpt lat="43.48305" lon="5.54143">
        <ele>226.85</ele>
        <time>2022-06-11T05:59:32Z</time>
      </trkpt>
      <trkpt lat="43.48306" lon="5.54141">
        <ele>225.35</ele>
        <time>2022-06-11T05:59:56Z</time>
      </trkpt>
      <trkpt lat="43.48308" lon="5.54134">
        <ele>225</ele>
        <time>2022-06-11T06:00:11Z</time>
      </trkpt>
      <trkpt lat="43.48308" lon="5.54133">
        <ele>224.02</ele>
        <time>2022-06-11T06:00:51Z</time>
      </trkpt>
      <trkpt lat="43.4831" lon="5.54127">
        <ele>223.92</ele>
        <time>2022-06-11T06:00:55Z</time>
      </trkpt>
      <trkpt lat="43.48313" lon="5.54117">
        <ele>226.38</ele>
        <time>2022-06-11T06:00:56Z</time>
      </trkpt>
      <trkpt lat="43.48315" lon="5.54102">
        <ele>226.37</ele>
        <time>2022-06-11T06:00:57Z</time>
      </trkpt>
      <trkpt lat="43.4833" lon="5.54039">
        <ele>228.24</ele>
        <time>2022-06-11T06:01:00Z</time>
      </trkpt>
      <trkpt lat="43.48409" lon="5.53738">
        <ele>229.76</ele>
        <time>2022-06-11T06:01:12Z</time>
      </trkpt>
      <trkpt lat="43.48492" lon="5.53531">
        <ele>230.53</ele>
        <time>2022-06-11T06:01:20Z</time>
      </trkpt>
      <trkpt lat="43.48583" lon="5.53344">
        <ele>234.59</ele>
        <time>2022-06-11T06:01:27Z</time>
      </trkpt>
      <trkpt lat="43.48612" lon="5.53293">
        <ele>235.91</ele>
        <time>2022-06-11T06:01:29Z</time>
      </trkpt>
      <trkpt lat="43.48705" lon="5.53144">
        <ele>238.94</ele>
        <time>2022-06-11T06:01:35Z</time>
      </trkpt>
      <trkpt lat="43.48722" lon="5.5312">
        <ele>238.88</ele>
        <time>2022-06-11T06:01:36Z</time>
      </trkpt>
      <trkpt lat="43.48896" lon="5.52921">
        <ele>241.62</ele>
        <time>2022-06-11T06:01:45Z</time>
      </trkpt>
      <trkpt lat="43.49071" lon="5.52775">
        <ele>240</ele>
        <time>2022-06-11T06:01:53Z</time>
      </trkpt>
      <trkpt lat="43.49138" lon="5.5273">
        <ele>237.97</ele>
        <time>2022-06-11T06:01:56Z</time>
      </trkpt>
      <trkpt lat="43.49251" lon="5.52668">
        <ele>236.08</ele>
        <time>2022-06-11T06:02:01Z</time>
      </trkpt>
      <trkpt lat="43.4934" lon="5.52628">
        <ele>234.79</ele>
        <time>2022-06-11T06:02:05Z</time>
      </trkpt>
      <trkpt lat="43.49634" lon="5.52515">
        <ele>236.62</ele>
        <time>2022-06-11T06:02:18Z</time>
      </trkpt>
      <trkpt lat="43.49767" lon="5.52444">
        <ele>237.88</ele>
        <time>2022-06-11T06:02:24Z</time>
      </trkpt>
      <trkpt lat="43.49981" lon="5.52273">
        <ele>240.33</ele>
        <time>2022-06-11T06:02:34Z</time>
      </trkpt>
      <trkpt lat="43.50168" lon="5.52046">
        <ele>237.61</ele>
        <time>2022-06-11T06:02:44Z</time>
      </trkpt>
      <trkpt lat="43.50201" lon="5.51996">
        <ele>236.33</ele>
        <time>2022-06-11T06:02:46Z</time>
      </trkpt>
      <trkpt lat="43.50233" lon="5.51943">
        <ele>235.08</ele>
        <time>2022-06-11T06:02:48Z</time>
      </trkpt>
      <trkpt lat="43.50292" lon="5.51831">
        <ele>232.32</ele>
        <time>2022-06-11T06:02:52Z</time>
      </trkpt>
      <trkpt lat="43.50377" lon="5.5162">
        <ele>229.68</ele>
        <time>2022-06-11T06:02:59Z</time>
      </trkpt>
      <trkpt lat="43.50396" lon="5.51556">
        <ele>228.22</ele>
        <time>2022-06-11T06:03:01Z</time>
      </trkpt>
      <trkpt lat="43.50444" lon="5.51359">
        <ele>225.73</ele>
        <time>2022-06-11T06:03:07Z</time>
      </trkpt>
      <trkpt lat="43.5052" lon="5.51094">
        <ele>224.68</ele>
        <time>2022-06-11T06:03:16Z</time>
      </trkpt>
      <trkpt lat="43.50653" lon="5.5073">
        <ele>224.68</ele>
        <time>2022-06-11T06:03:30Z</time>
      </trkpt>
      <trkpt lat="43.50691" lon="5.50622">
        <ele>222.18</ele>
        <time>2022-06-11T06:03:34Z</time>
      </trkpt>
      <trkpt lat="43.50726" lon="5.50507">
        <ele>220.49</ele>
        <time>2022-06-11T06:03:38Z</time>
      </trkpt>
      <trkpt lat="43.50757" lon="5.50353">
        <ele>218.23</ele>
        <time>2022-06-11T06:03:43Z</time>
      </trkpt>
      <trkpt lat="43.50769" lon="5.5029">
        <ele>216.85</ele>
        <time>2022-06-11T06:03:45Z</time>
      </trkpt>
      <trkpt lat="43.50845" lon="5.50053">
        <ele>214.94</ele>
        <time>2022-06-11T06:03:53Z</time>
      </trkpt>
      <trkpt lat="43.509" lon="5.4995">
        <ele>213.66</ele>
        <time>2022-06-11T06:03:57Z</time>
      </trkpt>
      <trkpt lat="43.50964" lon="5.49857">
        <ele>212.18</ele>
        <time>2022-06-11T06:04:01Z</time>
      </trkpt>
      <trkpt lat="43.51186" lon="5.49558">
        <ele>210.11</ele>
        <time>2022-06-11T06:04:14Z</time>
      </trkpt>
      <trkpt lat="43.51275" lon="5.49334">
        <ele>208.97</ele>
        <time>2022-06-11T06:04:22Z</time>
      </trkpt>
      <trkpt lat="43.51303" lon="5.49109">
        <ele>209</ele>
        <time>2022-06-11T06:04:29Z</time>
      </trkpt>
      <trkpt lat="43.513" lon="5.49009">
        <ele>211.29</ele>
        <time>2022-06-11T06:04:32Z</time>
      </trkpt>
      <trkpt lat="43.51284" lon="5.48779">
        <ele>207.85</ele>
        <time>2022-06-11T06:04:39Z</time>
      </trkpt>
      <trkpt lat="43.51282" lon="5.48746">
        <ele>207.82</ele>
        <time>2022-06-11T06:04:40Z</time>
      </trkpt>
      <trkpt lat="43.51281" lon="5.48651">
        <ele>206.29</ele>
        <time>2022-06-11T06:04:43Z</time>
      </trkpt>
      <trkpt lat="43.51287" lon="5.48492">
        <ele>203.6</ele>
        <time>2022-06-11T06:04:48Z</time>
      </trkpt>
      <trkpt lat="43.51308" lon="5.48214">
        <ele>200.89</ele>
        <time>2022-06-11T06:04:57Z</time>
      </trkpt>
      <trkpt lat="43.51329" lon="5.47818">
        <ele>197.55</ele>
        <time>2022-06-11T06:05:10Z</time>
      </trkpt>
      <trkpt lat="43.51334" lon="5.47444">
        <ele>199.72</ele>
        <time>2022-06-11T06:05:22Z</time>
      </trkpt>
      <trkpt lat="43.51329" lon="5.4719">
        <ele>201.59</ele>
        <time>2022-06-11T06:05:30Z</time>
      </trkpt>
      <trkpt lat="43.51327" lon="5.47124">
        <ele>198.24</ele>
        <time>2022-06-11T06:05:32Z</time>
      </trkpt>
      <trkpt lat="43.51324" lon="5.47059">
        <ele>197.07</ele>
        <time>2022-06-11T06:05:34Z</time>
      </trkpt>
      <trkpt lat="43.51298" lon="5.46709">
        <ele>194.68</ele>
        <time>2022-06-11T06:05:45Z</time>
      </trkpt>
      <trkpt lat="43.5126" lon="5.46338">
        <ele>190.74</ele>
        <time>2022-06-11T06:05:57Z</time>
      </trkpt>
      <trkpt lat="43.51239" lon="5.46091">
        <ele>187.5</ele>
        <time>2022-06-11T06:06:05Z</time>
      </trkpt>
      <trkpt lat="43.51228" lon="5.45916">
        <ele>185.7</ele>
        <time>2022-06-11T06:06:11Z</time>
      </trkpt>
      <trkpt lat="43.51215" lon="5.45531">
        <ele>182.69</ele>
        <time>2022-06-11T06:06:24Z</time>
      </trkpt>
      <trkpt lat="43.51211" lon="5.45414">
        <ele>180.68</ele>
        <time>2022-06-11T06:06:28Z</time>
      </trkpt>
      <trkpt lat="43.51195" lon="5.44964">
        <ele>178.62</ele>
        <time>2022-06-11T06:06:43Z</time>
      </trkpt>
      <trkpt lat="43.51181" lon="5.44534">
        <ele>177.46</ele>
        <time>2022-06-11T06:06:57Z</time>
      </trkpt>
      <trkpt lat="43.51213" lon="5.44137">
        <ele>175.03</ele>
        <time>2022-06-11T06:07:10Z</time>
      </trkpt>
      <trkpt lat="43.51271" lon="5.4389">
        <ele>174.2</ele>
        <time>2022-06-11T06:07:19Z</time>
      </trkpt>
      <trkpt lat="43.51334" lon="5.43747">
        <ele>176.71</ele>
        <time>2022-06-11T06:07:25Z</time>
      </trkpt>
      <trkpt lat="43.51373" lon="5.43679">
        <ele>179.17</ele>
        <time>2022-06-11T06:07:28Z</time>
      </trkpt>
      <trkpt lat="43.51431" lon="5.43591">
        <ele>181.01</ele>
        <time>2022-06-11T06:07:32Z</time>
      </trkpt>
      <trkpt lat="43.51522" lon="5.43464">
        <ele>184.2</ele>
        <time>2022-06-11T06:07:38Z</time>
      </trkpt>
      <trkpt lat="43.51628" lon="5.4332">
        <ele>185.12</ele>
        <time>2022-06-11T06:07:46Z</time>
      </trkpt>
      <trkpt lat="43.51668" lon="5.43265">
        <ele>186.55</ele>
        <time>2022-06-11T06:07:49Z</time>
      </trkpt>
      <trkpt lat="43.51709" lon="5.43206">
        <ele>188.69</ele>
        <time>2022-06-11T06:07:52Z</time>
      </trkpt>
      <trkpt lat="43.5175" lon="5.43146">
        <ele>190.54</ele>
        <time>2022-06-11T06:07:55Z</time>
      </trkpt>
      <trkpt lat="43.51825" lon="5.43025">
        <ele>193.56</ele>
        <time>2022-06-11T06:08:01Z</time>
      </trkpt>
      <trkpt lat="43.519" lon="5.42907">
        <ele>196.53</ele>
        <time>2022-06-11T06:08:08Z</time>
      </trkpt>
      <trkpt lat="43.52001" lon="5.42822">
        <ele>193.83</ele>
        <time>2022-06-11T06:08:15Z</time>
      </trkpt>
      <trkpt lat="43.52176" lon="5.42741">
        <ele>192.67</ele>
        <time>2022-06-11T06:08:24Z</time>
      </trkpt>
      <trkpt lat="43.52221" lon="5.4272">
        <ele>195.19</ele>
        <time>2022-06-11T06:08:26Z</time>
      </trkpt>
      <trkpt lat="43.524" lon="5.42671">
        <ele>196.96</ele>
        <time>2022-06-11T06:08:34Z</time>
      </trkpt>
      <trkpt lat="43.52462" lon="5.42667">
        <ele>198.6</ele>
        <time>2022-06-11T06:08:37Z</time>
      </trkpt>
      <trkpt lat="43.52544" lon="5.42671">
        <ele>200.65</ele>
        <time>2022-06-11T06:08:41Z</time>
      </trkpt>
      <trkpt lat="43.52584" lon="5.42676">
        <ele>202.24</ele>
        <time>2022-06-11T06:08:43Z</time>
      </trkpt>
      <trkpt lat="43.52644" lon="5.42688">
        <ele>205.18</ele>
        <time>2022-06-11T06:08:46Z</time>
      </trkpt>
      <trkpt lat="43.5278" lon="5.4274">
        <ele>208.82</ele>
        <time>2022-06-11T06:08:53Z</time>
      </trkpt>
      <trkpt lat="43.52799" lon="5.42749">
        <ele>208.81</ele>
        <time>2022-06-11T06:08:54Z</time>
      </trkpt>
      <trkpt lat="43.52971" lon="5.42839">
        <ele>212.12</ele>
        <time>2022-06-11T06:09:03Z</time>
      </trkpt>
      <trkpt lat="43.53167" lon="5.42938">
        <ele>215.94</ele>
        <time>2022-06-11T06:09:13Z</time>
      </trkpt>
      <trkpt lat="43.53226" lon="5.42968">
        <ele>217.41</ele>
        <time>2022-06-11T06:09:16Z</time>
      </trkpt>
      <trkpt lat="43.53286" lon="5.43">
        <ele>221</ele>
        <time>2022-06-11T06:09:19Z</time>
      </trkpt>
      <trkpt lat="43.53326" lon="5.4302">
        <ele>224.05</ele>
        <time>2022-06-11T06:09:21Z</time>
      </trkpt>
      <trkpt lat="43.53386" lon="5.43051">
        <ele>227.11</ele>
        <time>2022-06-11T06:09:24Z</time>
      </trkpt>
      <trkpt lat="43.53445" lon="5.43082">
        <ele>230.98</ele>
        <time>2022-06-11T06:09:27Z</time>
      </trkpt>
      <trkpt lat="43.53464" lon="5.43092">
        <ele>230.88</ele>
        <time>2022-06-11T06:09:28Z</time>
      </trkpt>
      <trkpt lat="43.53504" lon="5.43111">
        <ele>235.05</ele>
        <time>2022-06-11T06:09:30Z</time>
      </trkpt>
      <trkpt lat="43.53543" lon="5.43131">
        <ele>236.46</ele>
        <time>2022-06-11T06:09:32Z</time>
      </trkpt>
      <trkpt lat="43.53583" lon="5.43151">
        <ele>240.12</ele>
        <time>2022-06-11T06:09:34Z</time>
      </trkpt>
      <trkpt lat="43.53623" lon="5.43171">
        <ele>242.35</ele>
        <time>2022-06-11T06:09:36Z</time>
      </trkpt>
      <trkpt lat="43.53684" lon="5.43202">
        <ele>247.18</ele>
        <time>2022-06-11T06:09:39Z</time>
      </trkpt>
      <trkpt lat="43.53723" lon="5.43222">
        <ele>250.3</ele>
        <time>2022-06-11T06:09:41Z</time>
      </trkpt>
      <trkpt lat="43.53761" lon="5.4324">
        <ele>253.98</ele>
        <time>2022-06-11T06:09:43Z</time>
      </trkpt>
      <trkpt lat="43.53817" lon="5.43264">
        <ele>257.37</ele>
        <time>2022-06-11T06:09:46Z</time>
      </trkpt>
      <trkpt lat="43.53872" lon="5.43279">
        <ele>260.91</ele>
        <time>2022-06-11T06:09:49Z</time>
      </trkpt>
      <trkpt lat="43.53907" lon="5.43285">
        <ele>264.02</ele>
        <time>2022-06-11T06:09:51Z</time>
      </trkpt>
      <trkpt lat="43.53975" lon="5.43287">
        <ele>268.13</ele>
        <time>2022-06-11T06:09:55Z</time>
      </trkpt>
      <trkpt lat="43.54025" lon="5.43281">
        <ele>271.74</ele>
        <time>2022-06-11T06:09:58Z</time>
      </trkpt>
      <trkpt lat="43.54059" lon="5.43274">
        <ele>273.01</ele>
        <time>2022-06-11T06:10:00Z</time>
      </trkpt>
      <trkpt lat="43.54094" lon="5.43263">
        <ele>276.18</ele>
        <time>2022-06-11T06:10:02Z</time>
      </trkpt>
      <trkpt lat="43.5414" lon="5.43243">
        <ele>278.03</ele>
        <time>2022-06-11T06:10:05Z</time>
      </trkpt>
      <trkpt lat="43.5417" lon="5.43227">
        <ele>281.61</ele>
        <time>2022-06-11T06:10:07Z</time>
      </trkpt>
      <trkpt lat="43.54214" lon="5.43198">
        <ele>285.48</ele>
        <time>2022-06-11T06:10:10Z</time>
      </trkpt>
      <trkpt lat="43.54248" lon="5.43175">
        <ele>289.92</ele>
        <time>2022-06-11T06:10:12Z</time>
      </trkpt>
      <trkpt lat="43.54288" lon="5.4315">
        <ele>294.65</ele>
        <time>2022-06-11T06:10:14Z</time>
      </trkpt>
      <trkpt lat="43.5431" lon="5.43136">
        <ele>297.7</ele>
        <time>2022-06-11T06:10:15Z</time>
      </trkpt>
      <trkpt lat="43.54379" lon="5.43093">
        <ele>303.53</ele>
        <time>2022-06-11T06:10:18Z</time>
      </trkpt>
      <trkpt lat="43.54426" lon="5.43064">
        <ele>307.34</ele>
        <time>2022-06-11T06:10:20Z</time>
      </trkpt>
      <trkpt lat="43.54495" lon="5.43018">
        <ele>310.95</ele>
        <time>2022-06-11T06:10:23Z</time>
      </trkpt>
      <trkpt lat="43.54563" lon="5.42973">
        <ele>314.07</ele>
        <time>2022-06-11T06:10:26Z</time>
      </trkpt>
      <trkpt lat="43.54586" lon="5.42958">
        <ele>314.22</ele>
        <time>2022-06-11T06:10:27Z</time>
      </trkpt>
      <trkpt lat="43.54657" lon="5.42911">
        <ele>319.05</ele>
        <time>2022-06-11T06:10:30Z</time>
      </trkpt>
      <trkpt lat="43.54681" lon="5.42895">
        <ele>318.94</ele>
        <time>2022-06-11T06:10:31Z</time>
      </trkpt>
      <trkpt lat="43.54773" lon="5.42834">
        <ele>322.57</ele>
        <time>2022-06-11T06:10:35Z</time>
      </trkpt>
      <trkpt lat="43.54814" lon="5.4281">
        <ele>325.83</ele>
        <time>2022-06-11T06:10:37Z</time>
      </trkpt>
      <trkpt lat="43.54832" lon="5.42799">
        <ele>325.81</ele>
        <time>2022-06-11T06:10:38Z</time>
      </trkpt>
      <trkpt lat="43.5485" lon="5.42791">
        <ele>325.89</ele>
        <time>2022-06-11T06:10:39Z</time>
      </trkpt>
      <trkpt lat="43.54868" lon="5.42787">
        <ele>325.87</ele>
        <time>2022-06-11T06:10:40Z</time>
      </trkpt>
      <trkpt lat="43.54887" lon="5.42788">
        <ele>326.93</ele>
        <time>2022-06-11T06:10:41Z</time>
      </trkpt>
      <trkpt lat="43.54905" lon="5.42792">
        <ele>326.92</ele>
        <time>2022-06-11T06:10:42Z</time>
      </trkpt>
      <trkpt lat="43.54923" lon="5.42797">
        <ele>328.89</ele>
        <time>2022-06-11T06:10:43Z</time>
      </trkpt>
      <trkpt lat="43.54939" lon="5.42805">
        <ele>330.48</ele>
        <time>2022-06-11T06:10:44Z</time>
      </trkpt>
      <trkpt lat="43.54955" lon="5.42815">
        <ele>331.13</ele>
        <time>2022-06-11T06:10:45Z</time>
      </trkpt>
      <trkpt lat="43.54968" lon="5.4283">
        <ele>332.87</ele>
        <time>2022-06-11T06:10:46Z</time>
      </trkpt>
      <trkpt lat="43.54979" lon="5.42849">
        <ele>334.06</ele>
        <time>2022-06-11T06:10:47Z</time>
      </trkpt>
      <trkpt lat="43.54988" lon="5.42871">
        <ele>334.13</ele>
        <time>2022-06-11T06:10:48Z</time>
      </trkpt>
      <trkpt lat="43.54992" lon="5.42896">
        <ele>335.96</ele>
        <time>2022-06-11T06:10:49Z</time>
      </trkpt>
      <trkpt lat="43.54993" lon="5.42921">
        <ele>337.78</ele>
        <time>2022-06-11T06:10:50Z</time>
      </trkpt>
      <trkpt lat="43.54991" lon="5.42948">
        <ele>339.24</ele>
        <time>2022-06-11T06:10:51Z</time>
      </trkpt>
      <trkpt lat="43.54989" lon="5.42975">
        <ele>340.44</ele>
        <time>2022-06-11T06:10:52Z</time>
      </trkpt>
      <trkpt lat="43.54989" lon="5.43001">
        <ele>341.56</ele>
        <time>2022-06-11T06:10:53Z</time>
      </trkpt>
      <trkpt lat="43.54991" lon="5.43027">
        <ele>341.67</ele>
        <time>2022-06-11T06:10:54Z</time>
      </trkpt>
      <trkpt lat="43.54995" lon="5.43053">
        <ele>342.97</ele>
        <time>2022-06-11T06:10:55Z</time>
      </trkpt>
      <trkpt lat="43.55006" lon="5.43105">
        <ele>346.68</ele>
        <time>2022-06-11T06:10:57Z</time>
      </trkpt>
      <trkpt lat="43.55023" lon="5.43184">
        <ele>348.83</ele>
        <time>2022-06-11T06:11:00Z</time>
      </trkpt>
      <trkpt lat="43.55034" lon="5.43232">
        <ele>353.06</ele>
        <time>2022-06-11T06:11:02Z</time>
      </trkpt>
      <trkpt lat="43.55039" lon="5.43254">
        <ele>353.14</ele>
        <time>2022-06-11T06:11:03Z</time>
      </trkpt>
      <trkpt lat="43.55054" lon="5.43318">
        <ele>356.27</ele>
        <time>2022-06-11T06:11:06Z</time>
      </trkpt>
      <trkpt lat="43.55074" lon="5.43378">
        <ele>360.29</ele>
        <time>2022-06-11T06:11:09Z</time>
      </trkpt>
      <trkpt lat="43.55083" lon="5.43397">
        <ele>361.47</ele>
        <time>2022-06-11T06:11:10Z</time>
      </trkpt>
      <trkpt lat="43.55093" lon="5.43414">
        <ele>362.71</ele>
        <time>2022-06-11T06:11:11Z</time>
      </trkpt>
      <trkpt lat="43.55105" lon="5.4343">
        <ele>363.94</ele>
        <time>2022-06-11T06:11:12Z</time>
      </trkpt>
      <trkpt lat="43.55117" lon="5.43444">
        <ele>364.95</ele>
        <time>2022-06-11T06:11:13Z</time>
      </trkpt>
      <trkpt lat="43.55129" lon="5.43457">
        <ele>366.14</ele>
        <time>2022-06-11T06:11:14Z</time>
      </trkpt>
      <trkpt lat="43.55143" lon="5.43468">
        <ele>367.19</ele>
        <time>2022-06-11T06:11:15Z</time>
      </trkpt>
      <trkpt lat="43.55156" lon="5.43477">
        <ele>367.18</ele>
        <time>2022-06-11T06:11:16Z</time>
      </trkpt>
      <trkpt lat="43.55171" lon="5.43485">
        <ele>369.22</ele>
        <time>2022-06-11T06:11:17Z</time>
      </trkpt>
      <trkpt lat="43.55185" lon="5.43491">
        <ele>369.33</ele>
        <time>2022-06-11T06:11:18Z</time>
      </trkpt>
      <trkpt lat="43.55231" lon="5.4351">
        <ele>371.44</ele>
        <time>2022-06-11T06:11:21Z</time>
      </trkpt>
      <trkpt lat="43.55262" lon="5.43525">
        <ele>373.15</ele>
        <time>2022-06-11T06:11:23Z</time>
      </trkpt>
      <trkpt lat="43.55292" lon="5.43542">
        <ele>374.49</ele>
        <time>2022-06-11T06:11:25Z</time>
      </trkpt>
      <trkpt lat="43.55307" lon="5.43554">
        <ele>376.18</ele>
        <time>2022-06-11T06:11:26Z</time>
      </trkpt>
      <trkpt lat="43.55321" lon="5.43566">
        <ele>376.99</ele>
        <time>2022-06-11T06:11:27Z</time>
      </trkpt>
      <trkpt lat="43.55334" lon="5.43581">
        <ele>376.93</ele>
        <time>2022-06-11T06:11:28Z</time>
      </trkpt>
      <trkpt lat="43.55346" lon="5.43597">
        <ele>378.33</ele>
        <time>2022-06-11T06:11:29Z</time>
      </trkpt>
      <trkpt lat="43.55358" lon="5.43614">
        <ele>378.91</ele>
        <time>2022-06-11T06:11:30Z</time>
      </trkpt>
      <trkpt lat="43.55369" lon="5.43632">
        <ele>378.9</ele>
        <time>2022-06-11T06:11:31Z</time>
      </trkpt>
      <trkpt lat="43.5539" lon="5.43672">
        <ele>380.6</ele>
        <time>2022-06-11T06:11:33Z</time>
      </trkpt>
      <trkpt lat="43.55476" lon="5.43909">
        <ele>381.64</ele>
        <time>2022-06-11T06:11:43Z</time>
      </trkpt>
      <trkpt lat="43.55511" lon="5.44011">
        <ele>378.23</ele>
        <time>2022-06-11T06:11:47Z</time>
      </trkpt>
      <trkpt lat="43.5552" lon="5.44037">
        <ele>378.18</ele>
        <time>2022-06-11T06:11:48Z</time>
      </trkpt>
      <trkpt lat="43.55547" lon="5.44115">
        <ele>374.13</ele>
        <time>2022-06-11T06:11:51Z</time>
      </trkpt>
      <trkpt lat="43.55557" lon="5.44141">
        <ele>374.09</ele>
        <time>2022-06-11T06:11:52Z</time>
      </trkpt>
      <trkpt lat="43.55584" lon="5.44219">
        <ele>369.67</ele>
        <time>2022-06-11T06:11:55Z</time>
      </trkpt>
      <trkpt lat="43.55611" lon="5.44297">
        <ele>367.7</ele>
        <time>2022-06-11T06:11:58Z</time>
      </trkpt>
      <trkpt lat="43.5563" lon="5.4435">
        <ele>365.27</ele>
        <time>2022-06-11T06:12:00Z</time>
      </trkpt>
      <trkpt lat="43.55648" lon="5.44403">
        <ele>363.71</ele>
        <time>2022-06-11T06:12:02Z</time>
      </trkpt>
      <trkpt lat="43.55676" lon="5.44483">
        <ele>361.72</ele>
        <time>2022-06-11T06:12:05Z</time>
      </trkpt>
      <trkpt lat="43.55713" lon="5.4459">
        <ele>359.64</ele>
        <time>2022-06-11T06:12:09Z</time>
      </trkpt>
      <trkpt lat="43.55814" lon="5.44878">
        <ele>356.37</ele>
        <time>2022-06-11T06:12:20Z</time>
      </trkpt>
      <trkpt lat="43.55824" lon="5.44904">
        <ele>356.32</ele>
        <time>2022-06-11T06:12:21Z</time>
      </trkpt>
      <trkpt lat="43.55843" lon="5.44955">
        <ele>355.09</ele>
        <time>2022-06-11T06:12:23Z</time>
      </trkpt>
      <trkpt lat="43.55864" lon="5.45005">
        <ele>353.73</ele>
        <time>2022-06-11T06:12:25Z</time>
      </trkpt>
      <trkpt lat="43.55887" lon="5.45055">
        <ele>351.79</ele>
        <time>2022-06-11T06:12:27Z</time>
      </trkpt>
      <trkpt lat="43.55923" lon="5.45128">
        <ele>348.26</ele>
        <time>2022-06-11T06:12:30Z</time>
      </trkpt>
      <trkpt lat="43.55961" lon="5.452">
        <ele>344.91</ele>
        <time>2022-06-11T06:12:33Z</time>
      </trkpt>
      <trkpt lat="43.55999" lon="5.45272">
        <ele>342.41</ele>
        <time>2022-06-11T06:12:36Z</time>
      </trkpt>
      <trkpt lat="43.56036" lon="5.45344">
        <ele>339.39</ele>
        <time>2022-06-11T06:12:39Z</time>
      </trkpt>
      <trkpt lat="43.56049" lon="5.45368">
        <ele>339.48</ele>
        <time>2022-06-11T06:12:40Z</time>
      </trkpt>
      <trkpt lat="43.56176" lon="5.45668">
        <ele>336.64</ele>
        <time>2022-06-11T06:12:52Z</time>
      </trkpt>
      <trkpt lat="43.56308" lon="5.46054">
        <ele>339.79</ele>
        <time>2022-06-11T06:13:07Z</time>
      </trkpt>
      <trkpt lat="43.56318" lon="5.46079">
        <ele>339.71</ele>
        <time>2022-06-11T06:13:08Z</time>
      </trkpt>
      <trkpt lat="43.56431" lon="5.46288">
        <ele>341.26</ele>
        <time>2022-06-11T06:13:17Z</time>
      </trkpt>
      <trkpt lat="43.56463" lon="5.46327">
        <ele>342.71</ele>
        <time>2022-06-11T06:13:19Z</time>
      </trkpt>
      <trkpt lat="43.56548" lon="5.46414">
        <ele>345.58</ele>
        <time>2022-06-11T06:13:24Z</time>
      </trkpt>
      <trkpt lat="43.56602" lon="5.46456">
        <ele>346.81</ele>
        <time>2022-06-11T06:13:27Z</time>
      </trkpt>
      <trkpt lat="43.56736" lon="5.46535">
        <ele>350.27</ele>
        <time>2022-06-11T06:13:34Z</time>
      </trkpt>
      <trkpt lat="43.56774" lon="5.46557">
        <ele>351.75</ele>
        <time>2022-06-11T06:13:36Z</time>
      </trkpt>
      <trkpt lat="43.56931" lon="5.4664">
        <ele>354.15</ele>
        <time>2022-06-11T06:13:44Z</time>
      </trkpt>
      <trkpt lat="43.57145" lon="5.46761">
        <ele>357.93</ele>
        <time>2022-06-11T06:13:55Z</time>
      </trkpt>
      <trkpt lat="43.57163" lon="5.46773">
        <ele>357.91</ele>
        <time>2022-06-11T06:13:56Z</time>
      </trkpt>
      <trkpt lat="43.57321" lon="5.4691">
        <ele>359.72</ele>
        <time>2022-06-11T06:14:05Z</time>
      </trkpt>
      <trkpt lat="43.5743" lon="5.47045">
        <ele>362.34</ele>
        <time>2022-06-11T06:14:12Z</time>
      </trkpt>
      <trkpt lat="43.57507" lon="5.47143">
        <ele>364.88</ele>
        <time>2022-06-11T06:14:17Z</time>
      </trkpt>
      <trkpt lat="43.57744" lon="5.47398">
        <ele>364.28</ele>
        <time>2022-06-11T06:14:31Z</time>
      </trkpt>
      <trkpt lat="43.57783" lon="5.47428">
        <ele>363</ele>
        <time>2022-06-11T06:14:33Z</time>
      </trkpt>
      <trkpt lat="43.57882" lon="5.47493">
        <ele>359.85</ele>
        <time>2022-06-11T06:14:38Z</time>
      </trkpt>
      <trkpt lat="43.57922" lon="5.47514">
        <ele>358.86</ele>
        <time>2022-06-11T06:14:40Z</time>
      </trkpt>
      <trkpt lat="43.58171" lon="5.47605">
        <ele>357.98</ele>
        <time>2022-06-11T06:14:52Z</time>
      </trkpt>
      <trkpt lat="43.5855" lon="5.47728">
        <ele>356.77</ele>
        <time>2022-06-11T06:15:10Z</time>
      </trkpt>
      <trkpt lat="43.58649" lon="5.47776">
        <ele>359.19</ele>
        <time>2022-06-11T06:15:15Z</time>
      </trkpt>
      <trkpt lat="43.58708" lon="5.47808">
        <ele>360.95</ele>
        <time>2022-06-11T06:15:18Z</time>
      </trkpt>
      <trkpt lat="43.58806" lon="5.47867">
        <ele>362.97</ele>
        <time>2022-06-11T06:15:23Z</time>
      </trkpt>
      <trkpt lat="43.58881" lon="5.47921">
        <ele>364.55</ele>
        <time>2022-06-11T06:15:27Z</time>
      </trkpt>
      <trkpt lat="43.59122" lon="5.48138">
        <ele>366.22</ele>
        <time>2022-06-11T06:15:41Z</time>
      </trkpt>
      <trkpt lat="43.59345" lon="5.48419">
        <ele>368.63</ele>
        <time>2022-06-11T06:15:56Z</time>
      </trkpt>
      <trkpt lat="43.59413" lon="5.48521">
        <ele>370.02</ele>
        <time>2022-06-11T06:16:01Z</time>
      </trkpt>
      <trkpt lat="43.5948" lon="5.48628">
        <ele>372.53</ele>
        <time>2022-06-11T06:16:06Z</time>
      </trkpt>
      <trkpt lat="43.59508" lon="5.48673">
        <ele>376.67</ele>
        <time>2022-06-11T06:16:08Z</time>
      </trkpt>
      <trkpt lat="43.59549" lon="5.48741">
        <ele>378.44</ele>
        <time>2022-06-11T06:16:11Z</time>
      </trkpt>
      <trkpt lat="43.59577" lon="5.48787">
        <ele>379.91</ele>
        <time>2022-06-11T06:16:13Z</time>
      </trkpt>
      <trkpt lat="43.59605" lon="5.48832">
        <ele>382.99</ele>
        <time>2022-06-11T06:16:15Z</time>
      </trkpt>
      <trkpt lat="43.59618" lon="5.48855">
        <ele>383.06</ele>
        <time>2022-06-11T06:16:16Z</time>
      </trkpt>
      <trkpt lat="43.59658" lon="5.48921">
        <ele>385.39</ele>
        <time>2022-06-11T06:16:19Z</time>
      </trkpt>
      <trkpt lat="43.59724" lon="5.4903">
        <ele>388.68</ele>
        <time>2022-06-11T06:16:24Z</time>
      </trkpt>
      <trkpt lat="43.59737" lon="5.49052">
        <ele>388.72</ele>
        <time>2022-06-11T06:16:25Z</time>
      </trkpt>
      <trkpt lat="43.59916" lon="5.49344">
        <ele>384.95</ele>
        <time>2022-06-11T06:16:38Z</time>
      </trkpt>
      <trkpt lat="43.59931" lon="5.49366">
        <ele>384.93</ele>
        <time>2022-06-11T06:16:39Z</time>
      </trkpt>
      <trkpt lat="43.60013" lon="5.49472">
        <ele>382.07</ele>
        <time>2022-06-11T06:16:44Z</time>
      </trkpt>
      <trkpt lat="43.60068" lon="5.49528">
        <ele>379.11</ele>
        <time>2022-06-11T06:16:47Z</time>
      </trkpt>
      <trkpt lat="43.60107" lon="5.49562">
        <ele>375.13</ele>
        <time>2022-06-11T06:16:49Z</time>
      </trkpt>
      <trkpt lat="43.60167" lon="5.49606">
        <ele>371.07</ele>
        <time>2022-06-11T06:16:52Z</time>
      </trkpt>
      <trkpt lat="43.60228" lon="5.49643">
        <ele>368.93</ele>
        <time>2022-06-11T06:16:55Z</time>
      </trkpt>
      <trkpt lat="43.60358" lon="5.49694">
        <ele>365.57</ele>
        <time>2022-06-11T06:17:01Z</time>
      </trkpt>
      <trkpt lat="43.6038" lon="5.497">
        <ele>365.48</ele>
        <time>2022-06-11T06:17:02Z</time>
      </trkpt>
      <trkpt lat="43.60469" lon="5.49717">
        <ele>362.26</ele>
        <time>2022-06-11T06:17:06Z</time>
      </trkpt>
      <trkpt lat="43.60514" lon="5.49722">
        <ele>361.29</ele>
        <time>2022-06-11T06:17:08Z</time>
      </trkpt>
      <trkpt lat="43.60602" lon="5.4973">
        <ele>357.45</ele>
        <time>2022-06-11T06:17:12Z</time>
      </trkpt>
      <trkpt lat="43.60623" lon="5.49733">
        <ele>357.44</ele>
        <time>2022-06-11T06:17:13Z</time>
      </trkpt>
      <trkpt lat="43.60689" lon="5.49738">
        <ele>355.54</ele>
        <time>2022-06-11T06:17:16Z</time>
      </trkpt>
      <trkpt lat="43.60733" lon="5.49742">
        <ele>353.76</ele>
        <time>2022-06-11T06:17:18Z</time>
      </trkpt>
      <trkpt lat="43.60777" lon="5.49746">
        <ele>352.41</ele>
        <time>2022-06-11T06:17:20Z</time>
      </trkpt>
      <trkpt lat="43.60844" lon="5.49753">
        <ele>349.36</ele>
        <time>2022-06-11T06:17:23Z</time>
      </trkpt>
      <trkpt lat="43.60888" lon="5.49758">
        <ele>347.75</ele>
        <time>2022-06-11T06:17:25Z</time>
      </trkpt>
      <trkpt lat="43.60933" lon="5.49762">
        <ele>346.17</ele>
        <time>2022-06-11T06:17:27Z</time>
      </trkpt>
      <trkpt lat="43.61" lon="5.49767">
        <ele>342.78</ele>
        <time>2022-06-11T06:17:30Z</time>
      </trkpt>
      <trkpt lat="43.61045" lon="5.49769">
        <ele>341.28</ele>
        <time>2022-06-11T06:17:32Z</time>
      </trkpt>
      <trkpt lat="43.6109" lon="5.49769">
        <ele>337.65</ele>
        <time>2022-06-11T06:17:34Z</time>
      </trkpt>
      <trkpt lat="43.61157" lon="5.49767">
        <ele>334.24</ele>
        <time>2022-06-11T06:17:37Z</time>
      </trkpt>
      <trkpt lat="43.61225" lon="5.49758">
        <ele>330.76</ele>
        <time>2022-06-11T06:17:40Z</time>
      </trkpt>
      <trkpt lat="43.61292" lon="5.49742">
        <ele>326.75</ele>
        <time>2022-06-11T06:17:43Z</time>
      </trkpt>
      <trkpt lat="43.61315" lon="5.49735">
        <ele>326.64</ele>
        <time>2022-06-11T06:17:44Z</time>
      </trkpt>
      <trkpt lat="43.61359" lon="5.49719">
        <ele>323.33</ele>
        <time>2022-06-11T06:17:46Z</time>
      </trkpt>
      <trkpt lat="43.61425" lon="5.49692">
        <ele>319.29</ele>
        <time>2022-06-11T06:17:49Z</time>
      </trkpt>
      <trkpt lat="43.6149" lon="5.49661">
        <ele>316.53</ele>
        <time>2022-06-11T06:17:52Z</time>
      </trkpt>
      <trkpt lat="43.61555" lon="5.49629">
        <ele>312.94</ele>
        <time>2022-06-11T06:17:55Z</time>
      </trkpt>
      <trkpt lat="43.61619" lon="5.49596">
        <ele>309.91</ele>
        <time>2022-06-11T06:17:58Z</time>
      </trkpt>
      <trkpt lat="43.61683" lon="5.49565">
        <ele>307.88</ele>
        <time>2022-06-11T06:18:01Z</time>
      </trkpt>
      <trkpt lat="43.61746" lon="5.49534">
        <ele>303.93</ele>
        <time>2022-06-11T06:18:04Z</time>
      </trkpt>
      <trkpt lat="43.61766" lon="5.49524">
        <ele>303.94</ele>
        <time>2022-06-11T06:18:05Z</time>
      </trkpt>
      <trkpt lat="43.61849" lon="5.49482">
        <ele>300.95</ele>
        <time>2022-06-11T06:18:09Z</time>
      </trkpt>
      <trkpt lat="43.61931" lon="5.49441">
        <ele>298.54</ele>
        <time>2022-06-11T06:18:13Z</time>
      </trkpt>
      <trkpt lat="43.62035" lon="5.49389">
        <ele>294.8</ele>
        <time>2022-06-11T06:18:18Z</time>
      </trkpt>
      <trkpt lat="43.62056" lon="5.49379">
        <ele>294.79</ele>
        <time>2022-06-11T06:18:19Z</time>
      </trkpt>
      <trkpt lat="43.6214" lon="5.49337">
        <ele>292.43</ele>
        <time>2022-06-11T06:18:23Z</time>
      </trkpt>
      <trkpt lat="43.62224" lon="5.49299">
        <ele>289.79</ele>
        <time>2022-06-11T06:18:27Z</time>
      </trkpt>
      <trkpt lat="43.62267" lon="5.49282">
        <ele>288.26</ele>
        <time>2022-06-11T06:18:29Z</time>
      </trkpt>
      <trkpt lat="43.62333" lon="5.4926">
        <ele>287.03</ele>
        <time>2022-06-11T06:18:32Z</time>
      </trkpt>
      <trkpt lat="43.62399" lon="5.49246">
        <ele>285.28</ele>
        <time>2022-06-11T06:18:35Z</time>
      </trkpt>
      <trkpt lat="43.62512" lon="5.49236">
        <ele>281.89</ele>
        <time>2022-06-11T06:18:40Z</time>
      </trkpt>
      <trkpt lat="43.62732" lon="5.49273">
        <ele>278.31</ele>
        <time>2022-06-11T06:18:50Z</time>
      </trkpt>
      <trkpt lat="43.62859" lon="5.49318">
        <ele>274.72</ele>
        <time>2022-06-11T06:18:56Z</time>
      </trkpt>
      <trkpt lat="43.6288" lon="5.49326">
        <ele>274.64</ele>
        <time>2022-06-11T06:18:57Z</time>
      </trkpt>
      <trkpt lat="43.63134" lon="5.4942">
        <ele>270.89</ele>
        <time>2022-06-11T06:19:09Z</time>
      </trkpt>
      <trkpt lat="43.63362" lon="5.49459">
        <ele>268.18</ele>
        <time>2022-06-11T06:19:19Z</time>
      </trkpt>
      <trkpt lat="43.63497" lon="5.49445">
        <ele>265.16</ele>
        <time>2022-06-11T06:19:25Z</time>
      </trkpt>
      <trkpt lat="43.63562" lon="5.49428">
        <ele>263.85</ele>
        <time>2022-06-11T06:19:28Z</time>
      </trkpt>
      <trkpt lat="43.63627" lon="5.49406">
        <ele>262.43</ele>
        <time>2022-06-11T06:19:31Z</time>
      </trkpt>
      <trkpt lat="43.63669" lon="5.4939">
        <ele>260.83</ele>
        <time>2022-06-11T06:19:33Z</time>
      </trkpt>
      <trkpt lat="43.63733" lon="5.49364">
        <ele>259.59</ele>
        <time>2022-06-11T06:19:36Z</time>
      </trkpt>
      <trkpt lat="43.63817" lon="5.49329">
        <ele>257.56</ele>
        <time>2022-06-11T06:19:40Z</time>
      </trkpt>
      <trkpt lat="43.6388" lon="5.49304">
        <ele>255.17</ele>
        <time>2022-06-11T06:19:43Z</time>
      </trkpt>
      <trkpt lat="43.63965" lon="5.49271">
        <ele>252.96</ele>
        <time>2022-06-11T06:19:47Z</time>
      </trkpt>
      <trkpt lat="43.64073" lon="5.49234">
        <ele>250.59</ele>
        <time>2022-06-11T06:19:52Z</time>
      </trkpt>
      <trkpt lat="43.64118" lon="5.49222">
        <ele>248.98</ele>
        <time>2022-06-11T06:19:54Z</time>
      </trkpt>
      <trkpt lat="43.64209" lon="5.49204">
        <ele>246.79</ele>
        <time>2022-06-11T06:19:58Z</time>
      </trkpt>
      <trkpt lat="43.64302" lon="5.49194">
        <ele>242.82</ele>
        <time>2022-06-11T06:20:02Z</time>
      </trkpt>
      <trkpt lat="43.64325" lon="5.49193">
        <ele>242.67</ele>
        <time>2022-06-11T06:20:03Z</time>
      </trkpt>
      <trkpt lat="43.64419" lon="5.49195">
        <ele>240.09</ele>
        <time>2022-06-11T06:20:07Z</time>
      </trkpt>
      <trkpt lat="43.64488" lon="5.49201">
        <ele>238.1</ele>
        <time>2022-06-11T06:20:10Z</time>
      </trkpt>
      <trkpt lat="43.64557" lon="5.49211">
        <ele>235.5</ele>
        <time>2022-06-11T06:20:13Z</time>
      </trkpt>
      <trkpt lat="43.64625" lon="5.49222">
        <ele>234.14</ele>
        <time>2022-06-11T06:20:16Z</time>
      </trkpt>
      <trkpt lat="43.6467" lon="5.4923">
        <ele>232.8</ele>
        <time>2022-06-11T06:20:18Z</time>
      </trkpt>
      <trkpt lat="43.6476" lon="5.49245">
        <ele>230.9</ele>
        <time>2022-06-11T06:20:22Z</time>
      </trkpt>
      <trkpt lat="43.64826" lon="5.49257">
        <ele>228.81</ele>
        <time>2022-06-11T06:20:25Z</time>
      </trkpt>
      <trkpt lat="43.64978" lon="5.49282">
        <ele>225.24</ele>
        <time>2022-06-11T06:20:32Z</time>
      </trkpt>
      <trkpt lat="43.65" lon="5.49286">
        <ele>225.21</ele>
        <time>2022-06-11T06:20:33Z</time>
      </trkpt>
      <trkpt lat="43.65086" lon="5.49302">
        <ele>223.57</ele>
        <time>2022-06-11T06:20:37Z</time>
      </trkpt>
      <trkpt lat="43.65257" lon="5.49339">
        <ele>221.26</ele>
        <time>2022-06-11T06:20:45Z</time>
      </trkpt>
      <trkpt lat="43.65513" lon="5.49439">
        <ele>219.54</ele>
        <time>2022-06-11T06:20:57Z</time>
      </trkpt>
      <trkpt lat="43.65708" lon="5.49579">
        <ele>219.49</ele>
        <time>2022-06-11T06:21:07Z</time>
      </trkpt>
      <trkpt lat="43.6589" lon="5.49791">
        <ele>219.47</ele>
        <time>2022-06-11T06:21:18Z</time>
      </trkpt>
      <trkpt lat="43.6603" lon="5.50043">
        <ele>219.42</ele>
        <time>2022-06-11T06:21:29Z</time>
      </trkpt>
      <trkpt lat="43.66089" lon="5.50227">
        <ele>219.33</ele>
        <time>2022-06-11T06:21:37Z</time>
      </trkpt>
      <trkpt lat="43.6612" lon="5.50341">
        <ele>216.22</ele>
        <time>2022-06-11T06:21:45Z</time>
      </trkpt>
      <trkpt lat="43.66124" lon="5.50361">
        <ele>215.4</ele>
        <time>2022-06-11T06:21:51Z</time>
      </trkpt>
      <trkpt lat="43.66123" lon="5.50361">
        <ele>215.55</ele>
        <time>2022-06-11T06:22:04Z</time>
      </trkpt>
      <trkpt lat="43.66127" lon="5.50384">
        <ele>215.44</ele>
        <time>2022-06-11T06:22:23Z</time>
      </trkpt>
      <trkpt lat="43.66127" lon="5.50396">
        <ele>215.44</ele>
        <time>2022-06-11T06:22:24Z</time>
      </trkpt>
      <trkpt lat="43.66122" lon="5.5049">
        <ele>215.39</ele>
        <time>2022-06-11T06:22:31Z</time>
      </trkpt>
      <trkpt lat="43.66119" lon="5.50517">
        <ele>214.46</ele>
        <time>2022-06-11T06:22:37Z</time>
      </trkpt>
      <trkpt lat="43.66121" lon="5.50516">
        <ele>122.24</ele>
        <time>2022-06-11T06:23:14Z</time>
      </trkpt>
      <trkpt lat="43.66168" lon="5.51051">
        <ele>219.35</ele>
        <time>2022-06-11T06:25:31Z</time>
      </trkpt>
      <trkpt lat="43.66115" lon="5.51328">
        <ele>220.41</ele>
        <time>2022-06-11T06:25:42Z</time>
      </trkpt>
      <trkpt lat="43.66014" lon="5.51612">
        <ele>221.14</ele>
        <time>2022-06-11T06:25:54Z</time>
      </trkpt>
      <trkpt lat="43.65817" lon="5.51995">
        <ele>223.09</ele>
        <time>2022-06-11T06:26:11Z</time>
      </trkpt>
      <trkpt lat="43.65721" lon="5.52267">
        <ele>223.85</ele>
        <time>2022-06-11T06:26:22Z</time>
      </trkpt>
      <trkpt lat="43.65664" lon="5.52584">
        <ele>224.48</ele>
        <time>2022-06-11T06:26:34Z</time>
      </trkpt>
      <trkpt lat="43.65657" lon="5.5292">
        <ele>225.32</ele>
        <time>2022-06-11T06:26:46Z</time>
      </trkpt>
      <trkpt lat="43.657" lon="5.53288">
        <ele>226.1</ele>
        <time>2022-06-11T06:26:59Z</time>
      </trkpt>
      <trkpt lat="43.65779" lon="5.53877">
        <ele>226.7</ele>
        <time>2022-06-11T06:27:20Z</time>
      </trkpt>
      <trkpt lat="43.65821" lon="5.5446">
        <ele>227.35</ele>
        <time>2022-06-11T06:27:41Z</time>
      </trkpt>
      <trkpt lat="43.65846" lon="5.55033">
        <ele>227.25</ele>
        <time>2022-06-11T06:28:02Z</time>
      </trkpt>
      <trkpt lat="43.65854" lon="5.55659">
        <ele>229.16</ele>
        <time>2022-06-11T06:28:25Z</time>
      </trkpt>
      <trkpt lat="43.6586" lon="5.56259">
        <ele>230.81</ele>
        <time>2022-06-11T06:28:47Z</time>
      </trkpt>
      <trkpt lat="43.65867" lon="5.56918">
        <ele>231.52</ele>
        <time>2022-06-11T06:29:11Z</time>
      </trkpt>
      <trkpt lat="43.65872" lon="5.57546">
        <ele>233.41</ele>
        <time>2022-06-11T06:29:35Z</time>
      </trkpt>
      <trkpt lat="43.65857" lon="5.58107">
        <ele>233.09</ele>
        <time>2022-06-11T06:29:56Z</time>
      </trkpt>
      <trkpt lat="43.65819" lon="5.58624">
        <ele>233.67</ele>
        <time>2022-06-11T06:30:16Z</time>
      </trkpt>
      <trkpt lat="43.65797" lon="5.58828">
        <ele>235.07</ele>
        <time>2022-06-11T06:30:24Z</time>
      </trkpt>
      <trkpt lat="43.6571" lon="5.59449">
        <ele>236.6</ele>
        <time>2022-06-11T06:30:48Z</time>
      </trkpt>
      <trkpt lat="43.65612" lon="5.6009">
        <ele>236.29</ele>
        <time>2022-06-11T06:31:13Z</time>
      </trkpt>
      <trkpt lat="43.65573" lon="5.6057">
        <ele>237.15</ele>
        <time>2022-06-11T06:31:31Z</time>
      </trkpt>
      <trkpt lat="43.65583" lon="5.60941">
        <ele>237.84</ele>
        <time>2022-06-11T06:31:45Z</time>
      </trkpt>
      <trkpt lat="43.65631" lon="5.61286">
        <ele>238.44</ele>
        <time>2022-06-11T06:31:58Z</time>
      </trkpt>
      <trkpt lat="43.65718" lon="5.61635">
        <ele>239.22</ele>
        <time>2022-06-11T06:32:12Z</time>
      </trkpt>
      <trkpt lat="43.65852" lon="5.61986">
        <ele>239</ele>
        <time>2022-06-11T06:32:27Z</time>
      </trkpt>
      <trkpt lat="43.66097" lon="5.62477">
        <ele>239.8</ele>
        <time>2022-06-11T06:32:49Z</time>
      </trkpt>
      <trkpt lat="43.66186" lon="5.62648">
        <ele>241.07</ele>
        <time>2022-06-11T06:32:57Z</time>
      </trkpt>
      <trkpt lat="43.66251" lon="5.62776">
        <ele>242.44</ele>
        <time>2022-06-11T06:33:03Z</time>
      </trkpt>
      <trkpt lat="43.66517" lon="5.63291">
        <ele>244.95</ele>
        <time>2022-06-11T06:33:27Z</time>
      </trkpt>
      <trkpt lat="43.66805" lon="5.63849">
        <ele>244.46</ele>
        <time>2022-06-11T06:33:52Z</time>
      </trkpt>
      <trkpt lat="43.67056" lon="5.6434">
        <ele>245.63</ele>
        <time>2022-06-11T06:34:15Z</time>
      </trkpt>
      <trkpt lat="43.67276" lon="5.64739">
        <ele>248.03</ele>
        <time>2022-06-11T06:34:34Z</time>
      </trkpt>
      <trkpt lat="43.67451" lon="5.64952">
        <ele>248.88</ele>
        <time>2022-06-11T06:34:46Z</time>
      </trkpt>
      <trkpt lat="43.67671" lon="5.65128">
        <ele>249.73</ele>
        <time>2022-06-11T06:34:59Z</time>
      </trkpt>
      <trkpt lat="43.68012" lon="5.65374">
        <ele>250.54</ele>
        <time>2022-06-11T06:35:19Z</time>
      </trkpt>
      <trkpt lat="43.68357" lon="5.65646">
        <ele>251.15</ele>
        <time>2022-06-11T06:35:40Z</time>
      </trkpt>
      <trkpt lat="43.68507" lon="5.65842">
        <ele>251.97</ele>
        <time>2022-06-11T06:35:51Z</time>
      </trkpt>
      <trkpt lat="43.68621" lon="5.66092">
        <ele>251.9</ele>
        <time>2022-06-11T06:36:02Z</time>
      </trkpt>
      <trkpt lat="43.68689" lon="5.66376">
        <ele>251.86</ele>
        <time>2022-06-11T06:36:13Z</time>
      </trkpt>
      <trkpt lat="43.68748" lon="5.66751">
        <ele>252.71</ele>
        <time>2022-06-11T06:36:27Z</time>
      </trkpt>
      <trkpt lat="43.68823" lon="5.6709">
        <ele>253.77</ele>
        <time>2022-06-11T06:36:40Z</time>
      </trkpt>
      <trkpt lat="43.68957" lon="5.67427">
        <ele>253.68</ele>
        <time>2022-06-11T06:36:54Z</time>
      </trkpt>
      <trkpt lat="43.69061" lon="5.67659">
        <ele>253.7</ele>
        <time>2022-06-11T06:37:04Z</time>
      </trkpt>
      <trkpt lat="43.69105" lon="5.67891">
        <ele>253.7</ele>
        <time>2022-06-11T06:37:13Z</time>
      </trkpt>
      <trkpt lat="43.69103" lon="5.68128">
        <ele>254.96</ele>
        <time>2022-06-11T06:37:22Z</time>
      </trkpt>
      <trkpt lat="43.6905" lon="5.68511">
        <ele>255.87</ele>
        <time>2022-06-11T06:37:37Z</time>
      </trkpt>
      <trkpt lat="43.69012" lon="5.68986">
        <ele>255.6</ele>
        <time>2022-06-11T06:37:55Z</time>
      </trkpt>
      <trkpt lat="43.68978" lon="5.6949">
        <ele>255.45</ele>
        <time>2022-06-11T06:38:15Z</time>
      </trkpt>
      <trkpt lat="43.68949" lon="5.69936">
        <ele>255.31</ele>
        <time>2022-06-11T06:38:32Z</time>
      </trkpt>
      <trkpt lat="43.68912" lon="5.7051">
        <ele>255.91</ele>
        <time>2022-06-11T06:38:53Z</time>
      </trkpt>
      <trkpt lat="43.68895" lon="5.71002">
        <ele>255.83</ele>
        <time>2022-06-11T06:39:11Z</time>
      </trkpt>
      <trkpt lat="43.68933" lon="5.71328">
        <ele>257.61</ele>
        <time>2022-06-11T06:39:23Z</time>
      </trkpt>
      <trkpt lat="43.69025" lon="5.71653">
        <ele>257.53</ele>
        <time>2022-06-11T06:39:36Z</time>
      </trkpt>
      <trkpt lat="43.69158" lon="5.71931">
        <ele>258.32</ele>
        <time>2022-06-11T06:39:48Z</time>
      </trkpt>
      <trkpt lat="43.69332" lon="5.72171">
        <ele>258.27</ele>
        <time>2022-06-11T06:40:00Z</time>
      </trkpt>
      <trkpt lat="43.69549" lon="5.72373">
        <ele>259.08</ele>
        <time>2022-06-11T06:40:13Z</time>
      </trkpt>
      <trkpt lat="43.69913" lon="5.72625">
        <ele>258.97</ele>
        <time>2022-06-11T06:40:33Z</time>
      </trkpt>
      <trkpt lat="43.70251" lon="5.72875">
        <ele>260.48</ele>
        <time>2022-06-11T06:40:52Z</time>
      </trkpt>
      <trkpt lat="43.70372" lon="5.73027">
        <ele>261.24</ele>
        <time>2022-06-11T06:41:01Z</time>
      </trkpt>
      <trkpt lat="43.70379" lon="5.73049">
        <ele>261.23</ele>
        <time>2022-06-11T06:41:02Z</time>
      </trkpt>
      <trkpt lat="43.70384" lon="5.73069">
        <ele>261.21</ele>
        <time>2022-06-11T06:41:03Z</time>
      </trkpt>
      <trkpt lat="43.70387" lon="5.73089">
        <ele>261.24</ele>
        <time>2022-06-11T06:41:04Z</time>
      </trkpt>
      <trkpt lat="43.70389" lon="5.73108">
        <ele>262.27</ele>
        <time>2022-06-11T06:41:05Z</time>
      </trkpt>
      <trkpt lat="43.70389" lon="5.73126">
        <ele>262.26</ele>
        <time>2022-06-11T06:41:06Z</time>
      </trkpt>
      <trkpt lat="43.70388" lon="5.73144">
        <ele>263.29</ele>
        <time>2022-06-11T06:41:07Z</time>
      </trkpt>
      <trkpt lat="43.70386" lon="5.73162">
        <ele>264.06</ele>
        <time>2022-06-11T06:41:08Z</time>
      </trkpt>
      <trkpt lat="43.70383" lon="5.7318">
        <ele>264.09</ele>
        <time>2022-06-11T06:41:09Z</time>
      </trkpt>
      <trkpt lat="43.70379" lon="5.73198">
        <ele>264.13</ele>
        <time>2022-06-11T06:41:10Z</time>
      </trkpt>
      <trkpt lat="43.70373" lon="5.73215">
        <ele>264.09</ele>
        <time>2022-06-11T06:41:11Z</time>
      </trkpt>
      <trkpt lat="43.70367" lon="5.73232">
        <ele>265.14</ele>
        <time>2022-06-11T06:41:12Z</time>
      </trkpt>
      <trkpt lat="43.7036" lon="5.73249">
        <ele>265.13</ele>
        <time>2022-06-11T06:41:13Z</time>
      </trkpt>
      <trkpt lat="43.70277" lon="5.7342">
        <ele>264.89</ele>
        <time>2022-06-11T06:41:25Z</time>
      </trkpt>
      <trkpt lat="43.70261" lon="5.73454">
        <ele>264.84</ele>
        <time>2022-06-11T06:41:32Z</time>
      </trkpt>
      <trkpt lat="43.70261" lon="5.73455">
        <ele>262.48</ele>
        <time>2022-06-11T06:41:34Z</time>
      </trkpt>
      <trkpt lat="43.7026" lon="5.73449">
        <ele>262.31</ele>
        <time>2022-06-11T06:42:15Z</time>
      </trkpt>
      <trkpt lat="43.70262" lon="5.73445">
        <ele>261.1</ele>
        <time>2022-06-11T06:42:49Z</time>
      </trkpt>
      <trkpt lat="43.70263" lon="5.73446">
        <ele>261.09</ele>
        <time>2022-06-11T06:42:53Z</time>
      </trkpt>
      <trkpt lat="43.70262" lon="5.73452">
        <ele>261.04</ele>
        <time>2022-06-11T06:43:06Z</time>
      </trkpt>
      <trkpt lat="43.70259" lon="5.73462">
        <ele>260.99</ele>
        <time>2022-06-11T06:43:17Z</time>
      </trkpt>
      <trkpt lat="43.70261" lon="5.73466">
        <ele>260.86</ele>
        <time>2022-06-11T06:43:38Z</time>
      </trkpt>
      <trkpt lat="43.7026" lon="5.73468">
        <ele>260.51</ele>
        <time>2022-06-11T06:44:14Z</time>
      </trkpt>
      <trkpt lat="43.70259" lon="5.7347">
        <ele>260.19</ele>
        <time>2022-06-11T06:44:43Z</time>
      </trkpt>
      <trkpt lat="43.70256" lon="5.73469">
        <ele>260.04</ele>
        <time>2022-06-11T06:44:58Z</time>
      </trkpt>
      <trkpt lat="43.70253" lon="5.73473">
        <ele>260.06</ele>
        <time>2022-06-11T06:45:00Z</time>
      </trkpt>
      <trkpt lat="43.7022" lon="5.73529">
        <ele>262.69</ele>
        <time>2022-06-11T06:45:06Z</time>
      </trkpt>
      <trkpt lat="43.70213" lon="5.73542">
        <ele>262.71</ele>
        <time>2022-06-11T06:45:07Z</time>
      </trkpt>
      <trkpt lat="43.70186" lon="5.73595">
        <ele>266.76</ele>
        <time>2022-06-11T06:45:10Z</time>
      </trkpt>
      <trkpt lat="43.7015" lon="5.73664">
        <ele>269.14</ele>
        <time>2022-06-11T06:45:13Z</time>
      </trkpt>
      <trkpt lat="43.70084" lon="5.73788">
        <ele>269.04</ele>
        <time>2022-06-11T06:45:20Z</time>
      </trkpt>
      <trkpt lat="43.70034" lon="5.73884">
        <ele>266.6</ele>
        <time>2022-06-11T06:45:27Z</time>
      </trkpt>
      <trkpt lat="43.70022" lon="5.73903">
        <ele>265.42</ele>
        <time>2022-06-11T06:45:29Z</time>
      </trkpt>
      <trkpt lat="43.70017" lon="5.73909">
        <ele>265.41</ele>
        <time>2022-06-11T06:45:30Z</time>
      </trkpt>
      <trkpt lat="43.70011" lon="5.73913">
        <ele>264.49</ele>
        <time>2022-06-11T06:45:31Z</time>
      </trkpt>
      <trkpt lat="43.70005" lon="5.73917">
        <ele>264.49</ele>
        <time>2022-06-11T06:45:32Z</time>
      </trkpt>
      <trkpt lat="43.69998" lon="5.73921">
        <ele>264.48</ele>
        <time>2022-06-11T06:45:33Z</time>
      </trkpt>
      <trkpt lat="43.69992" lon="5.73927">
        <ele>264.46</ele>
        <time>2022-06-11T06:45:34Z</time>
      </trkpt>
      <trkpt lat="43.69989" lon="5.73937">
        <ele>264.45</ele>
        <time>2022-06-11T06:45:35Z</time>
      </trkpt>
      <trkpt lat="43.6999" lon="5.73947">
        <ele>264.45</ele>
        <time>2022-06-11T06:45:36Z</time>
      </trkpt>
      <trkpt lat="43.69993" lon="5.73957">
        <ele>264.44</ele>
        <time>2022-06-11T06:45:37Z</time>
      </trkpt>
      <trkpt lat="43.69999" lon="5.73964">
        <ele>264.43</ele>
        <time>2022-06-11T06:45:38Z</time>
      </trkpt>
      <trkpt lat="43.70006" lon="5.7397">
        <ele>264.42</ele>
        <time>2022-06-11T06:45:39Z</time>
      </trkpt>
      <trkpt lat="43.70014" lon="5.73976">
        <ele>264.4</ele>
        <time>2022-06-11T06:45:40Z</time>
      </trkpt>
      <trkpt lat="43.7002" lon="5.73984">
        <ele>264.39</ele>
        <time>2022-06-11T06:45:41Z</time>
      </trkpt>
      <trkpt lat="43.70026" lon="5.73994">
        <ele>264.37</ele>
        <time>2022-06-11T06:45:42Z</time>
      </trkpt>
      <trkpt lat="43.70031" lon="5.74005">
        <ele>264.38</ele>
        <time>2022-06-11T06:45:43Z</time>
      </trkpt>
      <trkpt lat="43.70036" lon="5.74018">
        <ele>264.37</ele>
        <time>2022-06-11T06:45:44Z</time>
      </trkpt>
      <trkpt lat="43.70041" lon="5.74031">
        <ele>264.39</ele>
        <time>2022-06-11T06:45:45Z</time>
      </trkpt>
      <trkpt lat="43.70045" lon="5.74045">
        <ele>264.38</ele>
        <time>2022-06-11T06:45:46Z</time>
      </trkpt>
      <trkpt lat="43.70049" lon="5.7406">
        <ele>266.85</ele>
        <time>2022-06-11T06:45:47Z</time>
      </trkpt>
      <trkpt lat="43.70052" lon="5.74075">
        <ele>266.82</ele>
        <time>2022-06-11T06:45:48Z</time>
      </trkpt>
      <trkpt lat="43.70066" lon="5.74158">
        <ele>270.51</ele>
        <time>2022-06-11T06:45:53Z</time>
      </trkpt>
      <trkpt lat="43.70069" lon="5.74176">
        <ele>270.48</ele>
        <time>2022-06-11T06:45:54Z</time>
      </trkpt>
      <trkpt lat="43.70077" lon="5.74234">
        <ele>274.93</ele>
        <time>2022-06-11T06:45:57Z</time>
      </trkpt>
      <trkpt lat="43.70085" lon="5.74287">
        <ele>279.08</ele>
        <time>2022-06-11T06:45:59Z</time>
      </trkpt>
      <trkpt lat="43.70093" lon="5.74351">
        <ele>282.57</ele>
        <time>2022-06-11T06:46:01Z</time>
      </trkpt>
      <trkpt lat="43.70097" lon="5.74382">
        <ele>282.56</ele>
        <time>2022-06-11T06:46:02Z</time>
      </trkpt>
      <trkpt lat="43.7012" lon="5.74538">
        <ele>284.28</ele>
        <time>2022-06-11T06:46:08Z</time>
      </trkpt>
      <trkpt lat="43.70158" lon="5.74689">
        <ele>285.11</ele>
        <time>2022-06-11T06:46:15Z</time>
      </trkpt>
      <trkpt lat="43.7016" lon="5.7471">
        <ele>285.1</ele>
        <time>2022-06-11T06:46:16Z</time>
      </trkpt>
      <trkpt lat="43.70161" lon="5.74732">
        <ele>285.1</ele>
        <time>2022-06-11T06:46:17Z</time>
      </trkpt>
      <trkpt lat="43.70166" lon="5.74821">
        <ele>286.51</ele>
        <time>2022-06-11T06:46:21Z</time>
      </trkpt>
      <trkpt lat="43.70171" lon="5.74842">
        <ele>286.5</ele>
        <time>2022-06-11T06:46:22Z</time>
      </trkpt>
      <trkpt lat="43.70181" lon="5.74861">
        <ele>286.52</ele>
        <time>2022-06-11T06:46:23Z</time>
      </trkpt>
      <trkpt lat="43.70193" lon="5.74877">
        <ele>286.51</ele>
        <time>2022-06-11T06:46:24Z</time>
      </trkpt>
      <trkpt lat="43.70206" lon="5.74893">
        <ele>286.5</ele>
        <time>2022-06-11T06:46:25Z</time>
      </trkpt>
      <trkpt lat="43.70232" lon="5.74926">
        <ele>287.81</ele>
        <time>2022-06-11T06:46:27Z</time>
      </trkpt>
      <trkpt lat="43.70284" lon="5.74996">
        <ele>289.5</ele>
        <time>2022-06-11T06:46:31Z</time>
      </trkpt>
      <trkpt lat="43.70331" lon="5.75071">
        <ele>291.04</ele>
        <time>2022-06-11T06:46:35Z</time>
      </trkpt>
      <trkpt lat="43.70364" lon="5.7513">
        <ele>292.29</ele>
        <time>2022-06-11T06:46:38Z</time>
      </trkpt>
      <trkpt lat="43.70401" lon="5.75214">
        <ele>294.1</ele>
        <time>2022-06-11T06:46:42Z</time>
      </trkpt>
      <trkpt lat="43.70445" lon="5.75338">
        <ele>293.79</ele>
        <time>2022-06-11T06:46:49Z</time>
      </trkpt>
      <trkpt lat="43.70448" lon="5.75351">
        <ele>293.8</ele>
        <time>2022-06-11T06:46:50Z</time>
      </trkpt>
      <trkpt lat="43.70449" lon="5.75363">
        <ele>291.24</ele>
        <time>2022-06-11T06:46:51Z</time>
      </trkpt>
      <trkpt lat="43.70449" lon="5.75374">
        <ele>291.23</ele>
        <time>2022-06-11T06:46:52Z</time>
      </trkpt>
      <trkpt lat="43.70451" lon="5.75385">
        <ele>291.22</ele>
        <time>2022-06-11T06:46:53Z</time>
      </trkpt>
      <trkpt lat="43.70455" lon="5.75396">
        <ele>291.22</ele>
        <time>2022-06-11T06:46:54Z</time>
      </trkpt>
      <trkpt lat="43.70462" lon="5.75405">
        <ele>291.22</ele>
        <time>2022-06-11T06:46:55Z</time>
      </trkpt>
      <trkpt lat="43.70471" lon="5.75413">
        <ele>291.22</ele>
        <time>2022-06-11T06:46:56Z</time>
      </trkpt>
      <trkpt lat="43.7048" lon="5.75423">
        <ele>291.21</ele>
        <time>2022-06-11T06:46:57Z</time>
      </trkpt>
      <trkpt lat="43.70489" lon="5.75434">
        <ele>291.2</ele>
        <time>2022-06-11T06:46:58Z</time>
      </trkpt>
      <trkpt lat="43.70499" lon="5.75447">
        <ele>291.2</ele>
        <time>2022-06-11T06:46:59Z</time>
      </trkpt>
      <trkpt lat="43.70518" lon="5.75473">
        <ele>293.47</ele>
        <time>2022-06-11T06:47:01Z</time>
      </trkpt>
      <trkpt lat="43.70562" lon="5.75531">
        <ele>295.47</ele>
        <time>2022-06-11T06:47:05Z</time>
      </trkpt>
      <trkpt lat="43.70613" lon="5.75617">
        <ele>295.5</ele>
        <time>2022-06-11T06:47:10Z</time>
      </trkpt>
      <trkpt lat="43.70621" lon="5.75637">
        <ele>295.49</ele>
        <time>2022-06-11T06:47:11Z</time>
      </trkpt>
      <trkpt lat="43.70741" lon="5.76001">
        <ele>296.44</ele>
        <time>2022-06-11T06:47:28Z</time>
      </trkpt>
      <trkpt lat="43.70849" lon="5.76322">
        <ele>297.3</ele>
        <time>2022-06-11T06:47:44Z</time>
      </trkpt>
      <trkpt lat="43.70913" lon="5.76545">
        <ele>298.19</ele>
        <time>2022-06-11T06:47:56Z</time>
      </trkpt>
      <trkpt lat="43.70915" lon="5.76567">
        <ele>299.45</ele>
        <time>2022-06-11T06:47:57Z</time>
      </trkpt>
      <trkpt lat="43.70915" lon="5.76589">
        <ele>299.44</ele>
        <time>2022-06-11T06:47:58Z</time>
      </trkpt>
      <trkpt lat="43.70913" lon="5.7661">
        <ele>299.5</ele>
        <time>2022-06-11T06:47:59Z</time>
      </trkpt>
      <trkpt lat="43.70909" lon="5.76631">
        <ele>299.51</ele>
        <time>2022-06-11T06:48:00Z</time>
      </trkpt>
      <trkpt lat="43.70906" lon="5.76674">
        <ele>299.43</ele>
        <time>2022-06-11T06:48:02Z</time>
      </trkpt>
      <trkpt lat="43.70908" lon="5.76695">
        <ele>299.45</ele>
        <time>2022-06-11T06:48:03Z</time>
      </trkpt>
      <trkpt lat="43.70913" lon="5.76715">
        <ele>299.43</ele>
        <time>2022-06-11T06:48:04Z</time>
      </trkpt>
      <trkpt lat="43.70921" lon="5.76733">
        <ele>299.38</ele>
        <time>2022-06-11T06:48:05Z</time>
      </trkpt>
      <trkpt lat="43.70929" lon="5.76752">
        <ele>299.27</ele>
        <time>2022-06-11T06:48:06Z</time>
      </trkpt>
      <trkpt lat="43.7104" lon="5.76973">
        <ele>302.74</ele>
        <time>2022-06-11T06:48:19Z</time>
      </trkpt>
      <trkpt lat="43.7105" lon="5.7699">
        <ele>302.77</ele>
        <time>2022-06-11T06:48:20Z</time>
      </trkpt>
      <trkpt lat="43.71143" lon="5.77205">
        <ele>302.5</ele>
        <time>2022-06-11T06:48:31Z</time>
      </trkpt>
      <trkpt lat="43.71219" lon="5.77383">
        <ele>303.45</ele>
        <time>2022-06-11T06:48:41Z</time>
      </trkpt>
      <trkpt lat="43.71223" lon="5.77398">
        <ele>300.71</ele>
        <time>2022-06-11T06:48:42Z</time>
      </trkpt>
      <trkpt lat="43.71225" lon="5.77413">
        <ele>300.68</ele>
        <time>2022-06-11T06:48:43Z</time>
      </trkpt>
      <trkpt lat="43.71226" lon="5.77428">
        <ele>299.68</ele>
        <time>2022-06-11T06:48:44Z</time>
      </trkpt>
      <trkpt lat="43.71226" lon="5.77442">
        <ele>299.65</ele>
        <time>2022-06-11T06:48:45Z</time>
      </trkpt>
      <trkpt lat="43.71224" lon="5.77454">
        <ele>299.62</ele>
        <time>2022-06-11T06:48:46Z</time>
      </trkpt>
      <trkpt lat="43.71224" lon="5.77467">
        <ele>298.68</ele>
        <time>2022-06-11T06:48:47Z</time>
      </trkpt>
      <trkpt lat="43.71226" lon="5.7748">
        <ele>298.68</ele>
        <time>2022-06-11T06:48:48Z</time>
      </trkpt>
      <trkpt lat="43.71232" lon="5.7749">
        <ele>298.65</ele>
        <time>2022-06-11T06:48:49Z</time>
      </trkpt>
      <trkpt lat="43.7124" lon="5.77495">
        <ele>298.62</ele>
        <time>2022-06-11T06:48:50Z</time>
      </trkpt>
      <trkpt lat="43.7125" lon="5.77499">
        <ele>297.59</ele>
        <time>2022-06-11T06:48:51Z</time>
      </trkpt>
      <trkpt lat="43.7126" lon="5.77505">
        <ele>297.62</ele>
        <time>2022-06-11T06:48:52Z</time>
      </trkpt>
      <trkpt lat="43.71269" lon="5.77516">
        <ele>297.59</ele>
        <time>2022-06-11T06:48:53Z</time>
      </trkpt>
      <trkpt lat="43.71278" lon="5.77529">
        <ele>297.59</ele>
        <time>2022-06-11T06:48:54Z</time>
      </trkpt>
      <trkpt lat="43.71286" lon="5.77542">
        <ele>297.76</ele>
        <time>2022-06-11T06:48:55Z</time>
      </trkpt>
      <trkpt lat="43.71293" lon="5.77557">
        <ele>297.76</ele>
        <time>2022-06-11T06:48:56Z</time>
      </trkpt>
      <trkpt lat="43.71355" lon="5.7768">
        <ele>296.78</ele>
        <time>2022-06-11T06:49:05Z</time>
      </trkpt>
      <trkpt lat="43.71396" lon="5.77806">
        <ele>292.32</ele>
        <time>2022-06-11T06:49:12Z</time>
      </trkpt>
      <trkpt lat="43.71403" lon="5.77824">
        <ele>292.33</ele>
        <time>2022-06-11T06:49:13Z</time>
      </trkpt>
      <trkpt lat="43.71425" lon="5.77875">
        <ele>290.28</ele>
        <time>2022-06-11T06:49:16Z</time>
      </trkpt>
      <trkpt lat="43.71435" lon="5.77888">
        <ele>289.22</ele>
        <time>2022-06-11T06:49:17Z</time>
      </trkpt>
      <trkpt lat="43.71447" lon="5.779">
        <ele>289.23</ele>
        <time>2022-06-11T06:49:18Z</time>
      </trkpt>
      <trkpt lat="43.71459" lon="5.7791">
        <ele>288.73</ele>
        <time>2022-06-11T06:49:19Z</time>
      </trkpt>
      <trkpt lat="43.71472" lon="5.77919">
        <ele>288.37</ele>
        <time>2022-06-11T06:49:20Z</time>
      </trkpt>
      <trkpt lat="43.71484" lon="5.77928">
        <ele>288.47</ele>
        <time>2022-06-11T06:49:21Z</time>
      </trkpt>
      <trkpt lat="43.71496" lon="5.77939">
        <ele>288.44</ele>
        <time>2022-06-11T06:49:22Z</time>
      </trkpt>
      <trkpt lat="43.71506" lon="5.77952">
        <ele>288.44</ele>
        <time>2022-06-11T06:49:23Z</time>
      </trkpt>
      <trkpt lat="43.71514" lon="5.77967">
        <ele>288.39</ele>
        <time>2022-06-11T06:49:24Z</time>
      </trkpt>
      <trkpt lat="43.71521" lon="5.77983">
        <ele>288.3</ele>
        <time>2022-06-11T06:49:25Z</time>
      </trkpt>
      <trkpt lat="43.71527" lon="5.78001">
        <ele>288.35</ele>
        <time>2022-06-11T06:49:26Z</time>
      </trkpt>
      <trkpt lat="43.71532" lon="5.78021">
        <ele>288.67</ele>
        <time>2022-06-11T06:49:27Z</time>
      </trkpt>
      <trkpt lat="43.71546" lon="5.78104">
        <ele>286.36</ele>
        <time>2022-06-11T06:49:31Z</time>
      </trkpt>
      <trkpt lat="43.71553" lon="5.78169">
        <ele>284.21</ele>
        <time>2022-06-11T06:49:34Z</time>
      </trkpt>
      <trkpt lat="43.71567" lon="5.78297">
        <ele>281.13</ele>
        <time>2022-06-11T06:49:40Z</time>
      </trkpt>
      <trkpt lat="43.71597" lon="5.7856">
        <ele>277.25</ele>
        <time>2022-06-11T06:49:52Z</time>
      </trkpt>
      <trkpt lat="43.71603" lon="5.78691">
        <ele>276.22</ele>
        <time>2022-06-11T06:49:58Z</time>
      </trkpt>
      <trkpt lat="43.71606" lon="5.78712">
        <ele>276.26</ele>
        <time>2022-06-11T06:49:59Z</time>
      </trkpt>
      <trkpt lat="43.71611" lon="5.78732">
        <ele>276.24</ele>
        <time>2022-06-11T06:50:00Z</time>
      </trkpt>
      <trkpt lat="43.71618" lon="5.78751">
        <ele>276.22</ele>
        <time>2022-06-11T06:50:01Z</time>
      </trkpt>
      <trkpt lat="43.71628" lon="5.78768">
        <ele>276.2</ele>
        <time>2022-06-11T06:50:02Z</time>
      </trkpt>
      <trkpt lat="43.71639" lon="5.78782">
        <ele>276.18</ele>
        <time>2022-06-11T06:50:03Z</time>
      </trkpt>
      <trkpt lat="43.71652" lon="5.78795">
        <ele>276.18</ele>
        <time>2022-06-11T06:50:04Z</time>
      </trkpt>
      <trkpt lat="43.71665" lon="5.78807">
        <ele>275.06</ele>
        <time>2022-06-11T06:50:05Z</time>
      </trkpt>
      <trkpt lat="43.71676" lon="5.78822">
        <ele>275.05</ele>
        <time>2022-06-11T06:50:06Z</time>
      </trkpt>
      <trkpt lat="43.71685" lon="5.78839">
        <ele>273.79</ele>
        <time>2022-06-11T06:50:07Z</time>
      </trkpt>
      <trkpt lat="43.7169" lon="5.78858">
        <ele>273.79</ele>
        <time>2022-06-11T06:50:08Z</time>
      </trkpt>
      <trkpt lat="43.71694" lon="5.78878">
        <ele>273.77</ele>
        <time>2022-06-11T06:50:09Z</time>
      </trkpt>
      <trkpt lat="43.71696" lon="5.78898">
        <ele>272.89</ele>
        <time>2022-06-11T06:50:10Z</time>
      </trkpt>
      <trkpt lat="43.71712" lon="5.7912">
        <ele>272.96</ele>
        <time>2022-06-11T06:50:21Z</time>
      </trkpt>
      <trkpt lat="43.71745" lon="5.79342">
        <ele>272.9</ele>
        <time>2022-06-11T06:50:31Z</time>
      </trkpt>
      <trkpt lat="43.71785" lon="5.79521">
        <ele>275.36</ele>
        <time>2022-06-11T06:50:40Z</time>
      </trkpt>
      <trkpt lat="43.71812" lon="5.79738">
        <ele>276.46</ele>
        <time>2022-06-11T06:50:50Z</time>
      </trkpt>
      <trkpt lat="43.71858" lon="5.80082">
        <ele>276.37</ele>
        <time>2022-06-11T06:51:06Z</time>
      </trkpt>
      <trkpt lat="43.7186" lon="5.80276">
        <ele>278.18</ele>
        <time>2022-06-11T06:51:15Z</time>
      </trkpt>
      <trkpt lat="43.71868" lon="5.80475">
        <ele>278.04</ele>
        <time>2022-06-11T06:51:24Z</time>
      </trkpt>
      <trkpt lat="43.71936" lon="5.80732">
        <ele>278.01</ele>
        <time>2022-06-11T06:51:37Z</time>
      </trkpt>
      <trkpt lat="43.71987" lon="5.8088">
        <ele>277.99</ele>
        <time>2022-06-11T06:51:45Z</time>
      </trkpt>
      <trkpt lat="43.71994" lon="5.80894">
        <ele>278.01</ele>
        <time>2022-06-11T06:51:46Z</time>
      </trkpt>
      <trkpt lat="43.72003" lon="5.80907">
        <ele>277.99</ele>
        <time>2022-06-11T06:51:47Z</time>
      </trkpt>
      <trkpt lat="43.72012" lon="5.80919">
        <ele>277.98</ele>
        <time>2022-06-11T06:51:48Z</time>
      </trkpt>
      <trkpt lat="43.72022" lon="5.8093">
        <ele>278.01</ele>
        <time>2022-06-11T06:51:49Z</time>
      </trkpt>
      <trkpt lat="43.72129" lon="5.81026">
        <ele>278.66</ele>
        <time>2022-06-11T06:51:59Z</time>
      </trkpt>
      <trkpt lat="43.72223" lon="5.81049">
        <ele>278.58</ele>
        <time>2022-06-11T06:52:07Z</time>
      </trkpt>
      <trkpt lat="43.7225" lon="5.81055">
        <ele>276.16</ele>
        <time>2022-06-11T06:52:10Z</time>
      </trkpt>
      <trkpt lat="43.72257" lon="5.81059">
        <ele>276.14</ele>
        <time>2022-06-11T06:52:11Z</time>
      </trkpt>
      <trkpt lat="43.72264" lon="5.81064">
        <ele>276.16</ele>
        <time>2022-06-11T06:52:12Z</time>
      </trkpt>
      <trkpt lat="43.7227" lon="5.8107">
        <ele>276.17</ele>
        <time>2022-06-11T06:52:13Z</time>
      </trkpt>
      <trkpt lat="43.72277" lon="5.81073">
        <ele>276.18</ele>
        <time>2022-06-11T06:52:14Z</time>
      </trkpt>
      <trkpt lat="43.72285" lon="5.81072">
        <ele>276.16</ele>
        <time>2022-06-11T06:52:15Z</time>
      </trkpt>
      <trkpt lat="43.72292" lon="5.81068">
        <ele>276.2</ele>
        <time>2022-06-11T06:52:16Z</time>
      </trkpt>
      <trkpt lat="43.72299" lon="5.81064">
        <ele>276.2</ele>
        <time>2022-06-11T06:52:17Z</time>
      </trkpt>
      <trkpt lat="43.72308" lon="5.8106">
        <ele>276.19</ele>
        <time>2022-06-11T06:52:18Z</time>
      </trkpt>
      <trkpt lat="43.72316" lon="5.8106">
        <ele>276.19</ele>
        <time>2022-06-11T06:52:19Z</time>
      </trkpt>
      <trkpt lat="43.724" lon="5.81068">
        <ele>276.27</ele>
        <time>2022-06-11T06:52:28Z</time>
      </trkpt>
      <trkpt lat="43.72439" lon="5.81071">
        <ele>274.43</ele>
        <time>2022-06-11T06:52:36Z</time>
      </trkpt>
      <trkpt lat="43.72499" lon="5.81079">
        <ele>274.44</ele>
        <time>2022-06-11T06:52:44Z</time>
      </trkpt>
      <trkpt lat="43.72576" lon="5.8109">
        <ele>274.45</ele>
        <time>2022-06-11T06:52:55Z</time>
      </trkpt>
      <trkpt lat="43.72595" lon="5.81093">
        <ele>274.4</ele>
        <time>2022-06-11T06:53:03Z</time>
      </trkpt>
      <trkpt lat="43.72627" lon="5.81101">
        <ele>274.37</ele>
        <time>2022-06-11T06:53:10Z</time>
      </trkpt>
      <trkpt lat="43.72634" lon="5.81105">
        <ele>274.38</ele>
        <time>2022-06-11T06:53:11Z</time>
      </trkpt>
      <trkpt lat="43.72645" lon="5.81115">
        <ele>274.39</ele>
        <time>2022-06-11T06:53:13Z</time>
      </trkpt>
      <trkpt lat="43.7265" lon="5.81122">
        <ele>274.4</ele>
        <time>2022-06-11T06:53:14Z</time>
      </trkpt>
      <trkpt lat="43.72659" lon="5.81137">
        <ele>274.39</ele>
        <time>2022-06-11T06:53:16Z</time>
      </trkpt>
      <trkpt lat="43.72662" lon="5.81144">
        <ele>274.39</ele>
        <time>2022-06-11T06:53:17Z</time>
      </trkpt>
      <trkpt lat="43.72664" lon="5.81152">
        <ele>274.39</ele>
        <time>2022-06-11T06:53:18Z</time>
      </trkpt>
      <trkpt lat="43.72666" lon="5.8116">
        <ele>274.39</ele>
        <time>2022-06-11T06:53:19Z</time>
      </trkpt>
      <trkpt lat="43.72668" lon="5.81168">
        <ele>274.38</ele>
        <time>2022-06-11T06:53:20Z</time>
      </trkpt>
      <trkpt lat="43.72669" lon="5.81174">
        <ele>274.38</ele>
        <time>2022-06-11T06:53:21Z</time>
      </trkpt>
      <trkpt lat="43.72669" lon="5.81178">
        <ele>274.37</ele>
        <time>2022-06-11T06:53:22Z</time>
      </trkpt>
      <trkpt lat="43.72669" lon="5.8118">
        <ele>274.37</ele>
        <time>2022-06-11T06:53:23Z</time>
      </trkpt>
      <trkpt lat="43.72669" lon="5.81182">
        <ele>274.37</ele>
        <time>2022-06-11T06:53:24Z</time>
      </trkpt>
      <trkpt lat="43.72669" lon="5.81185">
        <ele>274.38</ele>
        <time>2022-06-11T06:53:25Z</time>
      </trkpt>
      <trkpt lat="43.72666" lon="5.81199">
        <ele>274.36</ele>
        <time>2022-06-11T06:53:28Z</time>
      </trkpt>
      <trkpt lat="43.72663" lon="5.81203">
        <ele>274.34</ele>
        <time>2022-06-11T06:53:29Z</time>
      </trkpt>
      <trkpt lat="43.72659" lon="5.81206">
        <ele>274.32</ele>
        <time>2022-06-11T06:53:30Z</time>
      </trkpt>
      <trkpt lat="43.72656" lon="5.81206">
        <ele>274.32</ele>
        <time>2022-06-11T06:53:31Z</time>
      </trkpt>
      <trkpt lat="43.72654" lon="5.81206">
        <ele>274.32</ele>
        <time>2022-06-11T06:53:32Z</time>
      </trkpt>
      <trkpt lat="43.72653" lon="5.81205">
        <ele>274.29</ele>
        <time>2022-06-11T06:53:33Z</time>
      </trkpt>
      <trkpt lat="43.72653" lon="5.81204">
        <ele>274.29</ele>
        <time>2022-06-11T06:53:34Z</time>
      </trkpt>
      <trkpt lat="43.72657" lon="5.81201">
        <ele>274.28</ele>
        <time>2022-06-11T06:53:42Z</time>
      </trkpt>
      <trkpt lat="43.72662" lon="5.81198">
        <ele>262.2</ele>
        <time>2022-06-11T06:54:00Z</time>
      </trkpt>
      <trkpt lat="43.72656" lon="5.81191">
        <ele>278.11</ele>
        <time>2022-06-11T07:09:02Z</time>
      </trkpt>
      <trkpt lat="43.72662" lon="5.81194">
        <ele>279.67</ele>
        <time>2022-06-11T07:09:25Z</time>
      </trkpt>
      <trkpt lat="43.72656" lon="5.81197">
        <ele>279.67</ele>
        <time>2022-06-11T07:09:42Z</time>
      </trkpt>
      <trkpt lat="43.72659" lon="5.81209">
        <ele>279.67</ele>
        <time>2022-06-11T07:09:52Z</time>
      </trkpt>
      <trkpt lat="43.72666" lon="5.81215">
        <ele>279.66</ele>
        <time>2022-06-11T07:09:58Z</time>
      </trkpt>
      <trkpt lat="43.72668" lon="5.81219">
        <ele>279.67</ele>
        <time>2022-06-11T07:09:59Z</time>
      </trkpt>
      <trkpt lat="43.7267" lon="5.81225">
        <ele>279.67</ele>
        <time>2022-06-11T07:10:00Z</time>
      </trkpt>
      <trkpt lat="43.72671" lon="5.81231">
        <ele>279.68</ele>
        <time>2022-06-11T07:10:01Z</time>
      </trkpt>
      <trkpt lat="43.72672" lon="5.81239">
        <ele>279.68</ele>
        <time>2022-06-11T07:10:02Z</time>
      </trkpt>
      <trkpt lat="43.72673" lon="5.81248">
        <ele>280.59</ele>
        <time>2022-06-11T07:10:03Z</time>
      </trkpt>
      <trkpt lat="43.72678" lon="5.81296">
        <ele>282.86</ele>
        <time>2022-06-11T07:10:07Z</time>
      </trkpt>
      <trkpt lat="43.72681" lon="5.81307">
        <ele>282.89</ele>
        <time>2022-06-11T07:10:08Z</time>
      </trkpt>
      <trkpt lat="43.72688" lon="5.81315">
        <ele>284.03</ele>
        <time>2022-06-11T07:10:09Z</time>
      </trkpt>
      <trkpt lat="43.72696" lon="5.81321">
        <ele>284.08</ele>
        <time>2022-06-11T07:10:10Z</time>
      </trkpt>
      <trkpt lat="43.72705" lon="5.81323">
        <ele>284.95</ele>
        <time>2022-06-11T07:10:11Z</time>
      </trkpt>
      <trkpt lat="43.72714" lon="5.81323">
        <ele>284.98</ele>
        <time>2022-06-11T07:10:12Z</time>
      </trkpt>
      <trkpt lat="43.72724" lon="5.81321">
        <ele>284.98</ele>
        <time>2022-06-11T07:10:13Z</time>
      </trkpt>
      <trkpt lat="43.72733" lon="5.81316">
        <ele>285</ele>
        <time>2022-06-11T07:10:14Z</time>
      </trkpt>
      <trkpt lat="43.72743" lon="5.81311">
        <ele>285</ele>
        <time>2022-06-11T07:10:15Z</time>
      </trkpt>
      <trkpt lat="43.7276" lon="5.81305">
        <ele>284.95</ele>
        <time>2022-06-11T07:10:17Z</time>
      </trkpt>
      <trkpt lat="43.72823" lon="5.81292">
        <ele>286.12</ele>
        <time>2022-06-11T07:10:26Z</time>
      </trkpt>
      <trkpt lat="43.72831" lon="5.8129">
        <ele>286.12</ele>
        <time>2022-06-11T07:10:27Z</time>
      </trkpt>
      <trkpt lat="43.72908" lon="5.81274">
        <ele>286.13</ele>
        <time>2022-06-11T07:10:35Z</time>
      </trkpt>
      <trkpt lat="43.72917" lon="5.81274">
        <ele>286.09</ele>
        <time>2022-06-11T07:10:36Z</time>
      </trkpt>
      <trkpt lat="43.72927" lon="5.81276">
        <ele>286.13</ele>
        <time>2022-06-11T07:10:37Z</time>
      </trkpt>
      <trkpt lat="43.72969" lon="5.8129">
        <ele>286.02</ele>
        <time>2022-06-11T07:10:43Z</time>
      </trkpt>
      <trkpt lat="43.72975" lon="5.81288">
        <ele>286.08</ele>
        <time>2022-06-11T07:10:44Z</time>
      </trkpt>
      <trkpt lat="43.7298" lon="5.81285">
        <ele>286.08</ele>
        <time>2022-06-11T07:10:45Z</time>
      </trkpt>
      <trkpt lat="43.72987" lon="5.81281">
        <ele>286.07</ele>
        <time>2022-06-11T07:10:46Z</time>
      </trkpt>
      <trkpt lat="43.72994" lon="5.81279">
        <ele>286.07</ele>
        <time>2022-06-11T07:10:47Z</time>
      </trkpt>
      <trkpt lat="43.73002" lon="5.81277">
        <ele>286.06</ele>
        <time>2022-06-11T07:10:48Z</time>
      </trkpt>
      <trkpt lat="43.73038" lon="5.81268">
        <ele>283.39</ele>
        <time>2022-06-11T07:10:53Z</time>
      </trkpt>
      <trkpt lat="43.73042" lon="5.81269">
        <ele>283.39</ele>
        <time>2022-06-11T07:10:54Z</time>
      </trkpt>
      <trkpt lat="43.73046" lon="5.81273">
        <ele>283.39</ele>
        <time>2022-06-11T07:10:55Z</time>
      </trkpt>
      <trkpt lat="43.73061" lon="5.81293">
        <ele>283.41</ele>
        <time>2022-06-11T07:10:58Z</time>
      </trkpt>
      <trkpt lat="43.73074" lon="5.81306">
        <ele>286.93</ele>
        <time>2022-06-11T07:11:00Z</time>
      </trkpt>
      <trkpt lat="43.73081" lon="5.81313">
        <ele>286.93</ele>
        <time>2022-06-11T07:11:01Z</time>
      </trkpt>
      <trkpt lat="43.73164" lon="5.81363">
        <ele>287.68</ele>
        <time>2022-06-11T07:11:11Z</time>
      </trkpt>
      <trkpt lat="43.73247" lon="5.8139">
        <ele>290.44</ele>
        <time>2022-06-11T07:11:20Z</time>
      </trkpt>
      <trkpt lat="43.73334" lon="5.81418">
        <ele>295.13</ele>
        <time>2022-06-11T07:11:28Z</time>
      </trkpt>
      <trkpt lat="43.73345" lon="5.81422">
        <ele>295.18</ele>
        <time>2022-06-11T07:11:29Z</time>
      </trkpt>
      <trkpt lat="43.73379" lon="5.81433">
        <ele>296.44</ele>
        <time>2022-06-11T07:11:32Z</time>
      </trkpt>
      <trkpt lat="43.73445" lon="5.8145">
        <ele>300.23</ele>
        <time>2022-06-11T07:11:38Z</time>
      </trkpt>
      <trkpt lat="43.73477" lon="5.81457">
        <ele>301.98</ele>
        <time>2022-06-11T07:11:41Z</time>
      </trkpt>
      <trkpt lat="43.73508" lon="5.81466">
        <ele>304.06</ele>
        <time>2022-06-11T07:11:44Z</time>
      </trkpt>
      <trkpt lat="43.73528" lon="5.81472">
        <ele>305.94</ele>
        <time>2022-06-11T07:11:46Z</time>
      </trkpt>
      <trkpt lat="43.73569" lon="5.8148">
        <ele>308.77</ele>
        <time>2022-06-11T07:11:50Z</time>
      </trkpt>
      <trkpt lat="43.73598" lon="5.81485">
        <ele>311.94</ele>
        <time>2022-06-11T07:11:53Z</time>
      </trkpt>
      <trkpt lat="43.73608" lon="5.81487">
        <ele>312.01</ele>
        <time>2022-06-11T07:11:54Z</time>
      </trkpt>
      <trkpt lat="43.73633" lon="5.81492">
        <ele>314.15</ele>
        <time>2022-06-11T07:11:57Z</time>
      </trkpt>
      <trkpt lat="43.73639" lon="5.81495">
        <ele>314.13</ele>
        <time>2022-06-11T07:11:58Z</time>
      </trkpt>
      <trkpt lat="43.73645" lon="5.81499">
        <ele>314.53</ele>
        <time>2022-06-11T07:11:59Z</time>
      </trkpt>
      <trkpt lat="43.73655" lon="5.81507">
        <ele>315.42</ele>
        <time>2022-06-11T07:12:01Z</time>
      </trkpt>
      <trkpt lat="43.73664" lon="5.81516">
        <ele>316.75</ele>
        <time>2022-06-11T07:12:03Z</time>
      </trkpt>
      <trkpt lat="43.73679" lon="5.81536">
        <ele>319.31</ele>
        <time>2022-06-11T07:12:06Z</time>
      </trkpt>
      <trkpt lat="43.73694" lon="5.81559">
        <ele>321.88</ele>
        <time>2022-06-11T07:12:09Z</time>
      </trkpt>
      <trkpt lat="43.73699" lon="5.81566">
        <ele>323.37</ele>
        <time>2022-06-11T07:12:10Z</time>
      </trkpt>
      <trkpt lat="43.73709" lon="5.81577">
        <ele>324.34</ele>
        <time>2022-06-11T07:12:12Z</time>
      </trkpt>
      <trkpt lat="43.73714" lon="5.81582">
        <ele>325.51</ele>
        <time>2022-06-11T07:12:13Z</time>
      </trkpt>
      <trkpt lat="43.73719" lon="5.81585">
        <ele>327.11</ele>
        <time>2022-06-11T07:12:14Z</time>
      </trkpt>
      <trkpt lat="43.73725" lon="5.81589">
        <ele>327.08</ele>
        <time>2022-06-11T07:12:15Z</time>
      </trkpt>
      <trkpt lat="43.73735" lon="5.81594">
        <ele>328.46</ele>
        <time>2022-06-11T07:12:17Z</time>
      </trkpt>
      <trkpt lat="43.73741" lon="5.81596">
        <ele>330.22</ele>
        <time>2022-06-11T07:12:18Z</time>
      </trkpt>
      <trkpt lat="43.73747" lon="5.81596">
        <ele>331.02</ele>
        <time>2022-06-11T07:12:19Z</time>
      </trkpt>
      <trkpt lat="43.73754" lon="5.81596">
        <ele>332.01</ele>
        <time>2022-06-11T07:12:20Z</time>
      </trkpt>
      <trkpt lat="43.73759" lon="5.81596">
        <ele>332.96</ele>
        <time>2022-06-11T07:12:21Z</time>
      </trkpt>
      <trkpt lat="43.73765" lon="5.81594">
        <ele>332.96</ele>
        <time>2022-06-11T07:12:22Z</time>
      </trkpt>
      <trkpt lat="43.7377" lon="5.81593">
        <ele>335.07</ele>
        <time>2022-06-11T07:12:23Z</time>
      </trkpt>
      <trkpt lat="43.73774" lon="5.81593">
        <ele>335.07</ele>
        <time>2022-06-11T07:12:24Z</time>
      </trkpt>
      <trkpt lat="43.73779" lon="5.81594">
        <ele>336.57</ele>
        <time>2022-06-11T07:12:25Z</time>
      </trkpt>
      <trkpt lat="43.73795" lon="5.81595">
        <ele>340.27</ele>
        <time>2022-06-11T07:12:28Z</time>
      </trkpt>
      <trkpt lat="43.73801" lon="5.81595">
        <ele>340.26</ele>
        <time>2022-06-11T07:12:29Z</time>
      </trkpt>
      <trkpt lat="43.73805" lon="5.81595">
        <ele>341.18</ele>
        <time>2022-06-11T07:12:30Z</time>
      </trkpt>
      <trkpt lat="43.7381" lon="5.81596">
        <ele>342.14</ele>
        <time>2022-06-11T07:12:31Z</time>
      </trkpt>
      <trkpt lat="43.73814" lon="5.81597">
        <ele>342.13</ele>
        <time>2022-06-11T07:12:32Z</time>
      </trkpt>
      <trkpt lat="43.73824" lon="5.81601">
        <ele>344.29</ele>
        <time>2022-06-11T07:12:34Z</time>
      </trkpt>
      <trkpt lat="43.7384" lon="5.81608">
        <ele>348.12</ele>
        <time>2022-06-11T07:12:37Z</time>
      </trkpt>
      <trkpt lat="43.73845" lon="5.8161">
        <ele>348.2</ele>
        <time>2022-06-11T07:12:38Z</time>
      </trkpt>
      <trkpt lat="43.73851" lon="5.81614">
        <ele>350.09</ele>
        <time>2022-06-11T07:12:40Z</time>
      </trkpt>
      <trkpt lat="43.73865" lon="5.81628">
        <ele>352.22</ele>
        <time>2022-06-11T07:12:45Z</time>
      </trkpt>
      <trkpt lat="43.73876" lon="5.81642">
        <ele>354.28</ele>
        <time>2022-06-11T07:12:48Z</time>
      </trkpt>
      <trkpt lat="43.73883" lon="5.81651">
        <ele>355.97</ele>
        <time>2022-06-11T07:12:50Z</time>
      </trkpt>
      <trkpt lat="43.73891" lon="5.81661">
        <ele>358.47</ele>
        <time>2022-06-11T07:12:52Z</time>
      </trkpt>
      <trkpt lat="43.739" lon="5.81669">
        <ele>359.85</ele>
        <time>2022-06-11T07:12:54Z</time>
      </trkpt>
      <trkpt lat="43.7391" lon="5.81675">
        <ele>361.5</ele>
        <time>2022-06-11T07:12:56Z</time>
      </trkpt>
      <trkpt lat="43.73922" lon="5.81682">
        <ele>364.53</ele>
        <time>2022-06-11T07:12:59Z</time>
      </trkpt>
      <trkpt lat="43.73926" lon="5.81684">
        <ele>364.6</ele>
        <time>2022-06-11T07:13:00Z</time>
      </trkpt>
      <trkpt lat="43.73935" lon="5.81689">
        <ele>366.51</ele>
        <time>2022-06-11T07:13:03Z</time>
      </trkpt>
      <trkpt lat="43.73934" lon="5.81688">
        <ele>367.13</ele>
        <time>2022-06-11T07:13:16Z</time>
      </trkpt>
      <trkpt lat="43.73935" lon="5.81686">
        <ele>367.19</ele>
        <time>2022-06-11T07:14:00Z</time>
      </trkpt>
      <trkpt lat="43.73934" lon="5.81685">
        <ele>367.22</ele>
        <time>2022-06-11T07:15:37Z</time>
      </trkpt>
      <trkpt lat="43.73935" lon="5.81689">
        <ele>367.13</ele>
        <time>2022-06-11T07:17:12Z</time>
      </trkpt>
      <trkpt lat="43.73936" lon="5.81688">
        <ele>367.04</ele>
        <time>2022-06-11T07:18:39Z</time>
      </trkpt>
      <trkpt lat="43.7394" lon="5.81689">
        <ele>367.09</ele>
        <time>2022-06-11T07:19:11Z</time>
      </trkpt>
      <trkpt lat="43.73936" lon="5.81689">
        <ele>367.01</ele>
        <time>2022-06-11T07:19:24Z</time>
      </trkpt>
      <trkpt lat="43.73933" lon="5.81687">
        <ele>366.95</ele>
        <time>2022-06-11T07:19:37Z</time>
      </trkpt>
      <trkpt lat="43.73931" lon="5.81686">
        <ele>366.94</ele>
        <time>2022-06-11T07:19:38Z</time>
      </trkpt>
      <trkpt lat="43.73929" lon="5.81685">
        <ele>366.94</ele>
        <time>2022-06-11T07:19:39Z</time>
      </trkpt>
      <trkpt lat="43.73927" lon="5.81684">
        <ele>366.94</ele>
        <time>2022-06-11T07:19:40Z</time>
      </trkpt>
      <trkpt lat="43.73926" lon="5.81683">
        <ele>367</ele>
        <time>2022-06-11T07:19:41Z</time>
      </trkpt>
      <trkpt lat="43.73924" lon="5.81681">
        <ele>366.99</ele>
        <time>2022-06-11T07:19:42Z</time>
      </trkpt>
      <trkpt lat="43.73919" lon="5.81679">
        <ele>364.66</ele>
        <time>2022-06-11T07:19:44Z</time>
      </trkpt>
      <trkpt lat="43.73904" lon="5.81671">
        <ele>361.6</ele>
        <time>2022-06-11T07:19:51Z</time>
      </trkpt>
      <trkpt lat="43.73889" lon="5.8166">
        <ele>358.57</ele>
        <time>2022-06-11T07:19:58Z</time>
      </trkpt>
      <trkpt lat="43.73876" lon="5.81644">
        <ele>355.26</ele>
        <time>2022-06-11T07:20:05Z</time>
      </trkpt>
      <trkpt lat="43.73864" lon="5.81632">
        <ele>353.06</ele>
        <time>2022-06-11T07:20:11Z</time>
      </trkpt>
      <trkpt lat="43.73857" lon="5.81622">
        <ele>350.72</ele>
        <time>2022-06-11T07:20:15Z</time>
      </trkpt>
      <trkpt lat="43.73857" lon="5.81621">
        <ele>350.72</ele>
        <time>2022-06-11T07:20:16Z</time>
      </trkpt>
      <trkpt lat="43.73856" lon="5.8162">
        <ele>349.44</ele>
        <time>2022-06-11T07:20:19Z</time>
      </trkpt>
      <trkpt lat="43.73854" lon="5.81618">
        <ele>349.65</ele>
        <time>2022-06-11T07:20:44Z</time>
      </trkpt>
      <trkpt lat="43.73853" lon="5.81616">
        <ele>349.67</ele>
        <time>2022-06-11T07:21:10Z</time>
      </trkpt>
      <trkpt lat="43.73852" lon="5.81615">
        <ele>349.67</ele>
        <time>2022-06-11T07:21:16Z</time>
      </trkpt>
      <trkpt lat="43.73851" lon="5.81614">
        <ele>349.66</ele>
        <time>2022-06-11T07:21:17Z</time>
      </trkpt>
      <trkpt lat="43.73848" lon="5.81613">
        <ele>349.62</ele>
        <time>2022-06-11T07:21:19Z</time>
      </trkpt>
      <trkpt lat="43.73846" lon="5.81613">
        <ele>349.61</ele>
        <time>2022-06-11T07:21:20Z</time>
      </trkpt>
      <trkpt lat="43.73844" lon="5.81612">
        <ele>349.6</ele>
        <time>2022-06-11T07:21:24Z</time>
      </trkpt>
      <trkpt lat="43.73838" lon="5.81609">
        <ele>348.66</ele>
        <time>2022-06-11T07:21:28Z</time>
      </trkpt>
      <trkpt lat="43.7382" lon="5.81603">
        <ele>344.89</ele>
        <time>2022-06-11T07:21:36Z</time>
      </trkpt>
      <trkpt lat="43.73818" lon="5.81602">
        <ele>344.89</ele>
        <time>2022-06-11T07:21:37Z</time>
      </trkpt>
      <trkpt lat="43.73798" lon="5.81596">
        <ele>340.9</ele>
        <time>2022-06-11T07:21:46Z</time>
      </trkpt>
      <trkpt lat="43.73795" lon="5.81596">
        <ele>340.84</ele>
        <time>2022-06-11T07:21:47Z</time>
      </trkpt>
      <trkpt lat="43.73779" lon="5.81597">
        <ele>337.67</ele>
        <time>2022-06-11T07:21:53Z</time>
      </trkpt>
      <trkpt lat="43.73767" lon="5.816">
        <ele>335.54</ele>
        <time>2022-06-11T07:21:57Z</time>
      </trkpt>
      <trkpt lat="43.73752" lon="5.81603">
        <ele>332.3</ele>
        <time>2022-06-11T07:22:02Z</time>
      </trkpt>
      <trkpt lat="43.73749" lon="5.81604">
        <ele>332.29</ele>
        <time>2022-06-11T07:22:03Z</time>
      </trkpt>
      <trkpt lat="43.73736" lon="5.81602">
        <ele>329.91</ele>
        <time>2022-06-11T07:22:07Z</time>
      </trkpt>
      <trkpt lat="43.73724" lon="5.81595">
        <ele>326.83</ele>
        <time>2022-06-11T07:22:11Z</time>
      </trkpt>
      <trkpt lat="43.73721" lon="5.81592">
        <ele>326.77</ele>
        <time>2022-06-11T07:22:12Z</time>
      </trkpt>
      <trkpt lat="43.73705" lon="5.81573">
        <ele>323.9</ele>
        <time>2022-06-11T07:22:18Z</time>
      </trkpt>
      <trkpt lat="43.737" lon="5.81568">
        <ele>323.01</ele>
        <time>2022-06-11T07:22:29Z</time>
      </trkpt>
      <trkpt lat="43.73694" lon="5.81566">
        <ele>321.88</ele>
        <time>2022-06-11T07:23:09Z</time>
      </trkpt>
      <trkpt lat="43.73693" lon="5.81564">
        <ele>321.91</ele>
        <time>2022-06-11T07:23:10Z</time>
      </trkpt>
      <trkpt lat="43.73683" lon="5.81548">
        <ele>320.81</ele>
        <time>2022-06-11T07:23:19Z</time>
      </trkpt>
      <trkpt lat="43.73683" lon="5.81546">
        <ele>319.93</ele>
        <time>2022-06-11T07:23:20Z</time>
      </trkpt>
      <trkpt lat="43.73682" lon="5.81543">
        <ele>319.92</ele>
        <time>2022-06-11T07:23:21Z</time>
      </trkpt>
      <trkpt lat="43.7368" lon="5.81542">
        <ele>319.92</ele>
        <time>2022-06-11T07:23:22Z</time>
      </trkpt>
      <trkpt lat="43.73679" lon="5.8154">
        <ele>319.02</ele>
        <time>2022-06-11T07:23:23Z</time>
      </trkpt>
      <trkpt lat="43.73677" lon="5.81538">
        <ele>319.01</ele>
        <time>2022-06-11T07:23:24Z</time>
      </trkpt>
      <trkpt lat="43.73666" lon="5.8152">
        <ele>317.06</ele>
        <time>2022-06-11T07:23:30Z</time>
      </trkpt>
      <trkpt lat="43.73653" lon="5.81504">
        <ele>316.19</ele>
        <time>2022-06-11T07:23:37Z</time>
      </trkpt>
      <trkpt lat="43.73651" lon="5.81502">
        <ele>315.31</ele>
        <time>2022-06-11T07:23:38Z</time>
      </trkpt>
      <trkpt lat="43.73648" lon="5.815">
        <ele>314.69</ele>
        <time>2022-06-11T07:23:39Z</time>
      </trkpt>
      <trkpt lat="43.73645" lon="5.81498">
        <ele>314.68</ele>
        <time>2022-06-11T07:23:40Z</time>
      </trkpt>
      <trkpt lat="43.73644" lon="5.81497">
        <ele>314.65</ele>
        <time>2022-06-11T07:23:41Z</time>
      </trkpt>
      <trkpt lat="43.73641" lon="5.81495">
        <ele>313.55</ele>
        <time>2022-06-11T07:23:49Z</time>
      </trkpt>
      <trkpt lat="43.7364" lon="5.81493">
        <ele>313.57</ele>
        <time>2022-06-11T07:23:50Z</time>
      </trkpt>
      <trkpt lat="43.73638" lon="5.81491">
        <ele>313.58</ele>
        <time>2022-06-11T07:23:51Z</time>
      </trkpt>
      <trkpt lat="43.73635" lon="5.8149">
        <ele>313.57</ele>
        <time>2022-06-11T07:23:52Z</time>
      </trkpt>
      <trkpt lat="43.73632" lon="5.81489">
        <ele>313.57</ele>
        <time>2022-06-11T07:23:53Z</time>
      </trkpt>
      <trkpt lat="43.73584" lon="5.8148">
        <ele>311.18</ele>
        <time>2022-06-11T07:24:00Z</time>
      </trkpt>
      <trkpt lat="43.73551" lon="5.81477">
        <ele>307.89</ele>
        <time>2022-06-11T07:24:04Z</time>
      </trkpt>
      <trkpt lat="43.73543" lon="5.81475">
        <ele>307.87</ele>
        <time>2022-06-11T07:24:05Z</time>
      </trkpt>
      <trkpt lat="43.7349" lon="5.81461">
        <ele>305.07</ele>
        <time>2022-06-11T07:24:10Z</time>
      </trkpt>
      <trkpt lat="43.73452" lon="5.81449">
        <ele>301.15</ele>
        <time>2022-06-11T07:24:14Z</time>
      </trkpt>
      <trkpt lat="43.7342" lon="5.81441">
        <ele>298.52</ele>
        <time>2022-06-11T07:24:18Z</time>
      </trkpt>
      <trkpt lat="43.73405" lon="5.81436">
        <ele>297.28</ele>
        <time>2022-06-11T07:24:20Z</time>
      </trkpt>
      <trkpt lat="43.73392" lon="5.81433">
        <ele>295.89</ele>
        <time>2022-06-11T07:24:22Z</time>
      </trkpt>
      <trkpt lat="43.7337" lon="5.81428">
        <ele>294.57</ele>
        <time>2022-06-11T07:24:25Z</time>
      </trkpt>
      <trkpt lat="43.73363" lon="5.81427">
        <ele>294.57</ele>
        <time>2022-06-11T07:24:26Z</time>
      </trkpt>
      <trkpt lat="43.73354" lon="5.81426">
        <ele>294.5</ele>
        <time>2022-06-11T07:24:27Z</time>
      </trkpt>
      <trkpt lat="43.73344" lon="5.81423">
        <ele>294.59</ele>
        <time>2022-06-11T07:24:28Z</time>
      </trkpt>
      <trkpt lat="43.73335" lon="5.8142">
        <ele>294.58</ele>
        <time>2022-06-11T07:24:29Z</time>
      </trkpt>
      <trkpt lat="43.7328" lon="5.814">
        <ele>293.75</ele>
        <time>2022-06-11T07:24:34Z</time>
      </trkpt>
      <trkpt lat="43.73259" lon="5.81393">
        <ele>292.37</ele>
        <time>2022-06-11T07:24:36Z</time>
      </trkpt>
      <trkpt lat="43.73226" lon="5.81382">
        <ele>290.81</ele>
        <time>2022-06-11T07:24:39Z</time>
      </trkpt>
      <trkpt lat="43.73164" lon="5.81362">
        <ele>288.35</ele>
        <time>2022-06-11T07:24:45Z</time>
      </trkpt>
      <trkpt lat="43.73151" lon="5.81359">
        <ele>287.13</ele>
        <time>2022-06-11T07:24:47Z</time>
      </trkpt>
      <trkpt lat="43.73146" lon="5.81358">
        <ele>287.07</ele>
        <time>2022-06-11T07:24:48Z</time>
      </trkpt>
      <trkpt lat="43.73133" lon="5.81352">
        <ele>286.14</ele>
        <time>2022-06-11T07:24:50Z</time>
      </trkpt>
      <trkpt lat="43.73125" lon="5.81348">
        <ele>286.1</ele>
        <time>2022-06-11T07:24:51Z</time>
      </trkpt>
      <trkpt lat="43.73117" lon="5.81342">
        <ele>286.11</ele>
        <time>2022-06-11T07:24:52Z</time>
      </trkpt>
      <trkpt lat="43.73054" lon="5.81286">
        <ele>285.33</ele>
        <time>2022-06-11T07:25:03Z</time>
      </trkpt>
      <trkpt lat="43.73045" lon="5.81276">
        <ele>284.01</ele>
        <time>2022-06-11T07:25:06Z</time>
      </trkpt>
      <trkpt lat="43.73043" lon="5.81269">
        <ele>283.06</ele>
        <time>2022-06-11T07:25:08Z</time>
      </trkpt>
      <trkpt lat="43.73044" lon="5.81264">
        <ele>283.07</ele>
        <time>2022-06-11T07:25:09Z</time>
      </trkpt>
      <trkpt lat="43.73048" lon="5.81259">
        <ele>281.36</ele>
        <time>2022-06-11T07:25:10Z</time>
      </trkpt>
      <trkpt lat="43.73053" lon="5.81256">
        <ele>281.35</ele>
        <time>2022-06-11T07:25:11Z</time>
      </trkpt>
      <trkpt lat="43.73059" lon="5.81252">
        <ele>281.36</ele>
        <time>2022-06-11T07:25:12Z</time>
      </trkpt>
      <trkpt lat="43.73065" lon="5.81247">
        <ele>281.33</ele>
        <time>2022-06-11T07:25:13Z</time>
      </trkpt>
      <trkpt lat="43.73068" lon="5.81238">
        <ele>281.32</ele>
        <time>2022-06-11T07:25:14Z</time>
      </trkpt>
      <trkpt lat="43.73067" lon="5.8123">
        <ele>281.32</ele>
        <time>2022-06-11T07:25:15Z</time>
      </trkpt>
      <trkpt lat="43.73062" lon="5.81224">
        <ele>281.33</ele>
        <time>2022-06-11T07:25:16Z</time>
      </trkpt>
      <trkpt lat="43.73056" lon="5.81225">
        <ele>281.3</ele>
        <time>2022-06-11T07:25:17Z</time>
      </trkpt>
      <trkpt lat="43.7305" lon="5.81231">
        <ele>281.33</ele>
        <time>2022-06-11T07:25:18Z</time>
      </trkpt>
      <trkpt lat="43.73046" lon="5.81241">
        <ele>281.53</ele>
        <time>2022-06-11T07:25:19Z</time>
      </trkpt>
      <trkpt lat="43.73042" lon="5.81251">
        <ele>281.53</ele>
        <time>2022-06-11T07:25:20Z</time>
      </trkpt>
      <trkpt lat="43.73036" lon="5.81258">
        <ele>281.51</ele>
        <time>2022-06-11T07:25:21Z</time>
      </trkpt>
      <trkpt lat="43.73028" lon="5.81263">
        <ele>281.51</ele>
        <time>2022-06-11T07:25:22Z</time>
      </trkpt>
      <trkpt lat="43.73018" lon="5.81266">
        <ele>284.11</ele>
        <time>2022-06-11T07:25:23Z</time>
      </trkpt>
      <trkpt lat="43.73008" lon="5.81269">
        <ele>284.11</ele>
        <time>2022-06-11T07:25:24Z</time>
      </trkpt>
      <trkpt lat="43.72966" lon="5.8128">
        <ele>284.13</ele>
        <time>2022-06-11T07:25:31Z</time>
      </trkpt>
      <trkpt lat="43.72964" lon="5.81283">
        <ele>284.13</ele>
        <time>2022-06-11T07:25:32Z</time>
      </trkpt>
      <trkpt lat="43.72962" lon="5.81289">
        <ele>284.11</ele>
        <time>2022-06-11T07:25:33Z</time>
      </trkpt>
      <trkpt lat="43.72964" lon="5.81295">
        <ele>284.11</ele>
        <time>2022-06-11T07:25:34Z</time>
      </trkpt>
      <trkpt lat="43.72968" lon="5.81303">
        <ele>284.18</ele>
        <time>2022-06-11T07:25:35Z</time>
      </trkpt>
      <trkpt lat="43.72974" lon="5.81313">
        <ele>284.23</ele>
        <time>2022-06-11T07:25:36Z</time>
      </trkpt>
      <trkpt lat="43.72989" lon="5.81336">
        <ele>285.65</ele>
        <time>2022-06-11T07:25:38Z</time>
      </trkpt>
      <trkpt lat="43.73033" lon="5.81426">
        <ele>285.38</ele>
        <time>2022-06-11T07:25:47Z</time>
      </trkpt>
      <trkpt lat="43.73074" lon="5.81519">
        <ele>285.35</ele>
        <time>2022-06-11T07:25:57Z</time>
      </trkpt>
      <trkpt lat="43.731" lon="5.81575">
        <ele>286.6</ele>
        <time>2022-06-11T07:26:02Z</time>
      </trkpt>
      <trkpt lat="43.73119" lon="5.81619">
        <ele>287.76</ele>
        <time>2022-06-11T07:26:05Z</time>
      </trkpt>
      <trkpt lat="43.73123" lon="5.81635">
        <ele>288.82</ele>
        <time>2022-06-11T07:26:06Z</time>
      </trkpt>
      <trkpt lat="43.73127" lon="5.81652">
        <ele>288.67</ele>
        <time>2022-06-11T07:26:07Z</time>
      </trkpt>
      <trkpt lat="43.73162" lon="5.8187">
        <ele>289.78</ele>
        <time>2022-06-11T07:26:19Z</time>
      </trkpt>
      <trkpt lat="43.73175" lon="5.81987">
        <ele>289.7</ele>
        <time>2022-06-11T07:26:27Z</time>
      </trkpt>
      <trkpt lat="43.73191" lon="5.8208">
        <ele>289.74</ele>
        <time>2022-06-11T07:26:37Z</time>
      </trkpt>
      <trkpt lat="43.73209" lon="5.82175">
        <ele>292.34</ele>
        <time>2022-06-11T07:26:44Z</time>
      </trkpt>
      <trkpt lat="43.73231" lon="5.82272">
        <ele>292.36</ele>
        <time>2022-06-11T07:26:52Z</time>
      </trkpt>
      <trkpt lat="43.7325" lon="5.82369">
        <ele>294.88</ele>
        <time>2022-06-11T07:26:58Z</time>
      </trkpt>
      <trkpt lat="43.73258" lon="5.82511">
        <ele>295.51</ele>
        <time>2022-06-11T07:27:06Z</time>
      </trkpt>
      <trkpt lat="43.73258" lon="5.82568">
        <ele>297.82</ele>
        <time>2022-06-11T07:27:09Z</time>
      </trkpt>
      <trkpt lat="43.7326" lon="5.82608">
        <ele>299.41</ele>
        <time>2022-06-11T07:27:11Z</time>
      </trkpt>
      <trkpt lat="43.73272" lon="5.82707">
        <ele>301.88</ele>
        <time>2022-06-11T07:27:16Z</time>
      </trkpt>
      <trkpt lat="43.7328" lon="5.82747">
        <ele>303.23</ele>
        <time>2022-06-11T07:27:18Z</time>
      </trkpt>
      <trkpt lat="43.73298" lon="5.82871">
        <ele>304.51</ele>
        <time>2022-06-11T07:27:24Z</time>
      </trkpt>
      <trkpt lat="43.73298" lon="5.82892">
        <ele>304.51</ele>
        <time>2022-06-11T07:27:25Z</time>
      </trkpt>
      <trkpt lat="43.73307" lon="5.83087">
        <ele>308.54</ele>
        <time>2022-06-11T07:27:34Z</time>
      </trkpt>
      <trkpt lat="43.73312" lon="5.83109">
        <ele>308.54</ele>
        <time>2022-06-11T07:27:35Z</time>
      </trkpt>
      <trkpt lat="43.73326" lon="5.83151">
        <ele>310.19</ele>
        <time>2022-06-11T07:27:37Z</time>
      </trkpt>
      <trkpt lat="43.73369" lon="5.8328">
        <ele>312.32</ele>
        <time>2022-06-11T07:27:44Z</time>
      </trkpt>
      <trkpt lat="43.73385" lon="5.83356">
        <ele>314.8</ele>
        <time>2022-06-11T07:27:47Z</time>
      </trkpt>
      <trkpt lat="43.7341" lon="5.83457">
        <ele>314.58</ele>
        <time>2022-06-11T07:27:52Z</time>
      </trkpt>
      <trkpt lat="43.73418" lon="5.83474">
        <ele>314.47</ele>
        <time>2022-06-11T07:27:53Z</time>
      </trkpt>
      <trkpt lat="43.73427" lon="5.83492">
        <ele>314.38</ele>
        <time>2022-06-11T07:27:54Z</time>
      </trkpt>
      <trkpt lat="43.73461" lon="5.83545">
        <ele>314.39</ele>
        <time>2022-06-11T07:27:57Z</time>
      </trkpt>
      <trkpt lat="43.73475" lon="5.83561">
        <ele>315.36</ele>
        <time>2022-06-11T07:27:58Z</time>
      </trkpt>
      <trkpt lat="43.73491" lon="5.83575">
        <ele>316.13</ele>
        <time>2022-06-11T07:27:59Z</time>
      </trkpt>
      <trkpt lat="43.73508" lon="5.83589">
        <ele>316.12</ele>
        <time>2022-06-11T07:28:00Z</time>
      </trkpt>
      <trkpt lat="43.73557" lon="5.8363">
        <ele>316.08</ele>
        <time>2022-06-11T07:28:03Z</time>
      </trkpt>
      <trkpt lat="43.7357" lon="5.83648">
        <ele>316.07</ele>
        <time>2022-06-11T07:28:04Z</time>
      </trkpt>
      <trkpt lat="43.73655" lon="5.83784">
        <ele>316.05</ele>
        <time>2022-06-11T07:28:12Z</time>
      </trkpt>
      <trkpt lat="43.73659" lon="5.83802">
        <ele>316.05</ele>
        <time>2022-06-11T07:28:13Z</time>
      </trkpt>
      <trkpt lat="43.7366" lon="5.83823">
        <ele>316.07</ele>
        <time>2022-06-11T07:28:14Z</time>
      </trkpt>
      <trkpt lat="43.73657" lon="5.83845">
        <ele>316.04</ele>
        <time>2022-06-11T07:28:15Z</time>
      </trkpt>
      <trkpt lat="43.73653" lon="5.83866">
        <ele>316.05</ele>
        <time>2022-06-11T07:28:16Z</time>
      </trkpt>
      <trkpt lat="43.7364" lon="5.83944">
        <ele>316</ele>
        <time>2022-06-11T07:28:20Z</time>
      </trkpt>
      <trkpt lat="43.7364" lon="5.83962">
        <ele>313.63</ele>
        <time>2022-06-11T07:28:21Z</time>
      </trkpt>
      <trkpt lat="43.73643" lon="5.8398">
        <ele>313.64</ele>
        <time>2022-06-11T07:28:22Z</time>
      </trkpt>
      <trkpt lat="43.73649" lon="5.83997">
        <ele>313.62</ele>
        <time>2022-06-11T07:28:23Z</time>
      </trkpt>
      <trkpt lat="43.73657" lon="5.84013">
        <ele>312.84</ele>
        <time>2022-06-11T07:28:24Z</time>
      </trkpt>
      <trkpt lat="43.73666" lon="5.84028">
        <ele>311.87</ele>
        <time>2022-06-11T07:28:25Z</time>
      </trkpt>
      <trkpt lat="43.73676" lon="5.84041">
        <ele>310.91</ele>
        <time>2022-06-11T07:28:26Z</time>
      </trkpt>
      <trkpt lat="43.73687" lon="5.8405">
        <ele>310.89</ele>
        <time>2022-06-11T07:28:27Z</time>
      </trkpt>
      <trkpt lat="43.73699" lon="5.84056">
        <ele>309.88</ele>
        <time>2022-06-11T07:28:28Z</time>
      </trkpt>
      <trkpt lat="43.73712" lon="5.84057">
        <ele>309.85</ele>
        <time>2022-06-11T07:28:29Z</time>
      </trkpt>
      <trkpt lat="43.73728" lon="5.84052">
        <ele>308.63</ele>
        <time>2022-06-11T07:28:30Z</time>
      </trkpt>
      <trkpt lat="43.73745" lon="5.84047">
        <ele>308.59</ele>
        <time>2022-06-11T07:28:31Z</time>
      </trkpt>
      <trkpt lat="43.7383" lon="5.84041">
        <ele>305.52</ele>
        <time>2022-06-11T07:28:36Z</time>
      </trkpt>
      <trkpt lat="43.73901" lon="5.8405">
        <ele>301.26</ele>
        <time>2022-06-11T07:28:40Z</time>
      </trkpt>
      <trkpt lat="43.73919" lon="5.84051">
        <ele>301.22</ele>
        <time>2022-06-11T07:28:41Z</time>
      </trkpt>
      <trkpt lat="43.74089" lon="5.84096">
        <ele>298.07</ele>
        <time>2022-06-11T07:28:51Z</time>
      </trkpt>
      <trkpt lat="43.74136" lon="5.84126">
        <ele>296.75</ele>
        <time>2022-06-11T07:28:54Z</time>
      </trkpt>
      <trkpt lat="43.74328" lon="5.84284">
        <ele>296.93</ele>
        <time>2022-06-11T07:29:07Z</time>
      </trkpt>
      <trkpt lat="43.74439" lon="5.84391">
        <ele>296.91</ele>
        <time>2022-06-11T07:29:15Z</time>
      </trkpt>
      <trkpt lat="43.74451" lon="5.84407">
        <ele>296.9</ele>
        <time>2022-06-11T07:29:16Z</time>
      </trkpt>
      <trkpt lat="43.74545" lon="5.84533">
        <ele>296.92</ele>
        <time>2022-06-11T07:29:24Z</time>
      </trkpt>
      <trkpt lat="43.7456" lon="5.8454">
        <ele>296.93</ele>
        <time>2022-06-11T07:29:25Z</time>
      </trkpt>
      <trkpt lat="43.74575" lon="5.84543">
        <ele>296.92</ele>
        <time>2022-06-11T07:29:26Z</time>
      </trkpt>
      <trkpt lat="43.7459" lon="5.84546">
        <ele>296.92</ele>
        <time>2022-06-11T07:29:27Z</time>
      </trkpt>
      <trkpt lat="43.74605" lon="5.84551">
        <ele>296.91</ele>
        <time>2022-06-11T07:29:28Z</time>
      </trkpt>
      <trkpt lat="43.74619" lon="5.8456">
        <ele>296.89</ele>
        <time>2022-06-11T07:29:29Z</time>
      </trkpt>
      <trkpt lat="43.74631" lon="5.84571">
        <ele>296.88</ele>
        <time>2022-06-11T07:29:30Z</time>
      </trkpt>
      <trkpt lat="43.74643" lon="5.84585">
        <ele>296.91</ele>
        <time>2022-06-11T07:29:31Z</time>
      </trkpt>
      <trkpt lat="43.74655" lon="5.84599">
        <ele>296.92</ele>
        <time>2022-06-11T07:29:32Z</time>
      </trkpt>
      <trkpt lat="43.74727" lon="5.84689">
        <ele>299.2</ele>
        <time>2022-06-11T07:29:38Z</time>
      </trkpt>
      <trkpt lat="43.74826" lon="5.84816">
        <ele>300.32</ele>
        <time>2022-06-11T07:29:46Z</time>
      </trkpt>
      <trkpt lat="43.74834" lon="5.84836">
        <ele>300.32</ele>
        <time>2022-06-11T07:29:47Z</time>
      </trkpt>
      <trkpt lat="43.74839" lon="5.84857">
        <ele>300.34</ele>
        <time>2022-06-11T07:29:48Z</time>
      </trkpt>
      <trkpt lat="43.74842" lon="5.8488">
        <ele>300.38</ele>
        <time>2022-06-11T07:29:49Z</time>
      </trkpt>
      <trkpt lat="43.74845" lon="5.84903">
        <ele>301.64</ele>
        <time>2022-06-11T07:29:50Z</time>
      </trkpt>
      <trkpt lat="43.74851" lon="5.84926">
        <ele>302.56</ele>
        <time>2022-06-11T07:29:51Z</time>
      </trkpt>
      <trkpt lat="43.74858" lon="5.84947">
        <ele>302.55</ele>
        <time>2022-06-11T07:29:52Z</time>
      </trkpt>
      <trkpt lat="43.74867" lon="5.84967">
        <ele>303.55</ele>
        <time>2022-06-11T07:29:53Z</time>
      </trkpt>
      <trkpt lat="43.74876" lon="5.84987">
        <ele>303.59</ele>
        <time>2022-06-11T07:29:54Z</time>
      </trkpt>
      <trkpt lat="43.74994" lon="5.85196">
        <ele>304.53</ele>
        <time>2022-06-11T07:30:05Z</time>
      </trkpt>
      <trkpt lat="43.75182" lon="5.85483">
        <ele>304.23</ele>
        <time>2022-06-11T07:30:21Z</time>
      </trkpt>
      <trkpt lat="43.75189" lon="5.85504">
        <ele>304.23</ele>
        <time>2022-06-11T07:30:22Z</time>
      </trkpt>
      <trkpt lat="43.75194" lon="5.85527">
        <ele>304.24</ele>
        <time>2022-06-11T07:30:23Z</time>
      </trkpt>
      <trkpt lat="43.75197" lon="5.85551">
        <ele>304.24</ele>
        <time>2022-06-11T07:30:24Z</time>
      </trkpt>
      <trkpt lat="43.75199" lon="5.85575">
        <ele>304.23</ele>
        <time>2022-06-11T07:30:25Z</time>
      </trkpt>
      <trkpt lat="43.7522" lon="5.85717">
        <ele>304.21</ele>
        <time>2022-06-11T07:30:31Z</time>
      </trkpt>
      <trkpt lat="43.75228" lon="5.85738">
        <ele>304.2</ele>
        <time>2022-06-11T07:30:32Z</time>
      </trkpt>
      <trkpt lat="43.75258" lon="5.8582">
        <ele>304.19</ele>
        <time>2022-06-11T07:30:36Z</time>
      </trkpt>
      <trkpt lat="43.75318" lon="5.86035">
        <ele>306.11</ele>
        <time>2022-06-11T07:30:46Z</time>
      </trkpt>
      <trkpt lat="43.75342" lon="5.86123">
        <ele>307.49</ele>
        <time>2022-06-11T07:30:50Z</time>
      </trkpt>
      <trkpt lat="43.75362" lon="5.86188">
        <ele>308.44</ele>
        <time>2022-06-11T07:30:53Z</time>
      </trkpt>
      <trkpt lat="43.75372" lon="5.86207">
        <ele>308.49</ele>
        <time>2022-06-11T07:30:54Z</time>
      </trkpt>
      <trkpt lat="43.75384" lon="5.86224">
        <ele>308.3</ele>
        <time>2022-06-11T07:30:55Z</time>
      </trkpt>
      <trkpt lat="43.75433" lon="5.86295">
        <ele>309.83</ele>
        <time>2022-06-11T07:30:59Z</time>
      </trkpt>
      <trkpt lat="43.75443" lon="5.86316">
        <ele>309.86</ele>
        <time>2022-06-11T07:31:00Z</time>
      </trkpt>
      <trkpt lat="43.75451" lon="5.86337">
        <ele>309.88</ele>
        <time>2022-06-11T07:31:01Z</time>
      </trkpt>
      <trkpt lat="43.75517" lon="5.86542">
        <ele>309.85</ele>
        <time>2022-06-11T07:31:10Z</time>
      </trkpt>
      <trkpt lat="43.75543" lon="5.86604">
        <ele>309.83</ele>
        <time>2022-06-11T07:31:13Z</time>
      </trkpt>
      <trkpt lat="43.75548" lon="5.86626">
        <ele>309.8</ele>
        <time>2022-06-11T07:31:14Z</time>
      </trkpt>
      <trkpt lat="43.75552" lon="5.86648">
        <ele>309.73</ele>
        <time>2022-06-11T07:31:15Z</time>
      </trkpt>
      <trkpt lat="43.75554" lon="5.86671">
        <ele>307.34</ele>
        <time>2022-06-11T07:31:16Z</time>
      </trkpt>
      <trkpt lat="43.75556" lon="5.86693">
        <ele>307.3</ele>
        <time>2022-06-11T07:31:17Z</time>
      </trkpt>
      <trkpt lat="43.75561" lon="5.86754">
        <ele>305.8</ele>
        <time>2022-06-11T07:31:20Z</time>
      </trkpt>
      <trkpt lat="43.75565" lon="5.86773">
        <ele>306</ele>
        <time>2022-06-11T07:31:21Z</time>
      </trkpt>
      <trkpt lat="43.75571" lon="5.86791">
        <ele>306.02</ele>
        <time>2022-06-11T07:31:22Z</time>
      </trkpt>
      <trkpt lat="43.75578" lon="5.86809">
        <ele>306</ele>
        <time>2022-06-11T07:31:23Z</time>
      </trkpt>
      <trkpt lat="43.75587" lon="5.86825">
        <ele>306</ele>
        <time>2022-06-11T07:31:24Z</time>
      </trkpt>
      <trkpt lat="43.75597" lon="5.86841">
        <ele>305.97</ele>
        <time>2022-06-11T07:31:25Z</time>
      </trkpt>
      <trkpt lat="43.75669" lon="5.86964">
        <ele>306</ele>
        <time>2022-06-11T07:31:33Z</time>
      </trkpt>
      <trkpt lat="43.75675" lon="5.86981">
        <ele>306.04</ele>
        <time>2022-06-11T07:31:34Z</time>
      </trkpt>
      <trkpt lat="43.75679" lon="5.86999">
        <ele>306.04</ele>
        <time>2022-06-11T07:31:35Z</time>
      </trkpt>
      <trkpt lat="43.75681" lon="5.87017">
        <ele>306.05</ele>
        <time>2022-06-11T07:31:36Z</time>
      </trkpt>
      <trkpt lat="43.75682" lon="5.87037">
        <ele>306.08</ele>
        <time>2022-06-11T07:31:37Z</time>
      </trkpt>
      <trkpt lat="43.75682" lon="5.87058">
        <ele>306.05</ele>
        <time>2022-06-11T07:31:38Z</time>
      </trkpt>
      <trkpt lat="43.75681" lon="5.87079">
        <ele>306.09</ele>
        <time>2022-06-11T07:31:39Z</time>
      </trkpt>
      <trkpt lat="43.75679" lon="5.871">
        <ele>306.08</ele>
        <time>2022-06-11T07:31:40Z</time>
      </trkpt>
      <trkpt lat="43.75672" lon="5.87166">
        <ele>308.41</ele>
        <time>2022-06-11T07:31:43Z</time>
      </trkpt>
      <trkpt lat="43.75669" lon="5.87209">
        <ele>308.41</ele>
        <time>2022-06-11T07:31:45Z</time>
      </trkpt>
      <trkpt lat="43.7567" lon="5.87231">
        <ele>308.42</ele>
        <time>2022-06-11T07:31:46Z</time>
      </trkpt>
      <trkpt lat="43.75673" lon="5.87252">
        <ele>309.41</ele>
        <time>2022-06-11T07:31:47Z</time>
      </trkpt>
      <trkpt lat="43.75695" lon="5.87399">
        <ele>310.87</ele>
        <time>2022-06-11T07:31:54Z</time>
      </trkpt>
      <trkpt lat="43.75702" lon="5.8746">
        <ele>312.29</ele>
        <time>2022-06-11T07:31:57Z</time>
      </trkpt>
      <trkpt lat="43.75709" lon="5.87495">
        <ele>313.66</ele>
        <time>2022-06-11T07:31:59Z</time>
      </trkpt>
      <trkpt lat="43.75715" lon="5.87511">
        <ele>314.46</ele>
        <time>2022-06-11T07:32:00Z</time>
      </trkpt>
      <trkpt lat="43.75723" lon="5.87525">
        <ele>315.68</ele>
        <time>2022-06-11T07:32:01Z</time>
      </trkpt>
      <trkpt lat="43.75733" lon="5.87539">
        <ele>316.65</ele>
        <time>2022-06-11T07:32:02Z</time>
      </trkpt>
      <trkpt lat="43.75743" lon="5.87551">
        <ele>317.58</ele>
        <time>2022-06-11T07:32:03Z</time>
      </trkpt>
      <trkpt lat="43.75752" lon="5.87563">
        <ele>317.54</ele>
        <time>2022-06-11T07:32:04Z</time>
      </trkpt>
      <trkpt lat="43.75768" lon="5.87586">
        <ele>319.44</ele>
        <time>2022-06-11T07:32:06Z</time>
      </trkpt>
      <trkpt lat="43.75774" lon="5.876">
        <ele>319.54</ele>
        <time>2022-06-11T07:32:07Z</time>
      </trkpt>
      <trkpt lat="43.75778" lon="5.87615">
        <ele>320.67</ele>
        <time>2022-06-11T07:32:08Z</time>
      </trkpt>
      <trkpt lat="43.7578" lon="5.87632">
        <ele>322</ele>
        <time>2022-06-11T07:32:09Z</time>
      </trkpt>
      <trkpt lat="43.75779" lon="5.8765">
        <ele>322.59</ele>
        <time>2022-06-11T07:32:10Z</time>
      </trkpt>
      <trkpt lat="43.75777" lon="5.87669">
        <ele>323.81</ele>
        <time>2022-06-11T07:32:11Z</time>
      </trkpt>
      <trkpt lat="43.75773" lon="5.87707">
        <ele>324.78</ele>
        <time>2022-06-11T07:32:13Z</time>
      </trkpt>
      <trkpt lat="43.75769" lon="5.87743">
        <ele>326.17</ele>
        <time>2022-06-11T07:32:15Z</time>
      </trkpt>
      <trkpt lat="43.75769" lon="5.87761">
        <ele>327.5</ele>
        <time>2022-06-11T07:32:16Z</time>
      </trkpt>
      <trkpt lat="43.7577" lon="5.87778">
        <ele>328.79</ele>
        <time>2022-06-11T07:32:17Z</time>
      </trkpt>
      <trkpt lat="43.75773" lon="5.87795">
        <ele>328.88</ele>
        <time>2022-06-11T07:32:18Z</time>
      </trkpt>
      <trkpt lat="43.75777" lon="5.87812">
        <ele>330.09</ele>
        <time>2022-06-11T07:32:19Z</time>
      </trkpt>
      <trkpt lat="43.75783" lon="5.87827">
        <ele>330.08</ele>
        <time>2022-06-11T07:32:20Z</time>
      </trkpt>
      <trkpt lat="43.75791" lon="5.87841">
        <ele>331.59</ele>
        <time>2022-06-11T07:32:21Z</time>
      </trkpt>
      <trkpt lat="43.75798" lon="5.87854">
        <ele>332.73</ele>
        <time>2022-06-11T07:32:22Z</time>
      </trkpt>
      <trkpt lat="43.75805" lon="5.87868">
        <ele>332.65</ele>
        <time>2022-06-11T07:32:23Z</time>
      </trkpt>
      <trkpt lat="43.75811" lon="5.87883">
        <ele>334.19</ele>
        <time>2022-06-11T07:32:24Z</time>
      </trkpt>
      <trkpt lat="43.75815" lon="5.87898">
        <ele>335.57</ele>
        <time>2022-06-11T07:32:25Z</time>
      </trkpt>
      <trkpt lat="43.7582" lon="5.8793">
        <ele>337.86</ele>
        <time>2022-06-11T07:32:27Z</time>
      </trkpt>
      <trkpt lat="43.75824" lon="5.87946">
        <ele>337.84</ele>
        <time>2022-06-11T07:32:28Z</time>
      </trkpt>
      <trkpt lat="43.7583" lon="5.87961">
        <ele>339.38</ele>
        <time>2022-06-11T07:32:29Z</time>
      </trkpt>
      <trkpt lat="43.75836" lon="5.87975">
        <ele>340.25</ele>
        <time>2022-06-11T07:32:30Z</time>
      </trkpt>
      <trkpt lat="43.75842" lon="5.87987">
        <ele>340.42</ele>
        <time>2022-06-11T07:32:31Z</time>
      </trkpt>
      <trkpt lat="43.75846" lon="5.88">
        <ele>340.32</ele>
        <time>2022-06-11T07:32:32Z</time>
      </trkpt>
      <trkpt lat="43.75849" lon="5.88012">
        <ele>341.6</ele>
        <time>2022-06-11T07:32:33Z</time>
      </trkpt>
      <trkpt lat="43.75849" lon="5.88025">
        <ele>341.61</ele>
        <time>2022-06-11T07:32:34Z</time>
      </trkpt>
      <trkpt lat="43.75843" lon="5.88035">
        <ele>342.36</ele>
        <time>2022-06-11T07:32:35Z</time>
      </trkpt>
      <trkpt lat="43.75836" lon="5.88045">
        <ele>343.81</ele>
        <time>2022-06-11T07:32:36Z</time>
      </trkpt>
      <trkpt lat="43.75829" lon="5.88054">
        <ele>343.98</ele>
        <time>2022-06-11T07:32:37Z</time>
      </trkpt>
      <trkpt lat="43.75825" lon="5.88065">
        <ele>344.99</ele>
        <time>2022-06-11T07:32:38Z</time>
      </trkpt>
      <trkpt lat="43.75822" lon="5.88078">
        <ele>345.06</ele>
        <time>2022-06-11T07:32:39Z</time>
      </trkpt>
      <trkpt lat="43.75822" lon="5.88091">
        <ele>346.14</ele>
        <time>2022-06-11T07:32:40Z</time>
      </trkpt>
      <trkpt lat="43.75823" lon="5.88104">
        <ele>346.14</ele>
        <time>2022-06-11T07:32:41Z</time>
      </trkpt>
      <trkpt lat="43.75827" lon="5.88116">
        <ele>347.41</ele>
        <time>2022-06-11T07:32:42Z</time>
      </trkpt>
      <trkpt lat="43.75832" lon="5.88127">
        <ele>347.46</ele>
        <time>2022-06-11T07:32:43Z</time>
      </trkpt>
      <trkpt lat="43.75838" lon="5.88136">
        <ele>348.43</ele>
        <time>2022-06-11T07:32:44Z</time>
      </trkpt>
      <trkpt lat="43.75844" lon="5.88143">
        <ele>348.43</ele>
        <time>2022-06-11T07:32:45Z</time>
      </trkpt>
      <trkpt lat="43.75849" lon="5.88151">
        <ele>348.48</ele>
        <time>2022-06-11T07:32:46Z</time>
      </trkpt>
      <trkpt lat="43.75853" lon="5.88161">
        <ele>349.26</ele>
        <time>2022-06-11T07:32:47Z</time>
      </trkpt>
      <trkpt lat="43.75857" lon="5.88171">
        <ele>349.24</ele>
        <time>2022-06-11T07:32:48Z</time>
      </trkpt>
      <trkpt lat="43.75861" lon="5.88182">
        <ele>349.3</ele>
        <time>2022-06-11T07:32:49Z</time>
      </trkpt>
      <trkpt lat="43.75869" lon="5.88208">
        <ele>349.28</ele>
        <time>2022-06-11T07:32:52Z</time>
      </trkpt>
      <trkpt lat="43.7587" lon="5.88213">
        <ele>349.32</ele>
        <time>2022-06-11T07:32:53Z</time>
      </trkpt>
      <trkpt lat="43.75868" lon="5.88218">
        <ele>349.31</ele>
        <time>2022-06-11T07:32:54Z</time>
      </trkpt>
      <trkpt lat="43.75866" lon="5.88223">
        <ele>349.37</ele>
        <time>2022-06-11T07:32:55Z</time>
      </trkpt>
      <trkpt lat="43.75861" lon="5.88226">
        <ele>349.28</ele>
        <time>2022-06-11T07:32:56Z</time>
      </trkpt>
      <trkpt lat="43.75854" lon="5.88229">
        <ele>349.18</ele>
        <time>2022-06-11T07:32:57Z</time>
      </trkpt>
      <trkpt lat="43.7582" lon="5.88241">
        <ele>348.95</ele>
        <time>2022-06-11T07:33:02Z</time>
      </trkpt>
      <trkpt lat="43.758" lon="5.88254">
        <ele>348.94</ele>
        <time>2022-06-11T07:33:05Z</time>
      </trkpt>
      <trkpt lat="43.75794" lon="5.8826">
        <ele>348.93</ele>
        <time>2022-06-11T07:33:06Z</time>
      </trkpt>
      <trkpt lat="43.75788" lon="5.88267">
        <ele>348.92</ele>
        <time>2022-06-11T07:33:07Z</time>
      </trkpt>
      <trkpt lat="43.75754" lon="5.88309">
        <ele>348.95</ele>
        <time>2022-06-11T07:33:12Z</time>
      </trkpt>
      <trkpt lat="43.75745" lon="5.88315">
        <ele>348.96</ele>
        <time>2022-06-11T07:33:13Z</time>
      </trkpt>
      <trkpt lat="43.75735" lon="5.88321">
        <ele>348.96</ele>
        <time>2022-06-11T07:33:14Z</time>
      </trkpt>
      <trkpt lat="43.75678" lon="5.88354">
        <ele>349.93</ele>
        <time>2022-06-11T07:33:20Z</time>
      </trkpt>
      <trkpt lat="43.75669" lon="5.88362">
        <ele>349.93</ele>
        <time>2022-06-11T07:33:21Z</time>
      </trkpt>
      <trkpt lat="43.75659" lon="5.88372">
        <ele>349.94</ele>
        <time>2022-06-11T07:33:22Z</time>
      </trkpt>
      <trkpt lat="43.7565" lon="5.88383">
        <ele>349.96</ele>
        <time>2022-06-11T07:33:23Z</time>
      </trkpt>
      <trkpt lat="43.75643" lon="5.88395">
        <ele>351.62</ele>
        <time>2022-06-11T07:33:24Z</time>
      </trkpt>
      <trkpt lat="43.75639" lon="5.88409">
        <ele>351.46</ele>
        <time>2022-06-11T07:33:25Z</time>
      </trkpt>
      <trkpt lat="43.75638" lon="5.88423">
        <ele>351.46</ele>
        <time>2022-06-11T07:33:26Z</time>
      </trkpt>
      <trkpt lat="43.75638" lon="5.88438">
        <ele>351.46</ele>
        <time>2022-06-11T07:33:27Z</time>
      </trkpt>
      <trkpt lat="43.7564" lon="5.88453">
        <ele>351.46</ele>
        <time>2022-06-11T07:33:28Z</time>
      </trkpt>
      <trkpt lat="43.75641" lon="5.88469">
        <ele>351.49</ele>
        <time>2022-06-11T07:33:29Z</time>
      </trkpt>
      <trkpt lat="43.75641" lon="5.88484">
        <ele>351.48</ele>
        <time>2022-06-11T07:33:30Z</time>
      </trkpt>
      <trkpt lat="43.75641" lon="5.88501">
        <ele>351.5</ele>
        <time>2022-06-11T07:33:31Z</time>
      </trkpt>
      <trkpt lat="43.75634" lon="5.88597">
        <ele>348.66</ele>
        <time>2022-06-11T07:33:37Z</time>
      </trkpt>
      <trkpt lat="43.75631" lon="5.88657">
        <ele>346.13</ele>
        <time>2022-06-11T07:33:41Z</time>
      </trkpt>
      <trkpt lat="43.75629" lon="5.88686">
        <ele>344.56</ele>
        <time>2022-06-11T07:33:43Z</time>
      </trkpt>
      <trkpt lat="43.75628" lon="5.8873">
        <ele>342.3</ele>
        <time>2022-06-11T07:33:46Z</time>
      </trkpt>
      <trkpt lat="43.7563" lon="5.88745">
        <ele>342.24</ele>
        <time>2022-06-11T07:33:47Z</time>
      </trkpt>
      <trkpt lat="43.75633" lon="5.88759">
        <ele>342.28</ele>
        <time>2022-06-11T07:33:48Z</time>
      </trkpt>
      <trkpt lat="43.75638" lon="5.88773">
        <ele>341.49</ele>
        <time>2022-06-11T07:33:49Z</time>
      </trkpt>
      <trkpt lat="43.75644" lon="5.88786">
        <ele>341.49</ele>
        <time>2022-06-11T07:33:50Z</time>
      </trkpt>
      <trkpt lat="43.75651" lon="5.88798">
        <ele>340.91</ele>
        <time>2022-06-11T07:33:51Z</time>
      </trkpt>
      <trkpt lat="43.75659" lon="5.88809">
        <ele>339.98</ele>
        <time>2022-06-11T07:33:52Z</time>
      </trkpt>
      <trkpt lat="43.75667" lon="5.88817">
        <ele>339.98</ele>
        <time>2022-06-11T07:33:53Z</time>
      </trkpt>
      <trkpt lat="43.75677" lon="5.88821">
        <ele>338.87</ele>
        <time>2022-06-11T07:33:54Z</time>
      </trkpt>
      <trkpt lat="43.75688" lon="5.8882">
        <ele>338.49</ele>
        <time>2022-06-11T07:33:55Z</time>
      </trkpt>
      <trkpt lat="43.75699" lon="5.88817">
        <ele>338.49</ele>
        <time>2022-06-11T07:33:56Z</time>
      </trkpt>
      <trkpt lat="43.7571" lon="5.88813">
        <ele>337.49</ele>
        <time>2022-06-11T07:33:57Z</time>
      </trkpt>
      <trkpt lat="43.75744" lon="5.888">
        <ele>336.05</ele>
        <time>2022-06-11T07:34:00Z</time>
      </trkpt>
      <trkpt lat="43.75764" lon="5.88792">
        <ele>334.69</ele>
        <time>2022-06-11T07:34:02Z</time>
      </trkpt>
      <trkpt lat="43.75784" lon="5.88785">
        <ele>331.95</ele>
        <time>2022-06-11T07:34:05Z</time>
      </trkpt>
      <trkpt lat="43.75801" lon="5.88798">
        <ele>330.24</ele>
        <time>2022-06-11T07:34:11Z</time>
      </trkpt>
      <trkpt lat="43.75801" lon="5.88804">
        <ele>329.32</ele>
        <time>2022-06-11T07:34:12Z</time>
      </trkpt>
      <trkpt lat="43.758" lon="5.88889">
        <ele>326.66</ele>
        <time>2022-06-11T07:34:19Z</time>
      </trkpt>
      <trkpt lat="43.75801" lon="5.88901">
        <ele>326.71</ele>
        <time>2022-06-11T07:34:20Z</time>
      </trkpt>
      <trkpt lat="43.758" lon="5.88924">
        <ele>325.42</ele>
        <time>2022-06-11T07:34:22Z</time>
      </trkpt>
      <trkpt lat="43.75799" lon="5.88967">
        <ele>323.73</ele>
        <time>2022-06-11T07:34:26Z</time>
      </trkpt>
      <trkpt lat="43.758" lon="5.89018">
        <ele>321.75</ele>
        <time>2022-06-11T07:34:31Z</time>
      </trkpt>
      <trkpt lat="43.758" lon="5.89058">
        <ele>320</ele>
        <time>2022-06-11T07:34:36Z</time>
      </trkpt>
      <trkpt lat="43.758" lon="5.89065">
        <ele>320.02</ele>
        <time>2022-06-11T07:34:37Z</time>
      </trkpt>
      <trkpt lat="43.758" lon="5.89134">
        <ele>318.51</ele>
        <time>2022-06-11T07:34:47Z</time>
      </trkpt>
      <trkpt lat="43.758" lon="5.8914">
        <ele>318.51</ele>
        <time>2022-06-11T07:34:48Z</time>
      </trkpt>
      <trkpt lat="43.758" lon="5.89147">
        <ele>318.5</ele>
        <time>2022-06-11T07:34:49Z</time>
      </trkpt>
      <trkpt lat="43.758" lon="5.89154">
        <ele>318.49</ele>
        <time>2022-06-11T07:34:50Z</time>
      </trkpt>
      <trkpt lat="43.75799" lon="5.8916">
        <ele>318.5</ele>
        <time>2022-06-11T07:34:51Z</time>
      </trkpt>
      <trkpt lat="43.75799" lon="5.89172">
        <ele>318.48</ele>
        <time>2022-06-11T07:34:53Z</time>
      </trkpt>
      <trkpt lat="43.75799" lon="5.89179">
        <ele>318.47</ele>
        <time>2022-06-11T07:34:54Z</time>
      </trkpt>
      <trkpt lat="43.75799" lon="5.89186">
        <ele>318.46</ele>
        <time>2022-06-11T07:34:55Z</time>
      </trkpt>
      <trkpt lat="43.75799" lon="5.89278">
        <ele>317.68</ele>
        <time>2022-06-11T07:35:04Z</time>
      </trkpt>
      <trkpt lat="43.75784" lon="5.89363">
        <ele>317.73</ele>
        <time>2022-06-11T07:35:12Z</time>
      </trkpt>
      <trkpt lat="43.7578" lon="5.89383">
        <ele>320.18</ele>
        <time>2022-06-11T07:35:14Z</time>
      </trkpt>
      <trkpt lat="43.75778" lon="5.89393">
        <ele>321.14</ele>
        <time>2022-06-11T07:35:15Z</time>
      </trkpt>
      <trkpt lat="43.75766" lon="5.89435">
        <ele>324.83</ele>
        <time>2022-06-11T07:35:18Z</time>
      </trkpt>
      <trkpt lat="43.75752" lon="5.89474">
        <ele>328.11</ele>
        <time>2022-06-11T07:35:20Z</time>
      </trkpt>
      <trkpt lat="43.75738" lon="5.89512">
        <ele>329.33</ele>
        <time>2022-06-11T07:35:22Z</time>
      </trkpt>
      <trkpt lat="43.75722" lon="5.89565">
        <ele>332.59</ele>
        <time>2022-06-11T07:35:25Z</time>
      </trkpt>
      <trkpt lat="43.7572" lon="5.89582">
        <ele>332.66</ele>
        <time>2022-06-11T07:35:26Z</time>
      </trkpt>
      <trkpt lat="43.75722" lon="5.89598">
        <ele>332.67</ele>
        <time>2022-06-11T07:35:27Z</time>
      </trkpt>
      <trkpt lat="43.75726" lon="5.89614">
        <ele>333.8</ele>
        <time>2022-06-11T07:35:28Z</time>
      </trkpt>
      <trkpt lat="43.75733" lon="5.89628">
        <ele>333.85</ele>
        <time>2022-06-11T07:35:29Z</time>
      </trkpt>
      <trkpt lat="43.7574" lon="5.8964">
        <ele>335.62</ele>
        <time>2022-06-11T07:35:30Z</time>
      </trkpt>
      <trkpt lat="43.75747" lon="5.89651">
        <ele>335.77</ele>
        <time>2022-06-11T07:35:31Z</time>
      </trkpt>
      <trkpt lat="43.75769" lon="5.89688">
        <ele>337.23</ele>
        <time>2022-06-11T07:35:35Z</time>
      </trkpt>
      <trkpt lat="43.75782" lon="5.89722">
        <ele>338.05</ele>
        <time>2022-06-11T07:35:42Z</time>
      </trkpt>
      <trkpt lat="43.75793" lon="5.89772">
        <ele>339.87</ele>
        <time>2022-06-11T07:35:51Z</time>
      </trkpt>
      <trkpt lat="43.75813" lon="5.89864">
        <ele>341.36</ele>
        <time>2022-06-11T07:35:57Z</time>
      </trkpt>
      <trkpt lat="43.75828" lon="5.89983">
        <ele>343.8</ele>
        <time>2022-06-11T07:36:03Z</time>
      </trkpt>
      <trkpt lat="43.75834" lon="5.90037">
        <ele>343.81</ele>
        <time>2022-06-11T07:36:08Z</time>
      </trkpt>
      <trkpt lat="43.75839" lon="5.9009">
        <ele>345.21</ele>
        <time>2022-06-11T07:36:12Z</time>
      </trkpt>
      <trkpt lat="43.75842" lon="5.90163">
        <ele>346.28</ele>
        <time>2022-06-11T07:36:16Z</time>
      </trkpt>
      <trkpt lat="43.75841" lon="5.90182">
        <ele>347.4</ele>
        <time>2022-06-11T07:36:17Z</time>
      </trkpt>
      <trkpt lat="43.75837" lon="5.90202">
        <ele>347.38</ele>
        <time>2022-06-11T07:36:18Z</time>
      </trkpt>
      <trkpt lat="43.75833" lon="5.90221">
        <ele>347.43</ele>
        <time>2022-06-11T07:36:19Z</time>
      </trkpt>
      <trkpt lat="43.75828" lon="5.90241">
        <ele>347.38</ele>
        <time>2022-06-11T07:36:20Z</time>
      </trkpt>
      <trkpt lat="43.75802" lon="5.9042">
        <ele>347.17</ele>
        <time>2022-06-11T07:36:28Z</time>
      </trkpt>
      <trkpt lat="43.758" lon="5.90468">
        <ele>344.68</ele>
        <time>2022-06-11T07:36:30Z</time>
      </trkpt>
      <trkpt lat="43.75793" lon="5.90564">
        <ele>342.64</ele>
        <time>2022-06-11T07:36:34Z</time>
      </trkpt>
      <trkpt lat="43.75785" lon="5.90613">
        <ele>341.42</ele>
        <time>2022-06-11T07:36:36Z</time>
      </trkpt>
      <trkpt lat="43.75771" lon="5.90687">
        <ele>339.77</ele>
        <time>2022-06-11T07:36:39Z</time>
      </trkpt>
      <trkpt lat="43.7576" lon="5.90766">
        <ele>337.11</ele>
        <time>2022-06-11T07:36:42Z</time>
      </trkpt>
      <trkpt lat="43.75752" lon="5.90846">
        <ele>335.15</ele>
        <time>2022-06-11T07:36:45Z</time>
      </trkpt>
      <trkpt lat="43.75741" lon="5.90955">
        <ele>332.63</ele>
        <time>2022-06-11T07:36:49Z</time>
      </trkpt>
      <trkpt lat="43.75733" lon="5.91036">
        <ele>331.19</ele>
        <time>2022-06-11T07:36:52Z</time>
      </trkpt>
      <trkpt lat="43.75726" lon="5.91115">
        <ele>328.85</ele>
        <time>2022-06-11T07:36:55Z</time>
      </trkpt>
      <trkpt lat="43.75673" lon="5.91479">
        <ele>327.8</ele>
        <time>2022-06-11T07:37:10Z</time>
      </trkpt>
      <trkpt lat="43.75618" lon="5.91719">
        <ele>327.97</ele>
        <time>2022-06-11T07:37:20Z</time>
      </trkpt>
      <trkpt lat="43.75616" lon="5.91743">
        <ele>327.97</ele>
        <time>2022-06-11T07:37:21Z</time>
      </trkpt>
      <trkpt lat="43.75617" lon="5.91767">
        <ele>327.99</ele>
        <time>2022-06-11T07:37:22Z</time>
      </trkpt>
      <trkpt lat="43.75622" lon="5.9179">
        <ele>328</ele>
        <time>2022-06-11T07:37:23Z</time>
      </trkpt>
      <trkpt lat="43.75629" lon="5.91812">
        <ele>330.4</ele>
        <time>2022-06-11T07:37:24Z</time>
      </trkpt>
      <trkpt lat="43.75639" lon="5.91833">
        <ele>331.75</ele>
        <time>2022-06-11T07:37:25Z</time>
      </trkpt>
      <trkpt lat="43.75651" lon="5.91853">
        <ele>332.66</ele>
        <time>2022-06-11T07:37:26Z</time>
      </trkpt>
      <trkpt lat="43.75663" lon="5.91872">
        <ele>334.51</ele>
        <time>2022-06-11T07:37:27Z</time>
      </trkpt>
      <trkpt lat="43.757" lon="5.91929">
        <ele>337.63</ele>
        <time>2022-06-11T07:37:30Z</time>
      </trkpt>
      <trkpt lat="43.75726" lon="5.91986">
        <ele>340.95</ele>
        <time>2022-06-11T07:37:33Z</time>
      </trkpt>
      <trkpt lat="43.75735" lon="5.92003">
        <ele>342.08</ele>
        <time>2022-06-11T07:37:34Z</time>
      </trkpt>
      <trkpt lat="43.75746" lon="5.92016">
        <ele>343.47</ele>
        <time>2022-06-11T07:37:35Z</time>
      </trkpt>
      <trkpt lat="43.75759" lon="5.92026">
        <ele>343.47</ele>
        <time>2022-06-11T07:37:36Z</time>
      </trkpt>
      <trkpt lat="43.75774" lon="5.92031">
        <ele>345.44</ele>
        <time>2022-06-11T07:37:37Z</time>
      </trkpt>
      <trkpt lat="43.7579" lon="5.9203">
        <ele>347.21</ele>
        <time>2022-06-11T07:37:38Z</time>
      </trkpt>
      <trkpt lat="43.75806" lon="5.92023">
        <ele>347.21</ele>
        <time>2022-06-11T07:37:39Z</time>
      </trkpt>
      <trkpt lat="43.75821" lon="5.92014">
        <ele>348.92</ele>
        <time>2022-06-11T07:37:40Z</time>
      </trkpt>
      <trkpt lat="43.75836" lon="5.92006">
        <ele>348.92</ele>
        <time>2022-06-11T07:37:41Z</time>
      </trkpt>
      <trkpt lat="43.75851" lon="5.92002">
        <ele>349.02</ele>
        <time>2022-06-11T07:37:42Z</time>
      </trkpt>
      <trkpt lat="43.75867" lon="5.92">
        <ele>350.1</ele>
        <time>2022-06-11T07:37:43Z</time>
      </trkpt>
      <trkpt lat="43.75882" lon="5.92004">
        <ele>351.02</ele>
        <time>2022-06-11T07:37:44Z</time>
      </trkpt>
      <trkpt lat="43.75897" lon="5.92011">
        <ele>351</ele>
        <time>2022-06-11T07:37:45Z</time>
      </trkpt>
      <trkpt lat="43.75911" lon="5.92022">
        <ele>351</ele>
        <time>2022-06-11T07:37:46Z</time>
      </trkpt>
      <trkpt lat="43.75925" lon="5.92034">
        <ele>352.12</ele>
        <time>2022-06-11T07:37:47Z</time>
      </trkpt>
      <trkpt lat="43.75968" lon="5.92075">
        <ele>352.16</ele>
        <time>2022-06-11T07:37:50Z</time>
      </trkpt>
      <trkpt lat="43.7598" lon="5.92092">
        <ele>352.21</ele>
        <time>2022-06-11T07:37:51Z</time>
      </trkpt>
      <trkpt lat="43.7599" lon="5.92111">
        <ele>352.2</ele>
        <time>2022-06-11T07:37:52Z</time>
      </trkpt>
      <trkpt lat="43.76029" lon="5.92193">
        <ele>352.11</ele>
        <time>2022-06-11T07:37:56Z</time>
      </trkpt>
      <trkpt lat="43.76036" lon="5.92216">
        <ele>352.1</ele>
        <time>2022-06-11T07:37:57Z</time>
      </trkpt>
      <trkpt lat="43.76041" lon="5.92239">
        <ele>352.1</ele>
        <time>2022-06-11T07:37:58Z</time>
      </trkpt>
      <trkpt lat="43.76091" lon="5.92483">
        <ele>352.8</ele>
        <time>2022-06-11T07:38:08Z</time>
      </trkpt>
      <trkpt lat="43.76131" lon="5.92603">
        <ele>352.73</ele>
        <time>2022-06-11T07:38:14Z</time>
      </trkpt>
      <trkpt lat="43.7614" lon="5.92617">
        <ele>352.74</ele>
        <time>2022-06-11T07:38:15Z</time>
      </trkpt>
      <trkpt lat="43.76151" lon="5.92629">
        <ele>352.74</ele>
        <time>2022-06-11T07:38:16Z</time>
      </trkpt>
      <trkpt lat="43.76175" lon="5.92648">
        <ele>352.76</ele>
        <time>2022-06-11T07:38:18Z</time>
      </trkpt>
      <trkpt lat="43.76186" lon="5.92662">
        <ele>353.64</ele>
        <time>2022-06-11T07:38:19Z</time>
      </trkpt>
      <trkpt lat="43.76195" lon="5.92676">
        <ele>353.63</ele>
        <time>2022-06-11T07:38:20Z</time>
      </trkpt>
      <trkpt lat="43.76204" lon="5.9269">
        <ele>353.64</ele>
        <time>2022-06-11T07:38:21Z</time>
      </trkpt>
      <trkpt lat="43.76215" lon="5.927">
        <ele>354.67</ele>
        <time>2022-06-11T07:38:22Z</time>
      </trkpt>
      <trkpt lat="43.76227" lon="5.92707">
        <ele>354.65</ele>
        <time>2022-06-11T07:38:23Z</time>
      </trkpt>
      <trkpt lat="43.7624" lon="5.9271">
        <ele>355.51</ele>
        <time>2022-06-11T07:38:24Z</time>
      </trkpt>
      <trkpt lat="43.76253" lon="5.92713">
        <ele>355.47</ele>
        <time>2022-06-11T07:38:25Z</time>
      </trkpt>
      <trkpt lat="43.76267" lon="5.92716">
        <ele>355.52</ele>
        <time>2022-06-11T07:38:26Z</time>
      </trkpt>
      <trkpt lat="43.76279" lon="5.92722">
        <ele>356.84</ele>
        <time>2022-06-11T07:38:27Z</time>
      </trkpt>
      <trkpt lat="43.76291" lon="5.92732">
        <ele>356.86</ele>
        <time>2022-06-11T07:38:28Z</time>
      </trkpt>
      <trkpt lat="43.763" lon="5.92744">
        <ele>356.92</ele>
        <time>2022-06-11T07:38:29Z</time>
      </trkpt>
      <trkpt lat="43.76308" lon="5.92759">
        <ele>357.88</ele>
        <time>2022-06-11T07:38:30Z</time>
      </trkpt>
      <trkpt lat="43.76314" lon="5.92776">
        <ele>357.92</ele>
        <time>2022-06-11T07:38:31Z</time>
      </trkpt>
      <trkpt lat="43.76319" lon="5.92794">
        <ele>358.84</ele>
        <time>2022-06-11T07:38:32Z</time>
      </trkpt>
      <trkpt lat="43.76324" lon="5.92811">
        <ele>359.33</ele>
        <time>2022-06-11T07:38:33Z</time>
      </trkpt>
      <trkpt lat="43.76331" lon="5.92826">
        <ele>359.28</ele>
        <time>2022-06-11T07:38:34Z</time>
      </trkpt>
      <trkpt lat="43.76341" lon="5.92838">
        <ele>360.4</ele>
        <time>2022-06-11T07:38:35Z</time>
      </trkpt>
      <trkpt lat="43.76353" lon="5.92847">
        <ele>361.23</ele>
        <time>2022-06-11T07:38:36Z</time>
      </trkpt>
      <trkpt lat="43.76367" lon="5.92853">
        <ele>362.25</ele>
        <time>2022-06-11T07:38:37Z</time>
      </trkpt>
      <trkpt lat="43.7638" lon="5.92857">
        <ele>362.08</ele>
        <time>2022-06-11T07:38:38Z</time>
      </trkpt>
      <trkpt lat="43.76394" lon="5.92863">
        <ele>362.18</ele>
        <time>2022-06-11T07:38:39Z</time>
      </trkpt>
      <trkpt lat="43.76407" lon="5.92871">
        <ele>363.32</ele>
        <time>2022-06-11T07:38:40Z</time>
      </trkpt>
      <trkpt lat="43.76418" lon="5.92881">
        <ele>363.37</ele>
        <time>2022-06-11T07:38:41Z</time>
      </trkpt>
      <trkpt lat="43.76428" lon="5.92895">
        <ele>364.26</ele>
        <time>2022-06-11T07:38:42Z</time>
      </trkpt>
      <trkpt lat="43.76436" lon="5.92911">
        <ele>364.28</ele>
        <time>2022-06-11T07:38:43Z</time>
      </trkpt>
      <trkpt lat="43.76442" lon="5.92929">
        <ele>364.27</ele>
        <time>2022-06-11T07:38:44Z</time>
      </trkpt>
      <trkpt lat="43.76446" lon="5.92948">
        <ele>365.27</ele>
        <time>2022-06-11T07:38:45Z</time>
      </trkpt>
      <trkpt lat="43.76449" lon="5.92969">
        <ele>365.22</ele>
        <time>2022-06-11T07:38:46Z</time>
      </trkpt>
      <trkpt lat="43.76451" lon="5.9299">
        <ele>365.25</ele>
        <time>2022-06-11T07:38:47Z</time>
      </trkpt>
      <trkpt lat="43.76451" lon="5.93012">
        <ele>365.24</ele>
        <time>2022-06-11T07:38:48Z</time>
      </trkpt>
      <trkpt lat="43.7645" lon="5.93034">
        <ele>365.32</ele>
        <time>2022-06-11T07:38:49Z</time>
      </trkpt>
      <trkpt lat="43.76448" lon="5.93056">
        <ele>365.26</ele>
        <time>2022-06-11T07:38:50Z</time>
      </trkpt>
      <trkpt lat="43.76444" lon="5.93103">
        <ele>366.65</ele>
        <time>2022-06-11T07:38:52Z</time>
      </trkpt>
      <trkpt lat="43.76433" lon="5.93224">
        <ele>366.34</ele>
        <time>2022-06-11T07:38:58Z</time>
      </trkpt>
      <trkpt lat="43.76436" lon="5.93241">
        <ele>366.34</ele>
        <time>2022-06-11T07:38:59Z</time>
      </trkpt>
      <trkpt lat="43.76442" lon="5.93257">
        <ele>366.34</ele>
        <time>2022-06-11T07:39:00Z</time>
      </trkpt>
      <trkpt lat="43.76451" lon="5.9327">
        <ele>366.34</ele>
        <time>2022-06-11T07:39:01Z</time>
      </trkpt>
      <trkpt lat="43.7646" lon="5.93281">
        <ele>366.34</ele>
        <time>2022-06-11T07:39:02Z</time>
      </trkpt>
      <trkpt lat="43.76471" lon="5.9329">
        <ele>366.33</ele>
        <time>2022-06-11T07:39:03Z</time>
      </trkpt>
      <trkpt lat="43.76483" lon="5.933">
        <ele>366.33</ele>
        <time>2022-06-11T07:39:04Z</time>
      </trkpt>
      <trkpt lat="43.76494" lon="5.93312">
        <ele>366.33</ele>
        <time>2022-06-11T07:39:05Z</time>
      </trkpt>
      <trkpt lat="43.76504" lon="5.93326">
        <ele>366.33</ele>
        <time>2022-06-11T07:39:06Z</time>
      </trkpt>
      <trkpt lat="43.76511" lon="5.93342">
        <ele>366.33</ele>
        <time>2022-06-11T07:39:07Z</time>
      </trkpt>
      <trkpt lat="43.76516" lon="5.9336">
        <ele>366.32</ele>
        <time>2022-06-11T07:39:08Z</time>
      </trkpt>
      <trkpt lat="43.7652" lon="5.93377">
        <ele>366.32</ele>
        <time>2022-06-11T07:39:09Z</time>
      </trkpt>
      <trkpt lat="43.76529" lon="5.93411">
        <ele>366.31</ele>
        <time>2022-06-11T07:39:11Z</time>
      </trkpt>
      <trkpt lat="43.76536" lon="5.93425">
        <ele>366.31</ele>
        <time>2022-06-11T07:39:12Z</time>
      </trkpt>
      <trkpt lat="43.76545" lon="5.93435">
        <ele>366.32</ele>
        <time>2022-06-11T07:39:13Z</time>
      </trkpt>
      <trkpt lat="43.76557" lon="5.93442">
        <ele>366.31</ele>
        <time>2022-06-11T07:39:14Z</time>
      </trkpt>
      <trkpt lat="43.7657" lon="5.93445">
        <ele>366.33</ele>
        <time>2022-06-11T07:39:15Z</time>
      </trkpt>
      <trkpt lat="43.76584" lon="5.93446">
        <ele>366.34</ele>
        <time>2022-06-11T07:39:16Z</time>
      </trkpt>
      <trkpt lat="43.76628" lon="5.93452">
        <ele>366.32</ele>
        <time>2022-06-11T07:39:19Z</time>
      </trkpt>
      <trkpt lat="43.76642" lon="5.93458">
        <ele>366.34</ele>
        <time>2022-06-11T07:39:20Z</time>
      </trkpt>
      <trkpt lat="43.76655" lon="5.93468">
        <ele>366.29</ele>
        <time>2022-06-11T07:39:21Z</time>
      </trkpt>
      <trkpt lat="43.76668" lon="5.9348">
        <ele>366.29</ele>
        <time>2022-06-11T07:39:22Z</time>
      </trkpt>
      <trkpt lat="43.7668" lon="5.93495">
        <ele>366.29</ele>
        <time>2022-06-11T07:39:23Z</time>
      </trkpt>
      <trkpt lat="43.7674" lon="5.93575">
        <ele>366.28</ele>
        <time>2022-06-11T07:39:28Z</time>
      </trkpt>
      <trkpt lat="43.76748" lon="5.93594">
        <ele>366.27</ele>
        <time>2022-06-11T07:39:29Z</time>
      </trkpt>
      <trkpt lat="43.76753" lon="5.93614">
        <ele>366.28</ele>
        <time>2022-06-11T07:39:30Z</time>
      </trkpt>
      <trkpt lat="43.76756" lon="5.93635">
        <ele>366.27</ele>
        <time>2022-06-11T07:39:31Z</time>
      </trkpt>
      <trkpt lat="43.76756" lon="5.93656">
        <ele>366.27</ele>
        <time>2022-06-11T07:39:32Z</time>
      </trkpt>
      <trkpt lat="43.76754" lon="5.93677">
        <ele>366.27</ele>
        <time>2022-06-11T07:39:33Z</time>
      </trkpt>
      <trkpt lat="43.76751" lon="5.93698">
        <ele>366.25</ele>
        <time>2022-06-11T07:39:34Z</time>
      </trkpt>
      <trkpt lat="43.76742" lon="5.93759">
        <ele>366.26</ele>
        <time>2022-06-11T07:39:37Z</time>
      </trkpt>
      <trkpt lat="43.76737" lon="5.93776">
        <ele>366.24</ele>
        <time>2022-06-11T07:39:38Z</time>
      </trkpt>
      <trkpt lat="43.76732" lon="5.93793">
        <ele>366.25</ele>
        <time>2022-06-11T07:39:39Z</time>
      </trkpt>
      <trkpt lat="43.7673" lon="5.93809">
        <ele>366.24</ele>
        <time>2022-06-11T07:39:40Z</time>
      </trkpt>
      <trkpt lat="43.76729" lon="5.93826">
        <ele>366.21</ele>
        <time>2022-06-11T07:39:41Z</time>
      </trkpt>
      <trkpt lat="43.76731" lon="5.93843">
        <ele>366.21</ele>
        <time>2022-06-11T07:39:42Z</time>
      </trkpt>
      <trkpt lat="43.76738" lon="5.93861">
        <ele>366.21</ele>
        <time>2022-06-11T07:39:43Z</time>
      </trkpt>
      <trkpt lat="43.76747" lon="5.93881">
        <ele>366.21</ele>
        <time>2022-06-11T07:39:44Z</time>
      </trkpt>
      <trkpt lat="43.76759" lon="5.93903">
        <ele>368</ele>
        <time>2022-06-11T07:39:45Z</time>
      </trkpt>
      <trkpt lat="43.76779" lon="5.93951">
        <ele>369.14</ele>
        <time>2022-06-11T07:39:47Z</time>
      </trkpt>
      <trkpt lat="43.76786" lon="5.93976">
        <ele>369.13</ele>
        <time>2022-06-11T07:39:48Z</time>
      </trkpt>
      <trkpt lat="43.76789" lon="5.94002">
        <ele>369.12</ele>
        <time>2022-06-11T07:39:49Z</time>
      </trkpt>
      <trkpt lat="43.76797" lon="5.94096">
        <ele>366.49</ele>
        <time>2022-06-11T07:39:53Z</time>
      </trkpt>
      <trkpt lat="43.768" lon="5.94115">
        <ele>365.41</ele>
        <time>2022-06-11T07:39:54Z</time>
      </trkpt>
      <trkpt lat="43.76805" lon="5.94134">
        <ele>365.4</ele>
        <time>2022-06-11T07:39:55Z</time>
      </trkpt>
      <trkpt lat="43.76813" lon="5.94152">
        <ele>365.41</ele>
        <time>2022-06-11T07:39:56Z</time>
      </trkpt>
      <trkpt lat="43.76823" lon="5.94168">
        <ele>365.37</ele>
        <time>2022-06-11T07:39:57Z</time>
      </trkpt>
      <trkpt lat="43.76835" lon="5.94183">
        <ele>365.4</ele>
        <time>2022-06-11T07:39:58Z</time>
      </trkpt>
      <trkpt lat="43.76907" lon="5.94292">
        <ele>362.1</ele>
        <time>2022-06-11T07:40:05Z</time>
      </trkpt>
      <trkpt lat="43.76914" lon="5.94308">
        <ele>361.06</ele>
        <time>2022-06-11T07:40:06Z</time>
      </trkpt>
      <trkpt lat="43.7692" lon="5.94325">
        <ele>359.82</ele>
        <time>2022-06-11T07:40:07Z</time>
      </trkpt>
      <trkpt lat="43.76923" lon="5.94343">
        <ele>358.68</ele>
        <time>2022-06-11T07:40:08Z</time>
      </trkpt>
      <trkpt lat="43.76926" lon="5.94362">
        <ele>358.56</ele>
        <time>2022-06-11T07:40:09Z</time>
      </trkpt>
      <trkpt lat="43.76926" lon="5.94382">
        <ele>357.21</ele>
        <time>2022-06-11T07:40:10Z</time>
      </trkpt>
      <trkpt lat="43.76925" lon="5.94403">
        <ele>356.29</ele>
        <time>2022-06-11T07:40:11Z</time>
      </trkpt>
      <trkpt lat="43.76921" lon="5.94423">
        <ele>356.22</ele>
        <time>2022-06-11T07:40:12Z</time>
      </trkpt>
      <trkpt lat="43.76916" lon="5.94444">
        <ele>355.63</ele>
        <time>2022-06-11T07:40:13Z</time>
      </trkpt>
      <trkpt lat="43.7691" lon="5.94464">
        <ele>355.69</ele>
        <time>2022-06-11T07:40:14Z</time>
      </trkpt>
      <trkpt lat="43.76887" lon="5.94563">
        <ele>355.53</ele>
        <time>2022-06-11T07:40:19Z</time>
      </trkpt>
      <trkpt lat="43.76888" lon="5.94584">
        <ele>355.47</ele>
        <time>2022-06-11T07:40:20Z</time>
      </trkpt>
      <trkpt lat="43.76891" lon="5.94605">
        <ele>355.49</ele>
        <time>2022-06-11T07:40:21Z</time>
      </trkpt>
      <trkpt lat="43.76897" lon="5.94627">
        <ele>355.46</ele>
        <time>2022-06-11T07:40:22Z</time>
      </trkpt>
      <trkpt lat="43.76905" lon="5.94649">
        <ele>355.54</ele>
        <time>2022-06-11T07:40:23Z</time>
      </trkpt>
      <trkpt lat="43.76913" lon="5.94671">
        <ele>355.56</ele>
        <time>2022-06-11T07:40:24Z</time>
      </trkpt>
      <trkpt lat="43.76922" lon="5.94693">
        <ele>358.58</ele>
        <time>2022-06-11T07:40:25Z</time>
      </trkpt>
      <trkpt lat="43.76931" lon="5.94714">
        <ele>358.63</ele>
        <time>2022-06-11T07:40:26Z</time>
      </trkpt>
      <trkpt lat="43.76963" lon="5.94775">
        <ele>362.55</ele>
        <time>2022-06-11T07:40:29Z</time>
      </trkpt>
      <trkpt lat="43.76987" lon="5.94816">
        <ele>363.56</ele>
        <time>2022-06-11T07:40:31Z</time>
      </trkpt>
      <trkpt lat="43.77026" lon="5.94873">
        <ele>367.32</ele>
        <time>2022-06-11T07:40:34Z</time>
      </trkpt>
      <trkpt lat="43.77074" lon="5.94922">
        <ele>370.66</ele>
        <time>2022-06-11T07:40:37Z</time>
      </trkpt>
      <trkpt lat="43.77216" lon="5.95083">
        <ele>370.01</ele>
        <time>2022-06-11T07:40:46Z</time>
      </trkpt>
      <trkpt lat="43.77239" lon="5.95128">
        <ele>369.95</ele>
        <time>2022-06-11T07:40:48Z</time>
      </trkpt>
      <trkpt lat="43.77248" lon="5.95152">
        <ele>369.93</ele>
        <time>2022-06-11T07:40:49Z</time>
      </trkpt>
      <trkpt lat="43.77338" lon="5.95389">
        <ele>371.81</ele>
        <time>2022-06-11T07:40:59Z</time>
      </trkpt>
      <trkpt lat="43.77359" lon="5.95434">
        <ele>372.61</ele>
        <time>2022-06-11T07:41:01Z</time>
      </trkpt>
      <trkpt lat="43.77405" lon="5.95521">
        <ele>375.24</ele>
        <time>2022-06-11T07:41:05Z</time>
      </trkpt>
      <trkpt lat="43.77424" lon="5.95568">
        <ele>376.56</ele>
        <time>2022-06-11T07:41:07Z</time>
      </trkpt>
      <trkpt lat="43.77431" lon="5.95594">
        <ele>378.19</ele>
        <time>2022-06-11T07:41:08Z</time>
      </trkpt>
      <trkpt lat="43.77486" lon="5.95827">
        <ele>378.59</ele>
        <time>2022-06-11T07:41:17Z</time>
      </trkpt>
      <trkpt lat="43.7753" lon="5.95998">
        <ele>378.52</ele>
        <time>2022-06-11T07:41:24Z</time>
      </trkpt>
      <trkpt lat="43.77545" lon="5.96148">
        <ele>380.42</ele>
        <time>2022-06-11T07:41:30Z</time>
      </trkpt>
      <trkpt lat="43.77564" lon="5.96222">
        <ele>381.98</ele>
        <time>2022-06-11T07:41:33Z</time>
      </trkpt>
      <trkpt lat="43.77595" lon="5.96409">
        <ele>385.03</ele>
        <time>2022-06-11T07:41:40Z</time>
      </trkpt>
      <trkpt lat="43.77643" lon="5.96647">
        <ele>387.75</ele>
        <time>2022-06-11T07:41:49Z</time>
      </trkpt>
      <trkpt lat="43.77677" lon="5.97028">
        <ele>387.44</ele>
        <time>2022-06-11T07:42:03Z</time>
      </trkpt>
      <trkpt lat="43.77713" lon="5.97318">
        <ele>387.32</ele>
        <time>2022-06-11T07:42:14Z</time>
      </trkpt>
      <trkpt lat="43.77714" lon="5.9737">
        <ele>387.34</ele>
        <time>2022-06-11T07:42:16Z</time>
      </trkpt>
      <trkpt lat="43.77711" lon="5.97396">
        <ele>387.36</ele>
        <time>2022-06-11T07:42:17Z</time>
      </trkpt>
      <trkpt lat="43.77707" lon="5.97421">
        <ele>387.37</ele>
        <time>2022-06-11T07:42:18Z</time>
      </trkpt>
      <trkpt lat="43.77695" lon="5.97495">
        <ele>388.31</ele>
        <time>2022-06-11T07:42:21Z</time>
      </trkpt>
      <trkpt lat="43.77695" lon="5.9752">
        <ele>388.31</ele>
        <time>2022-06-11T07:42:22Z</time>
      </trkpt>
      <trkpt lat="43.77697" lon="5.97544">
        <ele>389.67</ele>
        <time>2022-06-11T07:42:23Z</time>
      </trkpt>
      <trkpt lat="43.77701" lon="5.97569">
        <ele>389.7</ele>
        <time>2022-06-11T07:42:24Z</time>
      </trkpt>
      <trkpt lat="43.77708" lon="5.97592">
        <ele>389.72</ele>
        <time>2022-06-11T07:42:25Z</time>
      </trkpt>
      <trkpt lat="43.77718" lon="5.97614">
        <ele>389.69</ele>
        <time>2022-06-11T07:42:26Z</time>
      </trkpt>
      <trkpt lat="43.77729" lon="5.97635">
        <ele>389.75</ele>
        <time>2022-06-11T07:42:27Z</time>
      </trkpt>
      <trkpt lat="43.77741" lon="5.97656">
        <ele>389.74</ele>
        <time>2022-06-11T07:42:28Z</time>
      </trkpt>
      <trkpt lat="43.7775" lon="5.97679">
        <ele>390.51</ele>
        <time>2022-06-11T07:42:29Z</time>
      </trkpt>
      <trkpt lat="43.77756" lon="5.97703">
        <ele>390.54</ele>
        <time>2022-06-11T07:42:30Z</time>
      </trkpt>
      <trkpt lat="43.77761" lon="5.97729">
        <ele>390.54</ele>
        <time>2022-06-11T07:42:31Z</time>
      </trkpt>
      <trkpt lat="43.77764" lon="5.97765">
        <ele>390.63</ele>
        <time>2022-06-11T07:42:32Z</time>
      </trkpt>
      <trkpt lat="43.77781" lon="5.97881">
        <ele>391.59</ele>
        <time>2022-06-11T07:42:37Z</time>
      </trkpt>
      <trkpt lat="43.77789" lon="5.97905">
        <ele>391.53</ele>
        <time>2022-06-11T07:42:38Z</time>
      </trkpt>
      <trkpt lat="43.77798" lon="5.97927">
        <ele>391.55</ele>
        <time>2022-06-11T07:42:39Z</time>
      </trkpt>
      <trkpt lat="43.77809" lon="5.97948">
        <ele>393</ele>
        <time>2022-06-11T07:42:40Z</time>
      </trkpt>
      <trkpt lat="43.7782" lon="5.97968">
        <ele>392.97</ele>
        <time>2022-06-11T07:42:41Z</time>
      </trkpt>
      <trkpt lat="43.78021" lon="5.98351">
        <ele>395.23</ele>
        <time>2022-06-11T07:42:59Z</time>
      </trkpt>
      <trkpt lat="43.78044" lon="5.98391">
        <ele>395.21</ele>
        <time>2022-06-11T07:43:01Z</time>
      </trkpt>
      <trkpt lat="43.78057" lon="5.98408">
        <ele>395.24</ele>
        <time>2022-06-11T07:43:02Z</time>
      </trkpt>
      <trkpt lat="43.78069" lon="5.98426">
        <ele>395.25</ele>
        <time>2022-06-11T07:43:03Z</time>
      </trkpt>
      <trkpt lat="43.78101" lon="5.98483">
        <ele>396.23</ele>
        <time>2022-06-11T07:43:06Z</time>
      </trkpt>
      <trkpt lat="43.78109" lon="5.98504">
        <ele>396.23</ele>
        <time>2022-06-11T07:43:07Z</time>
      </trkpt>
      <trkpt lat="43.78115" lon="5.98525">
        <ele>396.22</ele>
        <time>2022-06-11T07:43:08Z</time>
      </trkpt>
      <trkpt lat="43.7812" lon="5.98547">
        <ele>396.15</ele>
        <time>2022-06-11T07:43:09Z</time>
      </trkpt>
      <trkpt lat="43.78122" lon="5.9857">
        <ele>396.18</ele>
        <time>2022-06-11T07:43:10Z</time>
      </trkpt>
      <trkpt lat="43.78124" lon="5.98594">
        <ele>396.14</ele>
        <time>2022-06-11T07:43:11Z</time>
      </trkpt>
      <trkpt lat="43.78129" lon="5.98642">
        <ele>396.15</ele>
        <time>2022-06-11T07:43:13Z</time>
      </trkpt>
      <trkpt lat="43.78166" lon="5.98816">
        <ele>399.42</ele>
        <time>2022-06-11T07:43:20Z</time>
      </trkpt>
      <trkpt lat="43.78176" lon="5.98871">
        <ele>400.25</ele>
        <time>2022-06-11T07:43:22Z</time>
      </trkpt>
      <trkpt lat="43.78226" lon="5.99125">
        <ele>402.26</ele>
        <time>2022-06-11T07:43:32Z</time>
      </trkpt>
      <trkpt lat="43.78278" lon="5.99266">
        <ele>402.06</ele>
        <time>2022-06-11T07:43:39Z</time>
      </trkpt>
      <trkpt lat="43.78282" lon="5.99287">
        <ele>403.11</ele>
        <time>2022-06-11T07:43:40Z</time>
      </trkpt>
      <trkpt lat="43.78283" lon="5.99308">
        <ele>403.13</ele>
        <time>2022-06-11T07:43:41Z</time>
      </trkpt>
      <trkpt lat="43.78281" lon="5.9933">
        <ele>404.05</ele>
        <time>2022-06-11T07:43:42Z</time>
      </trkpt>
      <trkpt lat="43.78277" lon="5.99353">
        <ele>404.05</ele>
        <time>2022-06-11T07:43:43Z</time>
      </trkpt>
      <trkpt lat="43.78272" lon="5.99375">
        <ele>404.06</ele>
        <time>2022-06-11T07:43:44Z</time>
      </trkpt>
      <trkpt lat="43.78269" lon="5.99399">
        <ele>405.07</ele>
        <time>2022-06-11T07:43:45Z</time>
      </trkpt>
      <trkpt lat="43.78267" lon="5.99422">
        <ele>405.06</ele>
        <time>2022-06-11T07:43:46Z</time>
      </trkpt>
      <trkpt lat="43.78267" lon="5.99447">
        <ele>405.06</ele>
        <time>2022-06-11T07:43:47Z</time>
      </trkpt>
      <trkpt lat="43.7827" lon="5.99472">
        <ele>405.08</ele>
        <time>2022-06-11T07:43:48Z</time>
      </trkpt>
      <trkpt lat="43.78275" lon="5.99498">
        <ele>405.07</ele>
        <time>2022-06-11T07:43:49Z</time>
      </trkpt>
      <trkpt lat="43.78285" lon="5.99559">
        <ele>408.21</ele>
        <time>2022-06-11T07:43:51Z</time>
      </trkpt>
      <trkpt lat="43.78295" lon="5.99626">
        <ele>409.22</ele>
        <time>2022-06-11T07:43:53Z</time>
      </trkpt>
      <trkpt lat="43.78342" lon="5.99919">
        <ele>411.04</ele>
        <time>2022-06-11T07:44:03Z</time>
      </trkpt>
      <trkpt lat="43.7835" lon="6.00057">
        <ele>411.95</ele>
        <time>2022-06-11T07:44:08Z</time>
      </trkpt>
      <trkpt lat="43.78346" lon="6.00084">
        <ele>411.97</ele>
        <time>2022-06-11T07:44:09Z</time>
      </trkpt>
      <trkpt lat="43.7834" lon="6.00109">
        <ele>412.92</ele>
        <time>2022-06-11T07:44:10Z</time>
      </trkpt>
      <trkpt lat="43.78327" lon="6.00159">
        <ele>413.9</ele>
        <time>2022-06-11T07:44:12Z</time>
      </trkpt>
      <trkpt lat="43.78317" lon="6.00205">
        <ele>415.68</ele>
        <time>2022-06-11T07:44:14Z</time>
      </trkpt>
      <trkpt lat="43.78298" lon="6.0029">
        <ele>418.98</ele>
        <time>2022-06-11T07:44:18Z</time>
      </trkpt>
      <trkpt lat="43.78293" lon="6.00312">
        <ele>419</ele>
        <time>2022-06-11T07:44:19Z</time>
      </trkpt>
      <trkpt lat="43.78274" lon="6.0042">
        <ele>421.37</ele>
        <time>2022-06-11T07:44:24Z</time>
      </trkpt>
      <trkpt lat="43.78266" lon="6.00521">
        <ele>422.14</ele>
        <time>2022-06-11T07:44:30Z</time>
      </trkpt>
      <trkpt lat="43.78267" lon="6.00535">
        <ele>422.14</ele>
        <time>2022-06-11T07:44:31Z</time>
      </trkpt>
      <trkpt lat="43.78269" lon="6.00592">
        <ele>422.07</ele>
        <time>2022-06-11T07:44:35Z</time>
      </trkpt>
      <trkpt lat="43.78252" lon="6.00715">
        <ele>419.6</ele>
        <time>2022-06-11T07:44:44Z</time>
      </trkpt>
      <trkpt lat="43.78222" lon="6.00893">
        <ele>419.61</ele>
        <time>2022-06-11T07:44:56Z</time>
      </trkpt>
      <trkpt lat="43.78195" lon="6.00968">
        <ele>422.11</ele>
        <time>2022-06-11T07:45:01Z</time>
      </trkpt>
      <trkpt lat="43.78179" lon="6.01009">
        <ele>422.13</ele>
        <time>2022-06-11T07:45:05Z</time>
      </trkpt>
      <trkpt lat="43.7818" lon="6.01019">
        <ele>423.11</ele>
        <time>2022-06-11T07:45:06Z</time>
      </trkpt>
      <trkpt lat="43.78184" lon="6.01029">
        <ele>423.13</ele>
        <time>2022-06-11T07:45:07Z</time>
      </trkpt>
      <trkpt lat="43.78191" lon="6.01038">
        <ele>424.3</ele>
        <time>2022-06-11T07:45:08Z</time>
      </trkpt>
      <trkpt lat="43.78199" lon="6.01044">
        <ele>424.35</ele>
        <time>2022-06-11T07:45:09Z</time>
      </trkpt>
      <trkpt lat="43.78207" lon="6.01046">
        <ele>425.38</ele>
        <time>2022-06-11T07:45:10Z</time>
      </trkpt>
      <trkpt lat="43.78218" lon="6.01042">
        <ele>426.19</ele>
        <time>2022-06-11T07:45:11Z</time>
      </trkpt>
      <trkpt lat="43.78228" lon="6.01038">
        <ele>426.21</ele>
        <time>2022-06-11T07:45:12Z</time>
      </trkpt>
      <trkpt lat="43.78264" lon="6.0103">
        <ele>428.46</ele>
        <time>2022-06-11T07:45:16Z</time>
      </trkpt>
      <trkpt lat="43.78272" lon="6.01032">
        <ele>428.53</ele>
        <time>2022-06-11T07:45:17Z</time>
      </trkpt>
      <trkpt lat="43.7828" lon="6.01037">
        <ele>429.79</ele>
        <time>2022-06-11T07:45:18Z</time>
      </trkpt>
      <trkpt lat="43.78285" lon="6.01046">
        <ele>429.81</ele>
        <time>2022-06-11T07:45:19Z</time>
      </trkpt>
      <trkpt lat="43.78289" lon="6.01056">
        <ele>429.81</ele>
        <time>2022-06-11T07:45:20Z</time>
      </trkpt>
      <trkpt lat="43.7829" lon="6.01068">
        <ele>431.01</ele>
        <time>2022-06-11T07:45:21Z</time>
      </trkpt>
      <trkpt lat="43.78291" lon="6.0108">
        <ele>432.33</ele>
        <time>2022-06-11T07:45:22Z</time>
      </trkpt>
      <trkpt lat="43.78291" lon="6.01094">
        <ele>433.5</ele>
        <time>2022-06-11T07:45:23Z</time>
      </trkpt>
      <trkpt lat="43.78291" lon="6.01108">
        <ele>433.57</ele>
        <time>2022-06-11T07:45:24Z</time>
      </trkpt>
      <trkpt lat="43.78293" lon="6.01123">
        <ele>435.54</ele>
        <time>2022-06-11T07:45:25Z</time>
      </trkpt>
      <trkpt lat="43.78295" lon="6.01139">
        <ele>435.6</ele>
        <time>2022-06-11T07:45:26Z</time>
      </trkpt>
      <trkpt lat="43.78332" lon="6.0133">
        <ele>438.23</ele>
        <time>2022-06-11T07:45:36Z</time>
      </trkpt>
      <trkpt lat="43.78393" lon="6.01547">
        <ele>439</ele>
        <time>2022-06-11T07:45:45Z</time>
      </trkpt>
      <trkpt lat="43.78453" lon="6.01801">
        <ele>441.05</ele>
        <time>2022-06-11T07:45:56Z</time>
      </trkpt>
      <trkpt lat="43.78523" lon="6.0201">
        <ele>440.97</ele>
        <time>2022-06-11T07:46:06Z</time>
      </trkpt>
      <trkpt lat="43.78548" lon="6.02073">
        <ele>438.46</ele>
        <time>2022-06-11T07:46:09Z</time>
      </trkpt>
      <trkpt lat="43.78609" lon="6.0223">
        <ele>441.38</ele>
        <time>2022-06-11T07:46:16Z</time>
      </trkpt>
      <trkpt lat="43.78685" lon="6.02398">
        <ele>444.47</ele>
        <time>2022-06-11T07:46:24Z</time>
      </trkpt>
      <trkpt lat="43.78695" lon="6.02418">
        <ele>444.5</ele>
        <time>2022-06-11T07:46:25Z</time>
      </trkpt>
      <trkpt lat="43.788" lon="6.02604">
        <ele>445.53</ele>
        <time>2022-06-11T07:46:35Z</time>
      </trkpt>
      <trkpt lat="43.78872" lon="6.0277">
        <ele>447.25</ele>
        <time>2022-06-11T07:46:43Z</time>
      </trkpt>
      <trkpt lat="43.78982" lon="6.02957">
        <ele>448.27</ele>
        <time>2022-06-11T07:46:53Z</time>
      </trkpt>
      <trkpt lat="43.79007" lon="6.0299">
        <ele>448.28</ele>
        <time>2022-06-11T07:46:55Z</time>
      </trkpt>
      <trkpt lat="43.79021" lon="6.03004">
        <ele>448.28</ele>
        <time>2022-06-11T07:46:56Z</time>
      </trkpt>
      <trkpt lat="43.79074" lon="6.03063">
        <ele>449.36</ele>
        <time>2022-06-11T07:47:00Z</time>
      </trkpt>
      <trkpt lat="43.79085" lon="6.03081">
        <ele>449.34</ele>
        <time>2022-06-11T07:47:01Z</time>
      </trkpt>
      <trkpt lat="43.79096" lon="6.03099">
        <ele>449.24</ele>
        <time>2022-06-11T07:47:02Z</time>
      </trkpt>
      <trkpt lat="43.79138" lon="6.03171">
        <ele>450.92</ele>
        <time>2022-06-11T07:47:06Z</time>
      </trkpt>
      <trkpt lat="43.79151" lon="6.03186">
        <ele>452.14</ele>
        <time>2022-06-11T07:47:07Z</time>
      </trkpt>
      <trkpt lat="43.79164" lon="6.032">
        <ele>452.15</ele>
        <time>2022-06-11T07:47:08Z</time>
      </trkpt>
      <trkpt lat="43.79179" lon="6.03212">
        <ele>452.19</ele>
        <time>2022-06-11T07:47:09Z</time>
      </trkpt>
      <trkpt lat="43.79222" lon="6.03249">
        <ele>454.29</ele>
        <time>2022-06-11T07:47:12Z</time>
      </trkpt>
      <trkpt lat="43.79235" lon="6.03263">
        <ele>455.22</ele>
        <time>2022-06-11T07:47:13Z</time>
      </trkpt>
      <trkpt lat="43.79247" lon="6.0328">
        <ele>455.25</ele>
        <time>2022-06-11T07:47:14Z</time>
      </trkpt>
      <trkpt lat="43.79258" lon="6.03297">
        <ele>455.26</ele>
        <time>2022-06-11T07:47:15Z</time>
      </trkpt>
      <trkpt lat="43.79369" lon="6.0345">
        <ele>455.22</ele>
        <time>2022-06-11T07:47:24Z</time>
      </trkpt>
      <trkpt lat="43.79409" lon="6.03493">
        <ele>458.55</ele>
        <time>2022-06-11T07:47:27Z</time>
      </trkpt>
      <trkpt lat="43.79422" lon="6.03508">
        <ele>458.55</ele>
        <time>2022-06-11T07:47:28Z</time>
      </trkpt>
      <trkpt lat="43.79512" lon="6.03661">
        <ele>460.75</ele>
        <time>2022-06-11T07:47:36Z</time>
      </trkpt>
      <trkpt lat="43.79565" lon="6.03771">
        <ele>457.95</ele>
        <time>2022-06-11T07:47:41Z</time>
      </trkpt>
      <trkpt lat="43.79678" lon="6.0399">
        <ele>457.83</ele>
        <time>2022-06-11T07:47:52Z</time>
      </trkpt>
      <trkpt lat="43.79752" lon="6.04245">
        <ele>460.18</ele>
        <time>2022-06-11T07:48:03Z</time>
      </trkpt>
      <trkpt lat="43.79761" lon="6.04293">
        <ele>461.28</ele>
        <time>2022-06-11T07:48:05Z</time>
      </trkpt>
      <trkpt lat="43.79788" lon="6.04384">
        <ele>463.32</ele>
        <time>2022-06-11T07:48:09Z</time>
      </trkpt>
      <trkpt lat="43.79798" lon="6.04404">
        <ele>463.28</ele>
        <time>2022-06-11T07:48:10Z</time>
      </trkpt>
      <trkpt lat="43.7981" lon="6.04423">
        <ele>463.33</ele>
        <time>2022-06-11T07:48:11Z</time>
      </trkpt>
      <trkpt lat="43.79957" lon="6.04633">
        <ele>465.23</ele>
        <time>2022-06-11T07:48:23Z</time>
      </trkpt>
      <trkpt lat="43.80009" lon="6.04713">
        <ele>467.51</ele>
        <time>2022-06-11T07:48:27Z</time>
      </trkpt>
      <trkpt lat="43.80041" lon="6.04765">
        <ele>470.81</ele>
        <time>2022-06-11T07:48:29Z</time>
      </trkpt>
      <trkpt lat="43.80057" lon="6.04792">
        <ele>470.82</ele>
        <time>2022-06-11T07:48:30Z</time>
      </trkpt>
      <trkpt lat="43.80087" lon="6.04842">
        <ele>472.49</ele>
        <time>2022-06-11T07:48:32Z</time>
      </trkpt>
      <trkpt lat="43.80208" lon="6.05">
        <ele>475.45</ele>
        <time>2022-06-11T07:48:40Z</time>
      </trkpt>
      <trkpt lat="43.80223" lon="6.05017">
        <ele>475.45</ele>
        <time>2022-06-11T07:48:41Z</time>
      </trkpt>
      <trkpt lat="43.80278" lon="6.05094">
        <ele>477.98</ele>
        <time>2022-06-11T07:48:45Z</time>
      </trkpt>
      <trkpt lat="43.8046" lon="6.05318">
        <ele>480.53</ele>
        <time>2022-06-11T07:48:57Z</time>
      </trkpt>
      <trkpt lat="43.80492" lon="6.05353">
        <ele>481.87</ele>
        <time>2022-06-11T07:48:59Z</time>
      </trkpt>
      <trkpt lat="43.80538" lon="6.05404">
        <ele>484.8</ele>
        <time>2022-06-11T07:49:02Z</time>
      </trkpt>
      <trkpt lat="43.80569" lon="6.05437">
        <ele>486.28</ele>
        <time>2022-06-11T07:49:04Z</time>
      </trkpt>
      <trkpt lat="43.80616" lon="6.05484">
        <ele>488.29</ele>
        <time>2022-06-11T07:49:07Z</time>
      </trkpt>
      <trkpt lat="43.80629" lon="6.05502">
        <ele>488.24</ele>
        <time>2022-06-11T07:49:08Z</time>
      </trkpt>
      <trkpt lat="43.80641" lon="6.05519">
        <ele>488.34</ele>
        <time>2022-06-11T07:49:09Z</time>
      </trkpt>
      <trkpt lat="43.80651" lon="6.05537">
        <ele>488.24</ele>
        <time>2022-06-11T07:49:10Z</time>
      </trkpt>
      <trkpt lat="43.80659" lon="6.05555">
        <ele>488.31</ele>
        <time>2022-06-11T07:49:11Z</time>
      </trkpt>
      <trkpt lat="43.80666" lon="6.05574">
        <ele>488.25</ele>
        <time>2022-06-11T07:49:12Z</time>
      </trkpt>
      <trkpt lat="43.80672" lon="6.05595">
        <ele>489.15</ele>
        <time>2022-06-11T07:49:13Z</time>
      </trkpt>
      <trkpt lat="43.80677" lon="6.05618">
        <ele>490.63</ele>
        <time>2022-06-11T07:49:14Z</time>
      </trkpt>
      <trkpt lat="43.80682" lon="6.05642">
        <ele>490.68</ele>
        <time>2022-06-11T07:49:15Z</time>
      </trkpt>
      <trkpt lat="43.80712" lon="6.05818">
        <ele>488.07</ele>
        <time>2022-06-11T07:49:22Z</time>
      </trkpt>
      <trkpt lat="43.80773" lon="6.06087">
        <ele>487.19</ele>
        <time>2022-06-11T07:49:33Z</time>
      </trkpt>
      <trkpt lat="43.80778" lon="6.06165">
        <ele>491.19</ele>
        <time>2022-06-11T07:49:36Z</time>
      </trkpt>
      <trkpt lat="43.80789" lon="6.06244">
        <ele>494.6</ele>
        <time>2022-06-11T07:49:39Z</time>
      </trkpt>
      <trkpt lat="43.80793" lon="6.0627">
        <ele>494.61</ele>
        <time>2022-06-11T07:49:40Z</time>
      </trkpt>
      <trkpt lat="43.80803" lon="6.06322">
        <ele>495.83</ele>
        <time>2022-06-11T07:49:42Z</time>
      </trkpt>
      <trkpt lat="43.80865" lon="6.06556">
        <ele>495.92</ele>
        <time>2022-06-11T07:49:51Z</time>
      </trkpt>
      <trkpt lat="43.80901" lon="6.06679">
        <ele>495.81</ele>
        <time>2022-06-11T07:49:56Z</time>
      </trkpt>
      <trkpt lat="43.8091" lon="6.06701">
        <ele>495.82</ele>
        <time>2022-06-11T07:49:57Z</time>
      </trkpt>
      <trkpt lat="43.80989" lon="6.06878">
        <ele>499.05</ele>
        <time>2022-06-11T07:50:05Z</time>
      </trkpt>
      <trkpt lat="43.80996" lon="6.06901">
        <ele>500.01</ele>
        <time>2022-06-11T07:50:06Z</time>
      </trkpt>
      <trkpt lat="43.81002" lon="6.06926">
        <ele>500.04</ele>
        <time>2022-06-11T07:50:07Z</time>
      </trkpt>
      <trkpt lat="43.81012" lon="6.06977">
        <ele>501.64</ele>
        <time>2022-06-11T07:50:09Z</time>
      </trkpt>
      <trkpt lat="43.81024" lon="6.07029">
        <ele>503.29</ele>
        <time>2022-06-11T07:50:11Z</time>
      </trkpt>
      <trkpt lat="43.81033" lon="6.07053">
        <ele>504.89</ele>
        <time>2022-06-11T07:50:12Z</time>
      </trkpt>
      <trkpt lat="43.81044" lon="6.07076">
        <ele>504.89</ele>
        <time>2022-06-11T07:50:13Z</time>
      </trkpt>
      <trkpt lat="43.81056" lon="6.07095">
        <ele>505.86</ele>
        <time>2022-06-11T07:50:14Z</time>
      </trkpt>
      <trkpt lat="43.81068" lon="6.07113">
        <ele>505.86</ele>
        <time>2022-06-11T07:50:15Z</time>
      </trkpt>
      <trkpt lat="43.81115" lon="6.07185">
        <ele>507.43</ele>
        <time>2022-06-11T07:50:19Z</time>
      </trkpt>
      <trkpt lat="43.81192" lon="6.07319">
        <ele>510.69</ele>
        <time>2022-06-11T07:50:26Z</time>
      </trkpt>
      <trkpt lat="43.81218" lon="6.07381">
        <ele>510.32</ele>
        <time>2022-06-11T07:50:29Z</time>
      </trkpt>
      <trkpt lat="43.81224" lon="6.07402">
        <ele>510.35</ele>
        <time>2022-06-11T07:50:30Z</time>
      </trkpt>
      <trkpt lat="43.81229" lon="6.07424">
        <ele>510.39</ele>
        <time>2022-06-11T07:50:31Z</time>
      </trkpt>
      <trkpt lat="43.81278" lon="6.07676">
        <ele>510.38</ele>
        <time>2022-06-11T07:50:41Z</time>
      </trkpt>
      <trkpt lat="43.81302" lon="6.07863">
        <ele>507.12</ele>
        <time>2022-06-11T07:50:49Z</time>
      </trkpt>
      <trkpt lat="43.81303" lon="6.07884">
        <ele>507.05</ele>
        <time>2022-06-11T07:50:50Z</time>
      </trkpt>
      <trkpt lat="43.81308" lon="6.07926">
        <ele>506.24</ele>
        <time>2022-06-11T07:50:52Z</time>
      </trkpt>
      <trkpt lat="43.81312" lon="6.07946">
        <ele>506.24</ele>
        <time>2022-06-11T07:50:53Z</time>
      </trkpt>
      <trkpt lat="43.81375" lon="6.08131">
        <ele>506.22</ele>
        <time>2022-06-11T07:51:03Z</time>
      </trkpt>
      <trkpt lat="43.81465" lon="6.0832">
        <ele>506.31</ele>
        <time>2022-06-11T07:51:15Z</time>
      </trkpt>
      <trkpt lat="43.81484" lon="6.08364">
        <ele>509.57</ele>
        <time>2022-06-11T07:51:18Z</time>
      </trkpt>
      <trkpt lat="43.8149" lon="6.08381">
        <ele>509.6</ele>
        <time>2022-06-11T07:51:19Z</time>
      </trkpt>
      <trkpt lat="43.81509" lon="6.08492">
        <ele>511.95</ele>
        <time>2022-06-11T07:51:25Z</time>
      </trkpt>
      <trkpt lat="43.81515" lon="6.08563">
        <ele>513.37</ele>
        <time>2022-06-11T07:51:29Z</time>
      </trkpt>
      <trkpt lat="43.81521" lon="6.08717">
        <ele>514.31</ele>
        <time>2022-06-11T07:51:39Z</time>
      </trkpt>
      <trkpt lat="43.81527" lon="6.08853">
        <ele>515.15</ele>
        <time>2022-06-11T07:51:48Z</time>
      </trkpt>
      <trkpt lat="43.81545" lon="6.08954">
        <ele>515.11</ele>
        <time>2022-06-11T07:51:58Z</time>
      </trkpt>
      <trkpt lat="43.81553" lon="6.08993">
        <ele>515.12</ele>
        <time>2022-06-11T07:52:07Z</time>
      </trkpt>
      <trkpt lat="43.81559" lon="6.09012">
        <ele>515.15</ele>
        <time>2022-06-11T07:52:15Z</time>
      </trkpt>
      <trkpt lat="43.8156" lon="6.09018">
        <ele>515.16</ele>
        <time>2022-06-11T07:52:16Z</time>
      </trkpt>
      <trkpt lat="43.8156" lon="6.09024">
        <ele>515.16</ele>
        <time>2022-06-11T07:52:17Z</time>
      </trkpt>
      <trkpt lat="43.81556" lon="6.09091">
        <ele>516.84</ele>
        <time>2022-06-11T07:52:28Z</time>
      </trkpt>
      <trkpt lat="43.81548" lon="6.09163">
        <ele>518.52</ele>
        <time>2022-06-11T07:52:38Z</time>
      </trkpt>
      <trkpt lat="43.81548" lon="6.09169">
        <ele>518.54</ele>
        <time>2022-06-11T07:52:39Z</time>
      </trkpt>
      <trkpt lat="43.81549" lon="6.09266">
        <ele>522.44</ele>
        <time>2022-06-11T07:52:48Z</time>
      </trkpt>
      <trkpt lat="43.81548" lon="6.0937">
        <ele>522.61</ele>
        <time>2022-06-11T07:52:57Z</time>
      </trkpt>
      <trkpt lat="43.81546" lon="6.0946">
        <ele>522.38</ele>
        <time>2022-06-11T07:53:07Z</time>
      </trkpt>
      <trkpt lat="43.81546" lon="6.09466">
        <ele>522.37</ele>
        <time>2022-06-11T07:53:09Z</time>
      </trkpt>
      <trkpt lat="43.81546" lon="6.0947">
        <ele>522.37</ele>
        <time>2022-06-11T07:53:10Z</time>
      </trkpt>
      <trkpt lat="43.81547" lon="6.09475">
        <ele>522.37</ele>
        <time>2022-06-11T07:53:11Z</time>
      </trkpt>
      <trkpt lat="43.81549" lon="6.09478">
        <ele>522.38</ele>
        <time>2022-06-11T07:53:12Z</time>
      </trkpt>
      <trkpt lat="43.81553" lon="6.0948">
        <ele>522.38</ele>
        <time>2022-06-11T07:53:13Z</time>
      </trkpt>
      <trkpt lat="43.81558" lon="6.09479">
        <ele>522.37</ele>
        <time>2022-06-11T07:53:14Z</time>
      </trkpt>
      <trkpt lat="43.81565" lon="6.09477">
        <ele>522.39</ele>
        <time>2022-06-11T07:53:15Z</time>
      </trkpt>
      <trkpt lat="43.81625" lon="6.09458">
        <ele>523.37</ele>
        <time>2022-06-11T07:53:20Z</time>
      </trkpt>
      <trkpt lat="43.8167" lon="6.09447">
        <ele>523.27</ele>
        <time>2022-06-11T07:53:24Z</time>
      </trkpt>
      <trkpt lat="43.81689" lon="6.09448">
        <ele>520.53</ele>
        <time>2022-06-11T07:53:26Z</time>
      </trkpt>
      <trkpt lat="43.81696" lon="6.09445">
        <ele>519.4</ele>
        <time>2022-06-11T07:53:31Z</time>
      </trkpt>
      <trkpt lat="43.81699" lon="6.09444">
        <ele>519.43</ele>
        <time>2022-06-11T07:53:32Z</time>
      </trkpt>
      <trkpt lat="43.81702" lon="6.09443">
        <ele>519.41</ele>
        <time>2022-06-11T07:53:33Z</time>
      </trkpt>
      <trkpt lat="43.81722" lon="6.09438">
        <ele>519.36</ele>
        <time>2022-06-11T07:53:37Z</time>
      </trkpt>
      <trkpt lat="43.81749" lon="6.09438">
        <ele>519.47</ele>
        <time>2022-06-11T07:53:43Z</time>
      </trkpt>
      <trkpt lat="43.81751" lon="6.09441">
        <ele>519.5</ele>
        <time>2022-06-11T07:53:44Z</time>
      </trkpt>
      <trkpt lat="43.81753" lon="6.09446">
        <ele>519.51</ele>
        <time>2022-06-11T07:53:45Z</time>
      </trkpt>
      <trkpt lat="43.81756" lon="6.09451">
        <ele>519.51</ele>
        <time>2022-06-11T07:53:46Z</time>
      </trkpt>
      <trkpt lat="43.81759" lon="6.09459">
        <ele>519.56</ele>
        <time>2022-06-11T07:53:47Z</time>
      </trkpt>
      <trkpt lat="43.81762" lon="6.09467">
        <ele>519.53</ele>
        <time>2022-06-11T07:53:48Z</time>
      </trkpt>
      <trkpt lat="43.81769" lon="6.09482">
        <ele>519.51</ele>
        <time>2022-06-11T07:53:50Z</time>
      </trkpt>
      <trkpt lat="43.81771" lon="6.09489">
        <ele>519.51</ele>
        <time>2022-06-11T07:53:51Z</time>
      </trkpt>
      <trkpt lat="43.81776" lon="6.09504">
        <ele>519.52</ele>
        <time>2022-06-11T07:53:53Z</time>
      </trkpt>
      <trkpt lat="43.81784" lon="6.09518">
        <ele>522.09</ele>
        <time>2022-06-11T07:53:55Z</time>
      </trkpt>
      <trkpt lat="43.81789" lon="6.09523">
        <ele>522.11</ele>
        <time>2022-06-11T07:53:56Z</time>
      </trkpt>
      <trkpt lat="43.81794" lon="6.0953">
        <ele>522.9</ele>
        <time>2022-06-11T07:53:57Z</time>
      </trkpt>
      <trkpt lat="43.81799" lon="6.09536">
        <ele>522.9</ele>
        <time>2022-06-11T07:53:58Z</time>
      </trkpt>
      <trkpt lat="43.81802" lon="6.09545">
        <ele>524.32</ele>
        <time>2022-06-11T07:53:59Z</time>
      </trkpt>
      <trkpt lat="43.81801" lon="6.09555">
        <ele>524.38</ele>
        <time>2022-06-11T07:54:00Z</time>
      </trkpt>
      <trkpt lat="43.81799" lon="6.09565">
        <ele>525.35</ele>
        <time>2022-06-11T07:54:01Z</time>
      </trkpt>
      <trkpt lat="43.81797" lon="6.09576">
        <ele>525.36</ele>
        <time>2022-06-11T07:54:02Z</time>
      </trkpt>
      <trkpt lat="43.81795" lon="6.09586">
        <ele>525.39</ele>
        <time>2022-06-11T07:54:03Z</time>
      </trkpt>
      <trkpt lat="43.81795" lon="6.09598">
        <ele>527.1</ele>
        <time>2022-06-11T07:54:04Z</time>
      </trkpt>
      <trkpt lat="43.81796" lon="6.09609">
        <ele>527.07</ele>
        <time>2022-06-11T07:54:05Z</time>
      </trkpt>
      <trkpt lat="43.81808" lon="6.0976">
        <ele>527.74</ele>
        <time>2022-06-11T07:54:16Z</time>
      </trkpt>
      <trkpt lat="43.81812" lon="6.09928">
        <ele>529.42</ele>
        <time>2022-06-11T07:54:25Z</time>
      </trkpt>
      <trkpt lat="43.81814" lon="6.10032">
        <ele>530.58</ele>
        <time>2022-06-11T07:54:30Z</time>
      </trkpt>
      <trkpt lat="43.81818" lon="6.10055">
        <ele>531.55</ele>
        <time>2022-06-11T07:54:31Z</time>
      </trkpt>
      <trkpt lat="43.81835" lon="6.10123">
        <ele>535.99</ele>
        <time>2022-06-11T07:54:34Z</time>
      </trkpt>
      <trkpt lat="43.81841" lon="6.10146">
        <ele>535.97</ele>
        <time>2022-06-11T07:54:35Z</time>
      </trkpt>
      <trkpt lat="43.81859" lon="6.10216">
        <ele>539.76</ele>
        <time>2022-06-11T07:54:38Z</time>
      </trkpt>
      <trkpt lat="43.81877" lon="6.1028">
        <ele>542.09</ele>
        <time>2022-06-11T07:54:41Z</time>
      </trkpt>
      <trkpt lat="43.8189" lon="6.10327">
        <ele>543.33</ele>
        <time>2022-06-11T07:54:44Z</time>
      </trkpt>
      <trkpt lat="43.81901" lon="6.10367">
        <ele>544.58</ele>
        <time>2022-06-11T07:54:47Z</time>
      </trkpt>
      <trkpt lat="43.81915" lon="6.10408">
        <ele>545.89</ele>
        <time>2022-06-11T07:54:50Z</time>
      </trkpt>
      <trkpt lat="43.81953" lon="6.10577">
        <ele>547.69</ele>
        <time>2022-06-11T07:55:00Z</time>
      </trkpt>
      <trkpt lat="43.81968" lon="6.10768">
        <ele>549.38</ele>
        <time>2022-06-11T07:55:10Z</time>
      </trkpt>
      <trkpt lat="43.81977" lon="6.10837">
        <ele>551.84</ele>
        <time>2022-06-11T07:55:14Z</time>
      </trkpt>
      <trkpt lat="43.8204" lon="6.11064">
        <ele>553.61</ele>
        <time>2022-06-11T07:55:28Z</time>
      </trkpt>
      <trkpt lat="43.82055" lon="6.11179">
        <ele>556.19</ele>
        <time>2022-06-11T07:55:34Z</time>
      </trkpt>
      <trkpt lat="43.82078" lon="6.11321">
        <ele>559.23</ele>
        <time>2022-06-11T07:55:41Z</time>
      </trkpt>
      <trkpt lat="43.82134" lon="6.11492">
        <ele>561.76</ele>
        <time>2022-06-11T07:55:50Z</time>
      </trkpt>
      <trkpt lat="43.82142" lon="6.11518">
        <ele>561.79</ele>
        <time>2022-06-11T07:55:51Z</time>
      </trkpt>
      <trkpt lat="43.82155" lon="6.11576">
        <ele>563.12</ele>
        <time>2022-06-11T07:55:53Z</time>
      </trkpt>
      <trkpt lat="43.82193" lon="6.11728">
        <ele>560.33</ele>
        <time>2022-06-11T07:55:59Z</time>
      </trkpt>
      <trkpt lat="43.82234" lon="6.11934">
        <ele>560.18</ele>
        <time>2022-06-11T07:56:08Z</time>
      </trkpt>
      <trkpt lat="43.82234" lon="6.11957">
        <ele>560.18</ele>
        <time>2022-06-11T07:56:09Z</time>
      </trkpt>
      <trkpt lat="43.82232" lon="6.1198">
        <ele>560.18</ele>
        <time>2022-06-11T07:56:10Z</time>
      </trkpt>
      <trkpt lat="43.8223" lon="6.12029">
        <ele>560.18</ele>
        <time>2022-06-11T07:56:12Z</time>
      </trkpt>
      <trkpt lat="43.82233" lon="6.12054">
        <ele>560.18</ele>
        <time>2022-06-11T07:56:13Z</time>
      </trkpt>
      <trkpt lat="43.8224" lon="6.12079">
        <ele>560.19</ele>
        <time>2022-06-11T07:56:14Z</time>
      </trkpt>
      <trkpt lat="43.8225" lon="6.12102">
        <ele>560.2</ele>
        <time>2022-06-11T07:56:15Z</time>
      </trkpt>
      <trkpt lat="43.82262" lon="6.12125">
        <ele>560.22</ele>
        <time>2022-06-11T07:56:16Z</time>
      </trkpt>
      <trkpt lat="43.82274" lon="6.12148">
        <ele>560.23</ele>
        <time>2022-06-11T07:56:17Z</time>
      </trkpt>
      <trkpt lat="43.8231" lon="6.12216">
        <ele>563.28</ele>
        <time>2022-06-11T07:56:20Z</time>
      </trkpt>
      <trkpt lat="43.82323" lon="6.12239">
        <ele>563.3</ele>
        <time>2022-06-11T07:56:21Z</time>
      </trkpt>
      <trkpt lat="43.82349" lon="6.12286">
        <ele>565.61</ele>
        <time>2022-06-11T07:56:23Z</time>
      </trkpt>
      <trkpt lat="43.82387" lon="6.12355">
        <ele>567.19</ele>
        <time>2022-06-11T07:56:26Z</time>
      </trkpt>
      <trkpt lat="43.82489" lon="6.12519">
        <ele>570.46</ele>
        <time>2022-06-11T07:56:35Z</time>
      </trkpt>
      <trkpt lat="43.82582" lon="6.12642">
        <ele>573.46</ele>
        <time>2022-06-11T07:56:45Z</time>
      </trkpt>
      <trkpt lat="43.82595" lon="6.12669">
        <ele>574.7</ele>
        <time>2022-06-11T07:56:47Z</time>
      </trkpt>
      <trkpt lat="43.82671" lon="6.1284">
        <ele>577.46</ele>
        <time>2022-06-11T07:56:58Z</time>
      </trkpt>
      <trkpt lat="43.82681" lon="6.12867">
        <ele>577.5</ele>
        <time>2022-06-11T07:57:00Z</time>
      </trkpt>
      <trkpt lat="43.82684" lon="6.1288">
        <ele>577.58</ele>
        <time>2022-06-11T07:57:01Z</time>
      </trkpt>
      <trkpt lat="43.82703" lon="6.1296">
        <ele>579.47</ele>
        <time>2022-06-11T07:57:07Z</time>
      </trkpt>
      <trkpt lat="43.82704" lon="6.12976">
        <ele>580.36</ele>
        <time>2022-06-11T07:57:08Z</time>
      </trkpt>
      <trkpt lat="43.82704" lon="6.12995">
        <ele>581.42</ele>
        <time>2022-06-11T07:57:09Z</time>
      </trkpt>
      <trkpt lat="43.82703" lon="6.13014">
        <ele>581.41</ele>
        <time>2022-06-11T07:57:10Z</time>
      </trkpt>
      <trkpt lat="43.82702" lon="6.13034">
        <ele>583.42</ele>
        <time>2022-06-11T07:57:11Z</time>
      </trkpt>
      <trkpt lat="43.82695" lon="6.13095">
        <ele>585.44</ele>
        <time>2022-06-11T07:57:14Z</time>
      </trkpt>
      <trkpt lat="43.82686" lon="6.13176">
        <ele>588.46</ele>
        <time>2022-06-11T07:57:18Z</time>
      </trkpt>
      <trkpt lat="43.82679" lon="6.13261">
        <ele>590.61</ele>
        <time>2022-06-11T07:57:22Z</time>
      </trkpt>
      <trkpt lat="43.82681" lon="6.13398">
        <ele>592.44</ele>
        <time>2022-06-11T07:57:28Z</time>
      </trkpt>
      <trkpt lat="43.82689" lon="6.13493">
        <ele>594.53</ele>
        <time>2022-06-11T07:57:32Z</time>
      </trkpt>
      <trkpt lat="43.82694" lon="6.13517">
        <ele>594.54</ele>
        <time>2022-06-11T07:57:33Z</time>
      </trkpt>
      <trkpt lat="43.82757" lon="6.13675">
        <ele>597.47</ele>
        <time>2022-06-11T07:57:40Z</time>
      </trkpt>
      <trkpt lat="43.82836" lon="6.13795">
        <ele>600.82</ele>
        <time>2022-06-11T07:57:46Z</time>
      </trkpt>
      <trkpt lat="43.82849" lon="6.13815">
        <ele>600.82</ele>
        <time>2022-06-11T07:57:47Z</time>
      </trkpt>
      <trkpt lat="43.82878" lon="6.1385">
        <ele>601.79</ele>
        <time>2022-06-11T07:57:49Z</time>
      </trkpt>
      <trkpt lat="43.83007" lon="6.13979">
        <ele>602.65</ele>
        <time>2022-06-11T07:57:57Z</time>
      </trkpt>
      <trkpt lat="43.8311" lon="6.14083">
        <ele>602.44</ele>
        <time>2022-06-11T07:58:04Z</time>
      </trkpt>
      <trkpt lat="43.8318" lon="6.14186">
        <ele>602.43</ele>
        <time>2022-06-11T07:58:10Z</time>
      </trkpt>
      <trkpt lat="43.83194" lon="6.14195">
        <ele>602.43</ele>
        <time>2022-06-11T07:58:11Z</time>
      </trkpt>
      <trkpt lat="43.8321" lon="6.14198">
        <ele>602.43</ele>
        <time>2022-06-11T07:58:12Z</time>
      </trkpt>
      <trkpt lat="43.83227" lon="6.14195">
        <ele>602.43</ele>
        <time>2022-06-11T07:58:13Z</time>
      </trkpt>
      <trkpt lat="43.83243" lon="6.14186">
        <ele>602.43</ele>
        <time>2022-06-11T07:58:14Z</time>
      </trkpt>
      <trkpt lat="43.83256" lon="6.14169">
        <ele>602.43</ele>
        <time>2022-06-11T07:58:15Z</time>
      </trkpt>
      <trkpt lat="43.83266" lon="6.14149">
        <ele>602.43</ele>
        <time>2022-06-11T07:58:16Z</time>
      </trkpt>
      <trkpt lat="43.83277" lon="6.1413">
        <ele>602.45</ele>
        <time>2022-06-11T07:58:17Z</time>
      </trkpt>
      <trkpt lat="43.83289" lon="6.14115">
        <ele>602.45</ele>
        <time>2022-06-11T07:58:18Z</time>
      </trkpt>
      <trkpt lat="43.83302" lon="6.14104">
        <ele>602.44</ele>
        <time>2022-06-11T07:58:19Z</time>
      </trkpt>
      <trkpt lat="43.83317" lon="6.141">
        <ele>602.46</ele>
        <time>2022-06-11T07:58:20Z</time>
      </trkpt>
      <trkpt lat="43.83332" lon="6.14101">
        <ele>602.46</ele>
        <time>2022-06-11T07:58:21Z</time>
      </trkpt>
      <trkpt lat="43.83349" lon="6.14105">
        <ele>602.47</ele>
        <time>2022-06-11T07:58:22Z</time>
      </trkpt>
      <trkpt lat="43.83367" lon="6.14112">
        <ele>603.63</ele>
        <time>2022-06-11T07:58:23Z</time>
      </trkpt>
      <trkpt lat="43.83402" lon="6.1413">
        <ele>604.69</ele>
        <time>2022-06-11T07:58:25Z</time>
      </trkpt>
      <trkpt lat="43.83515" lon="6.14234">
        <ele>606.8</ele>
        <time>2022-06-11T07:58:32Z</time>
      </trkpt>
      <trkpt lat="43.83563" lon="6.14278">
        <ele>608.24</ele>
        <time>2022-06-11T07:58:35Z</time>
      </trkpt>
      <trkpt lat="43.83577" lon="6.14296">
        <ele>608.29</ele>
        <time>2022-06-11T07:58:36Z</time>
      </trkpt>
      <trkpt lat="43.83664" lon="6.14424">
        <ele>609.09</ele>
        <time>2022-06-11T07:58:43Z</time>
      </trkpt>
      <trkpt lat="43.83709" lon="6.1453">
        <ele>610</ele>
        <time>2022-06-11T07:58:48Z</time>
      </trkpt>
      <trkpt lat="43.83715" lon="6.14553">
        <ele>610.01</ele>
        <time>2022-06-11T07:58:49Z</time>
      </trkpt>
      <trkpt lat="43.83721" lon="6.14576">
        <ele>610.02</ele>
        <time>2022-06-11T07:58:50Z</time>
      </trkpt>
      <trkpt lat="43.83738" lon="6.14647">
        <ele>611.01</ele>
        <time>2022-06-11T07:58:53Z</time>
      </trkpt>
      <trkpt lat="43.83753" lon="6.14691">
        <ele>612.89</ele>
        <time>2022-06-11T07:58:55Z</time>
      </trkpt>
      <trkpt lat="43.83759" lon="6.14714">
        <ele>612.89</ele>
        <time>2022-06-11T07:58:56Z</time>
      </trkpt>
      <trkpt lat="43.83762" lon="6.14739">
        <ele>612.91</ele>
        <time>2022-06-11T07:58:57Z</time>
      </trkpt>
      <trkpt lat="43.83764" lon="6.14764">
        <ele>612.95</ele>
        <time>2022-06-11T07:58:58Z</time>
      </trkpt>
      <trkpt lat="43.83764" lon="6.14789">
        <ele>613.97</ele>
        <time>2022-06-11T07:58:59Z</time>
      </trkpt>
      <trkpt lat="43.83762" lon="6.14814">
        <ele>613.74</ele>
        <time>2022-06-11T07:59:00Z</time>
      </trkpt>
      <trkpt lat="43.8376" lon="6.15069">
        <ele>616.74</ele>
        <time>2022-06-11T07:59:10Z</time>
      </trkpt>
      <trkpt lat="43.83765" lon="6.15094">
        <ele>618.13</ele>
        <time>2022-06-11T07:59:11Z</time>
      </trkpt>
      <trkpt lat="43.83772" lon="6.15119">
        <ele>618.15</ele>
        <time>2022-06-11T07:59:12Z</time>
      </trkpt>
      <trkpt lat="43.83816" lon="6.15349">
        <ele>620.39</ele>
        <time>2022-06-11T07:59:21Z</time>
      </trkpt>
      <trkpt lat="43.83822" lon="6.15398">
        <ele>620.46</ele>
        <time>2022-06-11T07:59:23Z</time>
      </trkpt>
      <trkpt lat="43.83875" lon="6.15563">
        <ele>623.31</ele>
        <time>2022-06-11T07:59:30Z</time>
      </trkpt>
      <trkpt lat="43.83912" lon="6.15657">
        <ele>624.29</ele>
        <time>2022-06-11T07:59:34Z</time>
      </trkpt>
      <trkpt lat="43.83925" lon="6.15679">
        <ele>624.32</ele>
        <time>2022-06-11T07:59:35Z</time>
      </trkpt>
      <trkpt lat="43.83939" lon="6.15698">
        <ele>624.33</ele>
        <time>2022-06-11T07:59:36Z</time>
      </trkpt>
      <trkpt lat="43.83955" lon="6.15715">
        <ele>625.56</ele>
        <time>2022-06-11T07:59:37Z</time>
      </trkpt>
      <trkpt lat="43.83972" lon="6.15732">
        <ele>625.48</ele>
        <time>2022-06-11T07:59:38Z</time>
      </trkpt>
      <trkpt lat="43.84002" lon="6.15769">
        <ele>625.5</ele>
        <time>2022-06-11T07:59:40Z</time>
      </trkpt>
      <trkpt lat="43.84044" lon="6.15826">
        <ele>626.77</ele>
        <time>2022-06-11T07:59:43Z</time>
      </trkpt>
      <trkpt lat="43.8406" lon="6.15839">
        <ele>626.77</ele>
        <time>2022-06-11T07:59:44Z</time>
      </trkpt>
      <trkpt lat="43.84079" lon="6.15848">
        <ele>627.7</ele>
        <time>2022-06-11T07:59:45Z</time>
      </trkpt>
      <trkpt lat="43.84117" lon="6.15866">
        <ele>628.54</ele>
        <time>2022-06-11T07:59:47Z</time>
      </trkpt>
      <trkpt lat="43.84152" lon="6.15886">
        <ele>628.52</ele>
        <time>2022-06-11T07:59:49Z</time>
      </trkpt>
      <trkpt lat="43.84168" lon="6.159">
        <ele>628.3</ele>
        <time>2022-06-11T07:59:50Z</time>
      </trkpt>
      <trkpt lat="43.84181" lon="6.15918">
        <ele>629.32</ele>
        <time>2022-06-11T07:59:51Z</time>
      </trkpt>
      <trkpt lat="43.84192" lon="6.15938">
        <ele>629.32</ele>
        <time>2022-06-11T07:59:52Z</time>
      </trkpt>
      <trkpt lat="43.84201" lon="6.1596">
        <ele>630.56</ele>
        <time>2022-06-11T07:59:53Z</time>
      </trkpt>
      <trkpt lat="43.84222" lon="6.16">
        <ele>631.39</ele>
        <time>2022-06-11T07:59:55Z</time>
      </trkpt>
      <trkpt lat="43.84236" lon="6.16017">
        <ele>632.24</ele>
        <time>2022-06-11T07:59:56Z</time>
      </trkpt>
      <trkpt lat="43.84262" lon="6.16047">
        <ele>633</ele>
        <time>2022-06-11T07:59:58Z</time>
      </trkpt>
      <trkpt lat="43.84273" lon="6.16063">
        <ele>633.03</ele>
        <time>2022-06-11T07:59:59Z</time>
      </trkpt>
      <trkpt lat="43.84295" lon="6.16094">
        <ele>634.48</ele>
        <time>2022-06-11T08:00:01Z</time>
      </trkpt>
      <trkpt lat="43.84308" lon="6.16107">
        <ele>635.41</ele>
        <time>2022-06-11T08:00:02Z</time>
      </trkpt>
      <trkpt lat="43.84322" lon="6.16118">
        <ele>635.47</ele>
        <time>2022-06-11T08:00:03Z</time>
      </trkpt>
      <trkpt lat="43.84388" lon="6.16156">
        <ele>637.7</ele>
        <time>2022-06-11T08:00:08Z</time>
      </trkpt>
      <trkpt lat="43.84402" lon="6.16159">
        <ele>637.74</ele>
        <time>2022-06-11T08:00:09Z</time>
      </trkpt>
      <trkpt lat="43.84416" lon="6.16161">
        <ele>637.7</ele>
        <time>2022-06-11T08:00:10Z</time>
      </trkpt>
      <trkpt lat="43.84444" lon="6.16164">
        <ele>639.34</ele>
        <time>2022-06-11T08:00:12Z</time>
      </trkpt>
      <trkpt lat="43.84458" lon="6.16168">
        <ele>639.38</ele>
        <time>2022-06-11T08:00:13Z</time>
      </trkpt>
      <trkpt lat="43.84469" lon="6.16176">
        <ele>639.02</ele>
        <time>2022-06-11T08:00:14Z</time>
      </trkpt>
      <trkpt lat="43.84479" lon="6.16186">
        <ele>639.34</ele>
        <time>2022-06-11T08:00:15Z</time>
      </trkpt>
      <trkpt lat="43.84488" lon="6.16198">
        <ele>639.03</ele>
        <time>2022-06-11T08:00:16Z</time>
      </trkpt>
      <trkpt lat="43.84497" lon="6.16212">
        <ele>640.12</ele>
        <time>2022-06-11T08:00:17Z</time>
      </trkpt>
      <trkpt lat="43.84505" lon="6.16227">
        <ele>640.17</ele>
        <time>2022-06-11T08:00:18Z</time>
      </trkpt>
      <trkpt lat="43.84523" lon="6.16256">
        <ele>641.35</ele>
        <time>2022-06-11T08:00:20Z</time>
      </trkpt>
      <trkpt lat="43.84599" lon="6.16396">
        <ele>644.4</ele>
        <time>2022-06-11T08:00:29Z</time>
      </trkpt>
      <trkpt lat="43.84608" lon="6.16412">
        <ele>644.39</ele>
        <time>2022-06-11T08:00:30Z</time>
      </trkpt>
      <trkpt lat="43.84723" lon="6.16627">
        <ele>647.44</ele>
        <time>2022-06-11T08:00:43Z</time>
      </trkpt>
      <trkpt lat="43.84732" lon="6.16645">
        <ele>647.45</ele>
        <time>2022-06-11T08:00:44Z</time>
      </trkpt>
      <trkpt lat="43.84752" lon="6.16681">
        <ele>649.03</ele>
        <time>2022-06-11T08:00:46Z</time>
      </trkpt>
      <trkpt lat="43.84816" lon="6.16797">
        <ele>650.05</ele>
        <time>2022-06-11T08:00:54Z</time>
      </trkpt>
      <trkpt lat="43.84827" lon="6.16814">
        <ele>650.05</ele>
        <time>2022-06-11T08:00:56Z</time>
      </trkpt>
      <trkpt lat="43.84831" lon="6.16818">
        <ele>650.08</ele>
        <time>2022-06-11T08:00:57Z</time>
      </trkpt>
      <trkpt lat="43.84835" lon="6.16821">
        <ele>650.09</ele>
        <time>2022-06-11T08:00:58Z</time>
      </trkpt>
      <trkpt lat="43.84838" lon="6.16824">
        <ele>650.06</ele>
        <time>2022-06-11T08:00:59Z</time>
      </trkpt>
      <trkpt lat="43.8484" lon="6.16828">
        <ele>650.11</ele>
        <time>2022-06-11T08:01:00Z</time>
      </trkpt>
      <trkpt lat="43.84841" lon="6.16832">
        <ele>650.1</ele>
        <time>2022-06-11T08:01:01Z</time>
      </trkpt>
      <trkpt lat="43.84841" lon="6.16836">
        <ele>650.06</ele>
        <time>2022-06-11T08:01:05Z</time>
      </trkpt>
      <trkpt lat="43.84842" lon="6.16843">
        <ele>650.08</ele>
        <time>2022-06-11T08:01:06Z</time>
      </trkpt>
      <trkpt lat="43.84846" lon="6.16853">
        <ele>650.99</ele>
        <time>2022-06-11T08:01:07Z</time>
      </trkpt>
      <trkpt lat="43.84852" lon="6.16865">
        <ele>652.05</ele>
        <time>2022-06-11T08:01:08Z</time>
      </trkpt>
      <trkpt lat="43.84859" lon="6.16881">
        <ele>653.1</ele>
        <time>2022-06-11T08:01:09Z</time>
      </trkpt>
      <trkpt lat="43.84867" lon="6.16899">
        <ele>654.23</ele>
        <time>2022-06-11T08:01:10Z</time>
      </trkpt>
      <trkpt lat="43.84875" lon="6.16921">
        <ele>656.07</ele>
        <time>2022-06-11T08:01:11Z</time>
      </trkpt>
      <trkpt lat="43.84882" lon="6.16945">
        <ele>656.08</ele>
        <time>2022-06-11T08:01:12Z</time>
      </trkpt>
      <trkpt lat="43.84888" lon="6.16969">
        <ele>657.74</ele>
        <time>2022-06-11T08:01:13Z</time>
      </trkpt>
      <trkpt lat="43.84894" lon="6.16992">
        <ele>657.75</ele>
        <time>2022-06-11T08:01:14Z</time>
      </trkpt>
      <trkpt lat="43.84908" lon="6.17038">
        <ele>658.76</ele>
        <time>2022-06-11T08:01:16Z</time>
      </trkpt>
      <trkpt lat="43.84918" lon="6.17059">
        <ele>658.79</ele>
        <time>2022-06-11T08:01:17Z</time>
      </trkpt>
      <trkpt lat="43.84929" lon="6.17078">
        <ele>659.84</ele>
        <time>2022-06-11T08:01:18Z</time>
      </trkpt>
      <trkpt lat="43.8494" lon="6.17096">
        <ele>659.87</ele>
        <time>2022-06-11T08:01:19Z</time>
      </trkpt>
      <trkpt lat="43.84954" lon="6.17113">
        <ele>659.88</ele>
        <time>2022-06-11T08:01:20Z</time>
      </trkpt>
      <trkpt lat="43.84968" lon="6.17128">
        <ele>661.09</ele>
        <time>2022-06-11T08:01:21Z</time>
      </trkpt>
      <trkpt lat="43.84983" lon="6.17143">
        <ele>661.1</ele>
        <time>2022-06-11T08:01:22Z</time>
      </trkpt>
      <trkpt lat="43.8504" lon="6.17207">
        <ele>662.95</ele>
        <time>2022-06-11T08:01:26Z</time>
      </trkpt>
      <trkpt lat="43.85051" lon="6.17226">
        <ele>663</ele>
        <time>2022-06-11T08:01:27Z</time>
      </trkpt>
      <trkpt lat="43.85061" lon="6.17246">
        <ele>664.12</ele>
        <time>2022-06-11T08:01:28Z</time>
      </trkpt>
      <trkpt lat="43.85069" lon="6.17268">
        <ele>665.05</ele>
        <time>2022-06-11T08:01:29Z</time>
      </trkpt>
      <trkpt lat="43.85076" lon="6.1729">
        <ele>665.07</ele>
        <time>2022-06-11T08:01:30Z</time>
      </trkpt>
      <trkpt lat="43.85081" lon="6.17313">
        <ele>664.74</ele>
        <time>2022-06-11T08:01:31Z</time>
      </trkpt>
      <trkpt lat="43.85085" lon="6.17337">
        <ele>665.1</ele>
        <time>2022-06-11T08:01:32Z</time>
      </trkpt>
      <trkpt lat="43.85091" lon="6.17384">
        <ele>666.32</ele>
        <time>2022-06-11T08:01:34Z</time>
      </trkpt>
      <trkpt lat="43.85097" lon="6.1743">
        <ele>667.56</ele>
        <time>2022-06-11T08:01:36Z</time>
      </trkpt>
      <trkpt lat="43.85102" lon="6.17477">
        <ele>668.97</ele>
        <time>2022-06-11T08:01:38Z</time>
      </trkpt>
      <trkpt lat="43.85117" lon="6.17568">
        <ele>671.62</ele>
        <time>2022-06-11T08:01:42Z</time>
      </trkpt>
      <trkpt lat="43.85139" lon="6.17636">
        <ele>673.65</ele>
        <time>2022-06-11T08:01:45Z</time>
      </trkpt>
      <trkpt lat="43.85187" lon="6.17772">
        <ele>676.81</ele>
        <time>2022-06-11T08:01:51Z</time>
      </trkpt>
      <trkpt lat="43.85211" lon="6.17839">
        <ele>678.5</ele>
        <time>2022-06-11T08:01:54Z</time>
      </trkpt>
      <trkpt lat="43.85247" lon="6.17952">
        <ele>682.23</ele>
        <time>2022-06-11T08:01:59Z</time>
      </trkpt>
      <trkpt lat="43.85251" lon="6.17975">
        <ele>682.23</ele>
        <time>2022-06-11T08:02:00Z</time>
      </trkpt>
      <trkpt lat="43.85255" lon="6.18024">
        <ele>683.15</ele>
        <time>2022-06-11T08:02:02Z</time>
      </trkpt>
      <trkpt lat="43.85255" lon="6.18048">
        <ele>684.65</ele>
        <time>2022-06-11T08:02:03Z</time>
      </trkpt>
      <trkpt lat="43.85252" lon="6.18071">
        <ele>684.66</ele>
        <time>2022-06-11T08:02:04Z</time>
      </trkpt>
      <trkpt lat="43.85248" lon="6.18095">
        <ele>685.69</ele>
        <time>2022-06-11T08:02:05Z</time>
      </trkpt>
      <trkpt lat="43.85243" lon="6.18118">
        <ele>685.68</ele>
        <time>2022-06-11T08:02:06Z</time>
      </trkpt>
      <trkpt lat="43.8523" lon="6.18165">
        <ele>686.95</ele>
        <time>2022-06-11T08:02:08Z</time>
      </trkpt>
      <trkpt lat="43.85188" lon="6.18354">
        <ele>689.35</ele>
        <time>2022-06-11T08:02:16Z</time>
      </trkpt>
      <trkpt lat="43.85187" lon="6.18431">
        <ele>690.84</ele>
        <time>2022-06-11T08:02:19Z</time>
      </trkpt>
      <trkpt lat="43.8519" lon="6.18457">
        <ele>690.84</ele>
        <time>2022-06-11T08:02:20Z</time>
      </trkpt>
      <trkpt lat="43.8522" lon="6.18577">
        <ele>693.84</ele>
        <time>2022-06-11T08:02:25Z</time>
      </trkpt>
      <trkpt lat="43.85248" lon="6.1864">
        <ele>695.83</ele>
        <time>2022-06-11T08:02:28Z</time>
      </trkpt>
      <trkpt lat="43.85277" lon="6.18701">
        <ele>697.35</ele>
        <time>2022-06-11T08:02:31Z</time>
      </trkpt>
      <trkpt lat="43.85329" lon="6.18814">
        <ele>700.46</ele>
        <time>2022-06-11T08:02:37Z</time>
      </trkpt>
      <trkpt lat="43.85363" lon="6.18884">
        <ele>701.84</ele>
        <time>2022-06-11T08:02:41Z</time>
      </trkpt>
      <trkpt lat="43.85379" lon="6.18918">
        <ele>703.28</ele>
        <time>2022-06-11T08:02:43Z</time>
      </trkpt>
      <trkpt lat="43.8541" lon="6.18985">
        <ele>705.55</ele>
        <time>2022-06-11T08:02:47Z</time>
      </trkpt>
      <trkpt lat="43.85447" lon="6.19065">
        <ele>707.46</ele>
        <time>2022-06-11T08:02:52Z</time>
      </trkpt>
      <trkpt lat="43.85484" lon="6.19153">
        <ele>708.29</ele>
        <time>2022-06-11T08:03:00Z</time>
      </trkpt>
      <trkpt lat="43.85493" lon="6.19173">
        <ele>709.11</ele>
        <time>2022-06-11T08:03:04Z</time>
      </trkpt>
      <trkpt lat="43.85494" lon="6.19173">
        <ele>709.07</ele>
        <time>2022-06-11T08:03:13Z</time>
      </trkpt>
      <trkpt lat="43.85497" lon="6.1917">
        <ele>710.19</ele>
        <time>2022-06-11T08:03:23Z</time>
      </trkpt>
      <trkpt lat="43.85502" lon="6.19166">
        <ele>710.2</ele>
        <time>2022-06-11T08:03:24Z</time>
      </trkpt>
      <trkpt lat="43.85507" lon="6.1916">
        <ele>710.2</ele>
        <time>2022-06-11T08:03:25Z</time>
      </trkpt>
      <trkpt lat="43.85532" lon="6.19128">
        <ele>712.9</ele>
        <time>2022-06-11T08:03:29Z</time>
      </trkpt>
      <trkpt lat="43.85613" lon="6.19036">
        <ele>715.71</ele>
        <time>2022-06-11T08:03:41Z</time>
      </trkpt>
      <trkpt lat="43.85621" lon="6.19031">
        <ele>715.74</ele>
        <time>2022-06-11T08:03:42Z</time>
      </trkpt>
      <trkpt lat="43.85628" lon="6.19027">
        <ele>715.76</ele>
        <time>2022-06-11T08:03:43Z</time>
      </trkpt>
      <trkpt lat="43.85637" lon="6.19024">
        <ele>715.73</ele>
        <time>2022-06-11T08:03:44Z</time>
      </trkpt>
      <trkpt lat="43.85646" lon="6.19021">
        <ele>715.76</ele>
        <time>2022-06-11T08:03:45Z</time>
      </trkpt>
      <trkpt lat="43.85785" lon="6.18988">
        <ele>717.76</ele>
        <time>2022-06-11T08:03:59Z</time>
      </trkpt>
      <trkpt lat="43.85825" lon="6.18967">
        <ele>719.34</ele>
        <time>2022-06-11T08:04:03Z</time>
      </trkpt>
      <trkpt lat="43.85864" lon="6.18942">
        <ele>722.73</ele>
        <time>2022-06-11T08:04:07Z</time>
      </trkpt>
      <trkpt lat="43.85892" lon="6.18927">
        <ele>725.13</ele>
        <time>2022-06-11T08:04:10Z</time>
      </trkpt>
      <trkpt lat="43.8592" lon="6.18908">
        <ele>727.94</ele>
        <time>2022-06-11T08:04:13Z</time>
      </trkpt>
      <trkpt lat="43.85941" lon="6.18896">
        <ele>729.11</ele>
        <time>2022-06-11T08:04:15Z</time>
      </trkpt>
      <trkpt lat="43.85961" lon="6.18885">
        <ele>730.34</ele>
        <time>2022-06-11T08:04:17Z</time>
      </trkpt>
      <trkpt lat="43.8601" lon="6.18851">
        <ele>732.73</ele>
        <time>2022-06-11T08:04:22Z</time>
      </trkpt>
      <trkpt lat="43.86069" lon="6.18789">
        <ele>735.63</ele>
        <time>2022-06-11T08:04:29Z</time>
      </trkpt>
      <trkpt lat="43.86108" lon="6.18741">
        <ele>737.44</ele>
        <time>2022-06-11T08:04:34Z</time>
      </trkpt>
      <trkpt lat="43.86117" lon="6.18735">
        <ele>737.51</ele>
        <time>2022-06-11T08:04:35Z</time>
      </trkpt>
      <trkpt lat="43.86127" lon="6.18731">
        <ele>738.61</ele>
        <time>2022-06-11T08:04:36Z</time>
      </trkpt>
      <trkpt lat="43.86137" lon="6.18728">
        <ele>738.63</ele>
        <time>2022-06-11T08:04:37Z</time>
      </trkpt>
      <trkpt lat="43.86148" lon="6.18727">
        <ele>739.89</ele>
        <time>2022-06-11T08:04:38Z</time>
      </trkpt>
      <trkpt lat="43.86182" lon="6.1872">
        <ele>741.71</ele>
        <time>2022-06-11T08:04:41Z</time>
      </trkpt>
      <trkpt lat="43.86215" lon="6.18714">
        <ele>744.26</ele>
        <time>2022-06-11T08:04:44Z</time>
      </trkpt>
      <trkpt lat="43.86237" lon="6.18709">
        <ele>745.69</ele>
        <time>2022-06-11T08:04:46Z</time>
      </trkpt>
      <trkpt lat="43.8626" lon="6.18704">
        <ele>747.2</ele>
        <time>2022-06-11T08:04:48Z</time>
      </trkpt>
      <trkpt lat="43.86303" lon="6.18693">
        <ele>749.8</ele>
        <time>2022-06-11T08:04:52Z</time>
      </trkpt>
      <trkpt lat="43.86312" lon="6.18688">
        <ele>751.45</ele>
        <time>2022-06-11T08:04:53Z</time>
      </trkpt>
      <trkpt lat="43.86318" lon="6.18682">
        <ele>751.46</ele>
        <time>2022-06-11T08:04:54Z</time>
      </trkpt>
      <trkpt lat="43.86323" lon="6.18674">
        <ele>752.43</ele>
        <time>2022-06-11T08:04:55Z</time>
      </trkpt>
      <trkpt lat="43.86325" lon="6.18664">
        <ele>752.36</ele>
        <time>2022-06-11T08:04:56Z</time>
      </trkpt>
      <trkpt lat="43.86322" lon="6.18653">
        <ele>753.77</ele>
        <time>2022-06-11T08:04:57Z</time>
      </trkpt>
      <trkpt lat="43.86314" lon="6.18642">
        <ele>755.23</ele>
        <time>2022-06-11T08:04:58Z</time>
      </trkpt>
      <trkpt lat="43.86305" lon="6.18631">
        <ele>756.1</ele>
        <time>2022-06-11T08:04:59Z</time>
      </trkpt>
      <trkpt lat="43.86296" lon="6.18622">
        <ele>756.16</ele>
        <time>2022-06-11T08:05:00Z</time>
      </trkpt>
      <trkpt lat="43.86287" lon="6.18614">
        <ele>756.17</ele>
        <time>2022-06-11T08:05:01Z</time>
      </trkpt>
      <trkpt lat="43.86278" lon="6.18606">
        <ele>757.49</ele>
        <time>2022-06-11T08:05:02Z</time>
      </trkpt>
      <trkpt lat="43.86269" lon="6.18598">
        <ele>757.54</ele>
        <time>2022-06-11T08:05:03Z</time>
      </trkpt>
      <trkpt lat="43.86262" lon="6.18589">
        <ele>757.5</ele>
        <time>2022-06-11T08:05:04Z</time>
      </trkpt>
      <trkpt lat="43.86255" lon="6.18577">
        <ele>758.37</ele>
        <time>2022-06-11T08:05:05Z</time>
      </trkpt>
      <trkpt lat="43.86244" lon="6.18553">
        <ele>759.47</ele>
        <time>2022-06-11T08:05:07Z</time>
      </trkpt>
      <trkpt lat="43.86237" lon="6.18533">
        <ele>760.19</ele>
        <time>2022-06-11T08:05:09Z</time>
      </trkpt>
      <trkpt lat="43.86236" lon="6.18524">
        <ele>760.19</ele>
        <time>2022-06-11T08:05:10Z</time>
      </trkpt>
      <trkpt lat="43.86238" lon="6.18516">
        <ele>760.23</ele>
        <time>2022-06-11T08:05:11Z</time>
      </trkpt>
      <trkpt lat="43.86243" lon="6.18509">
        <ele>761.36</ele>
        <time>2022-06-11T08:05:12Z</time>
      </trkpt>
      <trkpt lat="43.8625" lon="6.18506">
        <ele>761.5</ele>
        <time>2022-06-11T08:05:13Z</time>
      </trkpt>
      <trkpt lat="43.86258" lon="6.18507">
        <ele>762.44</ele>
        <time>2022-06-11T08:05:14Z</time>
      </trkpt>
      <trkpt lat="43.86267" lon="6.18512">
        <ele>763.62</ele>
        <time>2022-06-11T08:05:15Z</time>
      </trkpt>
      <trkpt lat="43.86277" lon="6.18518">
        <ele>764.24</ele>
        <time>2022-06-11T08:05:16Z</time>
      </trkpt>
      <trkpt lat="43.86287" lon="6.18523">
        <ele>766.41</ele>
        <time>2022-06-11T08:05:17Z</time>
      </trkpt>
      <trkpt lat="43.86298" lon="6.18527">
        <ele>767.59</ele>
        <time>2022-06-11T08:05:18Z</time>
      </trkpt>
      <trkpt lat="43.8631" lon="6.1853">
        <ele>768.98</ele>
        <time>2022-06-11T08:05:19Z</time>
      </trkpt>
      <trkpt lat="43.86342" lon="6.18545">
        <ele>771.96</ele>
        <time>2022-06-11T08:05:22Z</time>
      </trkpt>
      <trkpt lat="43.86351" lon="6.18552">
        <ele>773.02</ele>
        <time>2022-06-11T08:05:23Z</time>
      </trkpt>
      <trkpt lat="43.86358" lon="6.18562">
        <ele>774.4</ele>
        <time>2022-06-11T08:05:24Z</time>
      </trkpt>
      <trkpt lat="43.86363" lon="6.18573">
        <ele>775.46</ele>
        <time>2022-06-11T08:05:25Z</time>
      </trkpt>
      <trkpt lat="43.86366" lon="6.18586">
        <ele>776.25</ele>
        <time>2022-06-11T08:05:26Z</time>
      </trkpt>
      <trkpt lat="43.86369" lon="6.186">
        <ele>777.3</ele>
        <time>2022-06-11T08:05:27Z</time>
      </trkpt>
      <trkpt lat="43.86373" lon="6.18614">
        <ele>778.18</ele>
        <time>2022-06-11T08:05:28Z</time>
      </trkpt>
      <trkpt lat="43.86379" lon="6.18627">
        <ele>778.19</ele>
        <time>2022-06-11T08:05:29Z</time>
      </trkpt>
      <trkpt lat="43.86386" lon="6.18639">
        <ele>779.17</ele>
        <time>2022-06-11T08:05:30Z</time>
      </trkpt>
      <trkpt lat="43.86394" lon="6.1865">
        <ele>779.19</ele>
        <time>2022-06-11T08:05:31Z</time>
      </trkpt>
      <trkpt lat="43.86403" lon="6.1866">
        <ele>780.27</ele>
        <time>2022-06-11T08:05:32Z</time>
      </trkpt>
      <trkpt lat="43.86413" lon="6.18668">
        <ele>780.31</ele>
        <time>2022-06-11T08:05:33Z</time>
      </trkpt>
      <trkpt lat="43.86423" lon="6.18675">
        <ele>781.34</ele>
        <time>2022-06-11T08:05:34Z</time>
      </trkpt>
      <trkpt lat="43.86455" lon="6.18699">
        <ele>783.87</ele>
        <time>2022-06-11T08:05:37Z</time>
      </trkpt>
      <trkpt lat="43.86476" lon="6.18715">
        <ele>785.28</ele>
        <time>2022-06-11T08:05:39Z</time>
      </trkpt>
      <trkpt lat="43.86509" lon="6.18739">
        <ele>787.89</ele>
        <time>2022-06-11T08:05:42Z</time>
      </trkpt>
      <trkpt lat="43.86565" lon="6.18773">
        <ele>791.02</ele>
        <time>2022-06-11T08:05:47Z</time>
      </trkpt>
      <trkpt lat="43.86599" lon="6.1879">
        <ele>793.04</ele>
        <time>2022-06-11T08:05:50Z</time>
      </trkpt>
      <trkpt lat="43.86659" lon="6.18817">
        <ele>796.14</ele>
        <time>2022-06-11T08:05:55Z</time>
      </trkpt>
      <trkpt lat="43.86694" lon="6.18842">
        <ele>798.42</ele>
        <time>2022-06-11T08:05:58Z</time>
      </trkpt>
      <trkpt lat="43.86728" lon="6.18876">
        <ele>801.65</ele>
        <time>2022-06-11T08:06:01Z</time>
      </trkpt>
      <trkpt lat="43.86739" lon="6.18887">
        <ele>801.6</ele>
        <time>2022-06-11T08:06:02Z</time>
      </trkpt>
      <trkpt lat="43.86801" lon="6.1895">
        <ele>805.39</ele>
        <time>2022-06-11T08:06:08Z</time>
      </trkpt>
      <trkpt lat="43.86811" lon="6.1896">
        <ele>805.47</ele>
        <time>2022-06-11T08:06:09Z</time>
      </trkpt>
      <trkpt lat="43.86861" lon="6.19002">
        <ele>807.79</ele>
        <time>2022-06-11T08:06:14Z</time>
      </trkpt>
      <trkpt lat="43.86872" lon="6.19006">
        <ele>808.82</ele>
        <time>2022-06-11T08:06:15Z</time>
      </trkpt>
      <trkpt lat="43.86883" lon="6.19009">
        <ele>810.23</ele>
        <time>2022-06-11T08:06:16Z</time>
      </trkpt>
      <trkpt lat="43.86894" lon="6.19011">
        <ele>810.18</ele>
        <time>2022-06-11T08:06:17Z</time>
      </trkpt>
      <trkpt lat="43.86913" lon="6.19016">
        <ele>811.4</ele>
        <time>2022-06-11T08:06:19Z</time>
      </trkpt>
      <trkpt lat="43.86922" lon="6.19021">
        <ele>812.73</ele>
        <time>2022-06-11T08:06:20Z</time>
      </trkpt>
      <trkpt lat="43.8693" lon="6.19027">
        <ele>812.77</ele>
        <time>2022-06-11T08:06:21Z</time>
      </trkpt>
      <trkpt lat="43.86939" lon="6.19035">
        <ele>812.74</ele>
        <time>2022-06-11T08:06:22Z</time>
      </trkpt>
      <trkpt lat="43.86949" lon="6.19044">
        <ele>814.14</ele>
        <time>2022-06-11T08:06:23Z</time>
      </trkpt>
      <trkpt lat="43.86959" lon="6.19051">
        <ele>814.94</ele>
        <time>2022-06-11T08:06:24Z</time>
      </trkpt>
      <trkpt lat="43.86969" lon="6.19059">
        <ele>815</ele>
        <time>2022-06-11T08:06:25Z</time>
      </trkpt>
      <trkpt lat="43.86999" lon="6.19082">
        <ele>816.6</ele>
        <time>2022-06-11T08:06:28Z</time>
      </trkpt>
      <trkpt lat="43.87017" lon="6.19099">
        <ele>817.77</ele>
        <time>2022-06-11T08:06:30Z</time>
      </trkpt>
      <trkpt lat="43.87048" lon="6.19142">
        <ele>820.89</ele>
        <time>2022-06-11T08:06:34Z</time>
      </trkpt>
      <trkpt lat="43.87055" lon="6.19153">
        <ele>820.86</ele>
        <time>2022-06-11T08:06:35Z</time>
      </trkpt>
      <trkpt lat="43.87077" lon="6.19188">
        <ele>822.74</ele>
        <time>2022-06-11T08:06:38Z</time>
      </trkpt>
      <trkpt lat="43.87116" lon="6.19237">
        <ele>826.43</ele>
        <time>2022-06-11T08:06:43Z</time>
      </trkpt>
      <trkpt lat="43.87123" lon="6.19247">
        <ele>826.44</ele>
        <time>2022-06-11T08:06:44Z</time>
      </trkpt>
      <trkpt lat="43.87129" lon="6.19258">
        <ele>827.71</ele>
        <time>2022-06-11T08:06:45Z</time>
      </trkpt>
      <trkpt lat="43.87135" lon="6.1927">
        <ele>827.67</ele>
        <time>2022-06-11T08:06:46Z</time>
      </trkpt>
      <trkpt lat="43.87139" lon="6.19283">
        <ele>829.03</ele>
        <time>2022-06-11T08:06:47Z</time>
      </trkpt>
      <trkpt lat="43.87143" lon="6.19298">
        <ele>829.02</ele>
        <time>2022-06-11T08:06:48Z</time>
      </trkpt>
      <trkpt lat="43.87146" lon="6.19313">
        <ele>830.89</ele>
        <time>2022-06-11T08:06:49Z</time>
      </trkpt>
      <trkpt lat="43.87151" lon="6.19328">
        <ele>830.78</ele>
        <time>2022-06-11T08:06:50Z</time>
      </trkpt>
      <trkpt lat="43.87156" lon="6.19342">
        <ele>832.29</ele>
        <time>2022-06-11T08:06:51Z</time>
      </trkpt>
      <trkpt lat="43.87162" lon="6.19356">
        <ele>832.34</ele>
        <time>2022-06-11T08:06:52Z</time>
      </trkpt>
      <trkpt lat="43.87181" lon="6.19396">
        <ele>834.84</ele>
        <time>2022-06-11T08:06:55Z</time>
      </trkpt>
      <trkpt lat="43.87211" lon="6.19444">
        <ele>837.63</ele>
        <time>2022-06-11T08:06:59Z</time>
      </trkpt>
      <trkpt lat="43.87236" lon="6.19477">
        <ele>840.66</ele>
        <time>2022-06-11T08:07:02Z</time>
      </trkpt>
      <trkpt lat="43.87244" lon="6.19488">
        <ele>840.66</ele>
        <time>2022-06-11T08:07:03Z</time>
      </trkpt>
      <trkpt lat="43.87266" lon="6.19522">
        <ele>843.54</ele>
        <time>2022-06-11T08:07:06Z</time>
      </trkpt>
      <trkpt lat="43.87272" lon="6.19534">
        <ele>843.66</ele>
        <time>2022-06-11T08:07:07Z</time>
      </trkpt>
      <trkpt lat="43.87275" lon="6.19546">
        <ele>843.57</ele>
        <time>2022-06-11T08:07:08Z</time>
      </trkpt>
      <trkpt lat="43.87277" lon="6.19559">
        <ele>844.68</ele>
        <time>2022-06-11T08:07:09Z</time>
      </trkpt>
      <trkpt lat="43.87277" lon="6.19573">
        <ele>845.73</ele>
        <time>2022-06-11T08:07:10Z</time>
      </trkpt>
      <trkpt lat="43.87275" lon="6.19587">
        <ele>845.63</ele>
        <time>2022-06-11T08:07:11Z</time>
      </trkpt>
      <trkpt lat="43.87274" lon="6.19602">
        <ele>847.03</ele>
        <time>2022-06-11T08:07:12Z</time>
      </trkpt>
      <trkpt lat="43.87271" lon="6.19616">
        <ele>847.05</ele>
        <time>2022-06-11T08:07:13Z</time>
      </trkpt>
      <trkpt lat="43.87266" lon="6.19662">
        <ele>850.08</ele>
        <time>2022-06-11T08:07:16Z</time>
      </trkpt>
      <trkpt lat="43.87265" lon="6.19677">
        <ele>850.09</ele>
        <time>2022-06-11T08:07:17Z</time>
      </trkpt>
      <trkpt lat="43.87267" lon="6.19738">
        <ele>852.71</ele>
        <time>2022-06-11T08:07:21Z</time>
      </trkpt>
      <trkpt lat="43.8727" lon="6.19767">
        <ele>855.97</ele>
        <time>2022-06-11T08:07:23Z</time>
      </trkpt>
      <trkpt lat="43.87271" lon="6.19809">
        <ele>859.06</ele>
        <time>2022-06-11T08:07:26Z</time>
      </trkpt>
      <trkpt lat="43.87269" lon="6.19823">
        <ele>859.07</ele>
        <time>2022-06-11T08:07:27Z</time>
      </trkpt>
      <trkpt lat="43.87264" lon="6.19835">
        <ele>860.19</ele>
        <time>2022-06-11T08:07:28Z</time>
      </trkpt>
      <trkpt lat="43.87257" lon="6.19846">
        <ele>860.18</ele>
        <time>2022-06-11T08:07:29Z</time>
      </trkpt>
      <trkpt lat="43.87249" lon="6.19857">
        <ele>861.37</ele>
        <time>2022-06-11T08:07:30Z</time>
      </trkpt>
      <trkpt lat="43.8724" lon="6.19867">
        <ele>861.46</ele>
        <time>2022-06-11T08:07:31Z</time>
      </trkpt>
      <trkpt lat="43.87222" lon="6.1989">
        <ele>861.55</ele>
        <time>2022-06-11T08:07:33Z</time>
      </trkpt>
      <trkpt lat="43.87206" lon="6.19915">
        <ele>862.56</ele>
        <time>2022-06-11T08:07:35Z</time>
      </trkpt>
      <trkpt lat="43.872" lon="6.19928">
        <ele>862.67</ele>
        <time>2022-06-11T08:07:36Z</time>
      </trkpt>
      <trkpt lat="43.87195" lon="6.19942">
        <ele>863.85</ele>
        <time>2022-06-11T08:07:37Z</time>
      </trkpt>
      <trkpt lat="43.87192" lon="6.19956">
        <ele>863.84</ele>
        <time>2022-06-11T08:07:38Z</time>
      </trkpt>
      <trkpt lat="43.87191" lon="6.1997">
        <ele>864.89</ele>
        <time>2022-06-11T08:07:39Z</time>
      </trkpt>
      <trkpt lat="43.87193" lon="6.19983">
        <ele>864.86</ele>
        <time>2022-06-11T08:07:40Z</time>
      </trkpt>
      <trkpt lat="43.87198" lon="6.19994">
        <ele>866.53</ele>
        <time>2022-06-11T08:07:41Z</time>
      </trkpt>
      <trkpt lat="43.87204" lon="6.20005">
        <ele>866.5</ele>
        <time>2022-06-11T08:07:42Z</time>
      </trkpt>
      <trkpt lat="43.87211" lon="6.20015">
        <ele>867.45</ele>
        <time>2022-06-11T08:07:43Z</time>
      </trkpt>
      <trkpt lat="43.87234" lon="6.20045">
        <ele>868.77</ele>
        <time>2022-06-11T08:07:46Z</time>
      </trkpt>
      <trkpt lat="43.87287" lon="6.20124">
        <ele>870.42</ele>
        <time>2022-06-11T08:07:53Z</time>
      </trkpt>
      <trkpt lat="43.87292" lon="6.20137">
        <ele>870.48</ele>
        <time>2022-06-11T08:07:54Z</time>
      </trkpt>
      <trkpt lat="43.87309" lon="6.20182">
        <ele>872.3</ele>
        <time>2022-06-11T08:07:58Z</time>
      </trkpt>
      <trkpt lat="43.87316" lon="6.20188">
        <ele>872.34</ele>
        <time>2022-06-11T08:07:59Z</time>
      </trkpt>
      <trkpt lat="43.87323" lon="6.2019">
        <ele>872.32</ele>
        <time>2022-06-11T08:08:00Z</time>
      </trkpt>
      <trkpt lat="43.87331" lon="6.20186">
        <ele>873.85</ele>
        <time>2022-06-11T08:08:01Z</time>
      </trkpt>
      <trkpt lat="43.87336" lon="6.20177">
        <ele>874.74</ele>
        <time>2022-06-11T08:08:02Z</time>
      </trkpt>
      <trkpt lat="43.87338" lon="6.20164">
        <ele>875.8</ele>
        <time>2022-06-11T08:08:03Z</time>
      </trkpt>
      <trkpt lat="43.8734" lon="6.20151">
        <ele>876.79</ele>
        <time>2022-06-11T08:08:04Z</time>
      </trkpt>
      <trkpt lat="43.87342" lon="6.20138">
        <ele>877.83</ele>
        <time>2022-06-11T08:08:05Z</time>
      </trkpt>
      <trkpt lat="43.87346" lon="6.20126">
        <ele>878.75</ele>
        <time>2022-06-11T08:08:06Z</time>
      </trkpt>
      <trkpt lat="43.87352" lon="6.20114">
        <ele>878.85</ele>
        <time>2022-06-11T08:08:07Z</time>
      </trkpt>
      <trkpt lat="43.87358" lon="6.20104">
        <ele>880.28</ele>
        <time>2022-06-11T08:08:08Z</time>
      </trkpt>
      <trkpt lat="43.87366" lon="6.20095">
        <ele>880.36</ele>
        <time>2022-06-11T08:08:09Z</time>
      </trkpt>
      <trkpt lat="43.87388" lon="6.20067">
        <ele>884.08</ele>
        <time>2022-06-11T08:08:12Z</time>
      </trkpt>
      <trkpt lat="43.87395" lon="6.20059">
        <ele>884.82</ele>
        <time>2022-06-11T08:08:13Z</time>
      </trkpt>
      <trkpt lat="43.87403" lon="6.20053">
        <ele>884.84</ele>
        <time>2022-06-11T08:08:14Z</time>
      </trkpt>
      <trkpt lat="43.87411" lon="6.20051">
        <ele>885.85</ele>
        <time>2022-06-11T08:08:15Z</time>
      </trkpt>
      <trkpt lat="43.87417" lon="6.20053">
        <ele>885.78</ele>
        <time>2022-06-11T08:08:16Z</time>
      </trkpt>
      <trkpt lat="43.87422" lon="6.2006">
        <ele>887.17</ele>
        <time>2022-06-11T08:08:17Z</time>
      </trkpt>
      <trkpt lat="43.87427" lon="6.20069">
        <ele>887.18</ele>
        <time>2022-06-11T08:08:18Z</time>
      </trkpt>
      <trkpt lat="43.87431" lon="6.20079">
        <ele>888.52</ele>
        <time>2022-06-11T08:08:19Z</time>
      </trkpt>
      <trkpt lat="43.87445" lon="6.20113">
        <ele>890.27</ele>
        <time>2022-06-11T08:08:22Z</time>
      </trkpt>
      <trkpt lat="43.87453" lon="6.20137">
        <ele>893.63</ele>
        <time>2022-06-11T08:08:24Z</time>
      </trkpt>
      <trkpt lat="43.87457" lon="6.20149">
        <ele>893.72</ele>
        <time>2022-06-11T08:08:25Z</time>
      </trkpt>
      <trkpt lat="43.87467" lon="6.20184">
        <ele>897.31</ele>
        <time>2022-06-11T08:08:28Z</time>
      </trkpt>
      <trkpt lat="43.87468" lon="6.20196">
        <ele>898.3</ele>
        <time>2022-06-11T08:08:29Z</time>
      </trkpt>
      <trkpt lat="43.87467" lon="6.20207">
        <ele>898.46</ele>
        <time>2022-06-11T08:08:30Z</time>
      </trkpt>
      <trkpt lat="43.87465" lon="6.20217">
        <ele>899.65</ele>
        <time>2022-06-11T08:08:31Z</time>
      </trkpt>
      <trkpt lat="43.87457" lon="6.20247">
        <ele>901.72</ele>
        <time>2022-06-11T08:08:34Z</time>
      </trkpt>
      <trkpt lat="43.87451" lon="6.20267">
        <ele>902.97</ele>
        <time>2022-06-11T08:08:36Z</time>
      </trkpt>
      <trkpt lat="43.87441" lon="6.20309">
        <ele>905.61</ele>
        <time>2022-06-11T08:08:40Z</time>
      </trkpt>
      <trkpt lat="43.87434" lon="6.20354">
        <ele>908.1</ele>
        <time>2022-06-11T08:08:44Z</time>
      </trkpt>
      <trkpt lat="43.87434" lon="6.20367">
        <ele>909.29</ele>
        <time>2022-06-11T08:08:45Z</time>
      </trkpt>
      <trkpt lat="43.87435" lon="6.20379">
        <ele>909.2</ele>
        <time>2022-06-11T08:08:46Z</time>
      </trkpt>
      <trkpt lat="43.87437" lon="6.2039">
        <ele>910.25</ele>
        <time>2022-06-11T08:08:47Z</time>
      </trkpt>
      <trkpt lat="43.87439" lon="6.20402">
        <ele>911.25</ele>
        <time>2022-06-11T08:08:48Z</time>
      </trkpt>
      <trkpt lat="43.87442" lon="6.20413">
        <ele>911.39</ele>
        <time>2022-06-11T08:08:49Z</time>
      </trkpt>
      <trkpt lat="43.87448" lon="6.20436">
        <ele>913.02</ele>
        <time>2022-06-11T08:08:51Z</time>
      </trkpt>
      <trkpt lat="43.87461" lon="6.20469">
        <ele>915.03</ele>
        <time>2022-06-11T08:08:54Z</time>
      </trkpt>
      <trkpt lat="43.87466" lon="6.20479">
        <ele>915.09</ele>
        <time>2022-06-11T08:08:55Z</time>
      </trkpt>
      <trkpt lat="43.87473" lon="6.20489">
        <ele>916.29</ele>
        <time>2022-06-11T08:08:56Z</time>
      </trkpt>
      <trkpt lat="43.87479" lon="6.20497">
        <ele>916.38</ele>
        <time>2022-06-11T08:08:57Z</time>
      </trkpt>
      <trkpt lat="43.87499" lon="6.20521">
        <ele>919.2</ele>
        <time>2022-06-11T08:09:00Z</time>
      </trkpt>
      <trkpt lat="43.87513" lon="6.20538">
        <ele>921.91</ele>
        <time>2022-06-11T08:09:02Z</time>
      </trkpt>
      <trkpt lat="43.87528" lon="6.20561">
        <ele>925.46</ele>
        <time>2022-06-11T08:09:04Z</time>
      </trkpt>
      <trkpt lat="43.87554" lon="6.20594">
        <ele>929.11</ele>
        <time>2022-06-11T08:09:07Z</time>
      </trkpt>
      <trkpt lat="43.87579" lon="6.20626">
        <ele>932.78</ele>
        <time>2022-06-11T08:09:10Z</time>
      </trkpt>
      <trkpt lat="43.87586" lon="6.20638">
        <ele>934.12</ele>
        <time>2022-06-11T08:09:11Z</time>
      </trkpt>
      <trkpt lat="43.87592" lon="6.20652">
        <ele>935.15</ele>
        <time>2022-06-11T08:09:12Z</time>
      </trkpt>
      <trkpt lat="43.87597" lon="6.20665">
        <ele>936.5</ele>
        <time>2022-06-11T08:09:13Z</time>
      </trkpt>
      <trkpt lat="43.87603" lon="6.2069">
        <ele>937.84</ele>
        <time>2022-06-11T08:09:15Z</time>
      </trkpt>
      <trkpt lat="43.87604" lon="6.20702">
        <ele>939.01</ele>
        <time>2022-06-11T08:09:16Z</time>
      </trkpt>
      <trkpt lat="43.87602" lon="6.20713">
        <ele>938.98</ele>
        <time>2022-06-11T08:09:17Z</time>
      </trkpt>
      <trkpt lat="43.87597" lon="6.20721">
        <ele>939.87</ele>
        <time>2022-06-11T08:09:18Z</time>
      </trkpt>
      <trkpt lat="43.87591" lon="6.20727">
        <ele>939.94</ele>
        <time>2022-06-11T08:09:19Z</time>
      </trkpt>
      <trkpt lat="43.87583" lon="6.2073">
        <ele>941.59</ele>
        <time>2022-06-11T08:09:20Z</time>
      </trkpt>
      <trkpt lat="43.87574" lon="6.2073">
        <ele>942.66</ele>
        <time>2022-06-11T08:09:21Z</time>
      </trkpt>
      <trkpt lat="43.87565" lon="6.20729">
        <ele>943.61</ele>
        <time>2022-06-11T08:09:22Z</time>
      </trkpt>
      <trkpt lat="43.87536" lon="6.2073">
        <ele>947.3</ele>
        <time>2022-06-11T08:09:25Z</time>
      </trkpt>
      <trkpt lat="43.87514" lon="6.20734">
        <ele>950.76</ele>
        <time>2022-06-11T08:09:27Z</time>
      </trkpt>
      <trkpt lat="43.87492" lon="6.2074">
        <ele>952.12</ele>
        <time>2022-06-11T08:09:29Z</time>
      </trkpt>
      <trkpt lat="43.87471" lon="6.20747">
        <ele>953.7</ele>
        <time>2022-06-11T08:09:31Z</time>
      </trkpt>
      <trkpt lat="43.8745" lon="6.20756">
        <ele>955.05</ele>
        <time>2022-06-11T08:09:33Z</time>
      </trkpt>
      <trkpt lat="43.8743" lon="6.20768">
        <ele>955.79</ele>
        <time>2022-06-11T08:09:35Z</time>
      </trkpt>
      <trkpt lat="43.87421" lon="6.20776">
        <ele>956.94</ele>
        <time>2022-06-11T08:09:36Z</time>
      </trkpt>
      <trkpt lat="43.87394" lon="6.20804">
        <ele>958.16</ele>
        <time>2022-06-11T08:09:39Z</time>
      </trkpt>
      <trkpt lat="43.87387" lon="6.20814">
        <ele>959.63</ele>
        <time>2022-06-11T08:09:40Z</time>
      </trkpt>
      <trkpt lat="43.87365" lon="6.20845">
        <ele>961.65</ele>
        <time>2022-06-11T08:09:43Z</time>
      </trkpt>
      <trkpt lat="43.87353" lon="6.20865">
        <ele>964.04</ele>
        <time>2022-06-11T08:09:45Z</time>
      </trkpt>
      <trkpt lat="43.8735" lon="6.20877">
        <ele>964.93</ele>
        <time>2022-06-11T08:09:46Z</time>
      </trkpt>
      <trkpt lat="43.87348" lon="6.20891">
        <ele>966.25</ele>
        <time>2022-06-11T08:09:47Z</time>
      </trkpt>
      <trkpt lat="43.87348" lon="6.20904">
        <ele>967.13</ele>
        <time>2022-06-11T08:09:48Z</time>
      </trkpt>
      <trkpt lat="43.87349" lon="6.20918">
        <ele>968.26</ele>
        <time>2022-06-11T08:09:49Z</time>
      </trkpt>
      <trkpt lat="43.87351" lon="6.20931">
        <ele>969.53</ele>
        <time>2022-06-11T08:09:50Z</time>
      </trkpt>
      <trkpt lat="43.87354" lon="6.20944">
        <ele>971.27</ele>
        <time>2022-06-11T08:09:51Z</time>
      </trkpt>
      <trkpt lat="43.87366" lon="6.20982">
        <ele>975.02</ele>
        <time>2022-06-11T08:09:54Z</time>
      </trkpt>
      <trkpt lat="43.87368" lon="6.20995">
        <ele>976.23</ele>
        <time>2022-06-11T08:09:55Z</time>
      </trkpt>
      <trkpt lat="43.8737" lon="6.21008">
        <ele>976.15</ele>
        <time>2022-06-11T08:09:56Z</time>
      </trkpt>
      <trkpt lat="43.87374" lon="6.21034">
        <ele>979.8</ele>
        <time>2022-06-11T08:09:58Z</time>
      </trkpt>
      <trkpt lat="43.87378" lon="6.21059">
        <ele>980.78</ele>
        <time>2022-06-11T08:10:00Z</time>
      </trkpt>
      <trkpt lat="43.87383" lon="6.21097">
        <ele>984.9</ele>
        <time>2022-06-11T08:10:03Z</time>
      </trkpt>
      <trkpt lat="43.87388" lon="6.21123">
        <ele>986.45</ele>
        <time>2022-06-11T08:10:05Z</time>
      </trkpt>
      <trkpt lat="43.87398" lon="6.2116">
        <ele>990.69</ele>
        <time>2022-06-11T08:10:08Z</time>
      </trkpt>
      <trkpt lat="43.87401" lon="6.21171">
        <ele>990.36</ele>
        <time>2022-06-11T08:10:09Z</time>
      </trkpt>
      <trkpt lat="43.87407" lon="6.21196">
        <ele>993</ele>
        <time>2022-06-11T08:10:11Z</time>
      </trkpt>
      <trkpt lat="43.87412" lon="6.2122">
        <ele>996.02</ele>
        <time>2022-06-11T08:10:13Z</time>
      </trkpt>
      <trkpt lat="43.87415" lon="6.21232">
        <ele>995.93</ele>
        <time>2022-06-11T08:10:14Z</time>
      </trkpt>
      <trkpt lat="43.87421" lon="6.21255">
        <ele>999.1</ele>
        <time>2022-06-11T08:10:16Z</time>
      </trkpt>
      <trkpt lat="43.87432" lon="6.21289">
        <ele>1002.23</ele>
        <time>2022-06-11T08:10:19Z</time>
      </trkpt>
      <trkpt lat="43.87443" lon="6.21325">
        <ele>1005.93</ele>
        <time>2022-06-11T08:10:22Z</time>
      </trkpt>
      <trkpt lat="43.87455" lon="6.21362">
        <ele>1008.94</ele>
        <time>2022-06-11T08:10:25Z</time>
      </trkpt>
      <trkpt lat="43.87466" lon="6.21398">
        <ele>1012.94</ele>
        <time>2022-06-11T08:10:28Z</time>
      </trkpt>
      <trkpt lat="43.87476" lon="6.21435">
        <ele>1016.49</ele>
        <time>2022-06-11T08:10:31Z</time>
      </trkpt>
      <trkpt lat="43.87482" lon="6.21461">
        <ele>1019.82</ele>
        <time>2022-06-11T08:10:33Z</time>
      </trkpt>
      <trkpt lat="43.87492" lon="6.21501">
        <ele>1023.71</ele>
        <time>2022-06-11T08:10:36Z</time>
      </trkpt>
      <trkpt lat="43.87499" lon="6.21527">
        <ele>1026.86</ele>
        <time>2022-06-11T08:10:38Z</time>
      </trkpt>
      <trkpt lat="43.87502" lon="6.21539">
        <ele>1028.35</ele>
        <time>2022-06-11T08:10:39Z</time>
      </trkpt>
      <trkpt lat="43.87502" lon="6.21552">
        <ele>1029.74</ele>
        <time>2022-06-11T08:10:40Z</time>
      </trkpt>
      <trkpt lat="43.875" lon="6.21564">
        <ele>1031.98</ele>
        <time>2022-06-11T08:10:41Z</time>
      </trkpt>
      <trkpt lat="43.87496" lon="6.21574">
        <ele>1031.93</ele>
        <time>2022-06-11T08:10:42Z</time>
      </trkpt>
      <trkpt lat="43.87491" lon="6.21584">
        <ele>1033.91</ele>
        <time>2022-06-11T08:10:43Z</time>
      </trkpt>
      <trkpt lat="43.87488" lon="6.21596">
        <ele>1034.73</ele>
        <time>2022-06-11T08:10:44Z</time>
      </trkpt>
      <trkpt lat="43.87488" lon="6.21608">
        <ele>1034.73</ele>
        <time>2022-06-11T08:10:45Z</time>
      </trkpt>
      <trkpt lat="43.87491" lon="6.2162">
        <ele>1035.7</ele>
        <time>2022-06-11T08:10:46Z</time>
      </trkpt>
      <trkpt lat="43.87497" lon="6.21632">
        <ele>1036</ele>
        <time>2022-06-11T08:10:47Z</time>
      </trkpt>
      <trkpt lat="43.87508" lon="6.21657">
        <ele>1037.2</ele>
        <time>2022-06-11T08:10:49Z</time>
      </trkpt>
      <trkpt lat="43.87551" lon="6.21748">
        <ele>1041.37</ele>
        <time>2022-06-11T08:10:56Z</time>
      </trkpt>
      <trkpt lat="43.87557" lon="6.21761">
        <ele>1041.44</ele>
        <time>2022-06-11T08:10:57Z</time>
      </trkpt>
      <trkpt lat="43.87586" lon="6.21825">
        <ele>1044.5</ele>
        <time>2022-06-11T08:11:02Z</time>
      </trkpt>
      <trkpt lat="43.87593" lon="6.21838">
        <ele>1044.56</ele>
        <time>2022-06-11T08:11:03Z</time>
      </trkpt>
      <trkpt lat="43.87606" lon="6.21863">
        <ele>1045.89</ele>
        <time>2022-06-11T08:11:05Z</time>
      </trkpt>
      <trkpt lat="43.87664" lon="6.21987">
        <ele>1046.9</ele>
        <time>2022-06-11T08:11:15Z</time>
      </trkpt>
      <trkpt lat="43.87667" lon="6.22001">
        <ele>1047.85</ele>
        <time>2022-06-11T08:11:16Z</time>
      </trkpt>
      <trkpt lat="43.87669" lon="6.22015">
        <ele>1047.6</ele>
        <time>2022-06-11T08:11:17Z</time>
      </trkpt>
      <trkpt lat="43.8767" lon="6.2203">
        <ele>1047.62</ele>
        <time>2022-06-11T08:11:18Z</time>
      </trkpt>
      <trkpt lat="43.8767" lon="6.22045">
        <ele>1047.62</ele>
        <time>2022-06-11T08:11:19Z</time>
      </trkpt>
      <trkpt lat="43.87669" lon="6.2206">
        <ele>1047.65</ele>
        <time>2022-06-11T08:11:20Z</time>
      </trkpt>
      <trkpt lat="43.87667" lon="6.22075">
        <ele>1048.52</ele>
        <time>2022-06-11T08:11:21Z</time>
      </trkpt>
      <trkpt lat="43.87664" lon="6.22089">
        <ele>1048.53</ele>
        <time>2022-06-11T08:11:22Z</time>
      </trkpt>
      <trkpt lat="43.8766" lon="6.22103">
        <ele>1048.54</ele>
        <time>2022-06-11T08:11:23Z</time>
      </trkpt>
      <trkpt lat="43.87656" lon="6.22117">
        <ele>1048.57</ele>
        <time>2022-06-11T08:11:24Z</time>
      </trkpt>
      <trkpt lat="43.87627" lon="6.22247">
        <ele>1051.71</ele>
        <time>2022-06-11T08:11:34Z</time>
      </trkpt>
      <trkpt lat="43.87616" lon="6.22409">
        <ele>1052.69</ele>
        <time>2022-06-11T08:11:45Z</time>
      </trkpt>
      <trkpt lat="43.87611" lon="6.22456">
        <ele>1050.38</ele>
        <time>2022-06-11T08:11:48Z</time>
      </trkpt>
      <trkpt lat="43.87607" lon="6.225">
        <ele>1048.39</ele>
        <time>2022-06-11T08:11:51Z</time>
      </trkpt>
      <trkpt lat="43.87605" lon="6.22527">
        <ele>1046.87</ele>
        <time>2022-06-11T08:11:53Z</time>
      </trkpt>
      <trkpt lat="43.87605" lon="6.22604">
        <ele>1044.63</ele>
        <time>2022-06-11T08:11:58Z</time>
      </trkpt>
      <trkpt lat="43.87615" lon="6.22665">
        <ele>1043.21</ele>
        <time>2022-06-11T08:12:02Z</time>
      </trkpt>
      <trkpt lat="43.87619" lon="6.22678">
        <ele>1041.68</ele>
        <time>2022-06-11T08:12:03Z</time>
      </trkpt>
      <trkpt lat="43.87624" lon="6.22691">
        <ele>1041.6</ele>
        <time>2022-06-11T08:12:04Z</time>
      </trkpt>
      <trkpt lat="43.87668" lon="6.22813">
        <ele>1039.59</ele>
        <time>2022-06-11T08:12:13Z</time>
      </trkpt>
      <trkpt lat="43.87669" lon="6.22827">
        <ele>1039.64</ele>
        <time>2022-06-11T08:12:14Z</time>
      </trkpt>
      <trkpt lat="43.87668" lon="6.22841">
        <ele>1039.58</ele>
        <time>2022-06-11T08:12:15Z</time>
      </trkpt>
      <trkpt lat="43.87666" lon="6.22856">
        <ele>1039.6</ele>
        <time>2022-06-11T08:12:16Z</time>
      </trkpt>
      <trkpt lat="43.87662" lon="6.2287">
        <ele>1039.59</ele>
        <time>2022-06-11T08:12:17Z</time>
      </trkpt>
      <trkpt lat="43.87644" lon="6.22927">
        <ele>1039.64</ele>
        <time>2022-06-11T08:12:21Z</time>
      </trkpt>
      <trkpt lat="43.87638" lon="6.22939">
        <ele>1039.66</ele>
        <time>2022-06-11T08:12:22Z</time>
      </trkpt>
      <trkpt lat="43.87631" lon="6.22952">
        <ele>1039.67</ele>
        <time>2022-06-11T08:12:23Z</time>
      </trkpt>
      <trkpt lat="43.87529" lon="6.23081">
        <ele>1039.91</ele>
        <time>2022-06-11T08:12:35Z</time>
      </trkpt>
      <trkpt lat="43.87421" lon="6.23182">
        <ele>1040.05</ele>
        <time>2022-06-11T08:12:47Z</time>
      </trkpt>
      <trkpt lat="43.87413" lon="6.23193">
        <ele>1040.06</ele>
        <time>2022-06-11T08:12:48Z</time>
      </trkpt>
      <trkpt lat="43.87391" lon="6.23229">
        <ele>1038.85</ele>
        <time>2022-06-11T08:12:51Z</time>
      </trkpt>
      <trkpt lat="43.87383" lon="6.23239">
        <ele>1038.01</ele>
        <time>2022-06-11T08:12:52Z</time>
      </trkpt>
      <trkpt lat="43.87374" lon="6.23247">
        <ele>1037.06</ele>
        <time>2022-06-11T08:12:53Z</time>
      </trkpt>
      <trkpt lat="43.87364" lon="6.23253">
        <ele>1036.96</ele>
        <time>2022-06-11T08:12:54Z</time>
      </trkpt>
      <trkpt lat="43.87355" lon="6.23258">
        <ele>1036.97</ele>
        <time>2022-06-11T08:12:55Z</time>
      </trkpt>
      <trkpt lat="43.87274" lon="6.23303">
        <ele>1033.48</ele>
        <time>2022-06-11T08:13:03Z</time>
      </trkpt>
      <trkpt lat="43.87242" lon="6.23323">
        <ele>1030.41</ele>
        <time>2022-06-11T08:13:06Z</time>
      </trkpt>
      <trkpt lat="43.8721" lon="6.23342">
        <ele>1027.29</ele>
        <time>2022-06-11T08:13:09Z</time>
      </trkpt>
      <trkpt lat="43.87178" lon="6.23358">
        <ele>1023.62</ele>
        <time>2022-06-11T08:13:12Z</time>
      </trkpt>
      <trkpt lat="43.87146" lon="6.23373">
        <ele>1019.78</ele>
        <time>2022-06-11T08:13:15Z</time>
      </trkpt>
      <trkpt lat="43.87112" lon="6.23386">
        <ele>1015.89</ele>
        <time>2022-06-11T08:13:18Z</time>
      </trkpt>
      <trkpt lat="43.87078" lon="6.23389">
        <ele>1012.31</ele>
        <time>2022-06-11T08:13:21Z</time>
      </trkpt>
      <trkpt lat="43.87043" lon="6.23386">
        <ele>1008.09</ele>
        <time>2022-06-11T08:13:24Z</time>
      </trkpt>
      <trkpt lat="43.87023" lon="6.23388">
        <ele>1004.24</ele>
        <time>2022-06-11T08:13:26Z</time>
      </trkpt>
      <trkpt lat="43.87017" lon="6.23393">
        <ele>1002.46</ele>
        <time>2022-06-11T08:13:27Z</time>
      </trkpt>
      <trkpt lat="43.87014" lon="6.23401">
        <ele>1000.95</ele>
        <time>2022-06-11T08:13:28Z</time>
      </trkpt>
      <trkpt lat="43.87016" lon="6.23409">
        <ele>1001.35</ele>
        <time>2022-06-11T08:13:29Z</time>
      </trkpt>
      <trkpt lat="43.87022" lon="6.23416">
        <ele>1000.32</ele>
        <time>2022-06-11T08:13:30Z</time>
      </trkpt>
      <trkpt lat="43.8703" lon="6.23422">
        <ele>1000.33</ele>
        <time>2022-06-11T08:13:31Z</time>
      </trkpt>
      <trkpt lat="43.87039" lon="6.23428">
        <ele>1000.33</ele>
        <time>2022-06-11T08:13:32Z</time>
      </trkpt>
      <trkpt lat="43.87048" lon="6.23433">
        <ele>1000.24</ele>
        <time>2022-06-11T08:13:33Z</time>
      </trkpt>
      <trkpt lat="43.87168" lon="6.23488">
        <ele>1002.16</ele>
        <time>2022-06-11T08:13:45Z</time>
      </trkpt>
      <trkpt lat="43.87179" lon="6.23491">
        <ele>1002.17</ele>
        <time>2022-06-11T08:13:46Z</time>
      </trkpt>
      <trkpt lat="43.87228" lon="6.23499">
        <ele>999.86</ele>
        <time>2022-06-11T08:13:52Z</time>
      </trkpt>
      <trkpt lat="43.87233" lon="6.23503">
        <ele>999.83</ele>
        <time>2022-06-11T08:13:53Z</time>
      </trkpt>
      <trkpt lat="43.87238" lon="6.23509">
        <ele>999.97</ele>
        <time>2022-06-11T08:13:54Z</time>
      </trkpt>
      <trkpt lat="43.87241" lon="6.23517">
        <ele>999.98</ele>
        <time>2022-06-11T08:13:55Z</time>
      </trkpt>
      <trkpt lat="43.87243" lon="6.23526">
        <ele>999.98</ele>
        <time>2022-06-11T08:13:56Z</time>
      </trkpt>
      <trkpt lat="43.87244" lon="6.23536">
        <ele>999.97</ele>
        <time>2022-06-11T08:13:57Z</time>
      </trkpt>
      <trkpt lat="43.87245" lon="6.23547">
        <ele>999.99</ele>
        <time>2022-06-11T08:13:58Z</time>
      </trkpt>
      <trkpt lat="43.87245" lon="6.23559">
        <ele>1000</ele>
        <time>2022-06-11T08:13:59Z</time>
      </trkpt>
      <trkpt lat="43.87244" lon="6.2357">
        <ele>1000</ele>
        <time>2022-06-11T08:14:00Z</time>
      </trkpt>
      <trkpt lat="43.87245" lon="6.23591">
        <ele>998.51</ele>
        <time>2022-06-11T08:14:02Z</time>
      </trkpt>
      <trkpt lat="43.87246" lon="6.236">
        <ele>997.54</ele>
        <time>2022-06-11T08:14:03Z</time>
      </trkpt>
      <trkpt lat="43.87248" lon="6.2361">
        <ele>997.59</ele>
        <time>2022-06-11T08:14:04Z</time>
      </trkpt>
      <trkpt lat="43.87252" lon="6.2362">
        <ele>997.58</ele>
        <time>2022-06-11T08:14:05Z</time>
      </trkpt>
      <trkpt lat="43.87257" lon="6.2363">
        <ele>996.66</ele>
        <time>2022-06-11T08:14:06Z</time>
      </trkpt>
      <trkpt lat="43.87262" lon="6.23639">
        <ele>996.68</ele>
        <time>2022-06-11T08:14:07Z</time>
      </trkpt>
      <trkpt lat="43.87268" lon="6.23647">
        <ele>996.72</ele>
        <time>2022-06-11T08:14:08Z</time>
      </trkpt>
      <trkpt lat="43.87288" lon="6.23678">
        <ele>996.8</ele>
        <time>2022-06-11T08:14:12Z</time>
      </trkpt>
      <trkpt lat="43.87289" lon="6.23687">
        <ele>999.82</ele>
        <time>2022-06-11T08:14:13Z</time>
      </trkpt>
      <trkpt lat="43.87289" lon="6.23696">
        <ele>999.79</ele>
        <time>2022-06-11T08:14:14Z</time>
      </trkpt>
      <trkpt lat="43.87286" lon="6.23705">
        <ele>999.85</ele>
        <time>2022-06-11T08:14:15Z</time>
      </trkpt>
      <trkpt lat="43.8728" lon="6.23715">
        <ele>1001.72</ele>
        <time>2022-06-11T08:14:16Z</time>
      </trkpt>
      <trkpt lat="43.87274" lon="6.23726">
        <ele>1001.69</ele>
        <time>2022-06-11T08:14:17Z</time>
      </trkpt>
      <trkpt lat="43.87267" lon="6.23738">
        <ele>1001.74</ele>
        <time>2022-06-11T08:14:18Z</time>
      </trkpt>
      <trkpt lat="43.87223" lon="6.23856">
        <ele>1001.73</ele>
        <time>2022-06-11T08:14:26Z</time>
      </trkpt>
      <trkpt lat="43.87213" lon="6.23924">
        <ele>1002.62</ele>
        <time>2022-06-11T08:14:31Z</time>
      </trkpt>
      <trkpt lat="43.87214" lon="6.23937">
        <ele>1002.64</ele>
        <time>2022-06-11T08:14:32Z</time>
      </trkpt>
      <trkpt lat="43.87218" lon="6.23949">
        <ele>1002.64</ele>
        <time>2022-06-11T08:14:33Z</time>
      </trkpt>
      <trkpt lat="43.87231" lon="6.2398">
        <ele>999.01</ele>
        <time>2022-06-11T08:14:36Z</time>
      </trkpt>
      <trkpt lat="43.87228" lon="6.23989">
        <ele>997.98</ele>
        <time>2022-06-11T08:14:37Z</time>
      </trkpt>
      <trkpt lat="43.87223" lon="6.23998">
        <ele>996.93</ele>
        <time>2022-06-11T08:14:38Z</time>
      </trkpt>
      <trkpt lat="43.87216" lon="6.24005">
        <ele>995.97</ele>
        <time>2022-06-11T08:14:39Z</time>
      </trkpt>
      <trkpt lat="43.87209" lon="6.24011">
        <ele>995.1</ele>
        <time>2022-06-11T08:14:40Z</time>
      </trkpt>
      <trkpt lat="43.87201" lon="6.24017">
        <ele>994.98</ele>
        <time>2022-06-11T08:14:41Z</time>
      </trkpt>
      <trkpt lat="43.87176" lon="6.24038">
        <ele>990.56</ele>
        <time>2022-06-11T08:14:44Z</time>
      </trkpt>
      <trkpt lat="43.87152" lon="6.24061">
        <ele>986.64</ele>
        <time>2022-06-11T08:14:47Z</time>
      </trkpt>
      <trkpt lat="43.8713" lon="6.24088">
        <ele>982.67</ele>
        <time>2022-06-11T08:14:50Z</time>
      </trkpt>
      <trkpt lat="43.87116" lon="6.24104">
        <ele>979.63</ele>
        <time>2022-06-11T08:14:52Z</time>
      </trkpt>
      <trkpt lat="43.871" lon="6.24118">
        <ele>977.97</ele>
        <time>2022-06-11T08:14:54Z</time>
      </trkpt>
      <trkpt lat="43.87082" lon="6.24131">
        <ele>974.27</ele>
        <time>2022-06-11T08:14:56Z</time>
      </trkpt>
      <trkpt lat="43.87053" lon="6.2415">
        <ele>970.15</ele>
        <time>2022-06-11T08:14:59Z</time>
      </trkpt>
      <trkpt lat="43.87044" lon="6.24155">
        <ele>969.36</ele>
        <time>2022-06-11T08:15:00Z</time>
      </trkpt>
      <trkpt lat="43.87034" lon="6.24157">
        <ele>968.07</ele>
        <time>2022-06-11T08:15:01Z</time>
      </trkpt>
      <trkpt lat="43.87024" lon="6.24156">
        <ele>966.71</ele>
        <time>2022-06-11T08:15:02Z</time>
      </trkpt>
      <trkpt lat="43.87015" lon="6.24153">
        <ele>966.63</ele>
        <time>2022-06-11T08:15:03Z</time>
      </trkpt>
      <trkpt lat="43.87006" lon="6.24148">
        <ele>965.06</ele>
        <time>2022-06-11T08:15:04Z</time>
      </trkpt>
      <trkpt lat="43.86997" lon="6.24141">
        <ele>964.97</ele>
        <time>2022-06-11T08:15:05Z</time>
      </trkpt>
      <trkpt lat="43.86989" lon="6.24131">
        <ele>963.09</ele>
        <time>2022-06-11T08:15:06Z</time>
      </trkpt>
      <trkpt lat="43.86981" lon="6.24121">
        <ele>963.03</ele>
        <time>2022-06-11T08:15:07Z</time>
      </trkpt>
      <trkpt lat="43.86921" lon="6.24062">
        <ele>962.88</ele>
        <time>2022-06-11T08:15:13Z</time>
      </trkpt>
      <trkpt lat="43.86841" lon="6.24029">
        <ele>959.34</ele>
        <time>2022-06-11T08:15:20Z</time>
      </trkpt>
      <trkpt lat="43.86829" lon="6.24024">
        <ele>959.26</ele>
        <time>2022-06-11T08:15:21Z</time>
      </trkpt>
      <trkpt lat="43.86819" lon="6.24017">
        <ele>957.72</ele>
        <time>2022-06-11T08:15:22Z</time>
      </trkpt>
      <trkpt lat="43.86809" lon="6.24009">
        <ele>957.75</ele>
        <time>2022-06-11T08:15:23Z</time>
      </trkpt>
      <trkpt lat="43.86777" lon="6.23984">
        <ele>956.26</ele>
        <time>2022-06-11T08:15:26Z</time>
      </trkpt>
      <trkpt lat="43.86745" lon="6.2396">
        <ele>953.53</ele>
        <time>2022-06-11T08:15:29Z</time>
      </trkpt>
      <trkpt lat="43.86734" lon="6.23954">
        <ele>952.09</ele>
        <time>2022-06-11T08:15:30Z</time>
      </trkpt>
      <trkpt lat="43.86723" lon="6.23949">
        <ele>952.05</ele>
        <time>2022-06-11T08:15:31Z</time>
      </trkpt>
      <trkpt lat="43.86678" lon="6.23934">
        <ele>949.86</ele>
        <time>2022-06-11T08:15:35Z</time>
      </trkpt>
      <trkpt lat="43.86667" lon="6.23931">
        <ele>948.97</ele>
        <time>2022-06-11T08:15:36Z</time>
      </trkpt>
      <trkpt lat="43.86655" lon="6.2393">
        <ele>948.07</ele>
        <time>2022-06-11T08:15:37Z</time>
      </trkpt>
      <trkpt lat="43.86644" lon="6.23934">
        <ele>947.99</ele>
        <time>2022-06-11T08:15:38Z</time>
      </trkpt>
      <trkpt lat="43.86633" lon="6.23942">
        <ele>947.17</ele>
        <time>2022-06-11T08:15:39Z</time>
      </trkpt>
      <trkpt lat="43.86623" lon="6.2395">
        <ele>946.21</ele>
        <time>2022-06-11T08:15:40Z</time>
      </trkpt>
      <trkpt lat="43.86613" lon="6.23956">
        <ele>946.21</ele>
        <time>2022-06-11T08:15:41Z</time>
      </trkpt>
      <trkpt lat="43.86603" lon="6.23959">
        <ele>946.2</ele>
        <time>2022-06-11T08:15:42Z</time>
      </trkpt>
      <trkpt lat="43.86593" lon="6.23961">
        <ele>946.17</ele>
        <time>2022-06-11T08:15:43Z</time>
      </trkpt>
      <trkpt lat="43.86584" lon="6.23962">
        <ele>945.25</ele>
        <time>2022-06-11T08:15:44Z</time>
      </trkpt>
      <trkpt lat="43.86577" lon="6.23962">
        <ele>945.15</ele>
        <time>2022-06-11T08:15:45Z</time>
      </trkpt>
      <trkpt lat="43.86514" lon="6.23965">
        <ele>945.41</ele>
        <time>2022-06-11T08:15:52Z</time>
      </trkpt>
      <trkpt lat="43.86504" lon="6.23963">
        <ele>945.44</ele>
        <time>2022-06-11T08:15:53Z</time>
      </trkpt>
      <trkpt lat="43.86484" lon="6.23957">
        <ele>948.15</ele>
        <time>2022-06-11T08:15:55Z</time>
      </trkpt>
      <trkpt lat="43.86464" lon="6.23952">
        <ele>951.33</ele>
        <time>2022-06-11T08:15:57Z</time>
      </trkpt>
      <trkpt lat="43.86445" lon="6.23949">
        <ele>952.75</ele>
        <time>2022-06-11T08:15:59Z</time>
      </trkpt>
      <trkpt lat="43.86413" lon="6.23951">
        <ele>955.94</ele>
        <time>2022-06-11T08:16:02Z</time>
      </trkpt>
      <trkpt lat="43.86402" lon="6.23954">
        <ele>957.34</ele>
        <time>2022-06-11T08:16:03Z</time>
      </trkpt>
      <trkpt lat="43.86371" lon="6.23966">
        <ele>960.15</ele>
        <time>2022-06-11T08:16:06Z</time>
      </trkpt>
      <trkpt lat="43.86343" lon="6.23976">
        <ele>963.99</ele>
        <time>2022-06-11T08:16:09Z</time>
      </trkpt>
      <trkpt lat="43.86316" lon="6.23986">
        <ele>967.58</ele>
        <time>2022-06-11T08:16:12Z</time>
      </trkpt>
      <trkpt lat="43.86309" lon="6.2399">
        <ele>967.59</ele>
        <time>2022-06-11T08:16:13Z</time>
      </trkpt>
      <trkpt lat="43.86279" lon="6.24016">
        <ele>967.74</ele>
        <time>2022-06-11T08:16:17Z</time>
      </trkpt>
      <trkpt lat="43.86272" lon="6.24027">
        <ele>967.69</ele>
        <time>2022-06-11T08:16:18Z</time>
      </trkpt>
      <trkpt lat="43.86259" lon="6.24049">
        <ele>965.27</ele>
        <time>2022-06-11T08:16:20Z</time>
      </trkpt>
      <trkpt lat="43.86238" lon="6.24078">
        <ele>962.35</ele>
        <time>2022-06-11T08:16:23Z</time>
      </trkpt>
      <trkpt lat="43.86231" lon="6.24085">
        <ele>961.54</ele>
        <time>2022-06-11T08:16:24Z</time>
      </trkpt>
      <trkpt lat="43.86222" lon="6.24091">
        <ele>961.55</ele>
        <time>2022-06-11T08:16:25Z</time>
      </trkpt>
      <trkpt lat="43.86213" lon="6.24093">
        <ele>961.53</ele>
        <time>2022-06-11T08:16:26Z</time>
      </trkpt>
      <trkpt lat="43.86203" lon="6.24092">
        <ele>961.49</ele>
        <time>2022-06-11T08:16:27Z</time>
      </trkpt>
      <trkpt lat="43.86194" lon="6.24088">
        <ele>961.52</ele>
        <time>2022-06-11T08:16:28Z</time>
      </trkpt>
      <trkpt lat="43.86184" lon="6.24084">
        <ele>961.53</ele>
        <time>2022-06-11T08:16:29Z</time>
      </trkpt>
      <trkpt lat="43.86157" lon="6.24075">
        <ele>961.51</ele>
        <time>2022-06-11T08:16:32Z</time>
      </trkpt>
      <trkpt lat="43.86148" lon="6.24073">
        <ele>961.52</ele>
        <time>2022-06-11T08:16:33Z</time>
      </trkpt>
      <trkpt lat="43.8608" lon="6.24076">
        <ele>964.3</ele>
        <time>2022-06-11T08:16:40Z</time>
      </trkpt>
      <trkpt lat="43.86051" lon="6.24076">
        <ele>965.58</ele>
        <time>2022-06-11T08:16:43Z</time>
      </trkpt>
      <trkpt lat="43.85974" lon="6.24072">
        <ele>962.64</ele>
        <time>2022-06-11T08:16:53Z</time>
      </trkpt>
      <trkpt lat="43.85965" lon="6.24072">
        <ele>962.64</ele>
        <time>2022-06-11T08:16:54Z</time>
      </trkpt>
      <trkpt lat="43.8589" lon="6.24082">
        <ele>958.96</ele>
        <time>2022-06-11T08:17:03Z</time>
      </trkpt>
      <trkpt lat="43.85829" lon="6.24109">
        <ele>956.12</ele>
        <time>2022-06-11T08:17:10Z</time>
      </trkpt>
      <trkpt lat="43.85802" lon="6.24129">
        <ele>954.74</ele>
        <time>2022-06-11T08:17:13Z</time>
      </trkpt>
      <trkpt lat="43.85766" lon="6.24155">
        <ele>951.84</ele>
        <time>2022-06-11T08:17:17Z</time>
      </trkpt>
      <trkpt lat="43.8575" lon="6.24171">
        <ele>950.26</ele>
        <time>2022-06-11T08:17:19Z</time>
      </trkpt>
      <trkpt lat="43.85743" lon="6.2418">
        <ele>948.24</ele>
        <time>2022-06-11T08:17:20Z</time>
      </trkpt>
      <trkpt lat="43.85737" lon="6.2419">
        <ele>948.3</ele>
        <time>2022-06-11T08:17:21Z</time>
      </trkpt>
      <trkpt lat="43.85731" lon="6.24201">
        <ele>946.93</ele>
        <time>2022-06-11T08:17:22Z</time>
      </trkpt>
      <trkpt lat="43.85726" lon="6.24212">
        <ele>946.94</ele>
        <time>2022-06-11T08:17:23Z</time>
      </trkpt>
      <trkpt lat="43.85722" lon="6.24226">
        <ele>945.99</ele>
        <time>2022-06-11T08:17:24Z</time>
      </trkpt>
      <trkpt lat="43.85718" lon="6.2424">
        <ele>945.08</ele>
        <time>2022-06-11T08:17:25Z</time>
      </trkpt>
      <trkpt lat="43.85714" lon="6.24254">
        <ele>945.12</ele>
        <time>2022-06-11T08:17:26Z</time>
      </trkpt>
      <trkpt lat="43.85711" lon="6.24266">
        <ele>945.14</ele>
        <time>2022-06-11T08:17:27Z</time>
      </trkpt>
      <trkpt lat="43.85682" lon="6.24349">
        <ele>944.36</ele>
        <time>2022-06-11T08:17:34Z</time>
      </trkpt>
      <trkpt lat="43.8568" lon="6.24361">
        <ele>944.38</ele>
        <time>2022-06-11T08:17:35Z</time>
      </trkpt>
      <trkpt lat="43.85676" lon="6.24431">
        <ele>942.79</ele>
        <time>2022-06-11T08:17:41Z</time>
      </trkpt>
      <trkpt lat="43.85674" lon="6.24439">
        <ele>942.22</ele>
        <time>2022-06-11T08:17:42Z</time>
      </trkpt>
      <trkpt lat="43.8567" lon="6.24446">
        <ele>942.23</ele>
        <time>2022-06-11T08:17:43Z</time>
      </trkpt>
      <trkpt lat="43.85665" lon="6.24451">
        <ele>942.23</ele>
        <time>2022-06-11T08:17:44Z</time>
      </trkpt>
      <trkpt lat="43.85658" lon="6.24453">
        <ele>941.26</ele>
        <time>2022-06-11T08:17:45Z</time>
      </trkpt>
      <trkpt lat="43.8565" lon="6.24453">
        <ele>941.24</ele>
        <time>2022-06-11T08:17:46Z</time>
      </trkpt>
      <trkpt lat="43.85641" lon="6.24452">
        <ele>940.23</ele>
        <time>2022-06-11T08:17:47Z</time>
      </trkpt>
      <trkpt lat="43.85598" lon="6.24448">
        <ele>938.41</ele>
        <time>2022-06-11T08:17:52Z</time>
      </trkpt>
      <trkpt lat="43.8559" lon="6.24445">
        <ele>938.4</ele>
        <time>2022-06-11T08:17:53Z</time>
      </trkpt>
      <trkpt lat="43.8557" lon="6.24439">
        <ele>938.42</ele>
        <time>2022-06-11T08:17:56Z</time>
      </trkpt>
      <trkpt lat="43.85563" lon="6.24438">
        <ele>938.44</ele>
        <time>2022-06-11T08:17:57Z</time>
      </trkpt>
      <trkpt lat="43.85555" lon="6.24439">
        <ele>937.64</ele>
        <time>2022-06-11T08:17:58Z</time>
      </trkpt>
      <trkpt lat="43.85509" lon="6.24455">
        <ele>937.71</ele>
        <time>2022-06-11T08:18:04Z</time>
      </trkpt>
      <trkpt lat="43.85501" lon="6.24455">
        <ele>937.72</ele>
        <time>2022-06-11T08:18:05Z</time>
      </trkpt>
      <trkpt lat="43.85493" lon="6.24453">
        <ele>937.75</ele>
        <time>2022-06-11T08:18:06Z</time>
      </trkpt>
      <trkpt lat="43.85485" lon="6.2445">
        <ele>937.75</ele>
        <time>2022-06-11T08:18:07Z</time>
      </trkpt>
      <trkpt lat="43.85476" lon="6.24446">
        <ele>937.83</ele>
        <time>2022-06-11T08:18:08Z</time>
      </trkpt>
      <trkpt lat="43.85467" lon="6.24441">
        <ele>937.84</ele>
        <time>2022-06-11T08:18:09Z</time>
      </trkpt>
      <trkpt lat="43.85423" lon="6.24422">
        <ele>940.24</ele>
        <time>2022-06-11T08:18:14Z</time>
      </trkpt>
      <trkpt lat="43.85415" lon="6.24422">
        <ele>941.58</ele>
        <time>2022-06-11T08:18:15Z</time>
      </trkpt>
      <trkpt lat="43.85406" lon="6.24425">
        <ele>941.6</ele>
        <time>2022-06-11T08:18:16Z</time>
      </trkpt>
      <trkpt lat="43.85386" lon="6.24434">
        <ele>944.74</ele>
        <time>2022-06-11T08:18:18Z</time>
      </trkpt>
      <trkpt lat="43.85366" lon="6.24444">
        <ele>945.65</ele>
        <time>2022-06-11T08:18:20Z</time>
      </trkpt>
      <trkpt lat="43.85346" lon="6.24454">
        <ele>948</ele>
        <time>2022-06-11T08:18:22Z</time>
      </trkpt>
      <trkpt lat="43.85309" lon="6.24476">
        <ele>950.22</ele>
        <time>2022-06-11T08:18:26Z</time>
      </trkpt>
      <trkpt lat="43.85202" lon="6.24544">
        <ele>951.07</ele>
        <time>2022-06-11T08:18:40Z</time>
      </trkpt>
      <trkpt lat="43.8517" lon="6.2457">
        <ele>948.7</ele>
        <time>2022-06-11T08:18:44Z</time>
      </trkpt>
      <trkpt lat="43.85097" lon="6.24634">
        <ele>947.79</ele>
        <time>2022-06-11T08:18:54Z</time>
      </trkpt>
      <trkpt lat="43.85019" lon="6.24681">
        <ele>950.19</ele>
        <time>2022-06-11T08:19:03Z</time>
      </trkpt>
      <trkpt lat="43.85002" lon="6.24692">
        <ele>951.74</ele>
        <time>2022-06-11T08:19:05Z</time>
      </trkpt>
      <trkpt lat="43.84976" lon="6.24709">
        <ele>953.49</ele>
        <time>2022-06-11T08:19:08Z</time>
      </trkpt>
      <trkpt lat="43.8495" lon="6.24727">
        <ele>955.54</ele>
        <time>2022-06-11T08:19:11Z</time>
      </trkpt>
      <trkpt lat="43.84924" lon="6.24742">
        <ele>957.29</ele>
        <time>2022-06-11T08:19:14Z</time>
      </trkpt>
      <trkpt lat="43.84906" lon="6.24749">
        <ele>958.76</ele>
        <time>2022-06-11T08:19:16Z</time>
      </trkpt>
      <trkpt lat="43.84878" lon="6.24754">
        <ele>960.85</ele>
        <time>2022-06-11T08:19:19Z</time>
      </trkpt>
      <trkpt lat="43.84842" lon="6.24752">
        <ele>960.75</ele>
        <time>2022-06-11T08:19:23Z</time>
      </trkpt>
      <trkpt lat="43.84834" lon="6.24754">
        <ele>960.69</ele>
        <time>2022-06-11T08:19:24Z</time>
      </trkpt>
      <trkpt lat="43.84826" lon="6.24757">
        <ele>960.44</ele>
        <time>2022-06-11T08:19:25Z</time>
      </trkpt>
      <trkpt lat="43.84796" lon="6.24771">
        <ele>957.88</ele>
        <time>2022-06-11T08:19:29Z</time>
      </trkpt>
      <trkpt lat="43.84772" lon="6.24784">
        <ele>954.72</ele>
        <time>2022-06-11T08:19:32Z</time>
      </trkpt>
      <trkpt lat="43.84764" lon="6.24788">
        <ele>954.68</ele>
        <time>2022-06-11T08:19:33Z</time>
      </trkpt>
      <trkpt lat="43.84739" lon="6.24801">
        <ele>952.45</ele>
        <time>2022-06-11T08:19:36Z</time>
      </trkpt>
      <trkpt lat="43.84714" lon="6.24814">
        <ele>949</ele>
        <time>2022-06-11T08:19:39Z</time>
      </trkpt>
      <trkpt lat="43.84706" lon="6.24818">
        <ele>948.98</ele>
        <time>2022-06-11T08:19:40Z</time>
      </trkpt>
      <trkpt lat="43.84689" lon="6.24827">
        <ele>947.46</ele>
        <time>2022-06-11T08:19:42Z</time>
      </trkpt>
      <trkpt lat="43.84672" lon="6.24836">
        <ele>946.06</ele>
        <time>2022-06-11T08:19:44Z</time>
      </trkpt>
      <trkpt lat="43.84647" lon="6.24849">
        <ele>943.66</ele>
        <time>2022-06-11T08:19:47Z</time>
      </trkpt>
      <trkpt lat="43.8463" lon="6.24858">
        <ele>941.97</ele>
        <time>2022-06-11T08:19:49Z</time>
      </trkpt>
      <trkpt lat="43.84612" lon="6.24867">
        <ele>940.6</ele>
        <time>2022-06-11T08:19:51Z</time>
      </trkpt>
      <trkpt lat="43.84593" lon="6.24876">
        <ele>939.4</ele>
        <time>2022-06-11T08:19:53Z</time>
      </trkpt>
      <trkpt lat="43.84566" lon="6.24884">
        <ele>936.95</ele>
        <time>2022-06-11T08:19:56Z</time>
      </trkpt>
      <trkpt lat="43.8456" lon="6.24887">
        <ele>935.95</ele>
        <time>2022-06-11T08:19:57Z</time>
      </trkpt>
      <trkpt lat="43.84554" lon="6.24891">
        <ele>936.04</ele>
        <time>2022-06-11T08:19:58Z</time>
      </trkpt>
      <trkpt lat="43.84534" lon="6.24907">
        <ele>933.78</ele>
        <time>2022-06-11T08:20:02Z</time>
      </trkpt>
      <trkpt lat="43.8453" lon="6.24913">
        <ele>932.62</ele>
        <time>2022-06-11T08:20:03Z</time>
      </trkpt>
      <trkpt lat="43.84507" lon="6.24953">
        <ele>930.52</ele>
        <time>2022-06-11T08:20:09Z</time>
      </trkpt>
    </trkseg>
  </trk>
</gpx>